<?xml version="1.0" encoding="UTF-8" standalone="no" ?>
<gpx xmlns="http://www.topografix.com/GPX/1/1" xmlns:xsi="http://www.w3.org/2001/XMLSchema-instance" xsi:schemaLocation="http://www.topografix.com/GPX/1/1 http://www.topografix.com/GPX/1/1/gpx.xsd" version="1.1" creator="VisuGPX - https://www.visugpx.com">
  <metadata>
    <name>Gr20 étape 11</name>
    <desc><![CDATA[De Usciolu à Asinau]]></desc>
  </metadata>
  <trk>
    <name><![CDATA[2015-09-14 17:53:23]]></name>
    <trkseg>
      <trkpt lat="41.93427" lon="9.20517">
        <ele>1701.19</ele>
        <time>2015-09-14T04:35:55Z</time>
      </trkpt>
      <trkpt lat="41.93427" lon="9.20517">
        <ele>1701.19</ele>
        <time>2015-09-14T04:35:56Z</time>
      </trkpt>
      <trkpt lat="41.93427" lon="9.20516">
        <ele>1664.66</ele>
        <time>2015-09-14T04:35:59Z</time>
      </trkpt>
      <trkpt lat="41.93427" lon="9.20516">
        <ele>1664.66</ele>
        <time>2015-09-14T04:36:00Z</time>
      </trkpt>
      <trkpt lat="41.9343" lon="9.20516">
        <ele>1665.14</ele>
        <time>2015-09-14T04:36:28Z</time>
      </trkpt>
      <trkpt lat="41.93428" lon="9.20521">
        <ele>1666.58</ele>
        <time>2015-09-14T04:36:48Z</time>
      </trkpt>
      <trkpt lat="41.93428" lon="9.20519">
        <ele>1664.18</ele>
        <time>2015-09-14T04:37:26Z</time>
      </trkpt>
      <trkpt lat="41.93429" lon="9.20521">
        <ele>1667.06</ele>
        <time>2015-09-14T04:37:50Z</time>
      </trkpt>
      <trkpt lat="41.93428" lon="9.20517">
        <ele>1666.1</ele>
        <time>2015-09-14T04:38:15Z</time>
      </trkpt>
      <trkpt lat="41.93428" lon="9.2051">
        <ele>1666.58</ele>
        <time>2015-09-14T04:38:21Z</time>
      </trkpt>
      <trkpt lat="41.93416" lon="9.20495">
        <ele>1665.62</ele>
        <time>2015-09-14T04:38:38Z</time>
      </trkpt>
      <trkpt lat="41.93417" lon="9.20481">
        <ele>1665.62</ele>
        <time>2015-09-14T04:38:56Z</time>
      </trkpt>
      <trkpt lat="41.93423" lon="9.2048">
        <ele>1665.62</ele>
        <time>2015-09-14T04:39:12Z</time>
      </trkpt>
      <trkpt lat="41.93421" lon="9.20483">
        <ele>1665.62</ele>
        <time>2015-09-14T04:39:38Z</time>
      </trkpt>
      <trkpt lat="41.93398" lon="9.20476">
        <ele>1665.14</ele>
        <time>2015-09-14T04:40:04Z</time>
      </trkpt>
      <trkpt lat="41.93425" lon="9.20481">
        <ele>1666.58</ele>
        <time>2015-09-14T04:40:12Z</time>
      </trkpt>
      <trkpt lat="41.93427" lon="9.20483">
        <ele>1665.62</ele>
        <time>2015-09-14T04:40:48Z</time>
      </trkpt>
      <trkpt lat="41.9343" lon="9.20485">
        <ele>1666.1</ele>
        <time>2015-09-14T04:41:24Z</time>
      </trkpt>
      <trkpt lat="41.93435" lon="9.20486">
        <ele>1666.58</ele>
        <time>2015-09-14T04:41:40Z</time>
      </trkpt>
      <trkpt lat="41.93435" lon="9.20487">
        <ele>1667.54</ele>
        <time>2015-09-14T04:41:43Z</time>
      </trkpt>
      <trkpt lat="41.93439" lon="9.20492">
        <ele>1669.95</ele>
        <time>2015-09-14T04:42:03Z</time>
      </trkpt>
      <trkpt lat="41.9345" lon="9.20495">
        <ele>1672.83</ele>
        <time>2015-09-14T04:42:23Z</time>
      </trkpt>
      <trkpt lat="41.93453" lon="9.20492">
        <ele>1675.23</ele>
        <time>2015-09-14T04:42:46Z</time>
      </trkpt>
      <trkpt lat="41.93446" lon="9.20496">
        <ele>1671.87</ele>
        <time>2015-09-14T04:43:03Z</time>
      </trkpt>
      <trkpt lat="41.93441" lon="9.20503">
        <ele>1670.91</ele>
        <time>2015-09-14T04:43:19Z</time>
      </trkpt>
      <trkpt lat="41.9344" lon="9.20504">
        <ele>1672.35</ele>
        <time>2015-09-14T04:43:22Z</time>
      </trkpt>
      <trkpt lat="41.93432" lon="9.20499">
        <ele>1672.83</ele>
        <time>2015-09-14T04:43:35Z</time>
      </trkpt>
      <trkpt lat="41.93429" lon="9.20514">
        <ele>1674.75</ele>
        <time>2015-09-14T04:43:54Z</time>
      </trkpt>
      <trkpt lat="41.93409" lon="9.20513">
        <ele>1668.02</ele>
        <time>2015-09-14T04:44:44Z</time>
      </trkpt>
      <trkpt lat="41.93409" lon="9.20513">
        <ele>1668.02</ele>
        <time>2015-09-14T04:44:45Z</time>
      </trkpt>
      <trkpt lat="41.93409" lon="9.20488">
        <ele>1666.1</ele>
        <time>2015-09-14T04:45:07Z</time>
      </trkpt>
      <trkpt lat="41.93419" lon="9.20505">
        <ele>1665.14</ele>
        <time>2015-09-14T04:45:40Z</time>
      </trkpt>
      <trkpt lat="41.93423" lon="9.20503">
        <ele>1663.22</ele>
        <time>2015-09-14T04:46:00Z</time>
      </trkpt>
      <trkpt lat="41.93426" lon="9.20508">
        <ele>1663.22</ele>
        <time>2015-09-14T04:46:21Z</time>
      </trkpt>
      <trkpt lat="41.93428" lon="9.20505">
        <ele>1663.22</ele>
        <time>2015-09-14T04:46:40Z</time>
      </trkpt>
      <trkpt lat="41.93425" lon="9.20507">
        <ele>1665.14</ele>
        <time>2015-09-14T04:47:05Z</time>
      </trkpt>
      <trkpt lat="41.93427" lon="9.20506">
        <ele>1664.18</ele>
        <time>2015-09-14T04:47:29Z</time>
      </trkpt>
      <trkpt lat="41.93428" lon="9.20498">
        <ele>1665.62</ele>
        <time>2015-09-14T04:47:52Z</time>
      </trkpt>
      <trkpt lat="41.93427" lon="9.20506">
        <ele>1665.62</ele>
        <time>2015-09-14T04:48:11Z</time>
      </trkpt>
      <trkpt lat="41.93428" lon="9.20508">
        <ele>1668.99</ele>
        <time>2015-09-14T04:48:14Z</time>
      </trkpt>
      <trkpt lat="41.93429" lon="9.20509">
        <ele>1669.95</ele>
        <time>2015-09-14T04:48:16Z</time>
      </trkpt>
      <trkpt lat="41.93429" lon="9.2051">
        <ele>1673.79</ele>
        <time>2015-09-14T04:48:20Z</time>
      </trkpt>
      <trkpt lat="41.93429" lon="9.2051">
        <ele>1677.16</ele>
        <time>2015-09-14T04:48:26Z</time>
      </trkpt>
      <trkpt lat="41.93429" lon="9.20511">
        <ele>1680.04</ele>
        <time>2015-09-14T04:48:31Z</time>
      </trkpt>
      <trkpt lat="41.93428" lon="9.20513">
        <ele>1683.41</ele>
        <time>2015-09-14T04:48:37Z</time>
      </trkpt>
      <trkpt lat="41.93428" lon="9.20514">
        <ele>1686.77</ele>
        <time>2015-09-14T04:48:45Z</time>
      </trkpt>
      <trkpt lat="41.9343" lon="9.20512">
        <ele>1689.65</ele>
        <time>2015-09-14T04:49:03Z</time>
      </trkpt>
      <trkpt lat="41.9343" lon="9.20514">
        <ele>1693.02</ele>
        <time>2015-09-14T04:49:18Z</time>
      </trkpt>
      <trkpt lat="41.9343" lon="9.20511">
        <ele>1694.46</ele>
        <time>2015-09-14T04:49:49Z</time>
      </trkpt>
      <trkpt lat="41.93429" lon="9.20508">
        <ele>1694.46</ele>
        <time>2015-09-14T04:50:07Z</time>
      </trkpt>
      <trkpt lat="41.93426" lon="9.20506">
        <ele>1692.54</ele>
        <time>2015-09-14T04:50:25Z</time>
      </trkpt>
      <trkpt lat="41.93426" lon="9.20505">
        <ele>1692.54</ele>
        <time>2015-09-14T04:50:26Z</time>
      </trkpt>
      <trkpt lat="41.93426" lon="9.20506">
        <ele>1693.98</ele>
        <time>2015-09-14T04:50:34Z</time>
      </trkpt>
      <trkpt lat="41.93427" lon="9.20507">
        <ele>1693.02</ele>
        <time>2015-09-14T04:50:36Z</time>
      </trkpt>
      <trkpt lat="41.9343" lon="9.20514">
        <ele>1694.94</ele>
        <time>2015-09-14T04:51:08Z</time>
      </trkpt>
      <trkpt lat="41.93429" lon="9.20514">
        <ele>1695.42</ele>
        <time>2015-09-14T04:51:27Z</time>
      </trkpt>
      <trkpt lat="41.9343" lon="9.2052">
        <ele>1693.5</ele>
        <time>2015-09-14T04:51:53Z</time>
      </trkpt>
      <trkpt lat="41.93433" lon="9.20515">
        <ele>1695.42</ele>
        <time>2015-09-14T04:52:19Z</time>
      </trkpt>
      <trkpt lat="41.93432" lon="9.20517">
        <ele>1695.42</ele>
        <time>2015-09-14T04:52:38Z</time>
      </trkpt>
      <trkpt lat="41.93433" lon="9.20518">
        <ele>1693.5</ele>
        <time>2015-09-14T04:53:01Z</time>
      </trkpt>
      <trkpt lat="41.9343" lon="9.20512">
        <ele>1693.5</ele>
        <time>2015-09-14T04:53:27Z</time>
      </trkpt>
      <trkpt lat="41.93433" lon="9.20511">
        <ele>1694.46</ele>
        <time>2015-09-14T04:53:53Z</time>
      </trkpt>
      <trkpt lat="41.93433" lon="9.20515">
        <ele>1694.94</ele>
        <time>2015-09-14T04:54:17Z</time>
      </trkpt>
      <trkpt lat="41.9343" lon="9.20508">
        <ele>1693.98</ele>
        <time>2015-09-14T04:54:43Z</time>
      </trkpt>
      <trkpt lat="41.93441" lon="9.2051">
        <ele>1693.98</ele>
        <time>2015-09-14T04:55:07Z</time>
      </trkpt>
      <trkpt lat="41.93442" lon="9.20513">
        <ele>1692.54</ele>
        <time>2015-09-14T04:55:35Z</time>
      </trkpt>
      <trkpt lat="41.93445" lon="9.2051">
        <ele>1693.98</ele>
        <time>2015-09-14T04:56:00Z</time>
      </trkpt>
      <trkpt lat="41.93435" lon="9.20512">
        <ele>1692.54</ele>
        <time>2015-09-14T04:56:14Z</time>
      </trkpt>
      <trkpt lat="41.93432" lon="9.20515">
        <ele>1692.06</ele>
        <time>2015-09-14T04:56:36Z</time>
      </trkpt>
      <trkpt lat="41.93433" lon="9.20515">
        <ele>1692.06</ele>
        <time>2015-09-14T04:56:52Z</time>
      </trkpt>
      <trkpt lat="41.93431" lon="9.20516">
        <ele>1692.06</ele>
        <time>2015-09-14T04:57:10Z</time>
      </trkpt>
      <trkpt lat="41.9343" lon="9.20516">
        <ele>1693.5</ele>
        <time>2015-09-14T04:57:32Z</time>
      </trkpt>
      <trkpt lat="41.93427" lon="9.20515">
        <ele>1693.98</ele>
        <time>2015-09-14T04:57:57Z</time>
      </trkpt>
      <trkpt lat="41.93426" lon="9.20514">
        <ele>1695.42</ele>
        <time>2015-09-14T04:58:22Z</time>
      </trkpt>
      <trkpt lat="41.93427" lon="9.20514">
        <ele>1698.31</ele>
        <time>2015-09-14T04:58:49Z</time>
      </trkpt>
      <trkpt lat="41.93426" lon="9.20515">
        <ele>1699.27</ele>
        <time>2015-09-14T04:59:13Z</time>
      </trkpt>
      <trkpt lat="41.93425" lon="9.20511">
        <ele>1699.27</ele>
        <time>2015-09-14T04:59:39Z</time>
      </trkpt>
      <trkpt lat="41.93424" lon="9.2051">
        <ele>1697.83</ele>
        <time>2015-09-14T04:59:46Z</time>
      </trkpt>
      <trkpt lat="41.93426" lon="9.20512">
        <ele>1695.9</ele>
        <time>2015-09-14T05:00:10Z</time>
      </trkpt>
      <trkpt lat="41.93423" lon="9.20509">
        <ele>1695.42</ele>
        <time>2015-09-14T05:00:44Z</time>
      </trkpt>
      <trkpt lat="41.93423" lon="9.20509">
        <ele>1694.94</ele>
        <time>2015-09-14T05:01:24Z</time>
      </trkpt>
      <trkpt lat="41.93423" lon="9.20508">
        <ele>1698.31</ele>
        <time>2015-09-14T05:01:44Z</time>
      </trkpt>
      <trkpt lat="41.93427" lon="9.20513">
        <ele>1700.71</ele>
        <time>2015-09-14T05:02:14Z</time>
      </trkpt>
      <trkpt lat="41.93426" lon="9.20514">
        <ele>1698.79</ele>
        <time>2015-09-14T05:02:40Z</time>
      </trkpt>
      <trkpt lat="41.93425" lon="9.20513">
        <ele>1697.34</ele>
        <time>2015-09-14T05:03:08Z</time>
      </trkpt>
      <trkpt lat="41.93424" lon="9.2051">
        <ele>1697.83</ele>
        <time>2015-09-14T05:03:37Z</time>
      </trkpt>
      <trkpt lat="41.93424" lon="9.20514">
        <ele>1697.83</ele>
        <time>2015-09-14T05:04:08Z</time>
      </trkpt>
      <trkpt lat="41.93429" lon="9.20512">
        <ele>1696.86</ele>
        <time>2015-09-14T05:04:28Z</time>
      </trkpt>
      <trkpt lat="41.93428" lon="9.20511">
        <ele>1697.34</ele>
        <time>2015-09-14T05:04:44Z</time>
      </trkpt>
      <trkpt lat="41.9343" lon="9.20514">
        <ele>1699.27</ele>
        <time>2015-09-14T05:05:16Z</time>
      </trkpt>
      <trkpt lat="41.93437" lon="9.20519">
        <ele>1699.75</ele>
        <time>2015-09-14T05:05:53Z</time>
      </trkpt>
      <trkpt lat="41.93432" lon="9.20515">
        <ele>1699.75</ele>
        <time>2015-09-14T05:06:16Z</time>
      </trkpt>
      <trkpt lat="41.93433" lon="9.20515">
        <ele>1698.31</ele>
        <time>2015-09-14T05:06:18Z</time>
      </trkpt>
      <trkpt lat="41.93429" lon="9.20514">
        <ele>1699.75</ele>
        <time>2015-09-14T05:06:51Z</time>
      </trkpt>
      <trkpt lat="41.93425" lon="9.20513">
        <ele>1700.23</ele>
        <time>2015-09-14T05:07:14Z</time>
      </trkpt>
      <trkpt lat="41.93426" lon="9.2051">
        <ele>1700.71</ele>
        <time>2015-09-14T05:07:41Z</time>
      </trkpt>
      <trkpt lat="41.93426" lon="9.20513">
        <ele>1699.27</ele>
        <time>2015-09-14T05:08:09Z</time>
      </trkpt>
      <trkpt lat="41.93426" lon="9.20516">
        <ele>1698.79</ele>
        <time>2015-09-14T05:08:36Z</time>
      </trkpt>
      <trkpt lat="41.93425" lon="9.20513">
        <ele>1700.23</ele>
        <time>2015-09-14T05:09:08Z</time>
      </trkpt>
      <trkpt lat="41.93426" lon="9.20506">
        <ele>1701.19</ele>
        <time>2015-09-14T05:09:29Z</time>
      </trkpt>
      <trkpt lat="41.93426" lon="9.20511">
        <ele>1701.19</ele>
        <time>2015-09-14T05:09:53Z</time>
      </trkpt>
      <trkpt lat="41.93427" lon="9.20516">
        <ele>1701.19</ele>
        <time>2015-09-14T05:10:29Z</time>
      </trkpt>
      <trkpt lat="41.93425" lon="9.20511">
        <ele>1701.19</ele>
        <time>2015-09-14T05:10:51Z</time>
      </trkpt>
      <trkpt lat="41.93426" lon="9.20512">
        <ele>1700.23</ele>
        <time>2015-09-14T05:11:18Z</time>
      </trkpt>
      <trkpt lat="41.93427" lon="9.20511">
        <ele>1699.75</ele>
        <time>2015-09-14T05:11:34Z</time>
      </trkpt>
      <trkpt lat="41.93436" lon="9.20516">
        <ele>1703.11</ele>
        <time>2015-09-14T05:11:49Z</time>
      </trkpt>
      <trkpt lat="41.93441" lon="9.20525">
        <ele>1706</ele>
        <time>2015-09-14T05:12:08Z</time>
      </trkpt>
      <trkpt lat="41.93448" lon="9.20528">
        <ele>1707.92</ele>
        <time>2015-09-14T05:12:26Z</time>
      </trkpt>
      <trkpt lat="41.93454" lon="9.20531">
        <ele>1709.36</ele>
        <time>2015-09-14T05:12:45Z</time>
      </trkpt>
      <trkpt lat="41.93464" lon="9.20537">
        <ele>1710.8</ele>
        <time>2015-09-14T05:13:10Z</time>
      </trkpt>
      <trkpt lat="41.93473" lon="9.2054">
        <ele>1711.76</ele>
        <time>2015-09-14T05:13:29Z</time>
      </trkpt>
      <trkpt lat="41.9348" lon="9.20548">
        <ele>1712.73</ele>
        <time>2015-09-14T05:13:44Z</time>
      </trkpt>
      <trkpt lat="41.93484" lon="9.20556">
        <ele>1714.65</ele>
        <time>2015-09-14T05:14:03Z</time>
      </trkpt>
      <trkpt lat="41.93487" lon="9.20566">
        <ele>1718.01</ele>
        <time>2015-09-14T05:14:23Z</time>
      </trkpt>
      <trkpt lat="41.93492" lon="9.20572">
        <ele>1720.9</ele>
        <time>2015-09-14T05:14:38Z</time>
      </trkpt>
      <trkpt lat="41.93493" lon="9.20582">
        <ele>1722.34</ele>
        <time>2015-09-14T05:14:55Z</time>
      </trkpt>
      <trkpt lat="41.93494" lon="9.20589">
        <ele>1723.78</ele>
        <time>2015-09-14T05:15:14Z</time>
      </trkpt>
      <trkpt lat="41.93499" lon="9.20594">
        <ele>1725.22</ele>
        <time>2015-09-14T05:15:30Z</time>
      </trkpt>
      <trkpt lat="41.93503" lon="9.20604">
        <ele>1726.18</ele>
        <time>2015-09-14T05:15:48Z</time>
      </trkpt>
      <trkpt lat="41.93504" lon="9.20604">
        <ele>1726.67</ele>
        <time>2015-09-14T05:16:10Z</time>
      </trkpt>
      <trkpt lat="41.93505" lon="9.20604">
        <ele>1727.15</ele>
        <time>2015-09-14T05:16:43Z</time>
      </trkpt>
      <trkpt lat="41.93503" lon="9.20609">
        <ele>1728.11</ele>
        <time>2015-09-14T05:17:02Z</time>
      </trkpt>
      <trkpt lat="41.93504" lon="9.20609">
        <ele>1728.11</ele>
        <time>2015-09-14T05:17:32Z</time>
      </trkpt>
      <trkpt lat="41.93501" lon="9.20613">
        <ele>1726.67</ele>
        <time>2015-09-14T05:17:57Z</time>
      </trkpt>
      <trkpt lat="41.93501" lon="9.20617">
        <ele>1725.7</ele>
        <time>2015-09-14T05:18:28Z</time>
      </trkpt>
      <trkpt lat="41.93501" lon="9.20616">
        <ele>1727.15</ele>
        <time>2015-09-14T05:18:43Z</time>
      </trkpt>
      <trkpt lat="41.93503" lon="9.20616">
        <ele>1727.63</ele>
        <time>2015-09-14T05:19:04Z</time>
      </trkpt>
      <trkpt lat="41.93505" lon="9.20622">
        <ele>1729.07</ele>
        <time>2015-09-14T05:19:24Z</time>
      </trkpt>
      <trkpt lat="41.93503" lon="9.20612">
        <ele>1730.51</ele>
        <time>2015-09-14T05:19:51Z</time>
      </trkpt>
      <trkpt lat="41.93504" lon="9.20613">
        <ele>1729.07</ele>
        <time>2015-09-14T05:20:02Z</time>
      </trkpt>
      <trkpt lat="41.93505" lon="9.20606">
        <ele>1727.63</ele>
        <time>2015-09-14T05:20:23Z</time>
      </trkpt>
      <trkpt lat="41.93504" lon="9.206">
        <ele>1729.07</ele>
        <time>2015-09-14T05:20:39Z</time>
      </trkpt>
      <trkpt lat="41.93505" lon="9.20602">
        <ele>1730.03</ele>
        <time>2015-09-14T05:21:02Z</time>
      </trkpt>
      <trkpt lat="41.93503" lon="9.20602">
        <ele>1730.03</ele>
        <time>2015-09-14T05:21:28Z</time>
      </trkpt>
      <trkpt lat="41.93503" lon="9.20602">
        <ele>1729.07</ele>
        <time>2015-09-14T05:21:39Z</time>
      </trkpt>
      <trkpt lat="41.93504" lon="9.20602">
        <ele>1726.67</ele>
        <time>2015-09-14T05:22:16Z</time>
      </trkpt>
      <trkpt lat="41.93506" lon="9.20601">
        <ele>1728.59</ele>
        <time>2015-09-14T05:22:45Z</time>
      </trkpt>
      <trkpt lat="41.93506" lon="9.20601">
        <ele>1727.63</ele>
        <time>2015-09-14T05:23:15Z</time>
      </trkpt>
      <trkpt lat="41.93506" lon="9.20603">
        <ele>1728.11</ele>
        <time>2015-09-14T05:23:45Z</time>
      </trkpt>
      <trkpt lat="41.93505" lon="9.20601">
        <ele>1730.03</ele>
        <time>2015-09-14T05:24:05Z</time>
      </trkpt>
      <trkpt lat="41.93507" lon="9.20608">
        <ele>1729.07</ele>
        <time>2015-09-14T05:24:22Z</time>
      </trkpt>
      <trkpt lat="41.93512" lon="9.20623">
        <ele>1728.11</ele>
        <time>2015-09-14T05:24:38Z</time>
      </trkpt>
      <trkpt lat="41.93517" lon="9.20634">
        <ele>1728.11</ele>
        <time>2015-09-14T05:25:00Z</time>
      </trkpt>
      <trkpt lat="41.93517" lon="9.20633">
        <ele>1729.55</ele>
        <time>2015-09-14T05:25:05Z</time>
      </trkpt>
      <trkpt lat="41.93513" lon="9.20621">
        <ele>1729.55</ele>
        <time>2015-09-14T05:25:24Z</time>
      </trkpt>
      <trkpt lat="41.93508" lon="9.2061">
        <ele>1729.55</ele>
        <time>2015-09-14T05:25:40Z</time>
      </trkpt>
      <trkpt lat="41.93507" lon="9.20608">
        <ele>1728.11</ele>
        <time>2015-09-14T05:25:44Z</time>
      </trkpt>
      <trkpt lat="41.93509" lon="9.20596">
        <ele>1728.11</ele>
        <time>2015-09-14T05:26:02Z</time>
      </trkpt>
      <trkpt lat="41.93511" lon="9.20596">
        <ele>1729.07</ele>
        <time>2015-09-14T05:26:10Z</time>
      </trkpt>
      <trkpt lat="41.93506" lon="9.20596">
        <ele>1730.51</ele>
        <time>2015-09-14T05:26:39Z</time>
      </trkpt>
      <trkpt lat="41.93506" lon="9.20594">
        <ele>1729.07</ele>
        <time>2015-09-14T05:27:11Z</time>
      </trkpt>
      <trkpt lat="41.9351" lon="9.20599">
        <ele>1728.59</ele>
        <time>2015-09-14T05:27:36Z</time>
      </trkpt>
      <trkpt lat="41.93508" lon="9.20595">
        <ele>1728.59</ele>
        <time>2015-09-14T05:28:12Z</time>
      </trkpt>
      <trkpt lat="41.93507" lon="9.20596">
        <ele>1730.03</ele>
        <time>2015-09-14T05:28:50Z</time>
      </trkpt>
      <trkpt lat="41.93507" lon="9.20599">
        <ele>1729.07</ele>
        <time>2015-09-14T05:29:25Z</time>
      </trkpt>
      <trkpt lat="41.93505" lon="9.20597">
        <ele>1730.03</ele>
        <time>2015-09-14T05:29:34Z</time>
      </trkpt>
      <trkpt lat="41.93508" lon="9.20603">
        <ele>1730.51</ele>
        <time>2015-09-14T05:29:54Z</time>
      </trkpt>
      <trkpt lat="41.93511" lon="9.20598">
        <ele>1729.55</ele>
        <time>2015-09-14T05:30:19Z</time>
      </trkpt>
      <trkpt lat="41.93509" lon="9.20611">
        <ele>1729.55</ele>
        <time>2015-09-14T05:30:37Z</time>
      </trkpt>
      <trkpt lat="41.93509" lon="9.2062">
        <ele>1730.99</ele>
        <time>2015-09-14T05:30:45Z</time>
      </trkpt>
      <trkpt lat="41.93517" lon="9.20628">
        <ele>1732.91</ele>
        <time>2015-09-14T05:31:05Z</time>
      </trkpt>
      <trkpt lat="41.93516" lon="9.20626">
        <ele>1732.91</ele>
        <time>2015-09-14T05:31:26Z</time>
      </trkpt>
      <trkpt lat="41.93509" lon="9.20609">
        <ele>1731.95</ele>
        <time>2015-09-14T05:31:44Z</time>
      </trkpt>
      <trkpt lat="41.9351" lon="9.20596">
        <ele>1731.47</ele>
        <time>2015-09-14T05:32:04Z</time>
      </trkpt>
      <trkpt lat="41.93517" lon="9.20589">
        <ele>1731.47</ele>
        <time>2015-09-14T05:32:23Z</time>
      </trkpt>
      <trkpt lat="41.93522" lon="9.20579">
        <ele>1730.99</ele>
        <time>2015-09-14T05:32:41Z</time>
      </trkpt>
      <trkpt lat="41.93526" lon="9.20568">
        <ele>1732.91</ele>
        <time>2015-09-14T05:33:00Z</time>
      </trkpt>
      <trkpt lat="41.93524" lon="9.20556">
        <ele>1731.47</ele>
        <time>2015-09-14T05:33:12Z</time>
      </trkpt>
      <trkpt lat="41.93522" lon="9.20542">
        <ele>1732.91</ele>
        <time>2015-09-14T05:33:30Z</time>
      </trkpt>
      <trkpt lat="41.93522" lon="9.2053">
        <ele>1735.32</ele>
        <time>2015-09-14T05:33:48Z</time>
      </trkpt>
      <trkpt lat="41.93521" lon="9.20525">
        <ele>1738.2</ele>
        <time>2015-09-14T05:34:08Z</time>
      </trkpt>
      <trkpt lat="41.93521" lon="9.20516">
        <ele>1739.64</ele>
        <time>2015-09-14T05:34:28Z</time>
      </trkpt>
      <trkpt lat="41.93519" lon="9.20508">
        <ele>1742.05</ele>
        <time>2015-09-14T05:34:47Z</time>
      </trkpt>
      <trkpt lat="41.93517" lon="9.205">
        <ele>1743.01</ele>
        <time>2015-09-14T05:35:06Z</time>
      </trkpt>
      <trkpt lat="41.93515" lon="9.20492">
        <ele>1746.37</ele>
        <time>2015-09-14T05:35:27Z</time>
      </trkpt>
      <trkpt lat="41.93511" lon="9.20486">
        <ele>1748.29</ele>
        <time>2015-09-14T05:35:43Z</time>
      </trkpt>
      <trkpt lat="41.93512" lon="9.20477">
        <ele>1750.7</ele>
        <time>2015-09-14T05:36:01Z</time>
      </trkpt>
      <trkpt lat="41.93511" lon="9.2047">
        <ele>1754.06</ele>
        <time>2015-09-14T05:36:20Z</time>
      </trkpt>
      <trkpt lat="41.93507" lon="9.20465">
        <ele>1753.58</ele>
        <time>2015-09-14T05:36:31Z</time>
      </trkpt>
      <trkpt lat="41.93506" lon="9.20449">
        <ele>1754.54</ele>
        <time>2015-09-14T05:36:51Z</time>
      </trkpt>
      <trkpt lat="41.935" lon="9.20436">
        <ele>1755.99</ele>
        <time>2015-09-14T05:37:11Z</time>
      </trkpt>
      <trkpt lat="41.93491" lon="9.20427">
        <ele>1756.95</ele>
        <time>2015-09-14T05:37:28Z</time>
      </trkpt>
      <trkpt lat="41.93482" lon="9.20419">
        <ele>1756.95</ele>
        <time>2015-09-14T05:37:46Z</time>
      </trkpt>
      <trkpt lat="41.93478" lon="9.20419">
        <ele>1756.95</ele>
        <time>2015-09-14T05:38:08Z</time>
      </trkpt>
      <trkpt lat="41.93472" lon="9.20413">
        <ele>1756.95</ele>
        <time>2015-09-14T05:38:29Z</time>
      </trkpt>
      <trkpt lat="41.93465" lon="9.20401">
        <ele>1758.39</ele>
        <time>2015-09-14T05:38:47Z</time>
      </trkpt>
      <trkpt lat="41.93466" lon="9.20397">
        <ele>1761.27</ele>
        <time>2015-09-14T05:39:05Z</time>
      </trkpt>
      <trkpt lat="41.93465" lon="9.20391">
        <ele>1763.68</ele>
        <time>2015-09-14T05:39:32Z</time>
      </trkpt>
      <trkpt lat="41.93461" lon="9.20383">
        <ele>1765.6</ele>
        <time>2015-09-14T05:39:50Z</time>
      </trkpt>
      <trkpt lat="41.93459" lon="9.20376">
        <ele>1767.04</ele>
        <time>2015-09-14T05:40:09Z</time>
      </trkpt>
      <trkpt lat="41.93456" lon="9.20373">
        <ele>1768.96</ele>
        <time>2015-09-14T05:40:28Z</time>
      </trkpt>
      <trkpt lat="41.93454" lon="9.20365">
        <ele>1770.89</ele>
        <time>2015-09-14T05:40:44Z</time>
      </trkpt>
      <trkpt lat="41.93451" lon="9.20358">
        <ele>1771.85</ele>
        <time>2015-09-14T05:40:59Z</time>
      </trkpt>
      <trkpt lat="41.93448" lon="9.20354">
        <ele>1775.21</ele>
        <time>2015-09-14T05:41:15Z</time>
      </trkpt>
      <trkpt lat="41.93444" lon="9.20349">
        <ele>1776.65</ele>
        <time>2015-09-14T05:41:31Z</time>
      </trkpt>
      <trkpt lat="41.93441" lon="9.20341">
        <ele>1779.06</ele>
        <time>2015-09-14T05:41:51Z</time>
      </trkpt>
      <trkpt lat="41.93434" lon="9.20333">
        <ele>1779.06</ele>
        <time>2015-09-14T05:42:08Z</time>
      </trkpt>
      <trkpt lat="41.93423" lon="9.20329">
        <ele>1778.58</ele>
        <time>2015-09-14T05:42:23Z</time>
      </trkpt>
      <trkpt lat="41.93412" lon="9.20324">
        <ele>1780.02</ele>
        <time>2015-09-14T05:42:43Z</time>
      </trkpt>
      <trkpt lat="41.93404" lon="9.20324">
        <ele>1780.98</ele>
        <time>2015-09-14T05:43:04Z</time>
      </trkpt>
      <trkpt lat="41.93399" lon="9.20321">
        <ele>1779.54</ele>
        <time>2015-09-14T05:43:19Z</time>
      </trkpt>
      <trkpt lat="41.93397" lon="9.20314">
        <ele>1779.06</ele>
        <time>2015-09-14T05:43:38Z</time>
      </trkpt>
      <trkpt lat="41.9339" lon="9.20305">
        <ele>1777.61</ele>
        <time>2015-09-14T05:43:57Z</time>
      </trkpt>
      <trkpt lat="41.93386" lon="9.20304">
        <ele>1777.61</ele>
        <time>2015-09-14T05:44:02Z</time>
      </trkpt>
      <trkpt lat="41.93379" lon="9.203">
        <ele>1779.06</ele>
        <time>2015-09-14T05:44:11Z</time>
      </trkpt>
      <trkpt lat="41.9337" lon="9.20293">
        <ele>1779.54</ele>
        <time>2015-09-14T05:44:29Z</time>
      </trkpt>
      <trkpt lat="41.93364" lon="9.2029">
        <ele>1778.58</ele>
        <time>2015-09-14T05:44:38Z</time>
      </trkpt>
      <trkpt lat="41.93362" lon="9.20281">
        <ele>1777.13</ele>
        <time>2015-09-14T05:44:57Z</time>
      </trkpt>
      <trkpt lat="41.93358" lon="9.20278">
        <ele>1775.21</ele>
        <time>2015-09-14T05:45:13Z</time>
      </trkpt>
      <trkpt lat="41.93355" lon="9.20271">
        <ele>1774.25</ele>
        <time>2015-09-14T05:45:30Z</time>
      </trkpt>
      <trkpt lat="41.93354" lon="9.20262">
        <ele>1772.81</ele>
        <time>2015-09-14T05:45:49Z</time>
      </trkpt>
      <trkpt lat="41.93351" lon="9.20253">
        <ele>1772.33</ele>
        <time>2015-09-14T05:46:10Z</time>
      </trkpt>
      <trkpt lat="41.93349" lon="9.20255">
        <ele>1770.41</ele>
        <time>2015-09-14T05:46:31Z</time>
      </trkpt>
      <trkpt lat="41.93343" lon="9.20257">
        <ele>1767.52</ele>
        <time>2015-09-14T05:46:50Z</time>
      </trkpt>
      <trkpt lat="41.93339" lon="9.20254">
        <ele>1768</ele>
        <time>2015-09-14T05:47:08Z</time>
      </trkpt>
      <trkpt lat="41.93338" lon="9.20253">
        <ele>1768</ele>
        <time>2015-09-14T05:47:09Z</time>
      </trkpt>
      <trkpt lat="41.93334" lon="9.20252">
        <ele>1766.08</ele>
        <time>2015-09-14T05:47:17Z</time>
      </trkpt>
      <trkpt lat="41.93334" lon="9.20248">
        <ele>1770.41</ele>
        <time>2015-09-14T05:47:25Z</time>
      </trkpt>
      <trkpt lat="41.93334" lon="9.20248">
        <ele>1767.04</ele>
        <time>2015-09-14T05:47:26Z</time>
      </trkpt>
      <trkpt lat="41.93332" lon="9.20238">
        <ele>1765.6</ele>
        <time>2015-09-14T05:47:46Z</time>
      </trkpt>
      <trkpt lat="41.93328" lon="9.20237">
        <ele>1762.23</ele>
        <time>2015-09-14T05:47:58Z</time>
      </trkpt>
      <trkpt lat="41.93328" lon="9.20237">
        <ele>1762.23</ele>
        <time>2015-09-14T05:47:59Z</time>
      </trkpt>
      <trkpt lat="41.93327" lon="9.20237">
        <ele>1763.68</ele>
        <time>2015-09-14T05:48:01Z</time>
      </trkpt>
      <trkpt lat="41.93321" lon="9.2023">
        <ele>1761.75</ele>
        <time>2015-09-14T05:48:21Z</time>
      </trkpt>
      <trkpt lat="41.93315" lon="9.20238">
        <ele>1759.35</ele>
        <time>2015-09-14T05:48:37Z</time>
      </trkpt>
      <trkpt lat="41.93313" lon="9.20243">
        <ele>1756.47</ele>
        <time>2015-09-14T05:48:54Z</time>
      </trkpt>
      <trkpt lat="41.93309" lon="9.20246">
        <ele>1753.58</ele>
        <time>2015-09-14T05:49:13Z</time>
      </trkpt>
      <trkpt lat="41.93303" lon="9.20247">
        <ele>1753.1</ele>
        <time>2015-09-14T05:49:30Z</time>
      </trkpt>
      <trkpt lat="41.93301" lon="9.20252">
        <ele>1751.18</ele>
        <time>2015-09-14T05:49:47Z</time>
      </trkpt>
      <trkpt lat="41.93294" lon="9.20244">
        <ele>1750.7</ele>
        <time>2015-09-14T05:50:07Z</time>
      </trkpt>
      <trkpt lat="41.93294" lon="9.20243">
        <ele>1752.14</ele>
        <time>2015-09-14T05:50:09Z</time>
      </trkpt>
      <trkpt lat="41.9329" lon="9.20244">
        <ele>1752.14</ele>
        <time>2015-09-14T05:50:18Z</time>
      </trkpt>
      <trkpt lat="41.93285" lon="9.20239">
        <ele>1749.26</ele>
        <time>2015-09-14T05:50:35Z</time>
      </trkpt>
      <trkpt lat="41.93283" lon="9.20231">
        <ele>1745.89</ele>
        <time>2015-09-14T05:50:53Z</time>
      </trkpt>
      <trkpt lat="41.93281" lon="9.20223">
        <ele>1747.33</ele>
        <time>2015-09-14T05:51:11Z</time>
      </trkpt>
      <trkpt lat="41.93273" lon="9.20224">
        <ele>1744.45</ele>
        <time>2015-09-14T05:51:30Z</time>
      </trkpt>
      <trkpt lat="41.93264" lon="9.20215">
        <ele>1743.01</ele>
        <time>2015-09-14T05:51:50Z</time>
      </trkpt>
      <trkpt lat="41.93261" lon="9.20205">
        <ele>1743.49</ele>
        <time>2015-09-14T05:52:05Z</time>
      </trkpt>
      <trkpt lat="41.93259" lon="9.20203">
        <ele>1744.45</ele>
        <time>2015-09-14T05:52:29Z</time>
      </trkpt>
      <trkpt lat="41.93258" lon="9.20203">
        <ele>1746.37</ele>
        <time>2015-09-14T05:52:53Z</time>
      </trkpt>
      <trkpt lat="41.93257" lon="9.20206">
        <ele>1744.93</ele>
        <time>2015-09-14T05:53:13Z</time>
      </trkpt>
      <trkpt lat="41.93257" lon="9.20206">
        <ele>1743.01</ele>
        <time>2015-09-14T05:53:37Z</time>
      </trkpt>
      <trkpt lat="41.93257" lon="9.20201">
        <ele>1743.97</ele>
        <time>2015-09-14T05:53:48Z</time>
      </trkpt>
      <trkpt lat="41.93245" lon="9.20193">
        <ele>1743.97</ele>
        <time>2015-09-14T05:54:09Z</time>
      </trkpt>
      <trkpt lat="41.93243" lon="9.20185">
        <ele>1746.85</ele>
        <time>2015-09-14T05:54:25Z</time>
      </trkpt>
      <trkpt lat="41.93238" lon="9.20177">
        <ele>1748.78</ele>
        <time>2015-09-14T05:54:42Z</time>
      </trkpt>
      <trkpt lat="41.93234" lon="9.20172">
        <ele>1747.81</ele>
        <time>2015-09-14T05:54:52Z</time>
      </trkpt>
      <trkpt lat="41.9323" lon="9.20162">
        <ele>1746.85</ele>
        <time>2015-09-14T05:55:08Z</time>
      </trkpt>
      <trkpt lat="41.93229" lon="9.20149">
        <ele>1747.81</ele>
        <time>2015-09-14T05:55:26Z</time>
      </trkpt>
      <trkpt lat="41.93229" lon="9.20147">
        <ele>1749.26</ele>
        <time>2015-09-14T05:55:28Z</time>
      </trkpt>
      <trkpt lat="41.93222" lon="9.20142">
        <ele>1753.1</ele>
        <time>2015-09-14T05:55:40Z</time>
      </trkpt>
      <trkpt lat="41.93222" lon="9.20141">
        <ele>1753.1</ele>
        <time>2015-09-14T05:55:41Z</time>
      </trkpt>
      <trkpt lat="41.93216" lon="9.20134">
        <ele>1750.7</ele>
        <time>2015-09-14T05:56:03Z</time>
      </trkpt>
      <trkpt lat="41.93216" lon="9.20133">
        <ele>1749.26</ele>
        <time>2015-09-14T05:56:06Z</time>
      </trkpt>
      <trkpt lat="41.93211" lon="9.20126">
        <ele>1746.37</ele>
        <time>2015-09-14T05:56:25Z</time>
      </trkpt>
      <trkpt lat="41.93208" lon="9.20122">
        <ele>1747.33</ele>
        <time>2015-09-14T05:56:39Z</time>
      </trkpt>
      <trkpt lat="41.93208" lon="9.20122">
        <ele>1744.45</ele>
        <time>2015-09-14T05:56:46Z</time>
      </trkpt>
      <trkpt lat="41.93205" lon="9.20112">
        <ele>1741.57</ele>
        <time>2015-09-14T05:57:08Z</time>
      </trkpt>
      <trkpt lat="41.93201" lon="9.20109">
        <ele>1739.16</ele>
        <time>2015-09-14T05:57:19Z</time>
      </trkpt>
      <trkpt lat="41.93197" lon="9.20105">
        <ele>1735.32</ele>
        <time>2015-09-14T05:57:27Z</time>
      </trkpt>
      <trkpt lat="41.93197" lon="9.20105">
        <ele>1735.32</ele>
        <time>2015-09-14T05:57:28Z</time>
      </trkpt>
      <trkpt lat="41.93196" lon="9.20103">
        <ele>1737.24</ele>
        <time>2015-09-14T05:57:31Z</time>
      </trkpt>
      <trkpt lat="41.93192" lon="9.20097">
        <ele>1733.39</ele>
        <time>2015-09-14T05:57:51Z</time>
      </trkpt>
      <trkpt lat="41.9319" lon="9.20094">
        <ele>1733.88</ele>
        <time>2015-09-14T05:57:56Z</time>
      </trkpt>
      <trkpt lat="41.9319" lon="9.20091">
        <ele>1730.51</ele>
        <time>2015-09-14T05:58:03Z</time>
      </trkpt>
      <trkpt lat="41.93188" lon="9.20091">
        <ele>1734.84</ele>
        <time>2015-09-14T05:58:06Z</time>
      </trkpt>
      <trkpt lat="41.93187" lon="9.20092">
        <ele>1734.84</ele>
        <time>2015-09-14T05:58:07Z</time>
      </trkpt>
      <trkpt lat="41.93188" lon="9.20091">
        <ele>1730.99</ele>
        <time>2015-09-14T05:58:11Z</time>
      </trkpt>
      <trkpt lat="41.93185" lon="9.2009">
        <ele>1731.95</ele>
        <time>2015-09-14T05:58:16Z</time>
      </trkpt>
      <trkpt lat="41.93181" lon="9.20089">
        <ele>1728.11</ele>
        <time>2015-09-14T05:58:24Z</time>
      </trkpt>
      <trkpt lat="41.93181" lon="9.20089">
        <ele>1731.47</ele>
        <time>2015-09-14T05:58:25Z</time>
      </trkpt>
      <trkpt lat="41.93176" lon="9.2009">
        <ele>1728.11</ele>
        <time>2015-09-14T05:58:42Z</time>
      </trkpt>
      <trkpt lat="41.93174" lon="9.20091">
        <ele>1729.07</ele>
        <time>2015-09-14T05:58:47Z</time>
      </trkpt>
      <trkpt lat="41.93168" lon="9.20088">
        <ele>1729.07</ele>
        <time>2015-09-14T05:59:05Z</time>
      </trkpt>
      <trkpt lat="41.93168" lon="9.20086">
        <ele>1730.99</ele>
        <time>2015-09-14T05:59:07Z</time>
      </trkpt>
      <trkpt lat="41.93167" lon="9.20082">
        <ele>1728.59</ele>
        <time>2015-09-14T05:59:20Z</time>
      </trkpt>
      <trkpt lat="41.93162" lon="9.20086">
        <ele>1725.7</ele>
        <time>2015-09-14T05:59:39Z</time>
      </trkpt>
      <trkpt lat="41.93158" lon="9.20087">
        <ele>1723.78</ele>
        <time>2015-09-14T05:59:57Z</time>
      </trkpt>
      <trkpt lat="41.93156" lon="9.20088">
        <ele>1722.34</ele>
        <time>2015-09-14T06:00:16Z</time>
      </trkpt>
      <trkpt lat="41.93152" lon="9.20093">
        <ele>1721.38</ele>
        <time>2015-09-14T06:00:32Z</time>
      </trkpt>
      <trkpt lat="41.93155" lon="9.20083">
        <ele>1720.9</ele>
        <time>2015-09-14T06:00:52Z</time>
      </trkpt>
      <trkpt lat="41.93154" lon="9.20079">
        <ele>1721.86</ele>
        <time>2015-09-14T06:00:59Z</time>
      </trkpt>
      <trkpt lat="41.93146" lon="9.20069">
        <ele>1723.78</ele>
        <time>2015-09-14T06:01:18Z</time>
      </trkpt>
      <trkpt lat="41.9314" lon="9.20065">
        <ele>1725.7</ele>
        <time>2015-09-14T06:01:38Z</time>
      </trkpt>
      <trkpt lat="41.93137" lon="9.20063">
        <ele>1727.63</ele>
        <time>2015-09-14T06:01:54Z</time>
      </trkpt>
      <trkpt lat="41.93133" lon="9.20059">
        <ele>1730.99</ele>
        <time>2015-09-14T06:02:08Z</time>
      </trkpt>
      <trkpt lat="41.93127" lon="9.2006">
        <ele>1732.91</ele>
        <time>2015-09-14T06:02:29Z</time>
      </trkpt>
      <trkpt lat="41.93127" lon="9.20056">
        <ele>1735.32</ele>
        <time>2015-09-14T06:02:47Z</time>
      </trkpt>
      <trkpt lat="41.93123" lon="9.20048">
        <ele>1738.2</ele>
        <time>2015-09-14T06:03:05Z</time>
      </trkpt>
      <trkpt lat="41.93122" lon="9.20042">
        <ele>1735.8</ele>
        <time>2015-09-14T06:03:13Z</time>
      </trkpt>
      <trkpt lat="41.93118" lon="9.20038">
        <ele>1734.84</ele>
        <time>2015-09-14T06:03:32Z</time>
      </trkpt>
      <trkpt lat="41.9311" lon="9.20034">
        <ele>1736.76</ele>
        <time>2015-09-14T06:03:47Z</time>
      </trkpt>
      <trkpt lat="41.93107" lon="9.20033">
        <ele>1735.32</ele>
        <time>2015-09-14T06:03:51Z</time>
      </trkpt>
      <trkpt lat="41.931" lon="9.20033">
        <ele>1733.39</ele>
        <time>2015-09-14T06:04:12Z</time>
      </trkpt>
      <trkpt lat="41.93097" lon="9.20029">
        <ele>1733.39</ele>
        <time>2015-09-14T06:04:32Z</time>
      </trkpt>
      <trkpt lat="41.93093" lon="9.20029">
        <ele>1734.36</ele>
        <time>2015-09-14T06:04:39Z</time>
      </trkpt>
      <trkpt lat="41.93091" lon="9.20029">
        <ele>1734.84</ele>
        <time>2015-09-14T06:04:55Z</time>
      </trkpt>
      <trkpt lat="41.93086" lon="9.20027">
        <ele>1735.32</ele>
        <time>2015-09-14T06:05:13Z</time>
      </trkpt>
      <trkpt lat="41.9308" lon="9.20024">
        <ele>1734.36</ele>
        <time>2015-09-14T06:05:25Z</time>
      </trkpt>
      <trkpt lat="41.93077" lon="9.20023">
        <ele>1732.43</ele>
        <time>2015-09-14T06:05:46Z</time>
      </trkpt>
      <trkpt lat="41.93073" lon="9.2002">
        <ele>1731.95</ele>
        <time>2015-09-14T06:06:03Z</time>
      </trkpt>
      <trkpt lat="41.93072" lon="9.20019">
        <ele>1733.39</ele>
        <time>2015-09-14T06:06:05Z</time>
      </trkpt>
      <trkpt lat="41.93068" lon="9.20016">
        <ele>1732.91</ele>
        <time>2015-09-14T06:06:18Z</time>
      </trkpt>
      <trkpt lat="41.93058" lon="9.20013">
        <ele>1730.03</ele>
        <time>2015-09-14T06:06:36Z</time>
      </trkpt>
      <trkpt lat="41.93052" lon="9.2001">
        <ele>1728.59</ele>
        <time>2015-09-14T06:06:54Z</time>
      </trkpt>
      <trkpt lat="41.93052" lon="9.20005">
        <ele>1728.59</ele>
        <time>2015-09-14T06:07:12Z</time>
      </trkpt>
      <trkpt lat="41.93053" lon="9.20011">
        <ele>1729.55</ele>
        <time>2015-09-14T06:07:32Z</time>
      </trkpt>
      <trkpt lat="41.93053" lon="9.20011">
        <ele>1729.55</ele>
        <time>2015-09-14T06:07:33Z</time>
      </trkpt>
      <trkpt lat="41.93057" lon="9.20012">
        <ele>1728.11</ele>
        <time>2015-09-14T06:07:55Z</time>
      </trkpt>
      <trkpt lat="41.93058" lon="9.20012">
        <ele>1730.03</ele>
        <time>2015-09-14T06:07:57Z</time>
      </trkpt>
      <trkpt lat="41.93059" lon="9.20008">
        <ele>1731.47</ele>
        <time>2015-09-14T06:08:14Z</time>
      </trkpt>
      <trkpt lat="41.93058" lon="9.20005">
        <ele>1732.91</ele>
        <time>2015-09-14T06:08:27Z</time>
      </trkpt>
      <trkpt lat="41.93059" lon="9.20003">
        <ele>1736.28</ele>
        <time>2015-09-14T06:08:40Z</time>
      </trkpt>
      <trkpt lat="41.93059" lon="9.20001">
        <ele>1736.28</ele>
        <time>2015-09-14T06:08:51Z</time>
      </trkpt>
      <trkpt lat="41.93062" lon="9.19999">
        <ele>1735.32</ele>
        <time>2015-09-14T06:09:13Z</time>
      </trkpt>
      <trkpt lat="41.93063" lon="9.19996">
        <ele>1732.91</ele>
        <time>2015-09-14T06:09:31Z</time>
      </trkpt>
      <trkpt lat="41.93062" lon="9.19994">
        <ele>1732.43</ele>
        <time>2015-09-14T06:09:37Z</time>
      </trkpt>
      <trkpt lat="41.93061" lon="9.19993">
        <ele>1730.51</ele>
        <time>2015-09-14T06:09:46Z</time>
      </trkpt>
      <trkpt lat="41.93061" lon="9.19992">
        <ele>1732.91</ele>
        <time>2015-09-14T06:09:49Z</time>
      </trkpt>
      <trkpt lat="41.93061" lon="9.1999">
        <ele>1733.39</ele>
        <time>2015-09-14T06:09:54Z</time>
      </trkpt>
      <trkpt lat="41.93061" lon="9.1999">
        <ele>1733.88</ele>
        <time>2015-09-14T06:09:58Z</time>
      </trkpt>
      <trkpt lat="41.93061" lon="9.1999">
        <ele>1730.03</ele>
        <time>2015-09-14T06:09:59Z</time>
      </trkpt>
      <trkpt lat="41.93061" lon="9.19989">
        <ele>1733.39</ele>
        <time>2015-09-14T06:10:02Z</time>
      </trkpt>
      <trkpt lat="41.93061" lon="9.19988">
        <ele>1731.47</ele>
        <time>2015-09-14T06:10:08Z</time>
      </trkpt>
      <trkpt lat="41.93062" lon="9.19987">
        <ele>1729.55</ele>
        <time>2015-09-14T06:10:21Z</time>
      </trkpt>
      <trkpt lat="41.93062" lon="9.19987">
        <ele>1730.99</ele>
        <time>2015-09-14T06:10:23Z</time>
      </trkpt>
      <trkpt lat="41.93065" lon="9.19988">
        <ele>1728.59</ele>
        <time>2015-09-14T06:10:40Z</time>
      </trkpt>
      <trkpt lat="41.93066" lon="9.19989">
        <ele>1731.47</ele>
        <time>2015-09-14T06:10:43Z</time>
      </trkpt>
      <trkpt lat="41.93066" lon="9.19988">
        <ele>1731.47</ele>
        <time>2015-09-14T06:10:44Z</time>
      </trkpt>
      <trkpt lat="41.93063" lon="9.19989">
        <ele>1730.51</ele>
        <time>2015-09-14T06:10:55Z</time>
      </trkpt>
      <trkpt lat="41.93061" lon="9.19989">
        <ele>1731.47</ele>
        <time>2015-09-14T06:11:01Z</time>
      </trkpt>
      <trkpt lat="41.93056" lon="9.1999">
        <ele>1733.39</ele>
        <time>2015-09-14T06:11:20Z</time>
      </trkpt>
      <trkpt lat="41.93053" lon="9.19992">
        <ele>1731.95</ele>
        <time>2015-09-14T06:11:44Z</time>
      </trkpt>
      <trkpt lat="41.93048" lon="9.19995">
        <ele>1728.59</ele>
        <time>2015-09-14T06:12:05Z</time>
      </trkpt>
      <trkpt lat="41.93041" lon="9.19995">
        <ele>1728.11</ele>
        <time>2015-09-14T06:12:25Z</time>
      </trkpt>
      <trkpt lat="41.9304" lon="9.19995">
        <ele>1716.57</ele>
        <time>2015-09-14T06:12:46Z</time>
      </trkpt>
      <trkpt lat="41.9304" lon="9.19994">
        <ele>1741.57</ele>
        <time>2015-09-14T06:12:47Z</time>
      </trkpt>
      <trkpt lat="41.93041" lon="9.19994">
        <ele>1728.59</ele>
        <time>2015-09-14T06:12:48Z</time>
      </trkpt>
      <trkpt lat="41.93039" lon="9.19983">
        <ele>1729.55</ele>
        <time>2015-09-14T06:13:04Z</time>
      </trkpt>
      <trkpt lat="41.93034" lon="9.19971">
        <ele>1732.91</ele>
        <time>2015-09-14T06:13:22Z</time>
      </trkpt>
      <trkpt lat="41.93031" lon="9.19964">
        <ele>1735.8</ele>
        <time>2015-09-14T06:13:41Z</time>
      </trkpt>
      <trkpt lat="41.93027" lon="9.19958">
        <ele>1737.24</ele>
        <time>2015-09-14T06:13:56Z</time>
      </trkpt>
      <trkpt lat="41.93021" lon="9.19953">
        <ele>1736.28</ele>
        <time>2015-09-14T06:14:09Z</time>
      </trkpt>
      <trkpt lat="41.93019" lon="9.19952">
        <ele>1737.72</ele>
        <time>2015-09-14T06:14:13Z</time>
      </trkpt>
      <trkpt lat="41.93009" lon="9.19949">
        <ele>1738.68</ele>
        <time>2015-09-14T06:14:33Z</time>
      </trkpt>
      <trkpt lat="41.93008" lon="9.19947">
        <ele>1737.72</ele>
        <time>2015-09-14T06:14:35Z</time>
      </trkpt>
      <trkpt lat="41.93002" lon="9.19938">
        <ele>1734.84</ele>
        <time>2015-09-14T06:14:51Z</time>
      </trkpt>
      <trkpt lat="41.93002" lon="9.1993">
        <ele>1736.28</ele>
        <time>2015-09-14T06:15:04Z</time>
      </trkpt>
      <trkpt lat="41.93" lon="9.19928">
        <ele>1734.84</ele>
        <time>2015-09-14T06:15:11Z</time>
      </trkpt>
      <trkpt lat="41.92995" lon="9.19923">
        <ele>1735.32</ele>
        <time>2015-09-14T06:15:27Z</time>
      </trkpt>
      <trkpt lat="41.92992" lon="9.1992">
        <ele>1736.28</ele>
        <time>2015-09-14T06:15:32Z</time>
      </trkpt>
      <trkpt lat="41.92991" lon="9.19914">
        <ele>1732.91</ele>
        <time>2015-09-14T06:15:38Z</time>
      </trkpt>
      <trkpt lat="41.9299" lon="9.19913">
        <ele>1732.91</ele>
        <time>2015-09-14T06:15:39Z</time>
      </trkpt>
      <trkpt lat="41.92986" lon="9.19907">
        <ele>1734.36</ele>
        <time>2015-09-14T06:15:52Z</time>
      </trkpt>
      <trkpt lat="41.92989" lon="9.19901">
        <ele>1734.36</ele>
        <time>2015-09-14T06:16:10Z</time>
      </trkpt>
      <trkpt lat="41.92998" lon="9.19893">
        <ele>1731.95</ele>
        <time>2015-09-14T06:16:29Z</time>
      </trkpt>
      <trkpt lat="41.92998" lon="9.19893">
        <ele>1732.91</ele>
        <time>2015-09-14T06:16:38Z</time>
      </trkpt>
      <trkpt lat="41.92998" lon="9.1989">
        <ele>1733.39</ele>
        <time>2015-09-14T06:17:07Z</time>
      </trkpt>
      <trkpt lat="41.92997" lon="9.19892">
        <ele>1733.88</ele>
        <time>2015-09-14T06:17:25Z</time>
      </trkpt>
      <trkpt lat="41.92995" lon="9.1989">
        <ele>1737.72</ele>
        <time>2015-09-14T06:17:40Z</time>
      </trkpt>
      <trkpt lat="41.92995" lon="9.1989">
        <ele>1737.72</ele>
        <time>2015-09-14T06:17:41Z</time>
      </trkpt>
      <trkpt lat="41.92992" lon="9.19889">
        <ele>1739.64</ele>
        <time>2015-09-14T06:17:58Z</time>
      </trkpt>
      <trkpt lat="41.92981" lon="9.19887">
        <ele>1739.16</ele>
        <time>2015-09-14T06:18:14Z</time>
      </trkpt>
      <trkpt lat="41.92981" lon="9.19886">
        <ele>1739.16</ele>
        <time>2015-09-14T06:18:15Z</time>
      </trkpt>
      <trkpt lat="41.92978" lon="9.19881">
        <ele>1742.05</ele>
        <time>2015-09-14T06:18:21Z</time>
      </trkpt>
      <trkpt lat="41.92972" lon="9.1988">
        <ele>1739.16</ele>
        <time>2015-09-14T06:18:33Z</time>
      </trkpt>
      <trkpt lat="41.92969" lon="9.1988">
        <ele>1742.53</ele>
        <time>2015-09-14T06:18:37Z</time>
      </trkpt>
      <trkpt lat="41.92966" lon="9.19878">
        <ele>1739.64</ele>
        <time>2015-09-14T06:18:43Z</time>
      </trkpt>
      <trkpt lat="41.92958" lon="9.19868">
        <ele>1738.68</ele>
        <time>2015-09-14T06:18:59Z</time>
      </trkpt>
      <trkpt lat="41.9296" lon="9.19864">
        <ele>1739.16</ele>
        <time>2015-09-14T06:19:05Z</time>
      </trkpt>
      <trkpt lat="41.92957" lon="9.19861">
        <ele>1736.76</ele>
        <time>2015-09-14T06:19:16Z</time>
      </trkpt>
      <trkpt lat="41.92952" lon="9.19852">
        <ele>1738.2</ele>
        <time>2015-09-14T06:19:25Z</time>
      </trkpt>
      <trkpt lat="41.92952" lon="9.19851">
        <ele>1738.68</ele>
        <time>2015-09-14T06:19:26Z</time>
      </trkpt>
      <trkpt lat="41.9295" lon="9.19845">
        <ele>1742.05</ele>
        <time>2015-09-14T06:19:31Z</time>
      </trkpt>
      <trkpt lat="41.92949" lon="9.19843">
        <ele>1743.01</ele>
        <time>2015-09-14T06:19:33Z</time>
      </trkpt>
      <trkpt lat="41.92948" lon="9.19841">
        <ele>1741.57</ele>
        <time>2015-09-14T06:19:35Z</time>
      </trkpt>
      <trkpt lat="41.92947" lon="9.19839">
        <ele>1739.64</ele>
        <time>2015-09-14T06:19:37Z</time>
      </trkpt>
      <trkpt lat="41.92945" lon="9.19836">
        <ele>1737.72</ele>
        <time>2015-09-14T06:19:41Z</time>
      </trkpt>
      <trkpt lat="41.92942" lon="9.19832">
        <ele>1739.16</ele>
        <time>2015-09-14T06:19:47Z</time>
      </trkpt>
      <trkpt lat="41.92939" lon="9.19824">
        <ele>1739.16</ele>
        <time>2015-09-14T06:20:00Z</time>
      </trkpt>
      <trkpt lat="41.92938" lon="9.19821">
        <ele>1741.08</ele>
        <time>2015-09-14T06:20:04Z</time>
      </trkpt>
      <trkpt lat="41.92932" lon="9.19818">
        <ele>1744.45</ele>
        <time>2015-09-14T06:20:20Z</time>
      </trkpt>
      <trkpt lat="41.92931" lon="9.19818">
        <ele>1746.85</ele>
        <time>2015-09-14T06:20:22Z</time>
      </trkpt>
      <trkpt lat="41.92924" lon="9.19814">
        <ele>1745.89</ele>
        <time>2015-09-14T06:20:34Z</time>
      </trkpt>
      <trkpt lat="41.92922" lon="9.19812">
        <ele>1744.45</ele>
        <time>2015-09-14T06:20:39Z</time>
      </trkpt>
      <trkpt lat="41.92921" lon="9.19809">
        <ele>1746.37</ele>
        <time>2015-09-14T06:20:44Z</time>
      </trkpt>
      <trkpt lat="41.92919" lon="9.19806">
        <ele>1744.93</ele>
        <time>2015-09-14T06:20:47Z</time>
      </trkpt>
      <trkpt lat="41.92915" lon="9.19803">
        <ele>1746.37</ele>
        <time>2015-09-14T06:20:54Z</time>
      </trkpt>
      <trkpt lat="41.92913" lon="9.19803">
        <ele>1748.29</ele>
        <time>2015-09-14T06:21:17Z</time>
      </trkpt>
      <trkpt lat="41.92911" lon="9.19803">
        <ele>1749.74</ele>
        <time>2015-09-14T06:21:21Z</time>
      </trkpt>
      <trkpt lat="41.92902" lon="9.19798">
        <ele>1748.78</ele>
        <time>2015-09-14T06:21:40Z</time>
      </trkpt>
      <trkpt lat="41.92892" lon="9.19791">
        <ele>1749.74</ele>
        <time>2015-09-14T06:21:59Z</time>
      </trkpt>
      <trkpt lat="41.92883" lon="9.19783">
        <ele>1750.7</ele>
        <time>2015-09-14T06:22:17Z</time>
      </trkpt>
      <trkpt lat="41.92874" lon="9.19775">
        <ele>1749.26</ele>
        <time>2015-09-14T06:22:35Z</time>
      </trkpt>
      <trkpt lat="41.9287" lon="9.19769">
        <ele>1749.74</ele>
        <time>2015-09-14T06:22:54Z</time>
      </trkpt>
      <trkpt lat="41.92867" lon="9.19762">
        <ele>1751.18</ele>
        <time>2015-09-14T06:23:10Z</time>
      </trkpt>
      <trkpt lat="41.92862" lon="9.19759">
        <ele>1752.62</ele>
        <time>2015-09-14T06:23:22Z</time>
      </trkpt>
      <trkpt lat="41.92858" lon="9.19758">
        <ele>1750.22</ele>
        <time>2015-09-14T06:23:39Z</time>
      </trkpt>
      <trkpt lat="41.92852" lon="9.19756">
        <ele>1747.81</ele>
        <time>2015-09-14T06:23:56Z</time>
      </trkpt>
      <trkpt lat="41.92844" lon="9.19746">
        <ele>1747.81</ele>
        <time>2015-09-14T06:24:14Z</time>
      </trkpt>
      <trkpt lat="41.92844" lon="9.19735">
        <ele>1750.7</ele>
        <time>2015-09-14T06:24:31Z</time>
      </trkpt>
      <trkpt lat="41.92838" lon="9.19731">
        <ele>1747.33</ele>
        <time>2015-09-14T06:24:45Z</time>
      </trkpt>
      <trkpt lat="41.92835" lon="9.19726">
        <ele>1745.89</ele>
        <time>2015-09-14T06:25:03Z</time>
      </trkpt>
      <trkpt lat="41.92827" lon="9.19716">
        <ele>1745.89</ele>
        <time>2015-09-14T06:25:25Z</time>
      </trkpt>
      <trkpt lat="41.92823" lon="9.19706">
        <ele>1745.89</ele>
        <time>2015-09-14T06:25:41Z</time>
      </trkpt>
      <trkpt lat="41.92819" lon="9.19699">
        <ele>1748.78</ele>
        <time>2015-09-14T06:25:53Z</time>
      </trkpt>
      <trkpt lat="41.92816" lon="9.19694">
        <ele>1746.85</ele>
        <time>2015-09-14T06:26:01Z</time>
      </trkpt>
      <trkpt lat="41.9281" lon="9.19682">
        <ele>1745.89</ele>
        <time>2015-09-14T06:26:16Z</time>
      </trkpt>
      <trkpt lat="41.92805" lon="9.19672">
        <ele>1747.33</ele>
        <time>2015-09-14T06:26:32Z</time>
      </trkpt>
      <trkpt lat="41.92799" lon="9.19661">
        <ele>1750.7</ele>
        <time>2015-09-14T06:26:54Z</time>
      </trkpt>
      <trkpt lat="41.92801" lon="9.1965">
        <ele>1753.58</ele>
        <time>2015-09-14T06:27:14Z</time>
      </trkpt>
      <trkpt lat="41.92794" lon="9.19644">
        <ele>1754.54</ele>
        <time>2015-09-14T06:27:33Z</time>
      </trkpt>
      <trkpt lat="41.92785" lon="9.19639">
        <ele>1758.39</ele>
        <time>2015-09-14T06:27:53Z</time>
      </trkpt>
      <trkpt lat="41.92782" lon="9.19637">
        <ele>1756.47</ele>
        <time>2015-09-14T06:27:57Z</time>
      </trkpt>
      <trkpt lat="41.9278" lon="9.19633">
        <ele>1757.91</ele>
        <time>2015-09-14T06:28:03Z</time>
      </trkpt>
      <trkpt lat="41.92776" lon="9.19628">
        <ele>1757.91</ele>
        <time>2015-09-14T06:28:13Z</time>
      </trkpt>
      <trkpt lat="41.92774" lon="9.19624">
        <ele>1759.35</ele>
        <time>2015-09-14T06:28:20Z</time>
      </trkpt>
      <trkpt lat="41.92764" lon="9.19616">
        <ele>1761.75</ele>
        <time>2015-09-14T06:28:41Z</time>
      </trkpt>
      <trkpt lat="41.92753" lon="9.1962">
        <ele>1764.16</ele>
        <time>2015-09-14T06:29:02Z</time>
      </trkpt>
      <trkpt lat="41.92745" lon="9.19622">
        <ele>1765.6</ele>
        <time>2015-09-14T06:29:23Z</time>
      </trkpt>
      <trkpt lat="41.92741" lon="9.1962">
        <ele>1766.56</ele>
        <time>2015-09-14T06:29:40Z</time>
      </trkpt>
      <trkpt lat="41.92735" lon="9.19617">
        <ele>1765.12</ele>
        <time>2015-09-14T06:29:52Z</time>
      </trkpt>
      <trkpt lat="41.92731" lon="9.19608">
        <ele>1763.68</ele>
        <time>2015-09-14T06:30:10Z</time>
      </trkpt>
      <trkpt lat="41.9272" lon="9.19601">
        <ele>1762.23</ele>
        <time>2015-09-14T06:30:29Z</time>
      </trkpt>
      <trkpt lat="41.92716" lon="9.19596">
        <ele>1763.68</ele>
        <time>2015-09-14T06:30:37Z</time>
      </trkpt>
      <trkpt lat="41.92705" lon="9.19585">
        <ele>1764.64</ele>
        <time>2015-09-14T06:30:56Z</time>
      </trkpt>
      <trkpt lat="41.92698" lon="9.19575">
        <ele>1766.08</ele>
        <time>2015-09-14T06:31:14Z</time>
      </trkpt>
      <trkpt lat="41.92692" lon="9.19571">
        <ele>1767.52</ele>
        <time>2015-09-14T06:31:34Z</time>
      </trkpt>
      <trkpt lat="41.92687" lon="9.19571">
        <ele>1768</ele>
        <time>2015-09-14T06:31:57Z</time>
      </trkpt>
      <trkpt lat="41.9268" lon="9.19565">
        <ele>1769.44</ele>
        <time>2015-09-14T06:32:14Z</time>
      </trkpt>
      <trkpt lat="41.92663" lon="9.19557">
        <ele>1769.92</ele>
        <time>2015-09-14T06:32:32Z</time>
      </trkpt>
      <trkpt lat="41.92652" lon="9.19557">
        <ele>1769.92</ele>
        <time>2015-09-14T06:32:50Z</time>
      </trkpt>
      <trkpt lat="41.92651" lon="9.19558">
        <ele>1770.89</ele>
        <time>2015-09-14T06:32:52Z</time>
      </trkpt>
      <trkpt lat="41.92649" lon="9.19559">
        <ele>1772.33</ele>
        <time>2015-09-14T06:32:54Z</time>
      </trkpt>
      <trkpt lat="41.92647" lon="9.19558">
        <ele>1774.73</ele>
        <time>2015-09-14T06:32:59Z</time>
      </trkpt>
      <trkpt lat="41.92646" lon="9.19558">
        <ele>1773.29</ele>
        <time>2015-09-14T06:33:01Z</time>
      </trkpt>
      <trkpt lat="41.92642" lon="9.19557">
        <ele>1776.65</ele>
        <time>2015-09-14T06:33:14Z</time>
      </trkpt>
      <trkpt lat="41.92633" lon="9.19545">
        <ele>1773.29</ele>
        <time>2015-09-14T06:33:30Z</time>
      </trkpt>
      <trkpt lat="41.9263" lon="9.19542">
        <ele>1776.65</ele>
        <time>2015-09-14T06:33:36Z</time>
      </trkpt>
      <trkpt lat="41.92626" lon="9.19536">
        <ele>1773.77</ele>
        <time>2015-09-14T06:33:43Z</time>
      </trkpt>
      <trkpt lat="41.92626" lon="9.19528">
        <ele>1777.61</ele>
        <time>2015-09-14T06:33:50Z</time>
      </trkpt>
      <trkpt lat="41.92624" lon="9.19524">
        <ele>1776.17</ele>
        <time>2015-09-14T06:33:54Z</time>
      </trkpt>
      <trkpt lat="41.92627" lon="9.19509">
        <ele>1777.61</ele>
        <time>2015-09-14T06:34:13Z</time>
      </trkpt>
      <trkpt lat="41.92625" lon="9.19495">
        <ele>1780.5</ele>
        <time>2015-09-14T06:34:31Z</time>
      </trkpt>
      <trkpt lat="41.92625" lon="9.19495">
        <ele>1780.5</ele>
        <time>2015-09-14T06:34:32Z</time>
      </trkpt>
      <trkpt lat="41.92625" lon="9.19495">
        <ele>1781.94</ele>
        <time>2015-09-14T06:34:36Z</time>
      </trkpt>
      <trkpt lat="41.92623" lon="9.1949">
        <ele>1780.98</ele>
        <time>2015-09-14T06:34:43Z</time>
      </trkpt>
      <trkpt lat="41.92623" lon="9.19483">
        <ele>1778.58</ele>
        <time>2015-09-14T06:34:51Z</time>
      </trkpt>
      <trkpt lat="41.92623" lon="9.19481">
        <ele>1783.38</ele>
        <time>2015-09-14T06:35:00Z</time>
      </trkpt>
      <trkpt lat="41.92623" lon="9.1948">
        <ele>1783.38</ele>
        <time>2015-09-14T06:35:01Z</time>
      </trkpt>
      <trkpt lat="41.9262" lon="9.1948">
        <ele>1782.9</ele>
        <time>2015-09-14T06:35:12Z</time>
      </trkpt>
      <trkpt lat="41.92621" lon="9.19479">
        <ele>1780.98</ele>
        <time>2015-09-14T06:35:15Z</time>
      </trkpt>
      <trkpt lat="41.92623" lon="9.19479">
        <ele>1778.58</ele>
        <time>2015-09-14T06:35:20Z</time>
      </trkpt>
      <trkpt lat="41.92623" lon="9.19474">
        <ele>1783.38</ele>
        <time>2015-09-14T06:35:24Z</time>
      </trkpt>
      <trkpt lat="41.92619" lon="9.19466">
        <ele>1779.06</ele>
        <time>2015-09-14T06:35:30Z</time>
      </trkpt>
      <trkpt lat="41.92607" lon="9.19454">
        <ele>1778.58</ele>
        <time>2015-09-14T06:35:47Z</time>
      </trkpt>
      <trkpt lat="41.92601" lon="9.1944">
        <ele>1780.5</ele>
        <time>2015-09-14T06:36:05Z</time>
      </trkpt>
      <trkpt lat="41.92591" lon="9.19427">
        <ele>1781.94</ele>
        <time>2015-09-14T06:36:25Z</time>
      </trkpt>
      <trkpt lat="41.92579" lon="9.1942">
        <ele>1786.27</ele>
        <time>2015-09-14T06:36:44Z</time>
      </trkpt>
      <trkpt lat="41.92568" lon="9.19416">
        <ele>1786.75</ele>
        <time>2015-09-14T06:37:04Z</time>
      </trkpt>
      <trkpt lat="41.92566" lon="9.19414">
        <ele>1788.67</ele>
        <time>2015-09-14T06:37:08Z</time>
      </trkpt>
      <trkpt lat="41.92559" lon="9.19411">
        <ele>1789.15</ele>
        <time>2015-09-14T06:37:22Z</time>
      </trkpt>
      <trkpt lat="41.92553" lon="9.19402">
        <ele>1790.59</ele>
        <time>2015-09-14T06:37:41Z</time>
      </trkpt>
      <trkpt lat="41.92549" lon="9.194">
        <ele>1792.03</ele>
        <time>2015-09-14T06:37:50Z</time>
      </trkpt>
      <trkpt lat="41.92539" lon="9.1939">
        <ele>1793.48</ele>
        <time>2015-09-14T06:38:10Z</time>
      </trkpt>
      <trkpt lat="41.92531" lon="9.19384">
        <ele>1794.92</ele>
        <time>2015-09-14T06:38:25Z</time>
      </trkpt>
      <trkpt lat="41.92527" lon="9.19378">
        <ele>1797.32</ele>
        <time>2015-09-14T06:38:41Z</time>
      </trkpt>
      <trkpt lat="41.92521" lon="9.1937">
        <ele>1798.76</ele>
        <time>2015-09-14T06:38:59Z</time>
      </trkpt>
      <trkpt lat="41.92512" lon="9.19362">
        <ele>1799.73</ele>
        <time>2015-09-14T06:39:13Z</time>
      </trkpt>
      <trkpt lat="41.92505" lon="9.19353">
        <ele>1799.73</ele>
        <time>2015-09-14T06:39:28Z</time>
      </trkpt>
      <trkpt lat="41.925" lon="9.19346">
        <ele>1796.36</ele>
        <time>2015-09-14T06:39:39Z</time>
      </trkpt>
      <trkpt lat="41.92499" lon="9.19345">
        <ele>1798.28</ele>
        <time>2015-09-14T06:39:40Z</time>
      </trkpt>
      <trkpt lat="41.92498" lon="9.19343">
        <ele>1799.24</ele>
        <time>2015-09-14T06:39:42Z</time>
      </trkpt>
      <trkpt lat="41.92496" lon="9.1934">
        <ele>1797.8</ele>
        <time>2015-09-14T06:39:45Z</time>
      </trkpt>
      <trkpt lat="41.92492" lon="9.19332">
        <ele>1798.76</ele>
        <time>2015-09-14T06:39:54Z</time>
      </trkpt>
      <trkpt lat="41.92483" lon="9.19321">
        <ele>1797.32</ele>
        <time>2015-09-14T06:40:11Z</time>
      </trkpt>
      <trkpt lat="41.92482" lon="9.1932">
        <ele>1798.76</ele>
        <time>2015-09-14T06:40:13Z</time>
      </trkpt>
      <trkpt lat="41.9247" lon="9.19312">
        <ele>1798.76</ele>
        <time>2015-09-14T06:40:32Z</time>
      </trkpt>
      <trkpt lat="41.92467" lon="9.19311">
        <ele>1797.8</ele>
        <time>2015-09-14T06:40:37Z</time>
      </trkpt>
      <trkpt lat="41.92466" lon="9.1931">
        <ele>1799.24</ele>
        <time>2015-09-14T06:40:40Z</time>
      </trkpt>
      <trkpt lat="41.92465" lon="9.1931">
        <ele>1797.8</ele>
        <time>2015-09-14T06:40:42Z</time>
      </trkpt>
      <trkpt lat="41.92455" lon="9.19305">
        <ele>1797.8</ele>
        <time>2015-09-14T06:41:01Z</time>
      </trkpt>
      <trkpt lat="41.92455" lon="9.19291">
        <ele>1795.88</ele>
        <time>2015-09-14T06:41:18Z</time>
      </trkpt>
      <trkpt lat="41.92459" lon="9.19285">
        <ele>1792.03</ele>
        <time>2015-09-14T06:41:35Z</time>
      </trkpt>
      <trkpt lat="41.92461" lon="9.19278">
        <ele>1793</ele>
        <time>2015-09-14T06:41:53Z</time>
      </trkpt>
      <trkpt lat="41.92461" lon="9.19276">
        <ele>1792.03</ele>
        <time>2015-09-14T06:41:58Z</time>
      </trkpt>
      <trkpt lat="41.92458" lon="9.19273">
        <ele>1788.67</ele>
        <time>2015-09-14T06:42:11Z</time>
      </trkpt>
      <trkpt lat="41.92452" lon="9.19264">
        <ele>1788.19</ele>
        <time>2015-09-14T06:42:28Z</time>
      </trkpt>
      <trkpt lat="41.92452" lon="9.19259">
        <ele>1790.11</ele>
        <time>2015-09-14T06:42:43Z</time>
      </trkpt>
      <trkpt lat="41.92453" lon="9.19259">
        <ele>1788.67</ele>
        <time>2015-09-14T06:42:45Z</time>
      </trkpt>
      <trkpt lat="41.92455" lon="9.19258">
        <ele>1785.79</ele>
        <time>2015-09-14T06:42:49Z</time>
      </trkpt>
      <trkpt lat="41.92455" lon="9.19258">
        <ele>1785.79</ele>
        <time>2015-09-14T06:42:50Z</time>
      </trkpt>
      <trkpt lat="41.92454" lon="9.19256">
        <ele>1785.79</ele>
        <time>2015-09-14T06:43:10Z</time>
      </trkpt>
      <trkpt lat="41.92454" lon="9.19257">
        <ele>1786.27</ele>
        <time>2015-09-14T06:43:21Z</time>
      </trkpt>
      <trkpt lat="41.9245" lon="9.19256">
        <ele>1783.86</ele>
        <time>2015-09-14T06:43:28Z</time>
      </trkpt>
      <trkpt lat="41.92449" lon="9.19255">
        <ele>1785.31</ele>
        <time>2015-09-14T06:43:30Z</time>
      </trkpt>
      <trkpt lat="41.92449" lon="9.19254">
        <ele>1788.19</ele>
        <time>2015-09-14T06:43:38Z</time>
      </trkpt>
      <trkpt lat="41.92449" lon="9.19254">
        <ele>1788.19</ele>
        <time>2015-09-14T06:43:39Z</time>
      </trkpt>
      <trkpt lat="41.92449" lon="9.19254">
        <ele>1786.27</ele>
        <time>2015-09-14T06:43:41Z</time>
      </trkpt>
      <trkpt lat="41.92447" lon="9.19254">
        <ele>1786.75</ele>
        <time>2015-09-14T06:43:58Z</time>
      </trkpt>
      <trkpt lat="41.92445" lon="9.19249">
        <ele>1785.31</ele>
        <time>2015-09-14T06:44:19Z</time>
      </trkpt>
      <trkpt lat="41.9244" lon="9.19241">
        <ele>1786.75</ele>
        <time>2015-09-14T06:44:39Z</time>
      </trkpt>
      <trkpt lat="41.92434" lon="9.19237">
        <ele>1787.23</ele>
        <time>2015-09-14T06:44:57Z</time>
      </trkpt>
      <trkpt lat="41.92427" lon="9.19233">
        <ele>1790.11</ele>
        <time>2015-09-14T06:45:19Z</time>
      </trkpt>
      <trkpt lat="41.92418" lon="9.19231">
        <ele>1792.03</ele>
        <time>2015-09-14T06:45:42Z</time>
      </trkpt>
      <trkpt lat="41.92415" lon="9.19225">
        <ele>1794.44</ele>
        <time>2015-09-14T06:46:02Z</time>
      </trkpt>
      <trkpt lat="41.92412" lon="9.19226">
        <ele>1795.88</ele>
        <time>2015-09-14T06:46:24Z</time>
      </trkpt>
      <trkpt lat="41.92411" lon="9.19226">
        <ele>1795.88</ele>
        <time>2015-09-14T06:46:37Z</time>
      </trkpt>
      <trkpt lat="41.92409" lon="9.19224">
        <ele>1796.84</ele>
        <time>2015-09-14T06:46:50Z</time>
      </trkpt>
      <trkpt lat="41.92408" lon="9.19224">
        <ele>1798.28</ele>
        <time>2015-09-14T06:46:59Z</time>
      </trkpt>
      <trkpt lat="41.92396" lon="9.19215">
        <ele>1799.24</ele>
        <time>2015-09-14T06:47:20Z</time>
      </trkpt>
      <trkpt lat="41.92397" lon="9.1921">
        <ele>1797.8</ele>
        <time>2015-09-14T06:47:30Z</time>
      </trkpt>
      <trkpt lat="41.92396" lon="9.19205">
        <ele>1795.88</ele>
        <time>2015-09-14T06:47:37Z</time>
      </trkpt>
      <trkpt lat="41.92395" lon="9.19204">
        <ele>1797.8</ele>
        <time>2015-09-14T06:47:39Z</time>
      </trkpt>
      <trkpt lat="41.92394" lon="9.19199">
        <ele>1796.36</ele>
        <time>2015-09-14T06:47:53Z</time>
      </trkpt>
      <trkpt lat="41.92388" lon="9.19194">
        <ele>1793.96</ele>
        <time>2015-09-14T06:48:04Z</time>
      </trkpt>
      <trkpt lat="41.92388" lon="9.19193">
        <ele>1795.4</ele>
        <time>2015-09-14T06:48:08Z</time>
      </trkpt>
      <trkpt lat="41.92388" lon="9.19191">
        <ele>1793</ele>
        <time>2015-09-14T06:48:13Z</time>
      </trkpt>
      <trkpt lat="41.92386" lon="9.19188">
        <ele>1795.88</ele>
        <time>2015-09-14T06:48:16Z</time>
      </trkpt>
      <trkpt lat="41.92386" lon="9.19187">
        <ele>1795.88</ele>
        <time>2015-09-14T06:48:17Z</time>
      </trkpt>
      <trkpt lat="41.9238" lon="9.19185">
        <ele>1790.11</ele>
        <time>2015-09-14T06:48:30Z</time>
      </trkpt>
      <trkpt lat="41.9238" lon="9.19185">
        <ele>1790.11</ele>
        <time>2015-09-14T06:48:31Z</time>
      </trkpt>
      <trkpt lat="41.92379" lon="9.19184">
        <ele>1792.52</ele>
        <time>2015-09-14T06:48:34Z</time>
      </trkpt>
      <trkpt lat="41.92376" lon="9.19181">
        <ele>1791.55</ele>
        <time>2015-09-14T06:48:41Z</time>
      </trkpt>
      <trkpt lat="41.92373" lon="9.19178">
        <ele>1794.44</ele>
        <time>2015-09-14T06:48:46Z</time>
      </trkpt>
      <trkpt lat="41.9237" lon="9.19177">
        <ele>1795.88</ele>
        <time>2015-09-14T06:48:50Z</time>
      </trkpt>
      <trkpt lat="41.92365" lon="9.19174">
        <ele>1794.44</ele>
        <time>2015-09-14T06:49:02Z</time>
      </trkpt>
      <trkpt lat="41.92359" lon="9.19171">
        <ele>1798.28</ele>
        <time>2015-09-14T06:49:20Z</time>
      </trkpt>
      <trkpt lat="41.92358" lon="9.19171">
        <ele>1798.28</ele>
        <time>2015-09-14T06:49:21Z</time>
      </trkpt>
      <trkpt lat="41.92357" lon="9.19169">
        <ele>1796.84</ele>
        <time>2015-09-14T06:49:25Z</time>
      </trkpt>
      <trkpt lat="41.92343" lon="9.19161">
        <ele>1793.96</ele>
        <time>2015-09-14T06:49:46Z</time>
      </trkpt>
      <trkpt lat="41.92331" lon="9.19154">
        <ele>1795.88</ele>
        <time>2015-09-14T06:50:04Z</time>
      </trkpt>
      <trkpt lat="41.92323" lon="9.19148">
        <ele>1796.84</ele>
        <time>2015-09-14T06:50:24Z</time>
      </trkpt>
      <trkpt lat="41.9232" lon="9.19146">
        <ele>1799.24</ele>
        <time>2015-09-14T06:50:31Z</time>
      </trkpt>
      <trkpt lat="41.92319" lon="9.19144">
        <ele>1798.28</ele>
        <time>2015-09-14T06:50:36Z</time>
      </trkpt>
      <trkpt lat="41.92309" lon="9.19134">
        <ele>1799.73</ele>
        <time>2015-09-14T06:50:55Z</time>
      </trkpt>
      <trkpt lat="41.92309" lon="9.19133">
        <ele>1799.73</ele>
        <time>2015-09-14T06:50:56Z</time>
      </trkpt>
      <trkpt lat="41.92302" lon="9.19123">
        <ele>1800.21</ele>
        <time>2015-09-14T06:51:14Z</time>
      </trkpt>
      <trkpt lat="41.92303" lon="9.19114">
        <ele>1801.17</ele>
        <time>2015-09-14T06:51:30Z</time>
      </trkpt>
      <trkpt lat="41.92303" lon="9.19108">
        <ele>1800.69</ele>
        <time>2015-09-14T06:51:45Z</time>
      </trkpt>
      <trkpt lat="41.92303" lon="9.19107">
        <ele>1802.61</ele>
        <time>2015-09-14T06:51:50Z</time>
      </trkpt>
      <trkpt lat="41.92303" lon="9.19107">
        <ele>1800.69</ele>
        <time>2015-09-14T06:51:52Z</time>
      </trkpt>
      <trkpt lat="41.92296" lon="9.19094">
        <ele>1796.84</ele>
        <time>2015-09-14T06:52:09Z</time>
      </trkpt>
      <trkpt lat="41.92295" lon="9.19093">
        <ele>1797.32</ele>
        <time>2015-09-14T06:52:10Z</time>
      </trkpt>
      <trkpt lat="41.92294" lon="9.19092">
        <ele>1798.28</ele>
        <time>2015-09-14T06:52:11Z</time>
      </trkpt>
      <trkpt lat="41.92293" lon="9.1908">
        <ele>1798.28</ele>
        <time>2015-09-14T06:52:25Z</time>
      </trkpt>
      <trkpt lat="41.92291" lon="9.19072">
        <ele>1797.8</ele>
        <time>2015-09-14T06:52:35Z</time>
      </trkpt>
      <trkpt lat="41.92288" lon="9.19063">
        <ele>1793.96</ele>
        <time>2015-09-14T06:52:43Z</time>
      </trkpt>
      <trkpt lat="41.92278" lon="9.1906">
        <ele>1793.96</ele>
        <time>2015-09-14T06:53:01Z</time>
      </trkpt>
      <trkpt lat="41.92273" lon="9.19053">
        <ele>1790.59</ele>
        <time>2015-09-14T06:53:14Z</time>
      </trkpt>
      <trkpt lat="41.9227" lon="9.1905">
        <ele>1788.67</ele>
        <time>2015-09-14T06:53:21Z</time>
      </trkpt>
      <trkpt lat="41.92269" lon="9.19049">
        <ele>1793.48</ele>
        <time>2015-09-14T06:53:23Z</time>
      </trkpt>
      <trkpt lat="41.92264" lon="9.19047">
        <ele>1792.03</ele>
        <time>2015-09-14T06:53:32Z</time>
      </trkpt>
      <trkpt lat="41.9226" lon="9.19043">
        <ele>1788.67</ele>
        <time>2015-09-14T06:53:46Z</time>
      </trkpt>
      <trkpt lat="41.92258" lon="9.19041">
        <ele>1792.03</ele>
        <time>2015-09-14T06:53:55Z</time>
      </trkpt>
      <trkpt lat="41.92257" lon="9.19039">
        <ele>1794.44</ele>
        <time>2015-09-14T06:53:58Z</time>
      </trkpt>
      <trkpt lat="41.92255" lon="9.19036">
        <ele>1792.03</ele>
        <time>2015-09-14T06:54:01Z</time>
      </trkpt>
      <trkpt lat="41.92248" lon="9.19028">
        <ele>1790.59</ele>
        <time>2015-09-14T06:54:21Z</time>
      </trkpt>
      <trkpt lat="41.92243" lon="9.19028">
        <ele>1794.44</ele>
        <time>2015-09-14T06:54:35Z</time>
      </trkpt>
      <trkpt lat="41.92234" lon="9.19025">
        <ele>1797.32</ele>
        <time>2015-09-14T06:54:54Z</time>
      </trkpt>
      <trkpt lat="41.92227" lon="9.19024">
        <ele>1798.76</ele>
        <time>2015-09-14T06:55:12Z</time>
      </trkpt>
      <trkpt lat="41.92222" lon="9.19027">
        <ele>1802.13</ele>
        <time>2015-09-14T06:55:34Z</time>
      </trkpt>
      <trkpt lat="41.92215" lon="9.19032">
        <ele>1804.53</ele>
        <time>2015-09-14T06:55:54Z</time>
      </trkpt>
      <trkpt lat="41.92214" lon="9.19032">
        <ele>1805.97</ele>
        <time>2015-09-14T06:55:58Z</time>
      </trkpt>
      <trkpt lat="41.92205" lon="9.19035">
        <ele>1807.42</ele>
        <time>2015-09-14T06:56:19Z</time>
      </trkpt>
      <trkpt lat="41.92202" lon="9.19033">
        <ele>1811.26</ele>
        <time>2015-09-14T06:56:28Z</time>
      </trkpt>
      <trkpt lat="41.92198" lon="9.19031">
        <ele>1813.66</ele>
        <time>2015-09-14T06:56:38Z</time>
      </trkpt>
      <trkpt lat="41.92197" lon="9.19028">
        <ele>1812.7</ele>
        <time>2015-09-14T06:56:45Z</time>
      </trkpt>
      <trkpt lat="41.92196" lon="9.19026">
        <ele>1815.59</ele>
        <time>2015-09-14T06:56:51Z</time>
      </trkpt>
      <trkpt lat="41.92195" lon="9.19022">
        <ele>1817.03</ele>
        <time>2015-09-14T06:56:59Z</time>
      </trkpt>
      <trkpt lat="41.92194" lon="9.1902">
        <ele>1819.43</ele>
        <time>2015-09-14T06:57:05Z</time>
      </trkpt>
      <trkpt lat="41.92189" lon="9.19015">
        <ele>1822.8</ele>
        <time>2015-09-14T06:57:23Z</time>
      </trkpt>
      <trkpt lat="41.92189" lon="9.19015">
        <ele>1822.8</ele>
        <time>2015-09-14T06:57:28Z</time>
      </trkpt>
      <trkpt lat="41.92185" lon="9.19011">
        <ele>1818.95</ele>
        <time>2015-09-14T06:57:45Z</time>
      </trkpt>
      <trkpt lat="41.92184" lon="9.1901">
        <ele>1820.39</ele>
        <time>2015-09-14T06:57:46Z</time>
      </trkpt>
      <trkpt lat="41.92184" lon="9.1901">
        <ele>1821.35</ele>
        <time>2015-09-14T06:57:48Z</time>
      </trkpt>
      <trkpt lat="41.92181" lon="9.19004">
        <ele>1821.35</ele>
        <time>2015-09-14T06:58:06Z</time>
      </trkpt>
      <trkpt lat="41.92181" lon="9.19002">
        <ele>1822.32</ele>
        <time>2015-09-14T06:58:13Z</time>
      </trkpt>
      <trkpt lat="41.92181" lon="9.19002">
        <ele>1817.99</ele>
        <time>2015-09-14T06:58:14Z</time>
      </trkpt>
      <trkpt lat="41.92181" lon="9.19001">
        <ele>1817.99</ele>
        <time>2015-09-14T06:58:15Z</time>
      </trkpt>
      <trkpt lat="41.9218" lon="9.19">
        <ele>1822.8</ele>
        <time>2015-09-14T06:58:17Z</time>
      </trkpt>
      <trkpt lat="41.9218" lon="9.19">
        <ele>1823.76</ele>
        <time>2015-09-14T06:58:19Z</time>
      </trkpt>
      <trkpt lat="41.92179" lon="9.18998">
        <ele>1821.84</ele>
        <time>2015-09-14T06:58:22Z</time>
      </trkpt>
      <trkpt lat="41.92178" lon="9.18997">
        <ele>1823.28</ele>
        <time>2015-09-14T06:58:25Z</time>
      </trkpt>
      <trkpt lat="41.92178" lon="9.18996">
        <ele>1825.2</ele>
        <time>2015-09-14T06:58:28Z</time>
      </trkpt>
      <trkpt lat="41.92175" lon="9.18992">
        <ele>1821.35</ele>
        <time>2015-09-14T06:58:39Z</time>
      </trkpt>
      <trkpt lat="41.92175" lon="9.18992">
        <ele>1821.35</ele>
        <time>2015-09-14T06:58:40Z</time>
      </trkpt>
      <trkpt lat="41.92173" lon="9.1899">
        <ele>1822.8</ele>
        <time>2015-09-14T06:58:44Z</time>
      </trkpt>
      <trkpt lat="41.9217" lon="9.1899">
        <ele>1823.76</ele>
        <time>2015-09-14T06:58:48Z</time>
      </trkpt>
      <trkpt lat="41.92169" lon="9.18988">
        <ele>1827.12</ele>
        <time>2015-09-14T06:58:53Z</time>
      </trkpt>
      <trkpt lat="41.92168" lon="9.18988">
        <ele>1827.12</ele>
        <time>2015-09-14T06:58:54Z</time>
      </trkpt>
      <trkpt lat="41.92167" lon="9.18986">
        <ele>1828.56</ele>
        <time>2015-09-14T06:58:57Z</time>
      </trkpt>
      <trkpt lat="41.92165" lon="9.18984">
        <ele>1827.12</ele>
        <time>2015-09-14T06:59:01Z</time>
      </trkpt>
      <trkpt lat="41.92163" lon="9.18982">
        <ele>1825.2</ele>
        <time>2015-09-14T06:59:04Z</time>
      </trkpt>
      <trkpt lat="41.92163" lon="9.18981">
        <ele>1821.84</ele>
        <time>2015-09-14T06:59:06Z</time>
      </trkpt>
      <trkpt lat="41.92162" lon="9.18978">
        <ele>1820.39</ele>
        <time>2015-09-14T06:59:09Z</time>
      </trkpt>
      <trkpt lat="41.92161" lon="9.18976">
        <ele>1824.24</ele>
        <time>2015-09-14T06:59:12Z</time>
      </trkpt>
      <trkpt lat="41.9216" lon="9.18972">
        <ele>1827.12</ele>
        <time>2015-09-14T06:59:18Z</time>
      </trkpt>
      <trkpt lat="41.92159" lon="9.18971">
        <ele>1826.16</ele>
        <time>2015-09-14T06:59:20Z</time>
      </trkpt>
      <trkpt lat="41.92157" lon="9.18968">
        <ele>1823.28</ele>
        <time>2015-09-14T06:59:25Z</time>
      </trkpt>
      <trkpt lat="41.92154" lon="9.1896">
        <ele>1826.64</ele>
        <time>2015-09-14T06:59:37Z</time>
      </trkpt>
      <trkpt lat="41.92154" lon="9.18959">
        <ele>1828.56</ele>
        <time>2015-09-14T06:59:40Z</time>
      </trkpt>
      <trkpt lat="41.92152" lon="9.18957">
        <ele>1830.49</ele>
        <time>2015-09-14T06:59:45Z</time>
      </trkpt>
      <trkpt lat="41.92151" lon="9.18956">
        <ele>1831.93</ele>
        <time>2015-09-14T06:59:48Z</time>
      </trkpt>
      <trkpt lat="41.92145" lon="9.18954">
        <ele>1834.81</ele>
        <time>2015-09-14T07:00:04Z</time>
      </trkpt>
      <trkpt lat="41.92141" lon="9.18951">
        <ele>1839.14</ele>
        <time>2015-09-14T07:00:11Z</time>
      </trkpt>
      <trkpt lat="41.9214" lon="9.1895">
        <ele>1839.14</ele>
        <time>2015-09-14T07:00:12Z</time>
      </trkpt>
      <trkpt lat="41.92138" lon="9.18949">
        <ele>1834.81</ele>
        <time>2015-09-14T07:00:14Z</time>
      </trkpt>
      <trkpt lat="41.92138" lon="9.18948">
        <ele>1834.81</ele>
        <time>2015-09-14T07:00:15Z</time>
      </trkpt>
      <trkpt lat="41.92136" lon="9.18946">
        <ele>1832.89</ele>
        <time>2015-09-14T07:00:18Z</time>
      </trkpt>
      <trkpt lat="41.92135" lon="9.18943">
        <ele>1830.97</ele>
        <time>2015-09-14T07:00:23Z</time>
      </trkpt>
      <trkpt lat="41.92134" lon="9.18942">
        <ele>1836.26</ele>
        <time>2015-09-14T07:00:44Z</time>
      </trkpt>
      <trkpt lat="41.92134" lon="9.18941">
        <ele>1836.26</ele>
        <time>2015-09-14T07:00:45Z</time>
      </trkpt>
      <trkpt lat="41.92132" lon="9.18938">
        <ele>1837.7</ele>
        <time>2015-09-14T07:00:50Z</time>
      </trkpt>
      <trkpt lat="41.92132" lon="9.18937">
        <ele>1836.26</ele>
        <time>2015-09-14T07:00:52Z</time>
      </trkpt>
      <trkpt lat="41.92133" lon="9.18936">
        <ele>1831.93</ele>
        <time>2015-09-14T07:00:56Z</time>
      </trkpt>
      <trkpt lat="41.92131" lon="9.18934">
        <ele>1835.77</ele>
        <time>2015-09-14T07:01:00Z</time>
      </trkpt>
      <trkpt lat="41.92131" lon="9.18933">
        <ele>1835.77</ele>
        <time>2015-09-14T07:01:01Z</time>
      </trkpt>
      <trkpt lat="41.92129" lon="9.18934">
        <ele>1831.45</ele>
        <time>2015-09-14T07:01:05Z</time>
      </trkpt>
      <trkpt lat="41.92129" lon="9.18934">
        <ele>1831.45</ele>
        <time>2015-09-14T07:01:06Z</time>
      </trkpt>
      <trkpt lat="41.92127" lon="9.18932">
        <ele>1831.93</ele>
        <time>2015-09-14T07:01:13Z</time>
      </trkpt>
      <trkpt lat="41.92122" lon="9.18926">
        <ele>1830.49</ele>
        <time>2015-09-14T07:01:28Z</time>
      </trkpt>
      <trkpt lat="41.92123" lon="9.18925">
        <ele>1832.89</ele>
        <time>2015-09-14T07:01:32Z</time>
      </trkpt>
      <trkpt lat="41.92124" lon="9.18926">
        <ele>1835.77</ele>
        <time>2015-09-14T07:01:35Z</time>
      </trkpt>
      <trkpt lat="41.92125" lon="9.18926">
        <ele>1833.85</ele>
        <time>2015-09-14T07:01:37Z</time>
      </trkpt>
      <trkpt lat="41.92125" lon="9.18926">
        <ele>1829.53</ele>
        <time>2015-09-14T07:01:39Z</time>
      </trkpt>
      <trkpt lat="41.92126" lon="9.18926">
        <ele>1829.53</ele>
        <time>2015-09-14T07:01:40Z</time>
      </trkpt>
      <trkpt lat="41.92125" lon="9.18925">
        <ele>1830.97</ele>
        <time>2015-09-14T07:01:43Z</time>
      </trkpt>
      <trkpt lat="41.92124" lon="9.18922">
        <ele>1827.6</ele>
        <time>2015-09-14T07:01:46Z</time>
      </trkpt>
      <trkpt lat="41.92122" lon="9.18921">
        <ele>1832.41</ele>
        <time>2015-09-14T07:01:49Z</time>
      </trkpt>
      <trkpt lat="41.92121" lon="9.1892">
        <ele>1830.97</ele>
        <time>2015-09-14T07:01:50Z</time>
      </trkpt>
      <trkpt lat="41.9212" lon="9.1892">
        <ele>1830.01</ele>
        <time>2015-09-14T07:01:52Z</time>
      </trkpt>
      <trkpt lat="41.92118" lon="9.1892">
        <ele>1832.41</ele>
        <time>2015-09-14T07:01:56Z</time>
      </trkpt>
      <trkpt lat="41.92116" lon="9.18918">
        <ele>1825.2</ele>
        <time>2015-09-14T07:02:00Z</time>
      </trkpt>
      <trkpt lat="41.92116" lon="9.18917">
        <ele>1827.6</ele>
        <time>2015-09-14T07:02:01Z</time>
      </trkpt>
      <trkpt lat="41.92116" lon="9.18916">
        <ele>1831.45</ele>
        <time>2015-09-14T07:02:05Z</time>
      </trkpt>
      <trkpt lat="41.92116" lon="9.18915">
        <ele>1831.45</ele>
        <time>2015-09-14T07:02:06Z</time>
      </trkpt>
      <trkpt lat="41.92117" lon="9.18915">
        <ele>1828.08</ele>
        <time>2015-09-14T07:02:07Z</time>
      </trkpt>
      <trkpt lat="41.92117" lon="9.18915">
        <ele>1830.01</ele>
        <time>2015-09-14T07:02:08Z</time>
      </trkpt>
      <trkpt lat="41.92118" lon="9.18914">
        <ele>1824.72</ele>
        <time>2015-09-14T07:02:12Z</time>
      </trkpt>
      <trkpt lat="41.92119" lon="9.18912">
        <ele>1829.53</ele>
        <time>2015-09-14T07:02:17Z</time>
      </trkpt>
      <trkpt lat="41.92119" lon="9.18911">
        <ele>1826.16</ele>
        <time>2015-09-14T07:02:20Z</time>
      </trkpt>
      <trkpt lat="41.92119" lon="9.1891">
        <ele>1829.05</ele>
        <time>2015-09-14T07:02:22Z</time>
      </trkpt>
      <trkpt lat="41.92119" lon="9.1891">
        <ele>1829.05</ele>
        <time>2015-09-14T07:02:23Z</time>
      </trkpt>
      <trkpt lat="41.92118" lon="9.18909">
        <ele>1825.2</ele>
        <time>2015-09-14T07:02:25Z</time>
      </trkpt>
      <trkpt lat="41.92118" lon="9.18908">
        <ele>1823.76</ele>
        <time>2015-09-14T07:02:27Z</time>
      </trkpt>
      <trkpt lat="41.92117" lon="9.18907">
        <ele>1828.08</ele>
        <time>2015-09-14T07:02:29Z</time>
      </trkpt>
      <trkpt lat="41.92115" lon="9.18904">
        <ele>1829.05</ele>
        <time>2015-09-14T07:02:34Z</time>
      </trkpt>
      <trkpt lat="41.92112" lon="9.18901">
        <ele>1825.2</ele>
        <time>2015-09-14T07:02:40Z</time>
      </trkpt>
      <trkpt lat="41.92111" lon="9.18899">
        <ele>1827.6</ele>
        <time>2015-09-14T07:02:45Z</time>
      </trkpt>
      <trkpt lat="41.92111" lon="9.18898">
        <ele>1823.76</ele>
        <time>2015-09-14T07:02:48Z</time>
      </trkpt>
      <trkpt lat="41.92111" lon="9.18898">
        <ele>1826.16</ele>
        <time>2015-09-14T07:02:53Z</time>
      </trkpt>
      <trkpt lat="41.92111" lon="9.18897">
        <ele>1822.8</ele>
        <time>2015-09-14T07:02:58Z</time>
      </trkpt>
      <trkpt lat="41.92112" lon="9.18897">
        <ele>1822.8</ele>
        <time>2015-09-14T07:02:59Z</time>
      </trkpt>
      <trkpt lat="41.92112" lon="9.18896">
        <ele>1820.39</ele>
        <time>2015-09-14T07:03:04Z</time>
      </trkpt>
      <trkpt lat="41.92111" lon="9.18894">
        <ele>1823.28</ele>
        <time>2015-09-14T07:03:07Z</time>
      </trkpt>
      <trkpt lat="41.9211" lon="9.18892">
        <ele>1818.95</ele>
        <time>2015-09-14T07:03:11Z</time>
      </trkpt>
      <trkpt lat="41.92111" lon="9.1889">
        <ele>1819.43</ele>
        <time>2015-09-14T07:03:18Z</time>
      </trkpt>
      <trkpt lat="41.9211" lon="9.18889">
        <ele>1815.59</ele>
        <time>2015-09-14T07:03:24Z</time>
      </trkpt>
      <trkpt lat="41.9211" lon="9.18889">
        <ele>1817.99</ele>
        <time>2015-09-14T07:03:25Z</time>
      </trkpt>
      <trkpt lat="41.9211" lon="9.18889">
        <ele>1816.07</ele>
        <time>2015-09-14T07:03:28Z</time>
      </trkpt>
      <trkpt lat="41.9211" lon="9.1889">
        <ele>1819.91</ele>
        <time>2015-09-14T07:03:37Z</time>
      </trkpt>
      <trkpt lat="41.9211" lon="9.1889">
        <ele>1820.87</ele>
        <time>2015-09-14T07:03:39Z</time>
      </trkpt>
      <trkpt lat="41.9211" lon="9.18891">
        <ele>1819.91</ele>
        <time>2015-09-14T07:03:41Z</time>
      </trkpt>
      <trkpt lat="41.92109" lon="9.18892">
        <ele>1823.76</ele>
        <time>2015-09-14T07:03:47Z</time>
      </trkpt>
      <trkpt lat="41.92109" lon="9.18891">
        <ele>1823.76</ele>
        <time>2015-09-14T07:03:48Z</time>
      </trkpt>
      <trkpt lat="41.9211" lon="9.18889">
        <ele>1815.59</ele>
        <time>2015-09-14T07:03:53Z</time>
      </trkpt>
      <trkpt lat="41.9211" lon="9.18889">
        <ele>1811.74</ele>
        <time>2015-09-14T07:03:54Z</time>
      </trkpt>
      <trkpt lat="41.9211" lon="9.18887">
        <ele>1818.95</ele>
        <time>2015-09-14T07:03:57Z</time>
      </trkpt>
      <trkpt lat="41.9211" lon="9.18883">
        <ele>1817.99</ele>
        <time>2015-09-14T07:04:03Z</time>
      </trkpt>
      <trkpt lat="41.92111" lon="9.18882">
        <ele>1821.35</ele>
        <time>2015-09-14T07:04:06Z</time>
      </trkpt>
      <trkpt lat="41.92111" lon="9.18881">
        <ele>1821.35</ele>
        <time>2015-09-14T07:04:07Z</time>
      </trkpt>
      <trkpt lat="41.92112" lon="9.18882">
        <ele>1818.47</ele>
        <time>2015-09-14T07:04:09Z</time>
      </trkpt>
      <trkpt lat="41.92113" lon="9.18881">
        <ele>1813.66</ele>
        <time>2015-09-14T07:04:12Z</time>
      </trkpt>
      <trkpt lat="41.92113" lon="9.1888">
        <ele>1813.66</ele>
        <time>2015-09-14T07:04:13Z</time>
      </trkpt>
      <trkpt lat="41.92114" lon="9.18875">
        <ele>1810.3</ele>
        <time>2015-09-14T07:04:19Z</time>
      </trkpt>
      <trkpt lat="41.92114" lon="9.18872">
        <ele>1813.66</ele>
        <time>2015-09-14T07:04:22Z</time>
      </trkpt>
      <trkpt lat="41.92113" lon="9.18871">
        <ele>1813.66</ele>
        <time>2015-09-14T07:04:23Z</time>
      </trkpt>
      <trkpt lat="41.92112" lon="9.18865">
        <ele>1815.11</ele>
        <time>2015-09-14T07:04:28Z</time>
      </trkpt>
      <trkpt lat="41.92111" lon="9.1886">
        <ele>1813.66</ele>
        <time>2015-09-14T07:04:32Z</time>
      </trkpt>
      <trkpt lat="41.92107" lon="9.18847">
        <ele>1808.86</ele>
        <time>2015-09-14T07:04:46Z</time>
      </trkpt>
      <trkpt lat="41.92107" lon="9.18846">
        <ele>1808.86</ele>
        <time>2015-09-14T07:04:47Z</time>
      </trkpt>
      <trkpt lat="41.92107" lon="9.18844">
        <ele>1812.7</ele>
        <time>2015-09-14T07:04:49Z</time>
      </trkpt>
      <trkpt lat="41.92107" lon="9.18843">
        <ele>1812.7</ele>
        <time>2015-09-14T07:04:50Z</time>
      </trkpt>
      <trkpt lat="41.92106" lon="9.18839">
        <ele>1812.7</ele>
        <time>2015-09-14T07:04:53Z</time>
      </trkpt>
      <trkpt lat="41.92104" lon="9.18833">
        <ele>1813.66</ele>
        <time>2015-09-14T07:04:56Z</time>
      </trkpt>
      <trkpt lat="41.92102" lon="9.18824">
        <ele>1809.34</ele>
        <time>2015-09-14T07:05:02Z</time>
      </trkpt>
      <trkpt lat="41.92102" lon="9.18823">
        <ele>1809.34</ele>
        <time>2015-09-14T07:05:03Z</time>
      </trkpt>
      <trkpt lat="41.921" lon="9.18816">
        <ele>1808.38</ele>
        <time>2015-09-14T07:05:09Z</time>
      </trkpt>
      <trkpt lat="41.921" lon="9.18813">
        <ele>1810.78</ele>
        <time>2015-09-14T07:05:11Z</time>
      </trkpt>
      <trkpt lat="41.92099" lon="9.1881">
        <ele>1812.22</ele>
        <time>2015-09-14T07:05:14Z</time>
      </trkpt>
      <trkpt lat="41.92099" lon="9.18805">
        <ele>1809.82</ele>
        <time>2015-09-14T07:05:18Z</time>
      </trkpt>
      <trkpt lat="41.92098" lon="9.18802">
        <ele>1812.22</ele>
        <time>2015-09-14T07:05:21Z</time>
      </trkpt>
      <trkpt lat="41.92096" lon="9.18792">
        <ele>1808.38</ele>
        <time>2015-09-14T07:05:31Z</time>
      </trkpt>
      <trkpt lat="41.92096" lon="9.18791">
        <ele>1808.38</ele>
        <time>2015-09-14T07:05:32Z</time>
      </trkpt>
      <trkpt lat="41.92094" lon="9.18788">
        <ele>1809.82</ele>
        <time>2015-09-14T07:05:36Z</time>
      </trkpt>
      <trkpt lat="41.92093" lon="9.18783">
        <ele>1810.78</ele>
        <time>2015-09-14T07:05:41Z</time>
      </trkpt>
      <trkpt lat="41.92091" lon="9.18779">
        <ele>1808.38</ele>
        <time>2015-09-14T07:05:44Z</time>
      </trkpt>
      <trkpt lat="41.92089" lon="9.18773">
        <ele>1805.01</ele>
        <time>2015-09-14T07:05:50Z</time>
      </trkpt>
      <trkpt lat="41.92089" lon="9.18772">
        <ele>1808.38</ele>
        <time>2015-09-14T07:05:51Z</time>
      </trkpt>
      <trkpt lat="41.92087" lon="9.18771">
        <ele>1809.34</ele>
        <time>2015-09-14T07:05:53Z</time>
      </trkpt>
      <trkpt lat="41.92085" lon="9.18769">
        <ele>1810.78</ele>
        <time>2015-09-14T07:05:58Z</time>
      </trkpt>
      <trkpt lat="41.92085" lon="9.18768">
        <ele>1809.82</ele>
        <time>2015-09-14T07:06:00Z</time>
      </trkpt>
      <trkpt lat="41.92082" lon="9.18764">
        <ele>1812.7</ele>
        <time>2015-09-14T07:06:16Z</time>
      </trkpt>
      <trkpt lat="41.92081" lon="9.1876">
        <ele>1811.74</ele>
        <time>2015-09-14T07:06:23Z</time>
      </trkpt>
      <trkpt lat="41.92073" lon="9.18755">
        <ele>1815.11</ele>
        <time>2015-09-14T07:06:38Z</time>
      </trkpt>
      <trkpt lat="41.92073" lon="9.18755">
        <ele>1815.11</ele>
        <time>2015-09-14T07:06:39Z</time>
      </trkpt>
      <trkpt lat="41.92071" lon="9.18753">
        <ele>1816.55</ele>
        <time>2015-09-14T07:06:43Z</time>
      </trkpt>
      <trkpt lat="41.9207" lon="9.1875">
        <ele>1813.18</ele>
        <time>2015-09-14T07:06:48Z</time>
      </trkpt>
      <trkpt lat="41.9207" lon="9.18749">
        <ele>1813.18</ele>
        <time>2015-09-14T07:06:49Z</time>
      </trkpt>
      <trkpt lat="41.92069" lon="9.18749">
        <ele>1816.07</ele>
        <time>2015-09-14T07:06:51Z</time>
      </trkpt>
      <trkpt lat="41.92068" lon="9.18747">
        <ele>1817.51</ele>
        <time>2015-09-14T07:06:53Z</time>
      </trkpt>
      <trkpt lat="41.92065" lon="9.18743">
        <ele>1821.35</ele>
        <time>2015-09-14T07:07:00Z</time>
      </trkpt>
      <trkpt lat="41.9206" lon="9.18743">
        <ele>1819.43</ele>
        <time>2015-09-14T07:07:07Z</time>
      </trkpt>
      <trkpt lat="41.92057" lon="9.18741">
        <ele>1821.35</ele>
        <time>2015-09-14T07:07:11Z</time>
      </trkpt>
      <trkpt lat="41.92056" lon="9.18741">
        <ele>1818.47</ele>
        <time>2015-09-14T07:07:13Z</time>
      </trkpt>
      <trkpt lat="41.92056" lon="9.1874">
        <ele>1818.47</ele>
        <time>2015-09-14T07:07:14Z</time>
      </trkpt>
      <trkpt lat="41.92054" lon="9.18738">
        <ele>1819.91</ele>
        <time>2015-09-14T07:07:17Z</time>
      </trkpt>
      <trkpt lat="41.92052" lon="9.18737">
        <ele>1820.87</ele>
        <time>2015-09-14T07:07:20Z</time>
      </trkpt>
      <trkpt lat="41.92049" lon="9.18736">
        <ele>1818.47</ele>
        <time>2015-09-14T07:07:24Z</time>
      </trkpt>
      <trkpt lat="41.9204" lon="9.18724">
        <ele>1819.43</ele>
        <time>2015-09-14T07:07:42Z</time>
      </trkpt>
      <trkpt lat="41.92039" lon="9.1872">
        <ele>1821.35</ele>
        <time>2015-09-14T07:07:48Z</time>
      </trkpt>
      <trkpt lat="41.92037" lon="9.1871">
        <ele>1820.39</ele>
        <time>2015-09-14T07:08:06Z</time>
      </trkpt>
      <trkpt lat="41.92033" lon="9.18699">
        <ele>1822.8</ele>
        <time>2015-09-14T07:08:23Z</time>
      </trkpt>
      <trkpt lat="41.92032" lon="9.18693">
        <ele>1818.95</ele>
        <time>2015-09-14T07:08:31Z</time>
      </trkpt>
      <trkpt lat="41.92032" lon="9.18693">
        <ele>1818.95</ele>
        <time>2015-09-14T07:08:32Z</time>
      </trkpt>
      <trkpt lat="41.92032" lon="9.18692">
        <ele>1823.76</ele>
        <time>2015-09-14T07:08:33Z</time>
      </trkpt>
      <trkpt lat="41.92032" lon="9.18692">
        <ele>1821.84</ele>
        <time>2015-09-14T07:08:34Z</time>
      </trkpt>
      <trkpt lat="41.92032" lon="9.18691">
        <ele>1818.47</ele>
        <time>2015-09-14T07:08:35Z</time>
      </trkpt>
      <trkpt lat="41.92032" lon="9.18688">
        <ele>1822.8</ele>
        <time>2015-09-14T07:08:38Z</time>
      </trkpt>
      <trkpt lat="41.9203" lon="9.18688">
        <ele>1823.76</ele>
        <time>2015-09-14T07:08:40Z</time>
      </trkpt>
      <trkpt lat="41.92029" lon="9.18687">
        <ele>1820.87</ele>
        <time>2015-09-14T07:08:43Z</time>
      </trkpt>
      <trkpt lat="41.92027" lon="9.18686">
        <ele>1822.32</ele>
        <time>2015-09-14T07:08:46Z</time>
      </trkpt>
      <trkpt lat="41.9202" lon="9.18676">
        <ele>1822.32</ele>
        <time>2015-09-14T07:08:58Z</time>
      </trkpt>
      <trkpt lat="41.9202" lon="9.18675">
        <ele>1820.87</ele>
        <time>2015-09-14T07:09:00Z</time>
      </trkpt>
      <trkpt lat="41.92012" lon="9.18665">
        <ele>1823.28</ele>
        <time>2015-09-14T07:09:18Z</time>
      </trkpt>
      <trkpt lat="41.9201" lon="9.18662">
        <ele>1818.95</ele>
        <time>2015-09-14T07:09:24Z</time>
      </trkpt>
      <trkpt lat="41.9201" lon="9.1866">
        <ele>1816.55</ele>
        <time>2015-09-14T07:09:26Z</time>
      </trkpt>
      <trkpt lat="41.92009" lon="9.18659">
        <ele>1820.39</ele>
        <time>2015-09-14T07:09:27Z</time>
      </trkpt>
      <trkpt lat="41.92009" lon="9.18659">
        <ele>1820.39</ele>
        <time>2015-09-14T07:09:28Z</time>
      </trkpt>
      <trkpt lat="41.92007" lon="9.18652">
        <ele>1819.91</ele>
        <time>2015-09-14T07:09:37Z</time>
      </trkpt>
      <trkpt lat="41.92002" lon="9.18648">
        <ele>1821.84</ele>
        <time>2015-09-14T07:09:46Z</time>
      </trkpt>
      <trkpt lat="41.92" lon="9.18647">
        <ele>1820.39</ele>
        <time>2015-09-14T07:09:50Z</time>
      </trkpt>
      <trkpt lat="41.91999" lon="9.18647">
        <ele>1818.95</ele>
        <time>2015-09-14T07:09:55Z</time>
      </trkpt>
      <trkpt lat="41.91995" lon="9.18646">
        <ele>1815.11</ele>
        <time>2015-09-14T07:10:05Z</time>
      </trkpt>
      <trkpt lat="41.91994" lon="9.18645">
        <ele>1817.99</ele>
        <time>2015-09-14T07:10:10Z</time>
      </trkpt>
      <trkpt lat="41.91993" lon="9.18645">
        <ele>1813.66</ele>
        <time>2015-09-14T07:10:20Z</time>
      </trkpt>
      <trkpt lat="41.91994" lon="9.18644">
        <ele>1817.51</ele>
        <time>2015-09-14T07:10:24Z</time>
      </trkpt>
      <trkpt lat="41.91994" lon="9.18642">
        <ele>1814.15</ele>
        <time>2015-09-14T07:10:31Z</time>
      </trkpt>
      <trkpt lat="41.91994" lon="9.18642">
        <ele>1814.15</ele>
        <time>2015-09-14T07:10:32Z</time>
      </trkpt>
      <trkpt lat="41.91993" lon="9.18641">
        <ele>1816.07</ele>
        <time>2015-09-14T07:10:38Z</time>
      </trkpt>
      <trkpt lat="41.91992" lon="9.18641">
        <ele>1814.63</ele>
        <time>2015-09-14T07:10:40Z</time>
      </trkpt>
      <trkpt lat="41.91991" lon="9.18642">
        <ele>1816.07</ele>
        <time>2015-09-14T07:10:43Z</time>
      </trkpt>
      <trkpt lat="41.9199" lon="9.18642">
        <ele>1814.15</ele>
        <time>2015-09-14T07:10:48Z</time>
      </trkpt>
      <trkpt lat="41.91988" lon="9.18641">
        <ele>1811.74</ele>
        <time>2015-09-14T07:10:54Z</time>
      </trkpt>
      <trkpt lat="41.91988" lon="9.18641">
        <ele>1808.38</ele>
        <time>2015-09-14T07:10:55Z</time>
      </trkpt>
      <trkpt lat="41.91988" lon="9.1864">
        <ele>1808.38</ele>
        <time>2015-09-14T07:10:56Z</time>
      </trkpt>
      <trkpt lat="41.91987" lon="9.18639">
        <ele>1812.22</ele>
        <time>2015-09-14T07:10:58Z</time>
      </trkpt>
      <trkpt lat="41.91987" lon="9.18639">
        <ele>1812.22</ele>
        <time>2015-09-14T07:10:59Z</time>
      </trkpt>
      <trkpt lat="41.91986" lon="9.18639">
        <ele>1810.3</ele>
        <time>2015-09-14T07:11:01Z</time>
      </trkpt>
      <trkpt lat="41.91984" lon="9.18639">
        <ele>1808.38</ele>
        <time>2015-09-14T07:11:04Z</time>
      </trkpt>
      <trkpt lat="41.91981" lon="9.18636">
        <ele>1805.49</ele>
        <time>2015-09-14T07:11:16Z</time>
      </trkpt>
      <trkpt lat="41.91977" lon="9.18636">
        <ele>1803.57</ele>
        <time>2015-09-14T07:11:24Z</time>
      </trkpt>
      <trkpt lat="41.91977" lon="9.18636">
        <ele>1805.01</ele>
        <time>2015-09-14T07:11:26Z</time>
      </trkpt>
      <trkpt lat="41.91974" lon="9.18628">
        <ele>1801.17</ele>
        <time>2015-09-14T07:11:39Z</time>
      </trkpt>
      <trkpt lat="41.91974" lon="9.18628">
        <ele>1801.17</ele>
        <time>2015-09-14T07:11:40Z</time>
      </trkpt>
      <trkpt lat="41.91974" lon="9.18627">
        <ele>1805.97</ele>
        <time>2015-09-14T07:11:42Z</time>
      </trkpt>
      <trkpt lat="41.91974" lon="9.18627">
        <ele>1805.97</ele>
        <time>2015-09-14T07:11:43Z</time>
      </trkpt>
      <trkpt lat="41.91973" lon="9.18627">
        <ele>1802.61</ele>
        <time>2015-09-14T07:11:47Z</time>
      </trkpt>
      <trkpt lat="41.91972" lon="9.18627">
        <ele>1802.61</ele>
        <time>2015-09-14T07:11:56Z</time>
      </trkpt>
      <trkpt lat="41.91971" lon="9.18628">
        <ele>1805.01</ele>
        <time>2015-09-14T07:11:57Z</time>
      </trkpt>
      <trkpt lat="41.91971" lon="9.18629">
        <ele>1806.94</ele>
        <time>2015-09-14T07:12:00Z</time>
      </trkpt>
      <trkpt lat="41.91969" lon="9.18633">
        <ele>1814.15</ele>
        <time>2015-09-14T07:12:06Z</time>
      </trkpt>
      <trkpt lat="41.91969" lon="9.18633">
        <ele>1811.26</ele>
        <time>2015-09-14T07:12:07Z</time>
      </trkpt>
      <trkpt lat="41.91968" lon="9.18633">
        <ele>1810.3</ele>
        <time>2015-09-14T07:12:09Z</time>
      </trkpt>
      <trkpt lat="41.91967" lon="9.18634">
        <ele>1807.42</ele>
        <time>2015-09-14T07:12:13Z</time>
      </trkpt>
      <trkpt lat="41.91957" lon="9.18626">
        <ele>1806.94</ele>
        <time>2015-09-14T07:12:31Z</time>
      </trkpt>
      <trkpt lat="41.91952" lon="9.18629">
        <ele>1803.57</ele>
        <time>2015-09-14T07:12:45Z</time>
      </trkpt>
      <trkpt lat="41.91945" lon="9.18626">
        <ele>1801.65</ele>
        <time>2015-09-14T07:13:07Z</time>
      </trkpt>
      <trkpt lat="41.91938" lon="9.18621">
        <ele>1801.65</ele>
        <time>2015-09-14T07:13:23Z</time>
      </trkpt>
      <trkpt lat="41.91932" lon="9.18616">
        <ele>1804.05</ele>
        <time>2015-09-14T07:13:43Z</time>
      </trkpt>
      <trkpt lat="41.91929" lon="9.18614">
        <ele>1805.49</ele>
        <time>2015-09-14T07:14:02Z</time>
      </trkpt>
      <trkpt lat="41.91933" lon="9.18611">
        <ele>1806.45</ele>
        <time>2015-09-14T07:14:23Z</time>
      </trkpt>
      <trkpt lat="41.91931" lon="9.18608">
        <ele>1808.38</ele>
        <time>2015-09-14T07:14:41Z</time>
      </trkpt>
      <trkpt lat="41.91931" lon="9.18604">
        <ele>1810.78</ele>
        <time>2015-09-14T07:14:58Z</time>
      </trkpt>
      <trkpt lat="41.9193" lon="9.18606">
        <ele>1814.15</ele>
        <time>2015-09-14T07:15:19Z</time>
      </trkpt>
      <trkpt lat="41.91933" lon="9.18602">
        <ele>1815.11</ele>
        <time>2015-09-14T07:15:37Z</time>
      </trkpt>
      <trkpt lat="41.91934" lon="9.18598">
        <ele>1814.15</ele>
        <time>2015-09-14T07:15:56Z</time>
      </trkpt>
      <trkpt lat="41.91935" lon="9.18598">
        <ele>1816.07</ele>
        <time>2015-09-14T07:15:58Z</time>
      </trkpt>
      <trkpt lat="41.91932" lon="9.18593">
        <ele>1817.99</ele>
        <time>2015-09-14T07:16:08Z</time>
      </trkpt>
      <trkpt lat="41.91932" lon="9.18592">
        <ele>1816.07</ele>
        <time>2015-09-14T07:16:10Z</time>
      </trkpt>
      <trkpt lat="41.91931" lon="9.18592">
        <ele>1819.43</ele>
        <time>2015-09-14T07:16:16Z</time>
      </trkpt>
      <trkpt lat="41.9193" lon="9.18591">
        <ele>1821.35</ele>
        <time>2015-09-14T07:16:19Z</time>
      </trkpt>
      <trkpt lat="41.9193" lon="9.18591">
        <ele>1818.47</ele>
        <time>2015-09-14T07:16:23Z</time>
      </trkpt>
      <trkpt lat="41.91928" lon="9.18592">
        <ele>1821.35</ele>
        <time>2015-09-14T07:16:26Z</time>
      </trkpt>
      <trkpt lat="41.91927" lon="9.18592">
        <ele>1818.95</ele>
        <time>2015-09-14T07:16:29Z</time>
      </trkpt>
      <trkpt lat="41.91922" lon="9.18593">
        <ele>1822.32</ele>
        <time>2015-09-14T07:16:39Z</time>
      </trkpt>
      <trkpt lat="41.91922" lon="9.18593">
        <ele>1824.24</ele>
        <time>2015-09-14T07:16:49Z</time>
      </trkpt>
      <trkpt lat="41.91921" lon="9.18592">
        <ele>1821.35</ele>
        <time>2015-09-14T07:16:55Z</time>
      </trkpt>
      <trkpt lat="41.9192" lon="9.18592">
        <ele>1821.35</ele>
        <time>2015-09-14T07:16:56Z</time>
      </trkpt>
      <trkpt lat="41.91918" lon="9.18593">
        <ele>1823.28</ele>
        <time>2015-09-14T07:17:02Z</time>
      </trkpt>
      <trkpt lat="41.91913" lon="9.1859">
        <ele>1826.64</ele>
        <time>2015-09-14T07:17:12Z</time>
      </trkpt>
      <trkpt lat="41.91907" lon="9.18594">
        <ele>1825.68</ele>
        <time>2015-09-14T07:17:26Z</time>
      </trkpt>
      <trkpt lat="41.91901" lon="9.1859">
        <ele>1824.24</ele>
        <time>2015-09-14T07:17:37Z</time>
      </trkpt>
      <trkpt lat="41.91897" lon="9.1859">
        <ele>1825.2</ele>
        <time>2015-09-14T07:17:43Z</time>
      </trkpt>
      <trkpt lat="41.91895" lon="9.18586">
        <ele>1823.76</ele>
        <time>2015-09-14T07:17:47Z</time>
      </trkpt>
      <trkpt lat="41.91888" lon="9.18581">
        <ele>1820.39</ele>
        <time>2015-09-14T07:18:03Z</time>
      </trkpt>
      <trkpt lat="41.91882" lon="9.18575">
        <ele>1820.39</ele>
        <time>2015-09-14T07:18:15Z</time>
      </trkpt>
      <trkpt lat="41.91876" lon="9.18566">
        <ele>1823.28</ele>
        <time>2015-09-14T07:18:28Z</time>
      </trkpt>
      <trkpt lat="41.91875" lon="9.18566">
        <ele>1823.28</ele>
        <time>2015-09-14T07:18:31Z</time>
      </trkpt>
      <trkpt lat="41.91874" lon="9.18564">
        <ele>1820.39</ele>
        <time>2015-09-14T07:18:33Z</time>
      </trkpt>
      <trkpt lat="41.91874" lon="9.18562">
        <ele>1820.39</ele>
        <time>2015-09-14T07:18:35Z</time>
      </trkpt>
      <trkpt lat="41.91872" lon="9.18556">
        <ele>1820.39</ele>
        <time>2015-09-14T07:18:44Z</time>
      </trkpt>
      <trkpt lat="41.91871" lon="9.18555">
        <ele>1818.95</ele>
        <time>2015-09-14T07:18:46Z</time>
      </trkpt>
      <trkpt lat="41.91864" lon="9.18546">
        <ele>1819.43</ele>
        <time>2015-09-14T07:19:02Z</time>
      </trkpt>
      <trkpt lat="41.91863" lon="9.18545">
        <ele>1820.39</ele>
        <time>2015-09-14T07:19:04Z</time>
      </trkpt>
      <trkpt lat="41.91858" lon="9.18536">
        <ele>1820.87</ele>
        <time>2015-09-14T07:19:22Z</time>
      </trkpt>
      <trkpt lat="41.91855" lon="9.1853">
        <ele>1822.8</ele>
        <time>2015-09-14T07:19:40Z</time>
      </trkpt>
      <trkpt lat="41.91853" lon="9.18528">
        <ele>1824.24</ele>
        <time>2015-09-14T07:19:58Z</time>
      </trkpt>
      <trkpt lat="41.9185" lon="9.18523">
        <ele>1821.84</ele>
        <time>2015-09-14T07:20:13Z</time>
      </trkpt>
      <trkpt lat="41.91843" lon="9.18518">
        <ele>1823.28</ele>
        <time>2015-09-14T07:20:31Z</time>
      </trkpt>
      <trkpt lat="41.91843" lon="9.18518">
        <ele>1823.28</ele>
        <time>2015-09-14T07:20:32Z</time>
      </trkpt>
      <trkpt lat="41.91843" lon="9.18517">
        <ele>1821.84</ele>
        <time>2015-09-14T07:20:34Z</time>
      </trkpt>
      <trkpt lat="41.91842" lon="9.18515">
        <ele>1817.51</ele>
        <time>2015-09-14T07:20:36Z</time>
      </trkpt>
      <trkpt lat="41.91842" lon="9.18514">
        <ele>1818.95</ele>
        <time>2015-09-14T07:20:37Z</time>
      </trkpt>
      <trkpt lat="41.91841" lon="9.18511">
        <ele>1822.32</ele>
        <time>2015-09-14T07:20:41Z</time>
      </trkpt>
      <trkpt lat="41.91841" lon="9.18511">
        <ele>1822.32</ele>
        <time>2015-09-14T07:20:42Z</time>
      </trkpt>
      <trkpt lat="41.91841" lon="9.18511">
        <ele>1818.47</ele>
        <time>2015-09-14T07:20:43Z</time>
      </trkpt>
      <trkpt lat="41.9184" lon="9.1851">
        <ele>1821.84</ele>
        <time>2015-09-14T07:20:44Z</time>
      </trkpt>
      <trkpt lat="41.9184" lon="9.1851">
        <ele>1831.93</ele>
        <time>2015-09-14T07:20:45Z</time>
      </trkpt>
      <trkpt lat="41.91839" lon="9.1851">
        <ele>1831.93</ele>
        <time>2015-09-14T07:20:46Z</time>
      </trkpt>
      <trkpt lat="41.91839" lon="9.1851">
        <ele>1828.08</ele>
        <time>2015-09-14T07:20:48Z</time>
      </trkpt>
      <trkpt lat="41.91839" lon="9.18509">
        <ele>1831.45</ele>
        <time>2015-09-14T07:20:50Z</time>
      </trkpt>
      <trkpt lat="41.91839" lon="9.18509">
        <ele>1822.32</ele>
        <time>2015-09-14T07:20:51Z</time>
      </trkpt>
      <trkpt lat="41.9184" lon="9.18509">
        <ele>1830.97</ele>
        <time>2015-09-14T07:20:52Z</time>
      </trkpt>
      <trkpt lat="41.9184" lon="9.18509">
        <ele>1842.5</ele>
        <time>2015-09-14T07:20:53Z</time>
      </trkpt>
      <trkpt lat="41.91841" lon="9.18509">
        <ele>1842.02</ele>
        <time>2015-09-14T07:20:54Z</time>
      </trkpt>
      <trkpt lat="41.91841" lon="9.18509">
        <ele>1835.77</ele>
        <time>2015-09-14T07:20:56Z</time>
      </trkpt>
      <trkpt lat="41.91841" lon="9.18508">
        <ele>1840.1</ele>
        <time>2015-09-14T07:20:57Z</time>
      </trkpt>
      <trkpt lat="41.91841" lon="9.18508">
        <ele>1835.29</ele>
        <time>2015-09-14T07:20:58Z</time>
      </trkpt>
      <trkpt lat="41.91841" lon="9.18508">
        <ele>1830.49</ele>
        <time>2015-09-14T07:21:00Z</time>
      </trkpt>
      <trkpt lat="41.91842" lon="9.18507">
        <ele>1824.72</ele>
        <time>2015-09-14T07:21:01Z</time>
      </trkpt>
      <trkpt lat="41.91842" lon="9.18507">
        <ele>1823.76</ele>
        <time>2015-09-14T07:21:03Z</time>
      </trkpt>
      <trkpt lat="41.91842" lon="9.18508">
        <ele>1824.72</ele>
        <time>2015-09-14T07:21:05Z</time>
      </trkpt>
      <trkpt lat="41.91843" lon="9.18507">
        <ele>1823.28</ele>
        <time>2015-09-14T07:21:08Z</time>
      </trkpt>
      <trkpt lat="41.91843" lon="9.18505">
        <ele>1818.95</ele>
        <time>2015-09-14T07:21:10Z</time>
      </trkpt>
      <trkpt lat="41.91843" lon="9.18504">
        <ele>1813.18</ele>
        <time>2015-09-14T07:21:12Z</time>
      </trkpt>
      <trkpt lat="41.91843" lon="9.18504">
        <ele>1814.63</ele>
        <time>2015-09-14T07:21:13Z</time>
      </trkpt>
      <trkpt lat="41.91843" lon="9.18502">
        <ele>1817.51</ele>
        <time>2015-09-14T07:21:15Z</time>
      </trkpt>
      <trkpt lat="41.91843" lon="9.18502">
        <ele>1817.51</ele>
        <time>2015-09-14T07:21:16Z</time>
      </trkpt>
      <trkpt lat="41.91842" lon="9.18501">
        <ele>1813.18</ele>
        <time>2015-09-14T07:21:17Z</time>
      </trkpt>
      <trkpt lat="41.91842" lon="9.18501">
        <ele>1813.18</ele>
        <time>2015-09-14T07:21:18Z</time>
      </trkpt>
      <trkpt lat="41.9184" lon="9.18495">
        <ele>1813.18</ele>
        <time>2015-09-14T07:21:29Z</time>
      </trkpt>
      <trkpt lat="41.9184" lon="9.18491">
        <ele>1808.86</ele>
        <time>2015-09-14T07:21:33Z</time>
      </trkpt>
      <trkpt lat="41.9184" lon="9.18491">
        <ele>1810.3</ele>
        <time>2015-09-14T07:21:34Z</time>
      </trkpt>
      <trkpt lat="41.91839" lon="9.1849">
        <ele>1811.74</ele>
        <time>2015-09-14T07:21:36Z</time>
      </trkpt>
      <trkpt lat="41.91836" lon="9.18487">
        <ele>1808.86</ele>
        <time>2015-09-14T07:21:41Z</time>
      </trkpt>
      <trkpt lat="41.91836" lon="9.18485">
        <ele>1812.7</ele>
        <time>2015-09-14T07:21:43Z</time>
      </trkpt>
      <trkpt lat="41.91835" lon="9.18484">
        <ele>1812.7</ele>
        <time>2015-09-14T07:21:44Z</time>
      </trkpt>
      <trkpt lat="41.91834" lon="9.18484">
        <ele>1809.34</ele>
        <time>2015-09-14T07:21:47Z</time>
      </trkpt>
      <trkpt lat="41.91832" lon="9.18483">
        <ele>1807.42</ele>
        <time>2015-09-14T07:21:50Z</time>
      </trkpt>
      <trkpt lat="41.91829" lon="9.18478">
        <ele>1809.82</ele>
        <time>2015-09-14T07:21:56Z</time>
      </trkpt>
      <trkpt lat="41.91825" lon="9.18477">
        <ele>1813.18</ele>
        <time>2015-09-14T07:22:01Z</time>
      </trkpt>
      <trkpt lat="41.91823" lon="9.18476">
        <ele>1814.63</ele>
        <time>2015-09-14T07:22:03Z</time>
      </trkpt>
      <trkpt lat="41.9182" lon="9.18473">
        <ele>1817.51</ele>
        <time>2015-09-14T07:22:08Z</time>
      </trkpt>
      <trkpt lat="41.91815" lon="9.18473">
        <ele>1820.87</ele>
        <time>2015-09-14T07:22:13Z</time>
      </trkpt>
      <trkpt lat="41.91813" lon="9.18472">
        <ele>1816.55</ele>
        <time>2015-09-14T07:22:16Z</time>
      </trkpt>
      <trkpt lat="41.91811" lon="9.18471">
        <ele>1814.15</ele>
        <time>2015-09-14T07:22:18Z</time>
      </trkpt>
      <trkpt lat="41.91804" lon="9.18468">
        <ele>1815.59</ele>
        <time>2015-09-14T07:22:28Z</time>
      </trkpt>
      <trkpt lat="41.91798" lon="9.18466">
        <ele>1815.59</ele>
        <time>2015-09-14T07:22:39Z</time>
      </trkpt>
      <trkpt lat="41.91792" lon="9.18464">
        <ele>1810.78</ele>
        <time>2015-09-14T07:22:50Z</time>
      </trkpt>
      <trkpt lat="41.91792" lon="9.18464">
        <ele>1810.78</ele>
        <time>2015-09-14T07:22:51Z</time>
      </trkpt>
      <trkpt lat="41.91789" lon="9.18464">
        <ele>1811.74</ele>
        <time>2015-09-14T07:23:02Z</time>
      </trkpt>
      <trkpt lat="41.91781" lon="9.18463">
        <ele>1813.18</ele>
        <time>2015-09-14T07:23:16Z</time>
      </trkpt>
      <trkpt lat="41.91778" lon="9.18463">
        <ele>1814.63</ele>
        <time>2015-09-14T07:23:19Z</time>
      </trkpt>
      <trkpt lat="41.91777" lon="9.18462">
        <ele>1813.18</ele>
        <time>2015-09-14T07:23:21Z</time>
      </trkpt>
      <trkpt lat="41.91774" lon="9.18462">
        <ele>1810.3</ele>
        <time>2015-09-14T07:23:24Z</time>
      </trkpt>
      <trkpt lat="41.91771" lon="9.18461">
        <ele>1806.94</ele>
        <time>2015-09-14T07:23:29Z</time>
      </trkpt>
      <trkpt lat="41.9177" lon="9.18461">
        <ele>1806.94</ele>
        <time>2015-09-14T07:23:30Z</time>
      </trkpt>
      <trkpt lat="41.91769" lon="9.1846">
        <ele>1807.9</ele>
        <time>2015-09-14T07:23:32Z</time>
      </trkpt>
      <trkpt lat="41.91766" lon="9.18459">
        <ele>1805.97</ele>
        <time>2015-09-14T07:23:38Z</time>
      </trkpt>
      <trkpt lat="41.91759" lon="9.18457">
        <ele>1802.61</ele>
        <time>2015-09-14T07:23:46Z</time>
      </trkpt>
      <trkpt lat="41.91759" lon="9.18457">
        <ele>1805.01</ele>
        <time>2015-09-14T07:23:47Z</time>
      </trkpt>
      <trkpt lat="41.91757" lon="9.18456">
        <ele>1807.9</ele>
        <time>2015-09-14T07:23:49Z</time>
      </trkpt>
      <trkpt lat="41.91752" lon="9.18454">
        <ele>1807.9</ele>
        <time>2015-09-14T07:23:56Z</time>
      </trkpt>
      <trkpt lat="41.91749" lon="9.18455">
        <ele>1805.97</ele>
        <time>2015-09-14T07:23:59Z</time>
      </trkpt>
      <trkpt lat="41.91746" lon="9.18455">
        <ele>1804.05</ele>
        <time>2015-09-14T07:24:02Z</time>
      </trkpt>
      <trkpt lat="41.91736" lon="9.18452">
        <ele>1807.9</ele>
        <time>2015-09-14T07:24:15Z</time>
      </trkpt>
      <trkpt lat="41.91735" lon="9.18452">
        <ele>1808.86</ele>
        <time>2015-09-14T07:24:17Z</time>
      </trkpt>
      <trkpt lat="41.91732" lon="9.18452">
        <ele>1809.82</ele>
        <time>2015-09-14T07:24:20Z</time>
      </trkpt>
      <trkpt lat="41.9173" lon="9.18452">
        <ele>1811.26</ele>
        <time>2015-09-14T07:24:22Z</time>
      </trkpt>
      <trkpt lat="41.91729" lon="9.18451">
        <ele>1812.7</ele>
        <time>2015-09-14T07:24:24Z</time>
      </trkpt>
      <trkpt lat="41.91727" lon="9.1845">
        <ele>1807.9</ele>
        <time>2015-09-14T07:24:26Z</time>
      </trkpt>
      <trkpt lat="41.91726" lon="9.18449">
        <ele>1804.05</ele>
        <time>2015-09-14T07:24:27Z</time>
      </trkpt>
      <trkpt lat="41.91724" lon="9.18449">
        <ele>1804.05</ele>
        <time>2015-09-14T07:24:28Z</time>
      </trkpt>
      <trkpt lat="41.91718" lon="9.1845">
        <ele>1802.61</ele>
        <time>2015-09-14T07:24:34Z</time>
      </trkpt>
      <trkpt lat="41.9171" lon="9.18451">
        <ele>1800.21</ele>
        <time>2015-09-14T07:24:42Z</time>
      </trkpt>
      <trkpt lat="41.91703" lon="9.18449">
        <ele>1797.8</ele>
        <time>2015-09-14T07:24:50Z</time>
      </trkpt>
      <trkpt lat="41.91699" lon="9.18448">
        <ele>1800.69</ele>
        <time>2015-09-14T07:24:55Z</time>
      </trkpt>
      <trkpt lat="41.9169" lon="9.18442">
        <ele>1799.24</ele>
        <time>2015-09-14T07:25:08Z</time>
      </trkpt>
      <trkpt lat="41.91682" lon="9.18439">
        <ele>1798.28</ele>
        <time>2015-09-14T07:25:18Z</time>
      </trkpt>
      <trkpt lat="41.91674" lon="9.18433">
        <ele>1795.4</ele>
        <time>2015-09-14T07:25:29Z</time>
      </trkpt>
      <trkpt lat="41.91669" lon="9.18431">
        <ele>1797.32</ele>
        <time>2015-09-14T07:25:50Z</time>
      </trkpt>
      <trkpt lat="41.91668" lon="9.18431">
        <ele>1795.88</ele>
        <time>2015-09-14T07:25:55Z</time>
      </trkpt>
      <trkpt lat="41.91668" lon="9.18431">
        <ele>1796.36</ele>
        <time>2015-09-14T07:26:10Z</time>
      </trkpt>
      <trkpt lat="41.91661" lon="9.18428">
        <ele>1794.44</ele>
        <time>2015-09-14T07:26:28Z</time>
      </trkpt>
      <trkpt lat="41.9165" lon="9.18425">
        <ele>1792.52</ele>
        <time>2015-09-14T07:26:46Z</time>
      </trkpt>
      <trkpt lat="41.91638" lon="9.18422">
        <ele>1791.07</ele>
        <time>2015-09-14T07:27:07Z</time>
      </trkpt>
      <trkpt lat="41.91626" lon="9.18417">
        <ele>1789.15</ele>
        <time>2015-09-14T07:27:24Z</time>
      </trkpt>
      <trkpt lat="41.91618" lon="9.18411">
        <ele>1788.19</ele>
        <time>2015-09-14T07:27:43Z</time>
      </trkpt>
      <trkpt lat="41.91618" lon="9.18408">
        <ele>1790.11</ele>
        <time>2015-09-14T07:28:04Z</time>
      </trkpt>
      <trkpt lat="41.91607" lon="9.18404">
        <ele>1790.59</ele>
        <time>2015-09-14T07:28:22Z</time>
      </trkpt>
      <trkpt lat="41.91594" lon="9.184">
        <ele>1788.19</ele>
        <time>2015-09-14T07:28:40Z</time>
      </trkpt>
      <trkpt lat="41.91591" lon="9.18398">
        <ele>1790.11</ele>
        <time>2015-09-14T07:28:44Z</time>
      </trkpt>
      <trkpt lat="41.91589" lon="9.18395">
        <ele>1788.67</ele>
        <time>2015-09-14T07:28:51Z</time>
      </trkpt>
      <trkpt lat="41.91587" lon="9.18394">
        <ele>1789.15</ele>
        <time>2015-09-14T07:29:01Z</time>
      </trkpt>
      <trkpt lat="41.91584" lon="9.18393">
        <ele>1788.67</ele>
        <time>2015-09-14T07:29:19Z</time>
      </trkpt>
      <trkpt lat="41.91579" lon="9.18386">
        <ele>1790.11</ele>
        <time>2015-09-14T07:29:31Z</time>
      </trkpt>
      <trkpt lat="41.91576" lon="9.18384">
        <ele>1792.03</ele>
        <time>2015-09-14T07:29:38Z</time>
      </trkpt>
      <trkpt lat="41.91565" lon="9.18375">
        <ele>1793</ele>
        <time>2015-09-14T07:29:57Z</time>
      </trkpt>
      <trkpt lat="41.91561" lon="9.18372">
        <ele>1793</ele>
        <time>2015-09-14T07:30:03Z</time>
      </trkpt>
      <trkpt lat="41.91558" lon="9.18371">
        <ele>1794.92</ele>
        <time>2015-09-14T07:30:06Z</time>
      </trkpt>
      <trkpt lat="41.91551" lon="9.18364">
        <ele>1798.28</ele>
        <time>2015-09-14T07:30:17Z</time>
      </trkpt>
      <trkpt lat="41.91549" lon="9.18361">
        <ele>1795.88</ele>
        <time>2015-09-14T07:30:22Z</time>
      </trkpt>
      <trkpt lat="41.91546" lon="9.18353">
        <ele>1797.8</ele>
        <time>2015-09-14T07:30:34Z</time>
      </trkpt>
      <trkpt lat="41.91541" lon="9.18348">
        <ele>1795.4</ele>
        <time>2015-09-14T07:30:43Z</time>
      </trkpt>
      <trkpt lat="41.91538" lon="9.18341">
        <ele>1798.76</ele>
        <time>2015-09-14T07:30:51Z</time>
      </trkpt>
      <trkpt lat="41.91535" lon="9.18333">
        <ele>1797.8</ele>
        <time>2015-09-14T07:30:59Z</time>
      </trkpt>
      <trkpt lat="41.91531" lon="9.18331">
        <ele>1798.76</ele>
        <time>2015-09-14T07:31:08Z</time>
      </trkpt>
      <trkpt lat="41.91529" lon="9.18326">
        <ele>1801.17</ele>
        <time>2015-09-14T07:31:16Z</time>
      </trkpt>
      <trkpt lat="41.91529" lon="9.18324">
        <ele>1799.73</ele>
        <time>2015-09-14T07:31:18Z</time>
      </trkpt>
      <trkpt lat="41.91528" lon="9.18322">
        <ele>1804.05</ele>
        <time>2015-09-14T07:31:22Z</time>
      </trkpt>
      <trkpt lat="41.91528" lon="9.18321">
        <ele>1808.38</ele>
        <time>2015-09-14T07:31:23Z</time>
      </trkpt>
      <trkpt lat="41.91528" lon="9.18321">
        <ele>1805.97</ele>
        <time>2015-09-14T07:31:24Z</time>
      </trkpt>
      <trkpt lat="41.91528" lon="9.1832">
        <ele>1802.61</ele>
        <time>2015-09-14T07:31:25Z</time>
      </trkpt>
      <trkpt lat="41.91528" lon="9.18319">
        <ele>1798.76</ele>
        <time>2015-09-14T07:31:27Z</time>
      </trkpt>
      <trkpt lat="41.91528" lon="9.18318">
        <ele>1798.76</ele>
        <time>2015-09-14T07:31:28Z</time>
      </trkpt>
      <trkpt lat="41.91527" lon="9.18317">
        <ele>1798.76</ele>
        <time>2015-09-14T07:31:32Z</time>
      </trkpt>
      <trkpt lat="41.91527" lon="9.18312">
        <ele>1800.21</ele>
        <time>2015-09-14T07:31:47Z</time>
      </trkpt>
      <trkpt lat="41.91527" lon="9.18309">
        <ele>1802.13</ele>
        <time>2015-09-14T07:31:53Z</time>
      </trkpt>
      <trkpt lat="41.91528" lon="9.18306">
        <ele>1805.01</ele>
        <time>2015-09-14T07:32:00Z</time>
      </trkpt>
      <trkpt lat="41.91528" lon="9.18304">
        <ele>1805.97</ele>
        <time>2015-09-14T07:32:03Z</time>
      </trkpt>
      <trkpt lat="41.91527" lon="9.18303">
        <ele>1807.9</ele>
        <time>2015-09-14T07:32:06Z</time>
      </trkpt>
      <trkpt lat="41.91527" lon="9.18302">
        <ele>1807.42</ele>
        <time>2015-09-14T07:32:08Z</time>
      </trkpt>
      <trkpt lat="41.91526" lon="9.183">
        <ele>1809.82</ele>
        <time>2015-09-14T07:32:13Z</time>
      </trkpt>
      <trkpt lat="41.91526" lon="9.18296">
        <ele>1812.22</ele>
        <time>2015-09-14T07:32:20Z</time>
      </trkpt>
      <trkpt lat="41.91525" lon="9.18295">
        <ele>1810.3</ele>
        <time>2015-09-14T07:32:23Z</time>
      </trkpt>
      <trkpt lat="41.91525" lon="9.18294">
        <ele>1811.74</ele>
        <time>2015-09-14T07:32:26Z</time>
      </trkpt>
      <trkpt lat="41.91525" lon="9.18294">
        <ele>1809.82</ele>
        <time>2015-09-14T07:32:27Z</time>
      </trkpt>
      <trkpt lat="41.91526" lon="9.18291">
        <ele>1810.3</ele>
        <time>2015-09-14T07:32:33Z</time>
      </trkpt>
      <trkpt lat="41.91525" lon="9.18288">
        <ele>1809.82</ele>
        <time>2015-09-14T07:32:41Z</time>
      </trkpt>
      <trkpt lat="41.91525" lon="9.18288">
        <ele>1811.26</ele>
        <time>2015-09-14T07:32:43Z</time>
      </trkpt>
      <trkpt lat="41.91525" lon="9.18288">
        <ele>1808.86</ele>
        <time>2015-09-14T07:32:44Z</time>
      </trkpt>
      <trkpt lat="41.91526" lon="9.18283">
        <ele>1805.97</ele>
        <time>2015-09-14T07:32:52Z</time>
      </trkpt>
      <trkpt lat="41.91525" lon="9.18283">
        <ele>1805.97</ele>
        <time>2015-09-14T07:32:53Z</time>
      </trkpt>
      <trkpt lat="41.91525" lon="9.18281">
        <ele>1794.92</ele>
        <time>2015-09-14T07:32:56Z</time>
      </trkpt>
      <trkpt lat="41.91525" lon="9.1828">
        <ele>1799.73</ele>
        <time>2015-09-14T07:32:57Z</time>
      </trkpt>
      <trkpt lat="41.91526" lon="9.18277">
        <ele>1795.88</ele>
        <time>2015-09-14T07:33:01Z</time>
      </trkpt>
      <trkpt lat="41.91526" lon="9.18276">
        <ele>1794.92</ele>
        <time>2015-09-14T07:33:03Z</time>
      </trkpt>
      <trkpt lat="41.91526" lon="9.18276">
        <ele>1800.21</ele>
        <time>2015-09-14T07:33:04Z</time>
      </trkpt>
      <trkpt lat="41.91526" lon="9.18275">
        <ele>1798.28</ele>
        <time>2015-09-14T07:33:05Z</time>
      </trkpt>
      <trkpt lat="41.91525" lon="9.18274">
        <ele>1796.36</ele>
        <time>2015-09-14T07:33:07Z</time>
      </trkpt>
      <trkpt lat="41.91525" lon="9.18273">
        <ele>1793</ele>
        <time>2015-09-14T07:33:09Z</time>
      </trkpt>
      <trkpt lat="41.91525" lon="9.18272">
        <ele>1797.8</ele>
        <time>2015-09-14T07:33:10Z</time>
      </trkpt>
      <trkpt lat="41.91524" lon="9.1827">
        <ele>1794.44</ele>
        <time>2015-09-14T07:33:24Z</time>
      </trkpt>
      <trkpt lat="41.91524" lon="9.1827">
        <ele>1797.8</ele>
        <time>2015-09-14T07:33:25Z</time>
      </trkpt>
      <trkpt lat="41.91524" lon="9.1827">
        <ele>1796.36</ele>
        <time>2015-09-14T07:33:26Z</time>
      </trkpt>
      <trkpt lat="41.91517" lon="9.18259">
        <ele>1797.32</ele>
        <time>2015-09-14T07:33:40Z</time>
      </trkpt>
      <trkpt lat="41.91515" lon="9.18257">
        <ele>1798.28</ele>
        <time>2015-09-14T07:33:42Z</time>
      </trkpt>
      <trkpt lat="41.91514" lon="9.18256">
        <ele>1794.92</ele>
        <time>2015-09-14T07:33:44Z</time>
      </trkpt>
      <trkpt lat="41.91513" lon="9.18253">
        <ele>1792.03</ele>
        <time>2015-09-14T07:33:47Z</time>
      </trkpt>
      <trkpt lat="41.91512" lon="9.1825">
        <ele>1793.48</ele>
        <time>2015-09-14T07:33:50Z</time>
      </trkpt>
      <trkpt lat="41.91511" lon="9.18247">
        <ele>1792.03</ele>
        <time>2015-09-14T07:33:53Z</time>
      </trkpt>
      <trkpt lat="41.91508" lon="9.18241">
        <ele>1793.96</ele>
        <time>2015-09-14T07:34:00Z</time>
      </trkpt>
      <trkpt lat="41.91506" lon="9.18239">
        <ele>1795.4</ele>
        <time>2015-09-14T07:34:03Z</time>
      </trkpt>
      <trkpt lat="41.91505" lon="9.18236">
        <ele>1793</ele>
        <time>2015-09-14T07:34:07Z</time>
      </trkpt>
      <trkpt lat="41.91504" lon="9.18232">
        <ele>1794.92</ele>
        <time>2015-09-14T07:34:11Z</time>
      </trkpt>
      <trkpt lat="41.91501" lon="9.18228">
        <ele>1793.48</ele>
        <time>2015-09-14T07:34:16Z</time>
      </trkpt>
      <trkpt lat="41.91499" lon="9.1822">
        <ele>1794.44</ele>
        <time>2015-09-14T07:34:28Z</time>
      </trkpt>
      <trkpt lat="41.91498" lon="9.18218">
        <ele>1792.03</ele>
        <time>2015-09-14T07:34:31Z</time>
      </trkpt>
      <trkpt lat="41.91497" lon="9.18215">
        <ele>1789.15</ele>
        <time>2015-09-14T07:34:37Z</time>
      </trkpt>
      <trkpt lat="41.91495" lon="9.18213">
        <ele>1791.07</ele>
        <time>2015-09-14T07:34:40Z</time>
      </trkpt>
      <trkpt lat="41.91494" lon="9.18212">
        <ele>1790.11</ele>
        <time>2015-09-14T07:34:43Z</time>
      </trkpt>
      <trkpt lat="41.91493" lon="9.18208">
        <ele>1792.03</ele>
        <time>2015-09-14T07:34:49Z</time>
      </trkpt>
      <trkpt lat="41.91491" lon="9.18207">
        <ele>1790.59</ele>
        <time>2015-09-14T07:34:52Z</time>
      </trkpt>
      <trkpt lat="41.91491" lon="9.18203">
        <ele>1789.63</ele>
        <time>2015-09-14T07:34:59Z</time>
      </trkpt>
      <trkpt lat="41.91491" lon="9.18202">
        <ele>1788.19</ele>
        <time>2015-09-14T07:35:01Z</time>
      </trkpt>
      <trkpt lat="41.91483" lon="9.18196">
        <ele>1787.23</ele>
        <time>2015-09-14T07:35:13Z</time>
      </trkpt>
      <trkpt lat="41.91483" lon="9.18195">
        <ele>1790.11</ele>
        <time>2015-09-14T07:35:15Z</time>
      </trkpt>
      <trkpt lat="41.91481" lon="9.18192">
        <ele>1786.27</ele>
        <time>2015-09-14T07:35:25Z</time>
      </trkpt>
      <trkpt lat="41.9148" lon="9.18189">
        <ele>1788.19</ele>
        <time>2015-09-14T07:35:29Z</time>
      </trkpt>
      <trkpt lat="41.9148" lon="9.18188">
        <ele>1785.31</ele>
        <time>2015-09-14T07:35:30Z</time>
      </trkpt>
      <trkpt lat="41.9148" lon="9.18188">
        <ele>1785.31</ele>
        <time>2015-09-14T07:35:31Z</time>
      </trkpt>
      <trkpt lat="41.91479" lon="9.1818">
        <ele>1787.71</ele>
        <time>2015-09-14T07:35:43Z</time>
      </trkpt>
      <trkpt lat="41.9148" lon="9.18181">
        <ele>1783.86</ele>
        <time>2015-09-14T07:35:46Z</time>
      </trkpt>
      <trkpt lat="41.9148" lon="9.1818">
        <ele>1782.42</ele>
        <time>2015-09-14T07:35:48Z</time>
      </trkpt>
      <trkpt lat="41.9148" lon="9.18179">
        <ele>1785.79</ele>
        <time>2015-09-14T07:35:49Z</time>
      </trkpt>
      <trkpt lat="41.91481" lon="9.18179">
        <ele>1782.9</ele>
        <time>2015-09-14T07:35:50Z</time>
      </trkpt>
      <trkpt lat="41.91477" lon="9.18169">
        <ele>1780.98</ele>
        <time>2015-09-14T07:36:06Z</time>
      </trkpt>
      <trkpt lat="41.91476" lon="9.18161">
        <ele>1777.61</ele>
        <time>2015-09-14T07:36:23Z</time>
      </trkpt>
      <trkpt lat="41.91477" lon="9.18151">
        <ele>1774.25</ele>
        <time>2015-09-14T07:36:42Z</time>
      </trkpt>
      <trkpt lat="41.9147" lon="9.18145">
        <ele>1775.69</ele>
        <time>2015-09-14T07:36:57Z</time>
      </trkpt>
      <trkpt lat="41.91467" lon="9.18137">
        <ele>1772.81</ele>
        <time>2015-09-14T07:37:09Z</time>
      </trkpt>
      <trkpt lat="41.91465" lon="9.18134">
        <ele>1773.29</ele>
        <time>2015-09-14T07:37:14Z</time>
      </trkpt>
      <trkpt lat="41.91464" lon="9.18133">
        <ele>1771.37</ele>
        <time>2015-09-14T07:37:16Z</time>
      </trkpt>
      <trkpt lat="41.91463" lon="9.1813">
        <ele>1770.41</ele>
        <time>2015-09-14T07:37:23Z</time>
      </trkpt>
      <trkpt lat="41.91465" lon="9.18128">
        <ele>1771.85</ele>
        <time>2015-09-14T07:37:28Z</time>
      </trkpt>
      <trkpt lat="41.91465" lon="9.18127">
        <ele>1768.48</ele>
        <time>2015-09-14T07:37:30Z</time>
      </trkpt>
      <trkpt lat="41.91465" lon="9.18126">
        <ele>1768.48</ele>
        <time>2015-09-14T07:37:31Z</time>
      </trkpt>
      <trkpt lat="41.91464" lon="9.18124">
        <ele>1769.44</ele>
        <time>2015-09-14T07:37:37Z</time>
      </trkpt>
      <trkpt lat="41.91467" lon="9.18125">
        <ele>1768.96</ele>
        <time>2015-09-14T07:37:46Z</time>
      </trkpt>
      <trkpt lat="41.91466" lon="9.18124">
        <ele>1767.52</ele>
        <time>2015-09-14T07:37:49Z</time>
      </trkpt>
      <trkpt lat="41.91465" lon="9.18119">
        <ele>1765.12</ele>
        <time>2015-09-14T07:38:11Z</time>
      </trkpt>
      <trkpt lat="41.91469" lon="9.18116">
        <ele>1761.75</ele>
        <time>2015-09-14T07:38:26Z</time>
      </trkpt>
      <trkpt lat="41.91463" lon="9.18114">
        <ele>1760.31</ele>
        <time>2015-09-14T07:38:43Z</time>
      </trkpt>
      <trkpt lat="41.91459" lon="9.18112">
        <ele>1756.47</ele>
        <time>2015-09-14T07:38:57Z</time>
      </trkpt>
      <trkpt lat="41.91459" lon="9.18112">
        <ele>1756.47</ele>
        <time>2015-09-14T07:38:58Z</time>
      </trkpt>
      <trkpt lat="41.91457" lon="9.18104">
        <ele>1756.47</ele>
        <time>2015-09-14T07:39:16Z</time>
      </trkpt>
      <trkpt lat="41.91449" lon="9.18097">
        <ele>1753.1</ele>
        <time>2015-09-14T07:39:34Z</time>
      </trkpt>
      <trkpt lat="41.91436" lon="9.18088">
        <ele>1751.18</ele>
        <time>2015-09-14T07:39:56Z</time>
      </trkpt>
      <trkpt lat="41.91425" lon="9.18078">
        <ele>1750.7</ele>
        <time>2015-09-14T07:40:14Z</time>
      </trkpt>
      <trkpt lat="41.91414" lon="9.18072">
        <ele>1750.7</ele>
        <time>2015-09-14T07:40:31Z</time>
      </trkpt>
      <trkpt lat="41.91407" lon="9.18069">
        <ele>1752.14</ele>
        <time>2015-09-14T07:40:41Z</time>
      </trkpt>
      <trkpt lat="41.91398" lon="9.18063">
        <ele>1753.58</ele>
        <time>2015-09-14T07:40:51Z</time>
      </trkpt>
      <trkpt lat="41.91395" lon="9.1806">
        <ele>1750.22</ele>
        <time>2015-09-14T07:40:55Z</time>
      </trkpt>
      <trkpt lat="41.91395" lon="9.18059">
        <ele>1750.7</ele>
        <time>2015-09-14T07:40:56Z</time>
      </trkpt>
      <trkpt lat="41.91393" lon="9.18057">
        <ele>1751.66</ele>
        <time>2015-09-14T07:41:00Z</time>
      </trkpt>
      <trkpt lat="41.91392" lon="9.18055">
        <ele>1749.74</ele>
        <time>2015-09-14T07:41:03Z</time>
      </trkpt>
      <trkpt lat="41.9139" lon="9.18054">
        <ele>1751.18</ele>
        <time>2015-09-14T07:41:06Z</time>
      </trkpt>
      <trkpt lat="41.91379" lon="9.18041">
        <ele>1746.85</ele>
        <time>2015-09-14T07:41:24Z</time>
      </trkpt>
      <trkpt lat="41.91378" lon="9.1804">
        <ele>1746.85</ele>
        <time>2015-09-14T07:41:25Z</time>
      </trkpt>
      <trkpt lat="41.91375" lon="9.18039">
        <ele>1744.93</ele>
        <time>2015-09-14T07:41:29Z</time>
      </trkpt>
      <trkpt lat="41.91372" lon="9.18033">
        <ele>1745.89</ele>
        <time>2015-09-14T07:41:36Z</time>
      </trkpt>
      <trkpt lat="41.9137" lon="9.18033">
        <ele>1744.45</ele>
        <time>2015-09-14T07:41:38Z</time>
      </trkpt>
      <trkpt lat="41.91357" lon="9.18028">
        <ele>1743.97</ele>
        <time>2015-09-14T07:41:55Z</time>
      </trkpt>
      <trkpt lat="41.91354" lon="9.18027">
        <ele>1741.57</ele>
        <time>2015-09-14T07:41:58Z</time>
      </trkpt>
      <trkpt lat="41.91353" lon="9.18027">
        <ele>1743.49</ele>
        <time>2015-09-14T07:42:00Z</time>
      </trkpt>
      <trkpt lat="41.91348" lon="9.18025">
        <ele>1743.01</ele>
        <time>2015-09-14T07:42:06Z</time>
      </trkpt>
      <trkpt lat="41.91335" lon="9.18023">
        <ele>1740.6</ele>
        <time>2015-09-14T07:42:19Z</time>
      </trkpt>
      <trkpt lat="41.9133" lon="9.18016">
        <ele>1737.24</ele>
        <time>2015-09-14T07:42:29Z</time>
      </trkpt>
      <trkpt lat="41.91327" lon="9.18012">
        <ele>1738.68</ele>
        <time>2015-09-14T07:42:33Z</time>
      </trkpt>
      <trkpt lat="41.91325" lon="9.1801">
        <ele>1735.8</ele>
        <time>2015-09-14T07:42:36Z</time>
      </trkpt>
      <trkpt lat="41.91315" lon="9.17997">
        <ele>1733.39</ele>
        <time>2015-09-14T07:42:57Z</time>
      </trkpt>
      <trkpt lat="41.91305" lon="9.17991">
        <ele>1730.99</ele>
        <time>2015-09-14T07:43:08Z</time>
      </trkpt>
      <trkpt lat="41.91293" lon="9.1797">
        <ele>1729.07</ele>
        <time>2015-09-14T07:43:27Z</time>
      </trkpt>
      <trkpt lat="41.91281" lon="9.17959">
        <ele>1726.67</ele>
        <time>2015-09-14T07:43:45Z</time>
      </trkpt>
      <trkpt lat="41.91279" lon="9.17955">
        <ele>1727.63</ele>
        <time>2015-09-14T07:43:50Z</time>
      </trkpt>
      <trkpt lat="41.91277" lon="9.17953">
        <ele>1725.22</ele>
        <time>2015-09-14T07:43:54Z</time>
      </trkpt>
      <trkpt lat="41.91269" lon="9.17944">
        <ele>1724.26</ele>
        <time>2015-09-14T07:44:09Z</time>
      </trkpt>
      <trkpt lat="41.91269" lon="9.17942">
        <ele>1722.82</ele>
        <time>2015-09-14T07:44:12Z</time>
      </trkpt>
      <trkpt lat="41.91263" lon="9.17932">
        <ele>1719.46</ele>
        <time>2015-09-14T07:44:23Z</time>
      </trkpt>
      <trkpt lat="41.91254" lon="9.17926">
        <ele>1716.57</ele>
        <time>2015-09-14T07:44:44Z</time>
      </trkpt>
      <trkpt lat="41.91251" lon="9.17917">
        <ele>1715.13</ele>
        <time>2015-09-14T07:44:55Z</time>
      </trkpt>
      <trkpt lat="41.91251" lon="9.17915">
        <ele>1718.01</ele>
        <time>2015-09-14T07:44:59Z</time>
      </trkpt>
      <trkpt lat="41.91251" lon="9.17915">
        <ele>1718.01</ele>
        <time>2015-09-14T07:45:00Z</time>
      </trkpt>
      <trkpt lat="41.91251" lon="9.17914">
        <ele>1715.13</ele>
        <time>2015-09-14T07:45:01Z</time>
      </trkpt>
      <trkpt lat="41.91251" lon="9.17914">
        <ele>1714.17</ele>
        <time>2015-09-14T07:45:03Z</time>
      </trkpt>
      <trkpt lat="41.91249" lon="9.17907">
        <ele>1714.65</ele>
        <time>2015-09-14T07:45:28Z</time>
      </trkpt>
      <trkpt lat="41.91246" lon="9.17908">
        <ele>1712.25</ele>
        <time>2015-09-14T07:45:31Z</time>
      </trkpt>
      <trkpt lat="41.91245" lon="9.17909">
        <ele>1715.61</ele>
        <time>2015-09-14T07:45:33Z</time>
      </trkpt>
      <trkpt lat="41.91244" lon="9.1791">
        <ele>1715.61</ele>
        <time>2015-09-14T07:45:34Z</time>
      </trkpt>
      <trkpt lat="41.91242" lon="9.1791">
        <ele>1713.21</ele>
        <time>2015-09-14T07:45:37Z</time>
      </trkpt>
      <trkpt lat="41.91239" lon="9.17905">
        <ele>1711.76</ele>
        <time>2015-09-14T07:45:45Z</time>
      </trkpt>
      <trkpt lat="41.91239" lon="9.17904">
        <ele>1710.32</ele>
        <time>2015-09-14T07:45:47Z</time>
      </trkpt>
      <trkpt lat="41.91236" lon="9.17897">
        <ele>1706.96</ele>
        <time>2015-09-14T07:45:59Z</time>
      </trkpt>
      <trkpt lat="41.91223" lon="9.17895">
        <ele>1705.52</ele>
        <time>2015-09-14T07:46:19Z</time>
      </trkpt>
      <trkpt lat="41.91222" lon="9.17894">
        <ele>1704.07</ele>
        <time>2015-09-14T07:46:22Z</time>
      </trkpt>
      <trkpt lat="41.91218" lon="9.17899">
        <ele>1705.04</ele>
        <time>2015-09-14T07:46:35Z</time>
      </trkpt>
      <trkpt lat="41.91221" lon="9.17899">
        <ele>1707.92</ele>
        <time>2015-09-14T07:46:40Z</time>
      </trkpt>
      <trkpt lat="41.91221" lon="9.17903">
        <ele>1704.55</ele>
        <time>2015-09-14T07:46:57Z</time>
      </trkpt>
      <trkpt lat="41.91208" lon="9.17886">
        <ele>1701.67</ele>
        <time>2015-09-14T07:47:21Z</time>
      </trkpt>
      <trkpt lat="41.91209" lon="9.17877">
        <ele>1698.31</ele>
        <time>2015-09-14T07:47:37Z</time>
      </trkpt>
      <trkpt lat="41.91196" lon="9.17868">
        <ele>1695.42</ele>
        <time>2015-09-14T07:47:57Z</time>
      </trkpt>
      <trkpt lat="41.91188" lon="9.17858">
        <ele>1692.06</ele>
        <time>2015-09-14T07:48:20Z</time>
      </trkpt>
      <trkpt lat="41.91174" lon="9.17858">
        <ele>1690.14</ele>
        <time>2015-09-14T07:48:37Z</time>
      </trkpt>
      <trkpt lat="41.91166" lon="9.17846">
        <ele>1687.25</ele>
        <time>2015-09-14T07:48:53Z</time>
      </trkpt>
      <trkpt lat="41.91165" lon="9.17845">
        <ele>1687.25</ele>
        <time>2015-09-14T07:48:54Z</time>
      </trkpt>
      <trkpt lat="41.9115" lon="9.17827">
        <ele>1687.73</ele>
        <time>2015-09-14T07:49:13Z</time>
      </trkpt>
      <trkpt lat="41.91132" lon="9.17815">
        <ele>1686.77</ele>
        <time>2015-09-14T07:49:34Z</time>
      </trkpt>
      <trkpt lat="41.91114" lon="9.17812">
        <ele>1685.33</ele>
        <time>2015-09-14T07:49:54Z</time>
      </trkpt>
      <trkpt lat="41.91101" lon="9.17798">
        <ele>1683.89</ele>
        <time>2015-09-14T07:50:13Z</time>
      </trkpt>
      <trkpt lat="41.91091" lon="9.17789">
        <ele>1683.89</ele>
        <time>2015-09-14T07:50:23Z</time>
      </trkpt>
      <trkpt lat="41.91075" lon="9.17767">
        <ele>1684.37</ele>
        <time>2015-09-14T07:50:46Z</time>
      </trkpt>
      <trkpt lat="41.91067" lon="9.17741">
        <ele>1684.85</ele>
        <time>2015-09-14T07:51:07Z</time>
      </trkpt>
      <trkpt lat="41.91067" lon="9.17737">
        <ele>1683.89</ele>
        <time>2015-09-14T07:51:10Z</time>
      </trkpt>
      <trkpt lat="41.91064" lon="9.17727">
        <ele>1683.41</ele>
        <time>2015-09-14T07:51:31Z</time>
      </trkpt>
      <trkpt lat="41.91065" lon="9.17725">
        <ele>1682.44</ele>
        <time>2015-09-14T07:51:44Z</time>
      </trkpt>
      <trkpt lat="41.91064" lon="9.17721">
        <ele>1682.44</ele>
        <time>2015-09-14T07:51:47Z</time>
      </trkpt>
      <trkpt lat="41.91071" lon="9.1769">
        <ele>1680.52</ele>
        <time>2015-09-14T07:52:04Z</time>
      </trkpt>
      <trkpt lat="41.91076" lon="9.17663">
        <ele>1679.08</ele>
        <time>2015-09-14T07:52:21Z</time>
      </trkpt>
      <trkpt lat="41.91081" lon="9.1764">
        <ele>1676.68</ele>
        <time>2015-09-14T07:52:41Z</time>
      </trkpt>
      <trkpt lat="41.9108" lon="9.17621">
        <ele>1674.75</ele>
        <time>2015-09-14T07:52:58Z</time>
      </trkpt>
      <trkpt lat="41.91078" lon="9.17616">
        <ele>1673.79</ele>
        <time>2015-09-14T07:53:22Z</time>
      </trkpt>
      <trkpt lat="41.91071" lon="9.17603">
        <ele>1670.43</ele>
        <time>2015-09-14T07:53:41Z</time>
      </trkpt>
      <trkpt lat="41.9107" lon="9.17602">
        <ele>1669.95</ele>
        <time>2015-09-14T07:53:43Z</time>
      </trkpt>
      <trkpt lat="41.91064" lon="9.17589">
        <ele>1667.06</ele>
        <time>2015-09-14T07:53:57Z</time>
      </trkpt>
      <trkpt lat="41.91056" lon="9.17576">
        <ele>1663.7</ele>
        <time>2015-09-14T07:54:14Z</time>
      </trkpt>
      <trkpt lat="41.9105" lon="9.17564">
        <ele>1660.81</ele>
        <time>2015-09-14T07:54:30Z</time>
      </trkpt>
      <trkpt lat="41.91044" lon="9.17564">
        <ele>1657.45</ele>
        <time>2015-09-14T07:54:39Z</time>
      </trkpt>
      <trkpt lat="41.91028" lon="9.17564">
        <ele>1654.57</ele>
        <time>2015-09-14T07:55:03Z</time>
      </trkpt>
      <trkpt lat="41.91003" lon="9.17569">
        <ele>1651.68</ele>
        <time>2015-09-14T07:55:26Z</time>
      </trkpt>
      <trkpt lat="41.9099" lon="9.17572">
        <ele>1648.32</ele>
        <time>2015-09-14T07:55:45Z</time>
      </trkpt>
      <trkpt lat="41.90969" lon="9.17572">
        <ele>1646.4</ele>
        <time>2015-09-14T07:56:07Z</time>
      </trkpt>
      <trkpt lat="41.90958" lon="9.17581">
        <ele>1645.91</ele>
        <time>2015-09-14T07:56:26Z</time>
      </trkpt>
      <trkpt lat="41.90946" lon="9.17598">
        <ele>1644.95</ele>
        <time>2015-09-14T07:56:51Z</time>
      </trkpt>
      <trkpt lat="41.90921" lon="9.17619">
        <ele>1643.99</ele>
        <time>2015-09-14T07:57:16Z</time>
      </trkpt>
      <trkpt lat="41.909" lon="9.17623">
        <ele>1642.55</ele>
        <time>2015-09-14T07:57:40Z</time>
      </trkpt>
      <trkpt lat="41.90878" lon="9.17619">
        <ele>1639.67</ele>
        <time>2015-09-14T07:58:04Z</time>
      </trkpt>
      <trkpt lat="41.90865" lon="9.17633">
        <ele>1636.3</ele>
        <time>2015-09-14T07:58:21Z</time>
      </trkpt>
      <trkpt lat="41.90859" lon="9.17648">
        <ele>1633.42</ele>
        <time>2015-09-14T07:58:43Z</time>
      </trkpt>
      <trkpt lat="41.90858" lon="9.17669">
        <ele>1631.01</ele>
        <time>2015-09-14T07:59:04Z</time>
      </trkpt>
      <trkpt lat="41.90854" lon="9.1769">
        <ele>1627.65</ele>
        <time>2015-09-14T07:59:20Z</time>
      </trkpt>
      <trkpt lat="41.90855" lon="9.17704">
        <ele>1624.28</ele>
        <time>2015-09-14T07:59:39Z</time>
      </trkpt>
      <trkpt lat="41.90851" lon="9.17712">
        <ele>1621.4</ele>
        <time>2015-09-14T07:59:55Z</time>
      </trkpt>
      <trkpt lat="41.9084" lon="9.17729">
        <ele>1618.04</ele>
        <time>2015-09-14T08:00:16Z</time>
      </trkpt>
      <trkpt lat="41.90835" lon="9.17737">
        <ele>1615.15</ele>
        <time>2015-09-14T08:00:30Z</time>
      </trkpt>
      <trkpt lat="41.90832" lon="9.17753">
        <ele>1611.79</ele>
        <time>2015-09-14T08:00:50Z</time>
      </trkpt>
      <trkpt lat="41.90831" lon="9.17761">
        <ele>1608.9</ele>
        <time>2015-09-14T08:01:08Z</time>
      </trkpt>
      <trkpt lat="41.90826" lon="9.17758">
        <ele>1607.94</ele>
        <time>2015-09-14T08:01:29Z</time>
      </trkpt>
      <trkpt lat="41.90821" lon="9.17756">
        <ele>1605.06</ele>
        <time>2015-09-14T08:01:45Z</time>
      </trkpt>
      <trkpt lat="41.90814" lon="9.17761">
        <ele>1601.69</ele>
        <time>2015-09-14T08:02:02Z</time>
      </trkpt>
      <trkpt lat="41.90804" lon="9.17749">
        <ele>1599.29</ele>
        <time>2015-09-14T08:02:26Z</time>
      </trkpt>
      <trkpt lat="41.90786" lon="9.17734">
        <ele>1596.41</ele>
        <time>2015-09-14T08:02:51Z</time>
      </trkpt>
      <trkpt lat="41.90769" lon="9.17732">
        <ele>1593.52</ele>
        <time>2015-09-14T08:03:11Z</time>
      </trkpt>
      <trkpt lat="41.90753" lon="9.1773">
        <ele>1590.64</ele>
        <time>2015-09-14T08:03:34Z</time>
      </trkpt>
      <trkpt lat="41.90744" lon="9.1773">
        <ele>1588.72</ele>
        <time>2015-09-14T08:04:00Z</time>
      </trkpt>
      <trkpt lat="41.90738" lon="9.17731">
        <ele>1588.24</ele>
        <time>2015-09-14T08:04:34Z</time>
      </trkpt>
      <trkpt lat="41.90737" lon="9.17741">
        <ele>1588.24</ele>
        <time>2015-09-14T08:05:11Z</time>
      </trkpt>
      <trkpt lat="41.9074" lon="9.17743">
        <ele>1588.24</ele>
        <time>2015-09-14T08:05:48Z</time>
      </trkpt>
      <trkpt lat="41.90743" lon="9.17737">
        <ele>1587.75</ele>
        <time>2015-09-14T08:06:20Z</time>
      </trkpt>
      <trkpt lat="41.90745" lon="9.17731">
        <ele>1587.75</ele>
        <time>2015-09-14T08:06:54Z</time>
      </trkpt>
      <trkpt lat="41.90742" lon="9.17729">
        <ele>1587.75</ele>
        <time>2015-09-14T08:07:22Z</time>
      </trkpt>
      <trkpt lat="41.90741" lon="9.17725">
        <ele>1587.75</ele>
        <time>2015-09-14T08:07:50Z</time>
      </trkpt>
      <trkpt lat="41.90747" lon="9.17725">
        <ele>1587.75</ele>
        <time>2015-09-14T08:08:19Z</time>
      </trkpt>
      <trkpt lat="41.90743" lon="9.17732">
        <ele>1587.75</ele>
        <time>2015-09-14T08:08:47Z</time>
      </trkpt>
      <trkpt lat="41.90726" lon="9.17718">
        <ele>1585.35</ele>
        <time>2015-09-14T08:09:09Z</time>
      </trkpt>
      <trkpt lat="41.90709" lon="9.1771">
        <ele>1582.47</ele>
        <time>2015-09-14T08:09:29Z</time>
      </trkpt>
      <trkpt lat="41.90693" lon="9.17705">
        <ele>1581.03</ele>
        <time>2015-09-14T08:09:47Z</time>
      </trkpt>
      <trkpt lat="41.90677" lon="9.17704">
        <ele>1578.62</ele>
        <time>2015-09-14T08:10:08Z</time>
      </trkpt>
      <trkpt lat="41.90659" lon="9.17698">
        <ele>1577.66</ele>
        <time>2015-09-14T08:10:27Z</time>
      </trkpt>
      <trkpt lat="41.90641" lon="9.17693">
        <ele>1576.22</ele>
        <time>2015-09-14T08:10:48Z</time>
      </trkpt>
      <trkpt lat="41.90625" lon="9.17691">
        <ele>1575.26</ele>
        <time>2015-09-14T08:11:05Z</time>
      </trkpt>
      <trkpt lat="41.90618" lon="9.17694">
        <ele>1574.3</ele>
        <time>2015-09-14T08:11:14Z</time>
      </trkpt>
      <trkpt lat="41.90615" lon="9.17695">
        <ele>1574.3</ele>
        <time>2015-09-14T08:11:16Z</time>
      </trkpt>
      <trkpt lat="41.90602" lon="9.17702">
        <ele>1575.26</ele>
        <time>2015-09-14T08:11:30Z</time>
      </trkpt>
      <trkpt lat="41.90599" lon="9.17704">
        <ele>1573.33</ele>
        <time>2015-09-14T08:11:34Z</time>
      </trkpt>
      <trkpt lat="41.90597" lon="9.17704">
        <ele>1572.37</ele>
        <time>2015-09-14T08:11:36Z</time>
      </trkpt>
      <trkpt lat="41.90583" lon="9.17697">
        <ele>1571.41</ele>
        <time>2015-09-14T08:11:54Z</time>
      </trkpt>
      <trkpt lat="41.90581" lon="9.17696">
        <ele>1572.85</ele>
        <time>2015-09-14T08:11:59Z</time>
      </trkpt>
      <trkpt lat="41.9058" lon="9.17697">
        <ele>1572.37</ele>
        <time>2015-09-14T08:12:10Z</time>
      </trkpt>
      <trkpt lat="41.9058" lon="9.17698">
        <ele>1573.33</ele>
        <time>2015-09-14T08:12:15Z</time>
      </trkpt>
      <trkpt lat="41.90581" lon="9.17697">
        <ele>1572.37</ele>
        <time>2015-09-14T08:12:36Z</time>
      </trkpt>
      <trkpt lat="41.90578" lon="9.17693">
        <ele>1571.89</ele>
        <time>2015-09-14T08:12:55Z</time>
      </trkpt>
      <trkpt lat="41.90573" lon="9.17675">
        <ele>1569.01</ele>
        <time>2015-09-14T08:13:13Z</time>
      </trkpt>
      <trkpt lat="41.90569" lon="9.17666">
        <ele>1569.01</ele>
        <time>2015-09-14T08:13:24Z</time>
      </trkpt>
      <trkpt lat="41.90557" lon="9.17645">
        <ele>1566.12</ele>
        <time>2015-09-14T08:13:47Z</time>
      </trkpt>
      <trkpt lat="41.90551" lon="9.17624">
        <ele>1563.72</ele>
        <time>2015-09-14T08:14:08Z</time>
      </trkpt>
      <trkpt lat="41.90549" lon="9.17601">
        <ele>1561.8</ele>
        <time>2015-09-14T08:14:28Z</time>
      </trkpt>
      <trkpt lat="41.90539" lon="9.17576">
        <ele>1559.4</ele>
        <time>2015-09-14T08:14:47Z</time>
      </trkpt>
      <trkpt lat="41.90536" lon="9.17565">
        <ele>1557.47</ele>
        <time>2015-09-14T08:15:02Z</time>
      </trkpt>
      <trkpt lat="41.90536" lon="9.17557">
        <ele>1555.07</ele>
        <time>2015-09-14T08:15:19Z</time>
      </trkpt>
      <trkpt lat="41.90532" lon="9.17533">
        <ele>1551.71</ele>
        <time>2015-09-14T08:15:40Z</time>
      </trkpt>
      <trkpt lat="41.90531" lon="9.17529">
        <ele>1550.26</ele>
        <time>2015-09-14T08:15:45Z</time>
      </trkpt>
      <trkpt lat="41.90527" lon="9.17504">
        <ele>1549.3</ele>
        <time>2015-09-14T08:16:05Z</time>
      </trkpt>
      <trkpt lat="41.90521" lon="9.17474">
        <ele>1547.38</ele>
        <time>2015-09-14T08:16:24Z</time>
      </trkpt>
      <trkpt lat="41.90518" lon="9.1746">
        <ele>1545.46</ele>
        <time>2015-09-14T08:16:46Z</time>
      </trkpt>
      <trkpt lat="41.90513" lon="9.1745">
        <ele>1544.5</ele>
        <time>2015-09-14T08:17:02Z</time>
      </trkpt>
      <trkpt lat="41.90502" lon="9.1744">
        <ele>1543.05</ele>
        <time>2015-09-14T08:17:22Z</time>
      </trkpt>
      <trkpt lat="41.90496" lon="9.1743">
        <ele>1540.17</ele>
        <time>2015-09-14T08:17:39Z</time>
      </trkpt>
      <trkpt lat="41.90485" lon="9.17404">
        <ele>1537.77</ele>
        <time>2015-09-14T08:17:57Z</time>
      </trkpt>
      <trkpt lat="41.90475" lon="9.17396">
        <ele>1535.84</ele>
        <time>2015-09-14T08:18:15Z</time>
      </trkpt>
      <trkpt lat="41.90464" lon="9.17384">
        <ele>1532.48</ele>
        <time>2015-09-14T08:18:36Z</time>
      </trkpt>
      <trkpt lat="41.90454" lon="9.17377">
        <ele>1530.08</ele>
        <time>2015-09-14T08:18:55Z</time>
      </trkpt>
      <trkpt lat="41.90441" lon="9.17361">
        <ele>1527.19</ele>
        <time>2015-09-14T08:19:15Z</time>
      </trkpt>
      <trkpt lat="41.90432" lon="9.1736">
        <ele>1525.27</ele>
        <time>2015-09-14T08:19:32Z</time>
      </trkpt>
      <trkpt lat="41.90425" lon="9.17353">
        <ele>1522.87</ele>
        <time>2015-09-14T08:19:51Z</time>
      </trkpt>
      <trkpt lat="41.90416" lon="9.17339">
        <ele>1519.98</ele>
        <time>2015-09-14T08:20:14Z</time>
      </trkpt>
      <trkpt lat="41.90409" lon="9.17327">
        <ele>1516.62</ele>
        <time>2015-09-14T08:20:32Z</time>
      </trkpt>
      <trkpt lat="41.90403" lon="9.17309">
        <ele>1513.73</ele>
        <time>2015-09-14T08:20:50Z</time>
      </trkpt>
      <trkpt lat="41.90393" lon="9.17297">
        <ele>1511.33</ele>
        <time>2015-09-14T08:21:11Z</time>
      </trkpt>
      <trkpt lat="41.90391" lon="9.17288">
        <ele>1508.45</ele>
        <time>2015-09-14T08:21:27Z</time>
      </trkpt>
      <trkpt lat="41.90379" lon="9.17272">
        <ele>1505.56</ele>
        <time>2015-09-14T08:21:48Z</time>
      </trkpt>
      <trkpt lat="41.90387" lon="9.17274">
        <ele>1505.08</ele>
        <time>2015-09-14T08:22:07Z</time>
      </trkpt>
      <trkpt lat="41.90394" lon="9.17266">
        <ele>1503.64</ele>
        <time>2015-09-14T08:22:34Z</time>
      </trkpt>
      <trkpt lat="41.90386" lon="9.17244">
        <ele>1503.16</ele>
        <time>2015-09-14T08:22:53Z</time>
      </trkpt>
      <trkpt lat="41.90386" lon="9.17236">
        <ele>1504.6</ele>
        <time>2015-09-14T08:23:14Z</time>
      </trkpt>
      <trkpt lat="41.90396" lon="9.17244">
        <ele>1505.08</ele>
        <time>2015-09-14T08:23:47Z</time>
      </trkpt>
      <trkpt lat="41.90392" lon="9.17242">
        <ele>1505.56</ele>
        <time>2015-09-14T08:24:13Z</time>
      </trkpt>
      <trkpt lat="41.90389" lon="9.17247">
        <ele>1506.04</ele>
        <time>2015-09-14T08:24:40Z</time>
      </trkpt>
      <trkpt lat="41.90395" lon="9.17224">
        <ele>1506.04</ele>
        <time>2015-09-14T08:25:12Z</time>
      </trkpt>
      <trkpt lat="41.9039" lon="9.17245">
        <ele>1505.08</ele>
        <time>2015-09-14T08:25:39Z</time>
      </trkpt>
      <trkpt lat="41.90393" lon="9.17245">
        <ele>1506.52</ele>
        <time>2015-09-14T08:26:01Z</time>
      </trkpt>
      <trkpt lat="41.90381" lon="9.17242">
        <ele>1506.04</ele>
        <time>2015-09-14T08:26:35Z</time>
      </trkpt>
      <trkpt lat="41.90383" lon="9.17243">
        <ele>1506.04</ele>
        <time>2015-09-14T08:27:00Z</time>
      </trkpt>
      <trkpt lat="41.9038" lon="9.17241">
        <ele>1507.48</ele>
        <time>2015-09-14T08:27:07Z</time>
      </trkpt>
      <trkpt lat="41.90382" lon="9.17248">
        <ele>1506.52</ele>
        <time>2015-09-14T08:27:32Z</time>
      </trkpt>
      <trkpt lat="41.90382" lon="9.17242">
        <ele>1507</ele>
        <time>2015-09-14T08:28:05Z</time>
      </trkpt>
      <trkpt lat="41.90382" lon="9.17254">
        <ele>1506.52</ele>
        <time>2015-09-14T08:28:32Z</time>
      </trkpt>
      <trkpt lat="41.90371" lon="9.17262">
        <ele>1507</ele>
        <time>2015-09-14T08:29:16Z</time>
      </trkpt>
      <trkpt lat="41.90364" lon="9.17266">
        <ele>1507.48</ele>
        <time>2015-09-14T08:29:49Z</time>
      </trkpt>
      <trkpt lat="41.90372" lon="9.17255">
        <ele>1507.97</ele>
        <time>2015-09-14T08:30:30Z</time>
      </trkpt>
      <trkpt lat="41.90379" lon="9.17254">
        <ele>1507.97</ele>
        <time>2015-09-14T08:31:15Z</time>
      </trkpt>
      <trkpt lat="41.90387" lon="9.17253">
        <ele>1508.45</ele>
        <time>2015-09-14T08:31:52Z</time>
      </trkpt>
      <trkpt lat="41.90387" lon="9.17246">
        <ele>1509.89</ele>
        <time>2015-09-14T08:32:22Z</time>
      </trkpt>
      <trkpt lat="41.90395" lon="9.17243">
        <ele>1510.37</ele>
        <time>2015-09-14T08:32:51Z</time>
      </trkpt>
      <trkpt lat="41.90393" lon="9.17243">
        <ele>1509.41</ele>
        <time>2015-09-14T08:33:17Z</time>
      </trkpt>
      <trkpt lat="41.90386" lon="9.17237">
        <ele>1509.89</ele>
        <time>2015-09-14T08:33:49Z</time>
      </trkpt>
      <trkpt lat="41.90371" lon="9.17236">
        <ele>1508.93</ele>
        <time>2015-09-14T08:34:10Z</time>
      </trkpt>
      <trkpt lat="41.90374" lon="9.17238">
        <ele>1508.45</ele>
        <time>2015-09-14T08:34:33Z</time>
      </trkpt>
      <trkpt lat="41.90361" lon="9.17228">
        <ele>1508.45</ele>
        <time>2015-09-14T08:34:52Z</time>
      </trkpt>
      <trkpt lat="41.90344" lon="9.17221">
        <ele>1508.93</ele>
        <time>2015-09-14T08:35:12Z</time>
      </trkpt>
      <trkpt lat="41.90336" lon="9.17208">
        <ele>1508.45</ele>
        <time>2015-09-14T08:35:29Z</time>
      </trkpt>
      <trkpt lat="41.90328" lon="9.17194">
        <ele>1508.45</ele>
        <time>2015-09-14T08:35:46Z</time>
      </trkpt>
      <trkpt lat="41.90315" lon="9.17176">
        <ele>1507</ele>
        <time>2015-09-14T08:36:05Z</time>
      </trkpt>
      <trkpt lat="41.9031" lon="9.1715">
        <ele>1506.04</ele>
        <time>2015-09-14T08:36:26Z</time>
      </trkpt>
      <trkpt lat="41.9031" lon="9.17129">
        <ele>1507</ele>
        <time>2015-09-14T08:36:44Z</time>
      </trkpt>
      <trkpt lat="41.90302" lon="9.17108">
        <ele>1505.08</ele>
        <time>2015-09-14T08:37:04Z</time>
      </trkpt>
      <trkpt lat="41.90299" lon="9.17084">
        <ele>1502.68</ele>
        <time>2015-09-14T08:37:25Z</time>
      </trkpt>
      <trkpt lat="41.90286" lon="9.17073">
        <ele>1499.31</ele>
        <time>2015-09-14T08:37:40Z</time>
      </trkpt>
      <trkpt lat="41.90277" lon="9.17054">
        <ele>1495.47</ele>
        <time>2015-09-14T08:38:02Z</time>
      </trkpt>
      <trkpt lat="41.90269" lon="9.17046">
        <ele>1492.1</ele>
        <time>2015-09-14T08:38:14Z</time>
      </trkpt>
      <trkpt lat="41.90253" lon="9.17029">
        <ele>1488.26</ele>
        <time>2015-09-14T08:38:35Z</time>
      </trkpt>
      <trkpt lat="41.90242" lon="9.17006">
        <ele>1486.34</ele>
        <time>2015-09-14T08:38:52Z</time>
      </trkpt>
      <trkpt lat="41.90235" lon="9.16995">
        <ele>1484.41</ele>
        <time>2015-09-14T08:39:06Z</time>
      </trkpt>
      <trkpt lat="41.90228" lon="9.16983">
        <ele>1481.53</ele>
        <time>2015-09-14T08:39:22Z</time>
      </trkpt>
      <trkpt lat="41.90222" lon="9.16966">
        <ele>1480.09</ele>
        <time>2015-09-14T08:39:39Z</time>
      </trkpt>
      <trkpt lat="41.9022" lon="9.16961">
        <ele>1477.68</ele>
        <time>2015-09-14T08:39:45Z</time>
      </trkpt>
      <trkpt lat="41.90217" lon="9.16953">
        <ele>1477.68</ele>
        <time>2015-09-14T08:39:51Z</time>
      </trkpt>
      <trkpt lat="41.90212" lon="9.16927">
        <ele>1476.24</ele>
        <time>2015-09-14T08:40:08Z</time>
      </trkpt>
      <trkpt lat="41.90207" lon="9.16909">
        <ele>1474.8</ele>
        <time>2015-09-14T08:40:28Z</time>
      </trkpt>
      <trkpt lat="41.90198" lon="9.1689">
        <ele>1471.92</ele>
        <time>2015-09-14T08:40:46Z</time>
      </trkpt>
      <trkpt lat="41.90196" lon="9.1688">
        <ele>1469.03</ele>
        <time>2015-09-14T08:40:59Z</time>
      </trkpt>
      <trkpt lat="41.90192" lon="9.16855">
        <ele>1467.11</ele>
        <time>2015-09-14T08:41:22Z</time>
      </trkpt>
      <trkpt lat="41.90184" lon="9.16847">
        <ele>1464.71</ele>
        <time>2015-09-14T08:41:45Z</time>
      </trkpt>
      <trkpt lat="41.90177" lon="9.16832">
        <ele>1461.34</ele>
        <time>2015-09-14T08:42:04Z</time>
      </trkpt>
      <trkpt lat="41.90168" lon="9.16822">
        <ele>1459.42</ele>
        <time>2015-09-14T08:42:21Z</time>
      </trkpt>
      <trkpt lat="41.90161" lon="9.16801">
        <ele>1457.98</ele>
        <time>2015-09-14T08:42:41Z</time>
      </trkpt>
      <trkpt lat="41.90157" lon="9.16775">
        <ele>1456.53</ele>
        <time>2015-09-14T08:43:02Z</time>
      </trkpt>
      <trkpt lat="41.90149" lon="9.16749">
        <ele>1456.05</ele>
        <time>2015-09-14T08:43:18Z</time>
      </trkpt>
      <trkpt lat="41.90145" lon="9.16731">
        <ele>1456.05</ele>
        <time>2015-09-14T08:43:35Z</time>
      </trkpt>
      <trkpt lat="41.90145" lon="9.16713">
        <ele>1455.57</ele>
        <time>2015-09-14T08:43:53Z</time>
      </trkpt>
      <trkpt lat="41.90142" lon="9.16697">
        <ele>1452.69</ele>
        <time>2015-09-14T08:44:08Z</time>
      </trkpt>
      <trkpt lat="41.90142" lon="9.16679">
        <ele>1449.32</ele>
        <time>2015-09-14T08:44:28Z</time>
      </trkpt>
      <trkpt lat="41.90141" lon="9.16671">
        <ele>1445.96</ele>
        <time>2015-09-14T08:44:42Z</time>
      </trkpt>
      <trkpt lat="41.90142" lon="9.16664">
        <ele>1445</ele>
        <time>2015-09-14T08:44:49Z</time>
      </trkpt>
      <trkpt lat="41.90144" lon="9.16645">
        <ele>1443.56</ele>
        <time>2015-09-14T08:45:06Z</time>
      </trkpt>
      <trkpt lat="41.90144" lon="9.16628">
        <ele>1439.71</ele>
        <time>2015-09-14T08:45:20Z</time>
      </trkpt>
      <trkpt lat="41.90144" lon="9.16608">
        <ele>1438.75</ele>
        <time>2015-09-14T08:45:37Z</time>
      </trkpt>
      <trkpt lat="41.90145" lon="9.16586">
        <ele>1436.35</ele>
        <time>2015-09-14T08:45:55Z</time>
      </trkpt>
      <trkpt lat="41.90138" lon="9.16577">
        <ele>1432.98</ele>
        <time>2015-09-14T08:46:11Z</time>
      </trkpt>
      <trkpt lat="41.90133" lon="9.1658">
        <ele>1431.54</ele>
        <time>2015-09-14T08:46:19Z</time>
      </trkpt>
      <trkpt lat="41.90121" lon="9.16577">
        <ele>1428.66</ele>
        <time>2015-09-14T08:46:34Z</time>
      </trkpt>
      <trkpt lat="41.90109" lon="9.16576">
        <ele>1426.25</ele>
        <time>2015-09-14T08:46:52Z</time>
      </trkpt>
      <trkpt lat="41.90097" lon="9.16582">
        <ele>1422.89</ele>
        <time>2015-09-14T08:47:06Z</time>
      </trkpt>
      <trkpt lat="41.9009" lon="9.16581">
        <ele>1420.97</ele>
        <time>2015-09-14T08:47:21Z</time>
      </trkpt>
      <trkpt lat="41.9008" lon="9.16573">
        <ele>1418.56</ele>
        <time>2015-09-14T08:47:38Z</time>
      </trkpt>
      <trkpt lat="41.90073" lon="9.16572">
        <ele>1417.6</ele>
        <time>2015-09-14T08:47:45Z</time>
      </trkpt>
      <trkpt lat="41.90062" lon="9.1657">
        <ele>1416.64</ele>
        <time>2015-09-14T08:47:59Z</time>
      </trkpt>
      <trkpt lat="41.90052" lon="9.16559">
        <ele>1415.2</ele>
        <time>2015-09-14T08:48:17Z</time>
      </trkpt>
      <trkpt lat="41.90046" lon="9.16543">
        <ele>1412.79</ele>
        <time>2015-09-14T08:48:34Z</time>
      </trkpt>
      <trkpt lat="41.90041" lon="9.16538">
        <ele>1412.31</ele>
        <time>2015-09-14T08:48:41Z</time>
      </trkpt>
      <trkpt lat="41.90035" lon="9.16522">
        <ele>1410.87</ele>
        <time>2015-09-14T08:48:56Z</time>
      </trkpt>
      <trkpt lat="41.90031" lon="9.16501">
        <ele>1409.43</ele>
        <time>2015-09-14T08:49:14Z</time>
      </trkpt>
      <trkpt lat="41.90023" lon="9.16491">
        <ele>1407.03</ele>
        <time>2015-09-14T08:49:32Z</time>
      </trkpt>
      <trkpt lat="41.90015" lon="9.16474">
        <ele>1404.62</ele>
        <time>2015-09-14T08:49:49Z</time>
      </trkpt>
      <trkpt lat="41.90006" lon="9.16474">
        <ele>1403.18</ele>
        <time>2015-09-14T08:49:59Z</time>
      </trkpt>
      <trkpt lat="41.89995" lon="9.1647">
        <ele>1401.26</ele>
        <time>2015-09-14T08:50:16Z</time>
      </trkpt>
      <trkpt lat="41.89986" lon="9.16463">
        <ele>1398.86</ele>
        <time>2015-09-14T08:50:31Z</time>
      </trkpt>
      <trkpt lat="41.89983" lon="9.1645">
        <ele>1396.93</ele>
        <time>2015-09-14T08:50:47Z</time>
      </trkpt>
      <trkpt lat="41.89973" lon="9.16434">
        <ele>1394.05</ele>
        <time>2015-09-14T08:51:07Z</time>
      </trkpt>
      <trkpt lat="41.89961" lon="9.16422">
        <ele>1392.13</ele>
        <time>2015-09-14T08:51:25Z</time>
      </trkpt>
      <trkpt lat="41.89952" lon="9.1641">
        <ele>1388.76</ele>
        <time>2015-09-14T08:51:41Z</time>
      </trkpt>
      <trkpt lat="41.89952" lon="9.1641">
        <ele>1388.76</ele>
        <time>2015-09-14T08:51:42Z</time>
      </trkpt>
      <trkpt lat="41.89942" lon="9.16401">
        <ele>1387.32</ele>
        <time>2015-09-14T08:51:59Z</time>
      </trkpt>
      <trkpt lat="41.89931" lon="9.16401">
        <ele>1385.88</ele>
        <time>2015-09-14T08:52:15Z</time>
      </trkpt>
      <trkpt lat="41.89919" lon="9.16398">
        <ele>1383.96</ele>
        <time>2015-09-14T08:52:31Z</time>
      </trkpt>
      <trkpt lat="41.89902" lon="9.16382">
        <ele>1382.51</ele>
        <time>2015-09-14T08:52:55Z</time>
      </trkpt>
      <trkpt lat="41.89887" lon="9.16373">
        <ele>1383.47</ele>
        <time>2015-09-14T08:53:12Z</time>
      </trkpt>
      <trkpt lat="41.89883" lon="9.16369">
        <ele>1383.96</ele>
        <time>2015-09-14T08:53:19Z</time>
      </trkpt>
      <trkpt lat="41.89876" lon="9.16356">
        <ele>1383.96</ele>
        <time>2015-09-14T08:53:34Z</time>
      </trkpt>
      <trkpt lat="41.89871" lon="9.1634">
        <ele>1383.96</ele>
        <time>2015-09-14T08:53:47Z</time>
      </trkpt>
      <trkpt lat="41.89859" lon="9.16319">
        <ele>1384.92</ele>
        <time>2015-09-14T08:54:07Z</time>
      </trkpt>
      <trkpt lat="41.89847" lon="9.16308">
        <ele>1386.36</ele>
        <time>2015-09-14T08:54:24Z</time>
      </trkpt>
      <trkpt lat="41.89838" lon="9.16294">
        <ele>1388.28</ele>
        <time>2015-09-14T08:54:42Z</time>
      </trkpt>
      <trkpt lat="41.89835" lon="9.16288">
        <ele>1389.24</ele>
        <time>2015-09-14T08:54:57Z</time>
      </trkpt>
      <trkpt lat="41.89834" lon="9.16286">
        <ele>1388.76</ele>
        <time>2015-09-14T08:55:12Z</time>
      </trkpt>
      <trkpt lat="41.89834" lon="9.16284">
        <ele>1388.28</ele>
        <time>2015-09-14T08:55:37Z</time>
      </trkpt>
      <trkpt lat="41.89834" lon="9.16283">
        <ele>1388.28</ele>
        <time>2015-09-14T08:55:54Z</time>
      </trkpt>
      <trkpt lat="41.89833" lon="9.16282">
        <ele>1388.28</ele>
        <time>2015-09-14T08:56:16Z</time>
      </trkpt>
      <trkpt lat="41.89834" lon="9.16282">
        <ele>1389.24</ele>
        <time>2015-09-14T08:56:18Z</time>
      </trkpt>
      <trkpt lat="41.89832" lon="9.16282">
        <ele>1389.24</ele>
        <time>2015-09-14T08:56:38Z</time>
      </trkpt>
      <trkpt lat="41.89834" lon="9.16277">
        <ele>1389.24</ele>
        <time>2015-09-14T08:56:53Z</time>
      </trkpt>
      <trkpt lat="41.89833" lon="9.16278">
        <ele>1389.72</ele>
        <time>2015-09-14T08:57:21Z</time>
      </trkpt>
      <trkpt lat="41.89832" lon="9.16278">
        <ele>1389.72</ele>
        <time>2015-09-14T08:57:48Z</time>
      </trkpt>
      <trkpt lat="41.89834" lon="9.16277">
        <ele>1389.72</ele>
        <time>2015-09-14T08:58:11Z</time>
      </trkpt>
      <trkpt lat="41.89832" lon="9.16275">
        <ele>1389.72</ele>
        <time>2015-09-14T08:58:25Z</time>
      </trkpt>
      <trkpt lat="41.89824" lon="9.1626">
        <ele>1389.72</ele>
        <time>2015-09-14T08:58:40Z</time>
      </trkpt>
      <trkpt lat="41.89821" lon="9.16254">
        <ele>1388.28</ele>
        <time>2015-09-14T08:58:45Z</time>
      </trkpt>
      <trkpt lat="41.89816" lon="9.16241">
        <ele>1387.32</ele>
        <time>2015-09-14T08:58:55Z</time>
      </trkpt>
      <trkpt lat="41.8981" lon="9.16221">
        <ele>1386.84</ele>
        <time>2015-09-14T08:59:10Z</time>
      </trkpt>
      <trkpt lat="41.89808" lon="9.16218">
        <ele>1386.84</ele>
        <time>2015-09-14T08:59:13Z</time>
      </trkpt>
      <trkpt lat="41.898" lon="9.16197">
        <ele>1385.4</ele>
        <time>2015-09-14T08:59:31Z</time>
      </trkpt>
      <trkpt lat="41.89797" lon="9.1619">
        <ele>1384.92</ele>
        <time>2015-09-14T08:59:36Z</time>
      </trkpt>
      <trkpt lat="41.89795" lon="9.16187">
        <ele>1384.92</ele>
        <time>2015-09-14T08:59:39Z</time>
      </trkpt>
      <trkpt lat="41.89788" lon="9.16183">
        <ele>1384.44</ele>
        <time>2015-09-14T08:59:46Z</time>
      </trkpt>
      <trkpt lat="41.89774" lon="9.16172">
        <ele>1383.96</ele>
        <time>2015-09-14T09:00:03Z</time>
      </trkpt>
      <trkpt lat="41.89761" lon="9.16176">
        <ele>1383.96</ele>
        <time>2015-09-14T09:00:16Z</time>
      </trkpt>
      <trkpt lat="41.89749" lon="9.16173">
        <ele>1383.96</ele>
        <time>2015-09-14T09:00:27Z</time>
      </trkpt>
      <trkpt lat="41.89746" lon="9.16174">
        <ele>1383.96</ele>
        <time>2015-09-14T09:00:30Z</time>
      </trkpt>
      <trkpt lat="41.8973" lon="9.16179">
        <ele>1385.4</ele>
        <time>2015-09-14T09:00:45Z</time>
      </trkpt>
      <trkpt lat="41.89722" lon="9.16177">
        <ele>1385.88</ele>
        <time>2015-09-14T09:00:54Z</time>
      </trkpt>
      <trkpt lat="41.89716" lon="9.16171">
        <ele>1386.36</ele>
        <time>2015-09-14T09:01:02Z</time>
      </trkpt>
      <trkpt lat="41.89708" lon="9.16167">
        <ele>1386.36</ele>
        <time>2015-09-14T09:01:16Z</time>
      </trkpt>
      <trkpt lat="41.89706" lon="9.16167">
        <ele>1386.36</ele>
        <time>2015-09-14T09:01:18Z</time>
      </trkpt>
      <trkpt lat="41.89704" lon="9.16165">
        <ele>1384.92</ele>
        <time>2015-09-14T09:01:20Z</time>
      </trkpt>
      <trkpt lat="41.89687" lon="9.16145">
        <ele>1382.03</ele>
        <time>2015-09-14T09:01:37Z</time>
      </trkpt>
      <trkpt lat="41.89681" lon="9.1613">
        <ele>1380.59</ele>
        <time>2015-09-14T09:01:48Z</time>
      </trkpt>
      <trkpt lat="41.89677" lon="9.16122">
        <ele>1380.11</ele>
        <time>2015-09-14T09:01:55Z</time>
      </trkpt>
      <trkpt lat="41.8967" lon="9.16108">
        <ele>1377.23</ele>
        <time>2015-09-14T09:02:11Z</time>
      </trkpt>
      <trkpt lat="41.89667" lon="9.16102">
        <ele>1376.75</ele>
        <time>2015-09-14T09:02:20Z</time>
      </trkpt>
      <trkpt lat="41.8966" lon="9.16086">
        <ele>1374.34</ele>
        <time>2015-09-14T09:02:35Z</time>
      </trkpt>
      <trkpt lat="41.89659" lon="9.16084">
        <ele>1373.38</ele>
        <time>2015-09-14T09:02:37Z</time>
      </trkpt>
      <trkpt lat="41.89649" lon="9.16087">
        <ele>1370.02</ele>
        <time>2015-09-14T09:02:49Z</time>
      </trkpt>
      <trkpt lat="41.89639" lon="9.16089">
        <ele>1368.57</ele>
        <time>2015-09-14T09:03:05Z</time>
      </trkpt>
      <trkpt lat="41.89633" lon="9.16089">
        <ele>1367.61</ele>
        <time>2015-09-14T09:03:12Z</time>
      </trkpt>
      <trkpt lat="41.89631" lon="9.16091">
        <ele>1365.69</ele>
        <time>2015-09-14T09:03:15Z</time>
      </trkpt>
      <trkpt lat="41.89628" lon="9.16091">
        <ele>1365.69</ele>
        <time>2015-09-14T09:03:18Z</time>
      </trkpt>
      <trkpt lat="41.89626" lon="9.1609">
        <ele>1367.61</ele>
        <time>2015-09-14T09:03:21Z</time>
      </trkpt>
      <trkpt lat="41.8963" lon="9.1608">
        <ele>1365.21</ele>
        <time>2015-09-14T09:03:31Z</time>
      </trkpt>
      <trkpt lat="41.89629" lon="9.16062">
        <ele>1361.36</ele>
        <time>2015-09-14T09:03:48Z</time>
      </trkpt>
      <trkpt lat="41.89628" lon="9.16061">
        <ele>1361.36</ele>
        <time>2015-09-14T09:03:49Z</time>
      </trkpt>
      <trkpt lat="41.89628" lon="9.1606">
        <ele>1360.88</ele>
        <time>2015-09-14T09:03:50Z</time>
      </trkpt>
      <trkpt lat="41.89619" lon="9.16051">
        <ele>1358</ele>
        <time>2015-09-14T09:04:02Z</time>
      </trkpt>
      <trkpt lat="41.89618" lon="9.16051">
        <ele>1358</ele>
        <time>2015-09-14T09:04:03Z</time>
      </trkpt>
      <trkpt lat="41.89608" lon="9.16044">
        <ele>1356.08</ele>
        <time>2015-09-14T09:04:15Z</time>
      </trkpt>
      <trkpt lat="41.89596" lon="9.16039">
        <ele>1353.19</ele>
        <time>2015-09-14T09:04:29Z</time>
      </trkpt>
      <trkpt lat="41.89594" lon="9.16035">
        <ele>1353.19</ele>
        <time>2015-09-14T09:04:32Z</time>
      </trkpt>
      <trkpt lat="41.89589" lon="9.16022">
        <ele>1353.19</ele>
        <time>2015-09-14T09:04:42Z</time>
      </trkpt>
      <trkpt lat="41.89589" lon="9.16018">
        <ele>1352.71</ele>
        <time>2015-09-14T09:04:45Z</time>
      </trkpt>
      <trkpt lat="41.89585" lon="9.16013">
        <ele>1350.79</ele>
        <time>2015-09-14T09:04:50Z</time>
      </trkpt>
      <trkpt lat="41.89581" lon="9.16009">
        <ele>1349.83</ele>
        <time>2015-09-14T09:04:55Z</time>
      </trkpt>
      <trkpt lat="41.89579" lon="9.16008">
        <ele>1349.83</ele>
        <time>2015-09-14T09:04:58Z</time>
      </trkpt>
      <trkpt lat="41.89577" lon="9.16007">
        <ele>1349.35</ele>
        <time>2015-09-14T09:05:00Z</time>
      </trkpt>
      <trkpt lat="41.89573" lon="9.16001">
        <ele>1348.39</ele>
        <time>2015-09-14T09:05:07Z</time>
      </trkpt>
      <trkpt lat="41.89572" lon="9.15995">
        <ele>1347.91</ele>
        <time>2015-09-14T09:05:11Z</time>
      </trkpt>
      <trkpt lat="41.89566" lon="9.15988">
        <ele>1347.43</ele>
        <time>2015-09-14T09:05:19Z</time>
      </trkpt>
      <trkpt lat="41.8955" lon="9.15981">
        <ele>1346.46</ele>
        <time>2015-09-14T09:05:35Z</time>
      </trkpt>
      <trkpt lat="41.89533" lon="9.15972">
        <ele>1346.46</ele>
        <time>2015-09-14T09:05:50Z</time>
      </trkpt>
      <trkpt lat="41.89513" lon="9.15967">
        <ele>1345.02</ele>
        <time>2015-09-14T09:06:09Z</time>
      </trkpt>
      <trkpt lat="41.89508" lon="9.15969">
        <ele>1345.02</ele>
        <time>2015-09-14T09:06:13Z</time>
      </trkpt>
      <trkpt lat="41.89501" lon="9.15966">
        <ele>1345.02</ele>
        <time>2015-09-14T09:06:20Z</time>
      </trkpt>
      <trkpt lat="41.89499" lon="9.15965">
        <ele>1345.02</ele>
        <time>2015-09-14T09:06:23Z</time>
      </trkpt>
      <trkpt lat="41.89482" lon="9.1596">
        <ele>1344.06</ele>
        <time>2015-09-14T09:06:41Z</time>
      </trkpt>
      <trkpt lat="41.89474" lon="9.15962">
        <ele>1344.06</ele>
        <time>2015-09-14T09:06:55Z</time>
      </trkpt>
      <trkpt lat="41.89474" lon="9.15962">
        <ele>1344.06</ele>
        <time>2015-09-14T09:07:16Z</time>
      </trkpt>
      <trkpt lat="41.89459" lon="9.15974">
        <ele>1345.02</ele>
        <time>2015-09-14T09:07:32Z</time>
      </trkpt>
      <trkpt lat="41.89457" lon="9.15976">
        <ele>1345.02</ele>
        <time>2015-09-14T09:07:34Z</time>
      </trkpt>
      <trkpt lat="41.89436" lon="9.15979">
        <ele>1341.18</ele>
        <time>2015-09-14T09:07:50Z</time>
      </trkpt>
      <trkpt lat="41.89425" lon="9.15977">
        <ele>1341.66</ele>
        <time>2015-09-14T09:07:57Z</time>
      </trkpt>
      <trkpt lat="41.89409" lon="9.15965">
        <ele>1340.7</ele>
        <time>2015-09-14T09:08:11Z</time>
      </trkpt>
      <trkpt lat="41.89401" lon="9.15947">
        <ele>1338.77</ele>
        <time>2015-09-14T09:08:26Z</time>
      </trkpt>
      <trkpt lat="41.89389" lon="9.15938">
        <ele>1338.29</ele>
        <time>2015-09-14T09:08:37Z</time>
      </trkpt>
      <trkpt lat="41.89371" lon="9.15935">
        <ele>1334.93</ele>
        <time>2015-09-14T09:08:54Z</time>
      </trkpt>
      <trkpt lat="41.89367" lon="9.15934">
        <ele>1333.49</ele>
        <time>2015-09-14T09:08:59Z</time>
      </trkpt>
      <trkpt lat="41.89348" lon="9.15946">
        <ele>1332.04</ele>
        <time>2015-09-14T09:09:17Z</time>
      </trkpt>
      <trkpt lat="41.89335" lon="9.15941">
        <ele>1331.56</ele>
        <time>2015-09-14T09:09:29Z</time>
      </trkpt>
      <trkpt lat="41.89329" lon="9.15938">
        <ele>1331.56</ele>
        <time>2015-09-14T09:09:34Z</time>
      </trkpt>
      <trkpt lat="41.89321" lon="9.15936">
        <ele>1330.6</ele>
        <time>2015-09-14T09:09:40Z</time>
      </trkpt>
      <trkpt lat="41.89309" lon="9.15919">
        <ele>1327.72</ele>
        <time>2015-09-14T09:09:58Z</time>
      </trkpt>
      <trkpt lat="41.89299" lon="9.15902">
        <ele>1324.83</ele>
        <time>2015-09-14T09:10:16Z</time>
      </trkpt>
      <trkpt lat="41.8929" lon="9.15896">
        <ele>1323.39</ele>
        <time>2015-09-14T09:10:30Z</time>
      </trkpt>
      <trkpt lat="41.89276" lon="9.15891">
        <ele>1320.99</ele>
        <time>2015-09-14T09:10:48Z</time>
      </trkpt>
      <trkpt lat="41.89268" lon="9.15898">
        <ele>1318.59</ele>
        <time>2015-09-14T09:11:02Z</time>
      </trkpt>
      <trkpt lat="41.89261" lon="9.15905">
        <ele>1316.18</ele>
        <time>2015-09-14T09:11:17Z</time>
      </trkpt>
      <trkpt lat="41.89251" lon="9.15898">
        <ele>1314.26</ele>
        <time>2015-09-14T09:11:31Z</time>
      </trkpt>
      <trkpt lat="41.89242" lon="9.15892">
        <ele>1312.34</ele>
        <time>2015-09-14T09:11:47Z</time>
      </trkpt>
      <trkpt lat="41.89239" lon="9.15888">
        <ele>1310.41</ele>
        <time>2015-09-14T09:12:03Z</time>
      </trkpt>
      <trkpt lat="41.89233" lon="9.1589">
        <ele>1308.97</ele>
        <time>2015-09-14T09:12:19Z</time>
      </trkpt>
      <trkpt lat="41.89224" lon="9.15896">
        <ele>1306.57</ele>
        <time>2015-09-14T09:12:37Z</time>
      </trkpt>
      <trkpt lat="41.89219" lon="9.15896">
        <ele>1306.09</ele>
        <time>2015-09-14T09:12:56Z</time>
      </trkpt>
      <trkpt lat="41.89218" lon="9.15902">
        <ele>1305.13</ele>
        <time>2015-09-14T09:13:17Z</time>
      </trkpt>
      <trkpt lat="41.89216" lon="9.15899">
        <ele>1305.13</ele>
        <time>2015-09-14T09:13:25Z</time>
      </trkpt>
      <trkpt lat="41.89214" lon="9.15894">
        <ele>1307.05</ele>
        <time>2015-09-14T09:13:39Z</time>
      </trkpt>
      <trkpt lat="41.89214" lon="9.15891">
        <ele>1306.57</ele>
        <time>2015-09-14T09:13:42Z</time>
      </trkpt>
      <trkpt lat="41.89206" lon="9.15885">
        <ele>1307.05</ele>
        <time>2015-09-14T09:13:53Z</time>
      </trkpt>
      <trkpt lat="41.89195" lon="9.15874">
        <ele>1308.49</ele>
        <time>2015-09-14T09:14:09Z</time>
      </trkpt>
      <trkpt lat="41.89189" lon="9.15868">
        <ele>1310.41</ele>
        <time>2015-09-14T09:14:22Z</time>
      </trkpt>
      <trkpt lat="41.89184" lon="9.15859">
        <ele>1312.34</ele>
        <time>2015-09-14T09:14:36Z</time>
      </trkpt>
      <trkpt lat="41.89179" lon="9.15852">
        <ele>1313.78</ele>
        <time>2015-09-14T09:14:50Z</time>
      </trkpt>
      <trkpt lat="41.89172" lon="9.15854">
        <ele>1312.82</ele>
        <time>2015-09-14T09:15:01Z</time>
      </trkpt>
      <trkpt lat="41.89163" lon="9.15846">
        <ele>1311.38</ele>
        <time>2015-09-14T09:15:12Z</time>
      </trkpt>
      <trkpt lat="41.89148" lon="9.15834">
        <ele>1310.41</ele>
        <time>2015-09-14T09:15:30Z</time>
      </trkpt>
      <trkpt lat="41.89136" lon="9.15825">
        <ele>1311.86</ele>
        <time>2015-09-14T09:15:47Z</time>
      </trkpt>
      <trkpt lat="41.89118" lon="9.1582">
        <ele>1312.34</ele>
        <time>2015-09-14T09:16:02Z</time>
      </trkpt>
      <trkpt lat="41.89111" lon="9.1582">
        <ele>1312.34</ele>
        <time>2015-09-14T09:16:07Z</time>
      </trkpt>
      <trkpt lat="41.89094" lon="9.15815">
        <ele>1312.82</ele>
        <time>2015-09-14T09:16:24Z</time>
      </trkpt>
      <trkpt lat="41.89085" lon="9.15805">
        <ele>1314.74</ele>
        <time>2015-09-14T09:16:41Z</time>
      </trkpt>
      <trkpt lat="41.89071" lon="9.15803">
        <ele>1314.74</ele>
        <time>2015-09-14T09:16:57Z</time>
      </trkpt>
      <trkpt lat="41.89063" lon="9.15796">
        <ele>1315.7</ele>
        <time>2015-09-14T09:17:10Z</time>
      </trkpt>
      <trkpt lat="41.8905" lon="9.15795">
        <ele>1316.18</ele>
        <time>2015-09-14T09:17:26Z</time>
      </trkpt>
      <trkpt lat="41.89039" lon="9.15789">
        <ele>1317.14</ele>
        <time>2015-09-14T09:17:42Z</time>
      </trkpt>
      <trkpt lat="41.89026" lon="9.15779">
        <ele>1317.62</ele>
        <time>2015-09-14T09:17:58Z</time>
      </trkpt>
      <trkpt lat="41.89013" lon="9.1577">
        <ele>1317.62</ele>
        <time>2015-09-14T09:18:10Z</time>
      </trkpt>
      <trkpt lat="41.89005" lon="9.15755">
        <ele>1318.1</ele>
        <time>2015-09-14T09:18:27Z</time>
      </trkpt>
      <trkpt lat="41.88996" lon="9.15742">
        <ele>1319.07</ele>
        <time>2015-09-14T09:18:44Z</time>
      </trkpt>
      <trkpt lat="41.88982" lon="9.15728">
        <ele>1319.07</ele>
        <time>2015-09-14T09:19:03Z</time>
      </trkpt>
      <trkpt lat="41.8897" lon="9.15718">
        <ele>1318.59</ele>
        <time>2015-09-14T09:19:21Z</time>
      </trkpt>
      <trkpt lat="41.88952" lon="9.157">
        <ele>1318.59</ele>
        <time>2015-09-14T09:19:40Z</time>
      </trkpt>
      <trkpt lat="41.88947" lon="9.15695">
        <ele>1317.14</ele>
        <time>2015-09-14T09:19:48Z</time>
      </trkpt>
      <trkpt lat="41.88947" lon="9.15687">
        <ele>1318.59</ele>
        <time>2015-09-14T09:19:58Z</time>
      </trkpt>
      <trkpt lat="41.8893" lon="9.15669">
        <ele>1319.55</ele>
        <time>2015-09-14T09:20:20Z</time>
      </trkpt>
      <trkpt lat="41.88921" lon="9.15656">
        <ele>1318.59</ele>
        <time>2015-09-14T09:20:39Z</time>
      </trkpt>
      <trkpt lat="41.88913" lon="9.15651">
        <ele>1316.66</ele>
        <time>2015-09-14T09:20:50Z</time>
      </trkpt>
      <trkpt lat="41.88901" lon="9.1563">
        <ele>1316.66</ele>
        <time>2015-09-14T09:21:08Z</time>
      </trkpt>
      <trkpt lat="41.88897" lon="9.15609">
        <ele>1316.66</ele>
        <time>2015-09-14T09:21:25Z</time>
      </trkpt>
      <trkpt lat="41.88884" lon="9.15602">
        <ele>1316.18</ele>
        <time>2015-09-14T09:21:49Z</time>
      </trkpt>
      <trkpt lat="41.8888" lon="9.15598">
        <ele>1316.66</ele>
        <time>2015-09-14T09:22:08Z</time>
      </trkpt>
      <trkpt lat="41.88869" lon="9.15593">
        <ele>1317.14</ele>
        <time>2015-09-14T09:22:23Z</time>
      </trkpt>
      <trkpt lat="41.88867" lon="9.15584">
        <ele>1318.59</ele>
        <time>2015-09-14T09:22:43Z</time>
      </trkpt>
      <trkpt lat="41.88856" lon="9.15582">
        <ele>1320.03</ele>
        <time>2015-09-14T09:22:57Z</time>
      </trkpt>
      <trkpt lat="41.88851" lon="9.15581">
        <ele>1320.03</ele>
        <time>2015-09-14T09:23:01Z</time>
      </trkpt>
      <trkpt lat="41.88844" lon="9.15579">
        <ele>1320.99</ele>
        <time>2015-09-14T09:23:10Z</time>
      </trkpt>
      <trkpt lat="41.8883" lon="9.15573">
        <ele>1320.99</ele>
        <time>2015-09-14T09:23:28Z</time>
      </trkpt>
      <trkpt lat="41.88818" lon="9.15564">
        <ele>1321.95</ele>
        <time>2015-09-14T09:23:43Z</time>
      </trkpt>
      <trkpt lat="41.88809" lon="9.15553">
        <ele>1324.35</ele>
        <time>2015-09-14T09:24:00Z</time>
      </trkpt>
      <trkpt lat="41.88798" lon="9.15542">
        <ele>1325.31</ele>
        <time>2015-09-14T09:24:14Z</time>
      </trkpt>
      <trkpt lat="41.88799" lon="9.15536">
        <ele>1325.8</ele>
        <time>2015-09-14T09:24:32Z</time>
      </trkpt>
      <trkpt lat="41.88799" lon="9.15519">
        <ele>1327.72</ele>
        <time>2015-09-14T09:24:51Z</time>
      </trkpt>
      <trkpt lat="41.88801" lon="9.15505">
        <ele>1330.12</ele>
        <time>2015-09-14T09:25:10Z</time>
      </trkpt>
      <trkpt lat="41.88795" lon="9.15494">
        <ele>1332.04</ele>
        <time>2015-09-14T09:25:27Z</time>
      </trkpt>
      <trkpt lat="41.88795" lon="9.15483">
        <ele>1333.49</ele>
        <time>2015-09-14T09:25:41Z</time>
      </trkpt>
      <trkpt lat="41.88797" lon="9.15471">
        <ele>1335.41</ele>
        <time>2015-09-14T09:25:58Z</time>
      </trkpt>
      <trkpt lat="41.88797" lon="9.15462">
        <ele>1337.33</ele>
        <time>2015-09-14T09:26:13Z</time>
      </trkpt>
      <trkpt lat="41.88796" lon="9.15453">
        <ele>1338.77</ele>
        <time>2015-09-14T09:26:29Z</time>
      </trkpt>
      <trkpt lat="41.88791" lon="9.15446">
        <ele>1339.73</ele>
        <time>2015-09-14T09:26:41Z</time>
      </trkpt>
      <trkpt lat="41.88781" lon="9.15441">
        <ele>1340.7</ele>
        <time>2015-09-14T09:26:57Z</time>
      </trkpt>
      <trkpt lat="41.8877" lon="9.15433">
        <ele>1342.14</ele>
        <time>2015-09-14T09:27:13Z</time>
      </trkpt>
      <trkpt lat="41.88763" lon="9.15422">
        <ele>1342.14</ele>
        <time>2015-09-14T09:27:28Z</time>
      </trkpt>
      <trkpt lat="41.88763" lon="9.15421">
        <ele>1342.14</ele>
        <time>2015-09-14T09:27:29Z</time>
      </trkpt>
      <trkpt lat="41.88759" lon="9.15413">
        <ele>1342.14</ele>
        <time>2015-09-14T09:27:37Z</time>
      </trkpt>
      <trkpt lat="41.88758" lon="9.15411">
        <ele>1340.7</ele>
        <time>2015-09-14T09:27:39Z</time>
      </trkpt>
      <trkpt lat="41.88756" lon="9.15394">
        <ele>1340.7</ele>
        <time>2015-09-14T09:27:55Z</time>
      </trkpt>
      <trkpt lat="41.88756" lon="9.15386">
        <ele>1342.14</ele>
        <time>2015-09-14T09:28:02Z</time>
      </trkpt>
      <trkpt lat="41.88755" lon="9.15365">
        <ele>1342.62</ele>
        <time>2015-09-14T09:28:19Z</time>
      </trkpt>
      <trkpt lat="41.88756" lon="9.15355">
        <ele>1344.54</ele>
        <time>2015-09-14T09:28:36Z</time>
      </trkpt>
      <trkpt lat="41.88756" lon="9.1535">
        <ele>1345.5</ele>
        <time>2015-09-14T09:28:42Z</time>
      </trkpt>
      <trkpt lat="41.88756" lon="9.15341">
        <ele>1345.98</ele>
        <time>2015-09-14T09:28:51Z</time>
      </trkpt>
      <trkpt lat="41.88753" lon="9.15332">
        <ele>1346.46</ele>
        <time>2015-09-14T09:28:59Z</time>
      </trkpt>
      <trkpt lat="41.88748" lon="9.15315">
        <ele>1346.94</ele>
        <time>2015-09-14T09:29:11Z</time>
      </trkpt>
      <trkpt lat="41.88743" lon="9.15296">
        <ele>1347.43</ele>
        <time>2015-09-14T09:29:28Z</time>
      </trkpt>
      <trkpt lat="41.8874" lon="9.15287">
        <ele>1348.39</ele>
        <time>2015-09-14T09:29:38Z</time>
      </trkpt>
      <trkpt lat="41.88736" lon="9.15274">
        <ele>1348.39</ele>
        <time>2015-09-14T09:29:49Z</time>
      </trkpt>
      <trkpt lat="41.88736" lon="9.1527">
        <ele>1348.39</ele>
        <time>2015-09-14T09:29:52Z</time>
      </trkpt>
      <trkpt lat="41.88735" lon="9.15261">
        <ele>1348.87</ele>
        <time>2015-09-14T09:30:00Z</time>
      </trkpt>
      <trkpt lat="41.88735" lon="9.15258">
        <ele>1348.87</ele>
        <time>2015-09-14T09:30:02Z</time>
      </trkpt>
      <trkpt lat="41.88736" lon="9.15252">
        <ele>1348.87</ele>
        <time>2015-09-14T09:30:07Z</time>
      </trkpt>
      <trkpt lat="41.88737" lon="9.15245">
        <ele>1348.87</ele>
        <time>2015-09-14T09:30:13Z</time>
      </trkpt>
      <trkpt lat="41.88737" lon="9.15223">
        <ele>1347.91</ele>
        <time>2015-09-14T09:30:30Z</time>
      </trkpt>
      <trkpt lat="41.88736" lon="9.15204">
        <ele>1347.43</ele>
        <time>2015-09-14T09:30:47Z</time>
      </trkpt>
      <trkpt lat="41.88736" lon="9.15185">
        <ele>1346.94</ele>
        <time>2015-09-14T09:31:06Z</time>
      </trkpt>
      <trkpt lat="41.88737" lon="9.15171">
        <ele>1345.5</ele>
        <time>2015-09-14T09:31:19Z</time>
      </trkpt>
      <trkpt lat="41.88738" lon="9.15169">
        <ele>1345.02</ele>
        <time>2015-09-14T09:31:21Z</time>
      </trkpt>
      <trkpt lat="41.8874" lon="9.15167">
        <ele>1345.02</ele>
        <time>2015-09-14T09:31:23Z</time>
      </trkpt>
      <trkpt lat="41.88747" lon="9.15154">
        <ele>1344.54</ele>
        <time>2015-09-14T09:31:39Z</time>
      </trkpt>
      <trkpt lat="41.88749" lon="9.15146">
        <ele>1344.06</ele>
        <time>2015-09-14T09:31:57Z</time>
      </trkpt>
      <trkpt lat="41.88754" lon="9.15136">
        <ele>1342.14</ele>
        <time>2015-09-14T09:32:19Z</time>
      </trkpt>
      <trkpt lat="41.88754" lon="9.15119">
        <ele>1339.73</ele>
        <time>2015-09-14T09:32:37Z</time>
      </trkpt>
      <trkpt lat="41.88758" lon="9.15105">
        <ele>1338.77</ele>
        <time>2015-09-14T09:32:54Z</time>
      </trkpt>
      <trkpt lat="41.88766" lon="9.15091">
        <ele>1336.85</ele>
        <time>2015-09-14T09:33:11Z</time>
      </trkpt>
      <trkpt lat="41.88772" lon="9.15078">
        <ele>1336.37</ele>
        <time>2015-09-14T09:33:25Z</time>
      </trkpt>
      <trkpt lat="41.88772" lon="9.15069">
        <ele>1335.41</ele>
        <time>2015-09-14T09:33:32Z</time>
      </trkpt>
      <trkpt lat="41.88775" lon="9.15049">
        <ele>1333.97</ele>
        <time>2015-09-14T09:33:48Z</time>
      </trkpt>
      <trkpt lat="41.88779" lon="9.15033">
        <ele>1333.01</ele>
        <time>2015-09-14T09:34:03Z</time>
      </trkpt>
      <trkpt lat="41.88778" lon="9.1503">
        <ele>1332.04</ele>
        <time>2015-09-14T09:34:27Z</time>
      </trkpt>
      <trkpt lat="41.88456" lon="9.14489">
        <ele>1299.36</ele>
        <time>2015-09-14T09:50:36Z</time>
      </trkpt>
      <trkpt lat="41.88455" lon="9.14489">
        <ele>1299.36</ele>
        <time>2015-09-14T09:50:37Z</time>
      </trkpt>
      <trkpt lat="41.88451" lon="9.14492">
        <ele>1301.76</ele>
        <time>2015-09-14T09:51:09Z</time>
      </trkpt>
      <trkpt lat="41.88451" lon="9.14492">
        <ele>1305.13</ele>
        <time>2015-09-14T09:51:12Z</time>
      </trkpt>
      <trkpt lat="41.88451" lon="9.14491">
        <ele>1305.61</ele>
        <time>2015-09-14T09:51:14Z</time>
      </trkpt>
      <trkpt lat="41.88451" lon="9.14491">
        <ele>1309.45</ele>
        <time>2015-09-14T09:51:19Z</time>
      </trkpt>
      <trkpt lat="41.88447" lon="9.14484">
        <ele>1312.82</ele>
        <time>2015-09-14T09:51:27Z</time>
      </trkpt>
      <trkpt lat="41.88446" lon="9.14484">
        <ele>1315.7</ele>
        <time>2015-09-14T09:51:36Z</time>
      </trkpt>
      <trkpt lat="41.88449" lon="9.14481">
        <ele>1319.07</ele>
        <time>2015-09-14T09:51:54Z</time>
      </trkpt>
      <trkpt lat="41.88448" lon="9.14487">
        <ele>1320.99</ele>
        <time>2015-09-14T09:52:22Z</time>
      </trkpt>
      <trkpt lat="41.88449" lon="9.14483">
        <ele>1322.43</ele>
        <time>2015-09-14T09:53:12Z</time>
      </trkpt>
      <trkpt lat="41.88448" lon="9.14482">
        <ele>1322.43</ele>
        <time>2015-09-14T09:54:01Z</time>
      </trkpt>
      <trkpt lat="41.88447" lon="9.14487">
        <ele>1322.43</ele>
        <time>2015-09-14T09:54:38Z</time>
      </trkpt>
      <trkpt lat="41.88449" lon="9.14487">
        <ele>1322.43</ele>
        <time>2015-09-14T09:55:03Z</time>
      </trkpt>
      <trkpt lat="41.88452" lon="9.14487">
        <ele>1322.43</ele>
        <time>2015-09-14T09:55:41Z</time>
      </trkpt>
      <trkpt lat="41.88449" lon="9.14487">
        <ele>1322.43</ele>
        <time>2015-09-14T09:56:19Z</time>
      </trkpt>
      <trkpt lat="41.88447" lon="9.14488">
        <ele>1321.95</ele>
        <time>2015-09-14T09:56:56Z</time>
      </trkpt>
      <trkpt lat="41.88447" lon="9.14484">
        <ele>1321.95</ele>
        <time>2015-09-14T09:57:39Z</time>
      </trkpt>
      <trkpt lat="41.88449" lon="9.14485">
        <ele>1321.95</ele>
        <time>2015-09-14T09:58:19Z</time>
      </trkpt>
      <trkpt lat="41.88448" lon="9.14483">
        <ele>1321.95</ele>
        <time>2015-09-14T09:59:02Z</time>
      </trkpt>
      <trkpt lat="41.88448" lon="9.14479">
        <ele>1321.95</ele>
        <time>2015-09-14T09:59:45Z</time>
      </trkpt>
      <trkpt lat="41.88449" lon="9.14479">
        <ele>1321.95</ele>
        <time>2015-09-14T10:00:18Z</time>
      </trkpt>
      <trkpt lat="41.88446" lon="9.14478">
        <ele>1321.95</ele>
        <time>2015-09-14T10:00:53Z</time>
      </trkpt>
      <trkpt lat="41.88448" lon="9.14475">
        <ele>1320.99</ele>
        <time>2015-09-14T10:01:30Z</time>
      </trkpt>
      <trkpt lat="41.88456" lon="9.14482">
        <ele>1322.43</ele>
        <time>2015-09-14T10:01:57Z</time>
      </trkpt>
      <trkpt lat="41.88453" lon="9.14482">
        <ele>1322.43</ele>
        <time>2015-09-14T10:02:19Z</time>
      </trkpt>
      <trkpt lat="41.88463" lon="9.14487">
        <ele>1322.43</ele>
        <time>2015-09-14T10:02:50Z</time>
      </trkpt>
      <trkpt lat="41.88455" lon="9.14488">
        <ele>1322.43</ele>
        <time>2015-09-14T10:03:23Z</time>
      </trkpt>
      <trkpt lat="41.88457" lon="9.14484">
        <ele>1322.43</ele>
        <time>2015-09-14T10:03:58Z</time>
      </trkpt>
      <trkpt lat="41.88454" lon="9.1448">
        <ele>1322.43</ele>
        <time>2015-09-14T10:04:15Z</time>
      </trkpt>
      <trkpt lat="41.88457" lon="9.1448">
        <ele>1322.43</ele>
        <time>2015-09-14T10:04:34Z</time>
      </trkpt>
      <trkpt lat="41.88451" lon="9.14479">
        <ele>1322.91</ele>
        <time>2015-09-14T10:05:01Z</time>
      </trkpt>
      <trkpt lat="41.88454" lon="9.1448">
        <ele>1322.91</ele>
        <time>2015-09-14T10:05:23Z</time>
      </trkpt>
      <trkpt lat="41.88449" lon="9.14479">
        <ele>1321.47</ele>
        <time>2015-09-14T10:05:37Z</time>
      </trkpt>
      <trkpt lat="41.88449" lon="9.14479">
        <ele>1323.39</ele>
        <time>2015-09-14T10:05:39Z</time>
      </trkpt>
      <trkpt lat="41.88453" lon="9.14487">
        <ele>1322.43</ele>
        <time>2015-09-14T10:06:06Z</time>
      </trkpt>
      <trkpt lat="41.88442" lon="9.14489">
        <ele>1323.87</ele>
        <time>2015-09-14T10:06:32Z</time>
      </trkpt>
      <trkpt lat="41.88437" lon="9.14477">
        <ele>1325.8</ele>
        <time>2015-09-14T10:06:55Z</time>
      </trkpt>
      <trkpt lat="41.88423" lon="9.14472">
        <ele>1328.2</ele>
        <time>2015-09-14T10:07:17Z</time>
      </trkpt>
      <trkpt lat="41.88417" lon="9.14471">
        <ele>1330.12</ele>
        <time>2015-09-14T10:07:37Z</time>
      </trkpt>
      <trkpt lat="41.8841" lon="9.1447">
        <ele>1333.01</ele>
        <time>2015-09-14T10:07:59Z</time>
      </trkpt>
      <trkpt lat="41.884" lon="9.14468">
        <ele>1335.41</ele>
        <time>2015-09-14T10:08:23Z</time>
      </trkpt>
      <trkpt lat="41.88393" lon="9.14453">
        <ele>1337.81</ele>
        <time>2015-09-14T10:08:45Z</time>
      </trkpt>
      <trkpt lat="41.88385" lon="9.14447">
        <ele>1339.73</ele>
        <time>2015-09-14T10:09:03Z</time>
      </trkpt>
      <trkpt lat="41.88373" lon="9.14447">
        <ele>1340.7</ele>
        <time>2015-09-14T10:09:24Z</time>
      </trkpt>
      <trkpt lat="41.88359" lon="9.14449">
        <ele>1340.7</ele>
        <time>2015-09-14T10:09:44Z</time>
      </trkpt>
      <trkpt lat="41.8835" lon="9.14449">
        <ele>1339.73</ele>
        <time>2015-09-14T10:09:56Z</time>
      </trkpt>
      <trkpt lat="41.8834" lon="9.14452">
        <ele>1340.7</ele>
        <time>2015-09-14T10:10:09Z</time>
      </trkpt>
      <trkpt lat="41.8833" lon="9.14452">
        <ele>1342.14</ele>
        <time>2015-09-14T10:10:27Z</time>
      </trkpt>
      <trkpt lat="41.88328" lon="9.14451">
        <ele>1342.14</ele>
        <time>2015-09-14T10:10:29Z</time>
      </trkpt>
      <trkpt lat="41.88315" lon="9.14452">
        <ele>1341.18</ele>
        <time>2015-09-14T10:10:44Z</time>
      </trkpt>
      <trkpt lat="41.8831" lon="9.14454">
        <ele>1342.62</ele>
        <time>2015-09-14T10:10:51Z</time>
      </trkpt>
      <trkpt lat="41.88294" lon="9.14461">
        <ele>1343.58</ele>
        <time>2015-09-14T10:11:11Z</time>
      </trkpt>
      <trkpt lat="41.8828" lon="9.14464">
        <ele>1344.54</ele>
        <time>2015-09-14T10:11:29Z</time>
      </trkpt>
      <trkpt lat="41.88269" lon="9.14468">
        <ele>1345.02</ele>
        <time>2015-09-14T10:11:43Z</time>
      </trkpt>
      <trkpt lat="41.88255" lon="9.14479">
        <ele>1343.58</ele>
        <time>2015-09-14T10:12:00Z</time>
      </trkpt>
      <trkpt lat="41.88248" lon="9.14485">
        <ele>1344.54</ele>
        <time>2015-09-14T10:12:10Z</time>
      </trkpt>
      <trkpt lat="41.88247" lon="9.14488">
        <ele>1343.1</ele>
        <time>2015-09-14T10:12:13Z</time>
      </trkpt>
      <trkpt lat="41.88237" lon="9.14504">
        <ele>1342.14</ele>
        <time>2015-09-14T10:12:30Z</time>
      </trkpt>
      <trkpt lat="41.88229" lon="9.14513">
        <ele>1341.18</ele>
        <time>2015-09-14T10:12:42Z</time>
      </trkpt>
      <trkpt lat="41.88213" lon="9.14515">
        <ele>1341.18</ele>
        <time>2015-09-14T10:13:00Z</time>
      </trkpt>
      <trkpt lat="41.88203" lon="9.14517">
        <ele>1340.7</ele>
        <time>2015-09-14T10:13:10Z</time>
      </trkpt>
      <trkpt lat="41.88187" lon="9.14521">
        <ele>1340.7</ele>
        <time>2015-09-14T10:13:29Z</time>
      </trkpt>
      <trkpt lat="41.88173" lon="9.14529">
        <ele>1340.7</ele>
        <time>2015-09-14T10:13:47Z</time>
      </trkpt>
      <trkpt lat="41.8816" lon="9.14529">
        <ele>1341.66</ele>
        <time>2015-09-14T10:14:01Z</time>
      </trkpt>
      <trkpt lat="41.88154" lon="9.14533">
        <ele>1340.22</ele>
        <time>2015-09-14T10:14:09Z</time>
      </trkpt>
      <trkpt lat="41.88136" lon="9.14543">
        <ele>1337.33</ele>
        <time>2015-09-14T10:14:29Z</time>
      </trkpt>
      <trkpt lat="41.88121" lon="9.14546">
        <ele>1334.45</ele>
        <time>2015-09-14T10:14:49Z</time>
      </trkpt>
      <trkpt lat="41.88106" lon="9.14532">
        <ele>1337.33</ele>
        <time>2015-09-14T10:15:12Z</time>
      </trkpt>
      <trkpt lat="41.88106" lon="9.14528">
        <ele>1335.89</ele>
        <time>2015-09-14T10:15:15Z</time>
      </trkpt>
      <trkpt lat="41.88094" lon="9.14518">
        <ele>1334.93</ele>
        <time>2015-09-14T10:15:29Z</time>
      </trkpt>
      <trkpt lat="41.88088" lon="9.14514">
        <ele>1333.97</ele>
        <time>2015-09-14T10:15:37Z</time>
      </trkpt>
      <trkpt lat="41.88072" lon="9.14503">
        <ele>1333.97</ele>
        <time>2015-09-14T10:15:53Z</time>
      </trkpt>
      <trkpt lat="41.88056" lon="9.14505">
        <ele>1333.49</ele>
        <time>2015-09-14T10:16:13Z</time>
      </trkpt>
      <trkpt lat="41.88045" lon="9.14499">
        <ele>1334.45</ele>
        <time>2015-09-14T10:16:26Z</time>
      </trkpt>
      <trkpt lat="41.88034" lon="9.1449">
        <ele>1334.45</ele>
        <time>2015-09-14T10:16:42Z</time>
      </trkpt>
      <trkpt lat="41.88019" lon="9.14481">
        <ele>1333.01</ele>
        <time>2015-09-14T10:17:03Z</time>
      </trkpt>
      <trkpt lat="41.88004" lon="9.14491">
        <ele>1334.45</ele>
        <time>2015-09-14T10:17:23Z</time>
      </trkpt>
      <trkpt lat="41.87993" lon="9.14499">
        <ele>1336.85</ele>
        <time>2015-09-14T10:17:41Z</time>
      </trkpt>
      <trkpt lat="41.87982" lon="9.14508">
        <ele>1337.33</ele>
        <time>2015-09-14T10:17:57Z</time>
      </trkpt>
      <trkpt lat="41.87969" lon="9.14516">
        <ele>1337.81</ele>
        <time>2015-09-14T10:18:15Z</time>
      </trkpt>
      <trkpt lat="41.87954" lon="9.14525">
        <ele>1340.22</ele>
        <time>2015-09-14T10:18:35Z</time>
      </trkpt>
      <trkpt lat="41.87937" lon="9.14532">
        <ele>1341.18</ele>
        <time>2015-09-14T10:18:54Z</time>
      </trkpt>
      <trkpt lat="41.87924" lon="9.14532">
        <ele>1341.66</ele>
        <time>2015-09-14T10:19:16Z</time>
      </trkpt>
      <trkpt lat="41.87907" lon="9.14537">
        <ele>1344.06</ele>
        <time>2015-09-14T10:19:40Z</time>
      </trkpt>
      <trkpt lat="41.8789" lon="9.14558">
        <ele>1345.5</ele>
        <time>2015-09-14T10:20:00Z</time>
      </trkpt>
      <trkpt lat="41.87879" lon="9.14571">
        <ele>1346.46</ele>
        <time>2015-09-14T10:20:19Z</time>
      </trkpt>
      <trkpt lat="41.87876" lon="9.14571">
        <ele>1346.94</ele>
        <time>2015-09-14T10:20:22Z</time>
      </trkpt>
      <trkpt lat="41.87861" lon="9.14573">
        <ele>1346.94</ele>
        <time>2015-09-14T10:20:40Z</time>
      </trkpt>
      <trkpt lat="41.87857" lon="9.14595">
        <ele>1346.94</ele>
        <time>2015-09-14T10:20:56Z</time>
      </trkpt>
      <trkpt lat="41.8786" lon="9.14613">
        <ele>1346.94</ele>
        <time>2015-09-14T10:21:10Z</time>
      </trkpt>
      <trkpt lat="41.87864" lon="9.14636">
        <ele>1345.98</ele>
        <time>2015-09-14T10:21:28Z</time>
      </trkpt>
      <trkpt lat="41.87864" lon="9.14637">
        <ele>1345.98</ele>
        <time>2015-09-14T10:21:30Z</time>
      </trkpt>
      <trkpt lat="41.87863" lon="9.14658">
        <ele>1345.98</ele>
        <time>2015-09-14T10:21:46Z</time>
      </trkpt>
      <trkpt lat="41.87864" lon="9.14666">
        <ele>1346.94</ele>
        <time>2015-09-14T10:21:53Z</time>
      </trkpt>
      <trkpt lat="41.87864" lon="9.14683">
        <ele>1347.91</ele>
        <time>2015-09-14T10:22:09Z</time>
      </trkpt>
      <trkpt lat="41.87861" lon="9.14701">
        <ele>1349.83</ele>
        <time>2015-09-14T10:22:27Z</time>
      </trkpt>
      <trkpt lat="41.87859" lon="9.14719">
        <ele>1349.83</ele>
        <time>2015-09-14T10:22:44Z</time>
      </trkpt>
      <trkpt lat="41.87854" lon="9.14737">
        <ele>1350.31</ele>
        <time>2015-09-14T10:23:00Z</time>
      </trkpt>
      <trkpt lat="41.87854" lon="9.14743">
        <ele>1350.31</ele>
        <time>2015-09-14T10:23:04Z</time>
      </trkpt>
      <trkpt lat="41.87849" lon="9.14764">
        <ele>1350.79</ele>
        <time>2015-09-14T10:23:21Z</time>
      </trkpt>
      <trkpt lat="41.87847" lon="9.14783">
        <ele>1351.75</ele>
        <time>2015-09-14T10:23:38Z</time>
      </trkpt>
      <trkpt lat="41.87841" lon="9.148">
        <ele>1353.19</ele>
        <time>2015-09-14T10:23:57Z</time>
      </trkpt>
      <trkpt lat="41.87839" lon="9.14819">
        <ele>1354.63</ele>
        <time>2015-09-14T10:24:16Z</time>
      </trkpt>
      <trkpt lat="41.87844" lon="9.14827">
        <ele>1354.63</ele>
        <time>2015-09-14T10:24:34Z</time>
      </trkpt>
      <trkpt lat="41.87836" lon="9.14831">
        <ele>1353.19</ele>
        <time>2015-09-14T10:24:49Z</time>
      </trkpt>
      <trkpt lat="41.87835" lon="9.14832">
        <ele>1353.19</ele>
        <time>2015-09-14T10:24:50Z</time>
      </trkpt>
      <trkpt lat="41.87829" lon="9.14843">
        <ele>1352.71</ele>
        <time>2015-09-14T10:25:01Z</time>
      </trkpt>
      <trkpt lat="41.87825" lon="9.14851">
        <ele>1353.67</ele>
        <time>2015-09-14T10:25:10Z</time>
      </trkpt>
      <trkpt lat="41.87809" lon="9.14859">
        <ele>1355.12</ele>
        <time>2015-09-14T10:25:30Z</time>
      </trkpt>
      <trkpt lat="41.87797" lon="9.14872">
        <ele>1356.56</ele>
        <time>2015-09-14T10:25:50Z</time>
      </trkpt>
      <trkpt lat="41.87789" lon="9.14889">
        <ele>1357.52</ele>
        <time>2015-09-14T10:26:07Z</time>
      </trkpt>
      <trkpt lat="41.87788" lon="9.14908">
        <ele>1358.96</ele>
        <time>2015-09-14T10:26:25Z</time>
      </trkpt>
      <trkpt lat="41.87784" lon="9.14926">
        <ele>1360.4</ele>
        <time>2015-09-14T10:26:43Z</time>
      </trkpt>
      <trkpt lat="41.87778" lon="9.14933">
        <ele>1362.33</ele>
        <time>2015-09-14T10:27:05Z</time>
      </trkpt>
      <trkpt lat="41.87765" lon="9.1493">
        <ele>1363.77</ele>
        <time>2015-09-14T10:27:25Z</time>
      </trkpt>
      <trkpt lat="41.87763" lon="9.14943">
        <ele>1366.65</ele>
        <time>2015-09-14T10:27:46Z</time>
      </trkpt>
      <trkpt lat="41.87752" lon="9.14947">
        <ele>1370.02</ele>
        <time>2015-09-14T10:28:12Z</time>
      </trkpt>
      <trkpt lat="41.87734" lon="9.14943">
        <ele>1371.94</ele>
        <time>2015-09-14T10:28:38Z</time>
      </trkpt>
      <trkpt lat="41.87722" lon="9.14944">
        <ele>1375.3</ele>
        <time>2015-09-14T10:29:00Z</time>
      </trkpt>
      <trkpt lat="41.87711" lon="9.1495">
        <ele>1377.23</ele>
        <time>2015-09-14T10:29:23Z</time>
      </trkpt>
      <trkpt lat="41.87708" lon="9.14956">
        <ele>1379.63</ele>
        <time>2015-09-14T10:29:42Z</time>
      </trkpt>
      <trkpt lat="41.87696" lon="9.14962">
        <ele>1382.03</ele>
        <time>2015-09-14T10:30:06Z</time>
      </trkpt>
      <trkpt lat="41.87677" lon="9.14961">
        <ele>1383.96</ele>
        <time>2015-09-14T10:30:32Z</time>
      </trkpt>
      <trkpt lat="41.8767" lon="9.14953">
        <ele>1384.92</ele>
        <time>2015-09-14T10:30:52Z</time>
      </trkpt>
      <trkpt lat="41.87661" lon="9.14953">
        <ele>1387.8</ele>
        <time>2015-09-14T10:31:12Z</time>
      </trkpt>
      <trkpt lat="41.87648" lon="9.14962">
        <ele>1389.72</ele>
        <time>2015-09-14T10:31:36Z</time>
      </trkpt>
      <trkpt lat="41.87634" lon="9.14953">
        <ele>1392.13</ele>
        <time>2015-09-14T10:31:58Z</time>
      </trkpt>
      <trkpt lat="41.87627" lon="9.14955">
        <ele>1394.53</ele>
        <time>2015-09-14T10:32:17Z</time>
      </trkpt>
      <trkpt lat="41.87624" lon="9.14963">
        <ele>1396.45</ele>
        <time>2015-09-14T10:32:35Z</time>
      </trkpt>
      <trkpt lat="41.87618" lon="9.14971">
        <ele>1398.86</ele>
        <time>2015-09-14T10:32:57Z</time>
      </trkpt>
      <trkpt lat="41.87612" lon="9.14973">
        <ele>1401.26</ele>
        <time>2015-09-14T10:33:19Z</time>
      </trkpt>
      <trkpt lat="41.87604" lon="9.14984">
        <ele>1402.7</ele>
        <time>2015-09-14T10:33:37Z</time>
      </trkpt>
      <trkpt lat="41.87597" lon="9.15007">
        <ele>1403.66</ele>
        <time>2015-09-14T10:33:55Z</time>
      </trkpt>
      <trkpt lat="41.87587" lon="9.15014">
        <ele>1404.14</ele>
        <time>2015-09-14T10:34:12Z</time>
      </trkpt>
      <trkpt lat="41.87578" lon="9.15018">
        <ele>1405.1</ele>
        <time>2015-09-14T10:34:28Z</time>
      </trkpt>
      <trkpt lat="41.87564" lon="9.15024">
        <ele>1407.51</ele>
        <time>2015-09-14T10:34:48Z</time>
      </trkpt>
      <trkpt lat="41.87549" lon="9.15032">
        <ele>1409.43</ele>
        <time>2015-09-14T10:35:13Z</time>
      </trkpt>
      <trkpt lat="41.8753" lon="9.15024">
        <ele>1411.35</ele>
        <time>2015-09-14T10:35:35Z</time>
      </trkpt>
      <trkpt lat="41.87521" lon="9.15021">
        <ele>1410.39</ele>
        <time>2015-09-14T10:35:43Z</time>
      </trkpt>
      <trkpt lat="41.8752" lon="9.15023">
        <ele>1409.43</ele>
        <time>2015-09-14T10:35:45Z</time>
      </trkpt>
      <trkpt lat="41.8751" lon="9.15039">
        <ele>1406.07</ele>
        <time>2015-09-14T10:36:05Z</time>
      </trkpt>
      <trkpt lat="41.87509" lon="9.15044">
        <ele>1405.58</ele>
        <time>2015-09-14T10:36:09Z</time>
      </trkpt>
      <trkpt lat="41.87507" lon="9.1505">
        <ele>1405.1</ele>
        <time>2015-09-14T10:36:13Z</time>
      </trkpt>
      <trkpt lat="41.87503" lon="9.15057">
        <ele>1405.1</ele>
        <time>2015-09-14T10:36:19Z</time>
      </trkpt>
      <trkpt lat="41.87501" lon="9.15063">
        <ele>1405.1</ele>
        <time>2015-09-14T10:36:23Z</time>
      </trkpt>
      <trkpt lat="41.87498" lon="9.1508">
        <ele>1406.55</ele>
        <time>2015-09-14T10:36:36Z</time>
      </trkpt>
      <trkpt lat="41.87498" lon="9.15085">
        <ele>1406.55</ele>
        <time>2015-09-14T10:36:39Z</time>
      </trkpt>
      <trkpt lat="41.87495" lon="9.15105">
        <ele>1406.55</ele>
        <time>2015-09-14T10:36:54Z</time>
      </trkpt>
      <trkpt lat="41.8749" lon="9.15117">
        <ele>1406.55</ele>
        <time>2015-09-14T10:37:02Z</time>
      </trkpt>
      <trkpt lat="41.87483" lon="9.15127">
        <ele>1406.07</ele>
        <time>2015-09-14T10:37:13Z</time>
      </trkpt>
      <trkpt lat="41.87468" lon="9.15146">
        <ele>1407.03</ele>
        <time>2015-09-14T10:37:33Z</time>
      </trkpt>
      <trkpt lat="41.87457" lon="9.1516">
        <ele>1407.99</ele>
        <time>2015-09-14T10:37:49Z</time>
      </trkpt>
      <trkpt lat="41.87452" lon="9.15164">
        <ele>1408.47</ele>
        <time>2015-09-14T10:37:54Z</time>
      </trkpt>
      <trkpt lat="41.8744" lon="9.15181">
        <ele>1409.43</ele>
        <time>2015-09-14T10:38:12Z</time>
      </trkpt>
      <trkpt lat="41.87436" lon="9.15183">
        <ele>1409.43</ele>
        <time>2015-09-14T10:38:16Z</time>
      </trkpt>
      <trkpt lat="41.87423" lon="9.15195">
        <ele>1410.87</ele>
        <time>2015-09-14T10:38:34Z</time>
      </trkpt>
      <trkpt lat="41.8742" lon="9.15198">
        <ele>1410.87</ele>
        <time>2015-09-14T10:38:39Z</time>
      </trkpt>
      <trkpt lat="41.8741" lon="9.15216">
        <ele>1410.87</ele>
        <time>2015-09-14T10:38:56Z</time>
      </trkpt>
      <trkpt lat="41.87399" lon="9.15229">
        <ele>1409.43</ele>
        <time>2015-09-14T10:39:12Z</time>
      </trkpt>
      <trkpt lat="41.87391" lon="9.15238">
        <ele>1408.47</ele>
        <time>2015-09-14T10:39:22Z</time>
      </trkpt>
      <trkpt lat="41.87386" lon="9.15247">
        <ele>1407.99</ele>
        <time>2015-09-14T10:39:30Z</time>
      </trkpt>
      <trkpt lat="41.87384" lon="9.15252">
        <ele>1407.99</ele>
        <time>2015-09-14T10:39:34Z</time>
      </trkpt>
      <trkpt lat="41.87379" lon="9.15257">
        <ele>1407.99</ele>
        <time>2015-09-14T10:39:40Z</time>
      </trkpt>
      <trkpt lat="41.87376" lon="9.1526">
        <ele>1407.51</ele>
        <time>2015-09-14T10:39:44Z</time>
      </trkpt>
      <trkpt lat="41.87365" lon="9.15282">
        <ele>1406.55</ele>
        <time>2015-09-14T10:40:03Z</time>
      </trkpt>
      <trkpt lat="41.87362" lon="9.15287">
        <ele>1406.55</ele>
        <time>2015-09-14T10:40:08Z</time>
      </trkpt>
      <trkpt lat="41.87359" lon="9.15292">
        <ele>1406.55</ele>
        <time>2015-09-14T10:40:12Z</time>
      </trkpt>
      <trkpt lat="41.87353" lon="9.15317">
        <ele>1405.58</ele>
        <time>2015-09-14T10:40:30Z</time>
      </trkpt>
      <trkpt lat="41.8735" lon="9.15325">
        <ele>1405.1</ele>
        <time>2015-09-14T10:40:37Z</time>
      </trkpt>
      <trkpt lat="41.87349" lon="9.15329">
        <ele>1405.1</ele>
        <time>2015-09-14T10:40:40Z</time>
      </trkpt>
      <trkpt lat="41.87347" lon="9.15335">
        <ele>1405.1</ele>
        <time>2015-09-14T10:40:44Z</time>
      </trkpt>
      <trkpt lat="41.87338" lon="9.15351">
        <ele>1406.55</ele>
        <time>2015-09-14T10:41:00Z</time>
      </trkpt>
      <trkpt lat="41.87336" lon="9.15356">
        <ele>1406.55</ele>
        <time>2015-09-14T10:41:04Z</time>
      </trkpt>
      <trkpt lat="41.87336" lon="9.15359">
        <ele>1406.55</ele>
        <time>2015-09-14T10:41:06Z</time>
      </trkpt>
      <trkpt lat="41.87328" lon="9.15379">
        <ele>1408.47</ele>
        <time>2015-09-14T10:41:24Z</time>
      </trkpt>
      <trkpt lat="41.87328" lon="9.15381">
        <ele>1408.47</ele>
        <time>2015-09-14T10:41:25Z</time>
      </trkpt>
      <trkpt lat="41.87328" lon="9.15383">
        <ele>1408.47</ele>
        <time>2015-09-14T10:41:27Z</time>
      </trkpt>
      <trkpt lat="41.87322" lon="9.15403">
        <ele>1408.95</ele>
        <time>2015-09-14T10:41:44Z</time>
      </trkpt>
      <trkpt lat="41.87313" lon="9.15418">
        <ele>1409.91</ele>
        <time>2015-09-14T10:41:59Z</time>
      </trkpt>
      <trkpt lat="41.87308" lon="9.15435">
        <ele>1411.35</ele>
        <time>2015-09-14T10:42:15Z</time>
      </trkpt>
      <trkpt lat="41.87302" lon="9.15454">
        <ele>1412.31</ele>
        <time>2015-09-14T10:42:31Z</time>
      </trkpt>
      <trkpt lat="41.87295" lon="9.15471">
        <ele>1413.28</ele>
        <time>2015-09-14T10:42:47Z</time>
      </trkpt>
      <trkpt lat="41.87291" lon="9.15486">
        <ele>1415.2</ele>
        <time>2015-09-14T10:43:02Z</time>
      </trkpt>
      <trkpt lat="41.87288" lon="9.15497">
        <ele>1416.64</ele>
        <time>2015-09-14T10:43:14Z</time>
      </trkpt>
      <trkpt lat="41.87286" lon="9.155">
        <ele>1416.64</ele>
        <time>2015-09-14T10:43:17Z</time>
      </trkpt>
      <trkpt lat="41.87284" lon="9.1551">
        <ele>1417.12</ele>
        <time>2015-09-14T10:43:25Z</time>
      </trkpt>
      <trkpt lat="41.87284" lon="9.15531">
        <ele>1417.12</ele>
        <time>2015-09-14T10:43:40Z</time>
      </trkpt>
      <trkpt lat="41.87284" lon="9.15533">
        <ele>1417.6</ele>
        <time>2015-09-14T10:43:42Z</time>
      </trkpt>
      <trkpt lat="41.87283" lon="9.15554">
        <ele>1417.6</ele>
        <time>2015-09-14T10:43:58Z</time>
      </trkpt>
      <trkpt lat="41.87281" lon="9.15574">
        <ele>1417.6</ele>
        <time>2015-09-14T10:44:13Z</time>
      </trkpt>
      <trkpt lat="41.87279" lon="9.15583">
        <ele>1418.08</ele>
        <time>2015-09-14T10:44:21Z</time>
      </trkpt>
      <trkpt lat="41.87271" lon="9.15601">
        <ele>1418.08</ele>
        <time>2015-09-14T10:44:36Z</time>
      </trkpt>
      <trkpt lat="41.87268" lon="9.15605">
        <ele>1418.56</ele>
        <time>2015-09-14T10:44:41Z</time>
      </trkpt>
      <trkpt lat="41.8726" lon="9.15614">
        <ele>1419.04</ele>
        <time>2015-09-14T10:44:51Z</time>
      </trkpt>
      <trkpt lat="41.8725" lon="9.1562">
        <ele>1420</ele>
        <time>2015-09-14T10:45:03Z</time>
      </trkpt>
      <trkpt lat="41.87233" lon="9.15617">
        <ele>1420.49</ele>
        <time>2015-09-14T10:45:19Z</time>
      </trkpt>
      <trkpt lat="41.87215" lon="9.15609">
        <ele>1419.04</ele>
        <time>2015-09-14T10:45:36Z</time>
      </trkpt>
      <trkpt lat="41.8721" lon="9.15607">
        <ele>1419.04</ele>
        <time>2015-09-14T10:45:40Z</time>
      </trkpt>
      <trkpt lat="41.87207" lon="9.15605">
        <ele>1419.04</ele>
        <time>2015-09-14T10:45:43Z</time>
      </trkpt>
      <trkpt lat="41.87204" lon="9.15603">
        <ele>1418.08</ele>
        <time>2015-09-14T10:45:47Z</time>
      </trkpt>
      <trkpt lat="41.87183" lon="9.15604">
        <ele>1417.6</ele>
        <time>2015-09-14T10:46:06Z</time>
      </trkpt>
      <trkpt lat="41.87166" lon="9.15611">
        <ele>1416.64</ele>
        <time>2015-09-14T10:46:23Z</time>
      </trkpt>
      <trkpt lat="41.87162" lon="9.15612">
        <ele>1416.64</ele>
        <time>2015-09-14T10:46:27Z</time>
      </trkpt>
      <trkpt lat="41.87156" lon="9.15609">
        <ele>1416.16</ele>
        <time>2015-09-14T10:46:32Z</time>
      </trkpt>
      <trkpt lat="41.87152" lon="9.15606">
        <ele>1415.68</ele>
        <time>2015-09-14T10:46:37Z</time>
      </trkpt>
      <trkpt lat="41.87135" lon="9.15603">
        <ele>1414.72</ele>
        <time>2015-09-14T10:46:54Z</time>
      </trkpt>
      <trkpt lat="41.87132" lon="9.15601">
        <ele>1414.72</ele>
        <time>2015-09-14T10:46:58Z</time>
      </trkpt>
      <trkpt lat="41.87113" lon="9.15599">
        <ele>1413.76</ele>
        <time>2015-09-14T10:47:15Z</time>
      </trkpt>
      <trkpt lat="41.87097" lon="9.15602">
        <ele>1412.79</ele>
        <time>2015-09-14T10:47:32Z</time>
      </trkpt>
      <trkpt lat="41.87084" lon="9.15604">
        <ele>1412.79</ele>
        <time>2015-09-14T10:47:44Z</time>
      </trkpt>
      <trkpt lat="41.87078" lon="9.15603">
        <ele>1412.31</ele>
        <time>2015-09-14T10:47:49Z</time>
      </trkpt>
      <trkpt lat="41.87075" lon="9.15604">
        <ele>1412.31</ele>
        <time>2015-09-14T10:47:52Z</time>
      </trkpt>
      <trkpt lat="41.87058" lon="9.15606">
        <ele>1412.31</ele>
        <time>2015-09-14T10:48:07Z</time>
      </trkpt>
      <trkpt lat="41.87044" lon="9.15607">
        <ele>1412.31</ele>
        <time>2015-09-14T10:48:19Z</time>
      </trkpt>
      <trkpt lat="41.8703" lon="9.15606">
        <ele>1411.35</ele>
        <time>2015-09-14T10:48:34Z</time>
      </trkpt>
      <trkpt lat="41.87021" lon="9.15604">
        <ele>1411.35</ele>
        <time>2015-09-14T10:48:44Z</time>
      </trkpt>
      <trkpt lat="41.87003" lon="9.15598">
        <ele>1411.35</ele>
        <time>2015-09-14T10:49:01Z</time>
      </trkpt>
      <trkpt lat="41.8699" lon="9.15591">
        <ele>1413.28</ele>
        <time>2015-09-14T10:49:15Z</time>
      </trkpt>
      <trkpt lat="41.86979" lon="9.15587">
        <ele>1413.76</ele>
        <time>2015-09-14T10:49:26Z</time>
      </trkpt>
      <trkpt lat="41.86973" lon="9.15584">
        <ele>1413.76</ele>
        <time>2015-09-14T10:49:33Z</time>
      </trkpt>
      <trkpt lat="41.86958" lon="9.1558">
        <ele>1414.24</ele>
        <time>2015-09-14T10:49:49Z</time>
      </trkpt>
      <trkpt lat="41.86951" lon="9.1558">
        <ele>1414.72</ele>
        <time>2015-09-14T10:49:56Z</time>
      </trkpt>
      <trkpt lat="41.86948" lon="9.1558">
        <ele>1414.72</ele>
        <time>2015-09-14T10:49:59Z</time>
      </trkpt>
      <trkpt lat="41.86939" lon="9.15581">
        <ele>1414.24</ele>
        <time>2015-09-14T10:50:07Z</time>
      </trkpt>
      <trkpt lat="41.86931" lon="9.1558">
        <ele>1414.24</ele>
        <time>2015-09-14T10:50:15Z</time>
      </trkpt>
      <trkpt lat="41.86929" lon="9.1558">
        <ele>1414.24</ele>
        <time>2015-09-14T10:50:17Z</time>
      </trkpt>
      <trkpt lat="41.86915" lon="9.15578">
        <ele>1414.72</ele>
        <time>2015-09-14T10:50:30Z</time>
      </trkpt>
      <trkpt lat="41.86912" lon="9.15579">
        <ele>1414.72</ele>
        <time>2015-09-14T10:50:33Z</time>
      </trkpt>
      <trkpt lat="41.8691" lon="9.15578">
        <ele>1414.72</ele>
        <time>2015-09-14T10:50:35Z</time>
      </trkpt>
      <trkpt lat="41.86901" lon="9.15581">
        <ele>1414.72</ele>
        <time>2015-09-14T10:50:44Z</time>
      </trkpt>
      <trkpt lat="41.86892" lon="9.15593">
        <ele>1414.72</ele>
        <time>2015-09-14T10:50:57Z</time>
      </trkpt>
      <trkpt lat="41.8688" lon="9.15605">
        <ele>1415.2</ele>
        <time>2015-09-14T10:51:13Z</time>
      </trkpt>
      <trkpt lat="41.86872" lon="9.15611">
        <ele>1415.2</ele>
        <time>2015-09-14T10:51:20Z</time>
      </trkpt>
      <trkpt lat="41.86859" lon="9.15615">
        <ele>1415.68</ele>
        <time>2015-09-14T10:51:34Z</time>
      </trkpt>
      <trkpt lat="41.86849" lon="9.1562">
        <ele>1415.68</ele>
        <time>2015-09-14T10:51:44Z</time>
      </trkpt>
      <trkpt lat="41.86831" lon="9.1562">
        <ele>1415.68</ele>
        <time>2015-09-14T10:51:59Z</time>
      </trkpt>
      <trkpt lat="41.86825" lon="9.1562">
        <ele>1415.68</ele>
        <time>2015-09-14T10:52:05Z</time>
      </trkpt>
      <trkpt lat="41.86822" lon="9.15619">
        <ele>1415.68</ele>
        <time>2015-09-14T10:52:08Z</time>
      </trkpt>
      <trkpt lat="41.86809" lon="9.15618">
        <ele>1416.16</ele>
        <time>2015-09-14T10:52:22Z</time>
      </trkpt>
      <trkpt lat="41.86796" lon="9.15614">
        <ele>1416.64</ele>
        <time>2015-09-14T10:52:34Z</time>
      </trkpt>
      <trkpt lat="41.86792" lon="9.15614">
        <ele>1417.12</ele>
        <time>2015-09-14T10:52:37Z</time>
      </trkpt>
      <trkpt lat="41.86775" lon="9.15614">
        <ele>1417.6</ele>
        <time>2015-09-14T10:52:53Z</time>
      </trkpt>
      <trkpt lat="41.86772" lon="9.15616">
        <ele>1417.6</ele>
        <time>2015-09-14T10:52:56Z</time>
      </trkpt>
      <trkpt lat="41.86768" lon="9.15615">
        <ele>1417.6</ele>
        <time>2015-09-14T10:53:00Z</time>
      </trkpt>
      <trkpt lat="41.86766" lon="9.15619">
        <ele>1417.6</ele>
        <time>2015-09-14T10:53:03Z</time>
      </trkpt>
      <trkpt lat="41.86753" lon="9.15631">
        <ele>1418.08</ele>
        <time>2015-09-14T10:53:19Z</time>
      </trkpt>
      <trkpt lat="41.86752" lon="9.15633">
        <ele>1418.08</ele>
        <time>2015-09-14T10:53:21Z</time>
      </trkpt>
      <trkpt lat="41.86741" lon="9.15637">
        <ele>1418.56</ele>
        <time>2015-09-14T10:53:34Z</time>
      </trkpt>
      <trkpt lat="41.8674" lon="9.15638">
        <ele>1418.56</ele>
        <time>2015-09-14T10:53:35Z</time>
      </trkpt>
      <trkpt lat="41.86731" lon="9.1565">
        <ele>1418.56</ele>
        <time>2015-09-14T10:53:51Z</time>
      </trkpt>
      <trkpt lat="41.86724" lon="9.15662">
        <ele>1418.56</ele>
        <time>2015-09-14T10:54:04Z</time>
      </trkpt>
      <trkpt lat="41.86718" lon="9.15673">
        <ele>1418.56</ele>
        <time>2015-09-14T10:54:14Z</time>
      </trkpt>
      <trkpt lat="41.86714" lon="9.15681">
        <ele>1418.56</ele>
        <time>2015-09-14T10:54:21Z</time>
      </trkpt>
      <trkpt lat="41.86711" lon="9.15685">
        <ele>1418.56</ele>
        <time>2015-09-14T10:54:26Z</time>
      </trkpt>
      <trkpt lat="41.86701" lon="9.15699">
        <ele>1419.52</ele>
        <time>2015-09-14T10:54:41Z</time>
      </trkpt>
      <trkpt lat="41.86693" lon="9.15711">
        <ele>1419.52</ele>
        <time>2015-09-14T10:54:52Z</time>
      </trkpt>
      <trkpt lat="41.86689" lon="9.15715">
        <ele>1420</ele>
        <time>2015-09-14T10:54:56Z</time>
      </trkpt>
      <trkpt lat="41.86678" lon="9.15731">
        <ele>1420</ele>
        <time>2015-09-14T10:55:12Z</time>
      </trkpt>
      <trkpt lat="41.86667" lon="9.15742">
        <ele>1420</ele>
        <time>2015-09-14T10:55:26Z</time>
      </trkpt>
      <trkpt lat="41.86657" lon="9.15756">
        <ele>1420</ele>
        <time>2015-09-14T10:55:40Z</time>
      </trkpt>
      <trkpt lat="41.86644" lon="9.1577">
        <ele>1420</ele>
        <time>2015-09-14T10:55:55Z</time>
      </trkpt>
      <trkpt lat="41.86644" lon="9.1577">
        <ele>1420</ele>
        <time>2015-09-14T10:55:57Z</time>
      </trkpt>
      <trkpt lat="41.86636" lon="9.15774">
        <ele>1420</ele>
        <time>2015-09-14T10:56:09Z</time>
      </trkpt>
      <trkpt lat="41.86631" lon="9.15777">
        <ele>1420</ele>
        <time>2015-09-14T10:56:15Z</time>
      </trkpt>
      <trkpt lat="41.86624" lon="9.15779">
        <ele>1420.49</ele>
        <time>2015-09-14T10:56:21Z</time>
      </trkpt>
      <trkpt lat="41.86609" lon="9.15785">
        <ele>1420.49</ele>
        <time>2015-09-14T10:56:37Z</time>
      </trkpt>
      <trkpt lat="41.86602" lon="9.15785">
        <ele>1420.97</ele>
        <time>2015-09-14T10:56:43Z</time>
      </trkpt>
      <trkpt lat="41.86585" lon="9.15783">
        <ele>1420.97</ele>
        <time>2015-09-14T10:56:58Z</time>
      </trkpt>
      <trkpt lat="41.86573" lon="9.15778">
        <ele>1420</ele>
        <time>2015-09-14T10:57:12Z</time>
      </trkpt>
      <trkpt lat="41.86568" lon="9.15775">
        <ele>1420</ele>
        <time>2015-09-14T10:57:16Z</time>
      </trkpt>
      <trkpt lat="41.86563" lon="9.15771">
        <ele>1420</ele>
        <time>2015-09-14T10:57:20Z</time>
      </trkpt>
      <trkpt lat="41.86559" lon="9.15769">
        <ele>1420.97</ele>
        <time>2015-09-14T10:57:23Z</time>
      </trkpt>
      <trkpt lat="41.86549" lon="9.15763">
        <ele>1420.97</ele>
        <time>2015-09-14T10:57:32Z</time>
      </trkpt>
      <trkpt lat="41.86537" lon="9.15758">
        <ele>1420.97</ele>
        <time>2015-09-14T10:57:46Z</time>
      </trkpt>
      <trkpt lat="41.8653" lon="9.15756">
        <ele>1421.45</ele>
        <time>2015-09-14T10:57:53Z</time>
      </trkpt>
      <trkpt lat="41.86528" lon="9.15756">
        <ele>1421.93</ele>
        <time>2015-09-14T10:57:55Z</time>
      </trkpt>
      <trkpt lat="41.86526" lon="9.15756">
        <ele>1421.93</ele>
        <time>2015-09-14T10:57:57Z</time>
      </trkpt>
      <trkpt lat="41.8652" lon="9.15756">
        <ele>1421.93</ele>
        <time>2015-09-14T10:58:03Z</time>
      </trkpt>
      <trkpt lat="41.86512" lon="9.15759">
        <ele>1421.93</ele>
        <time>2015-09-14T10:58:12Z</time>
      </trkpt>
      <trkpt lat="41.8651" lon="9.15759">
        <ele>1421.93</ele>
        <time>2015-09-14T10:58:14Z</time>
      </trkpt>
      <trkpt lat="41.86502" lon="9.15761">
        <ele>1422.89</ele>
        <time>2015-09-14T10:58:22Z</time>
      </trkpt>
      <trkpt lat="41.86493" lon="9.15766">
        <ele>1423.85</ele>
        <time>2015-09-14T10:58:34Z</time>
      </trkpt>
      <trkpt lat="41.8648" lon="9.15773">
        <ele>1424.81</ele>
        <time>2015-09-14T10:58:47Z</time>
      </trkpt>
      <trkpt lat="41.86476" lon="9.15775">
        <ele>1425.29</ele>
        <time>2015-09-14T10:58:52Z</time>
      </trkpt>
      <trkpt lat="41.86475" lon="9.15777">
        <ele>1425.29</ele>
        <time>2015-09-14T10:58:54Z</time>
      </trkpt>
      <trkpt lat="41.86468" lon="9.15779">
        <ele>1425.29</ele>
        <time>2015-09-14T10:59:01Z</time>
      </trkpt>
      <trkpt lat="41.86464" lon="9.15779">
        <ele>1425.29</ele>
        <time>2015-09-14T10:59:05Z</time>
      </trkpt>
      <trkpt lat="41.86462" lon="9.1578">
        <ele>1425.29</ele>
        <time>2015-09-14T10:59:07Z</time>
      </trkpt>
      <trkpt lat="41.86456" lon="9.15783">
        <ele>1425.77</ele>
        <time>2015-09-14T10:59:14Z</time>
      </trkpt>
      <trkpt lat="41.86452" lon="9.15785">
        <ele>1425.77</ele>
        <time>2015-09-14T10:59:18Z</time>
      </trkpt>
      <trkpt lat="41.86446" lon="9.1579">
        <ele>1425.77</ele>
        <time>2015-09-14T10:59:25Z</time>
      </trkpt>
      <trkpt lat="41.86435" lon="9.15798">
        <ele>1426.25</ele>
        <time>2015-09-14T10:59:36Z</time>
      </trkpt>
      <trkpt lat="41.86432" lon="9.158">
        <ele>1426.25</ele>
        <time>2015-09-14T10:59:39Z</time>
      </trkpt>
      <trkpt lat="41.86425" lon="9.15801">
        <ele>1426.73</ele>
        <time>2015-09-14T10:59:45Z</time>
      </trkpt>
      <trkpt lat="41.86416" lon="9.15803">
        <ele>1426.73</ele>
        <time>2015-09-14T10:59:53Z</time>
      </trkpt>
      <trkpt lat="41.86408" lon="9.15809">
        <ele>1427.21</ele>
        <time>2015-09-14T11:00:01Z</time>
      </trkpt>
      <trkpt lat="41.86405" lon="9.15812">
        <ele>1427.21</ele>
        <time>2015-09-14T11:00:04Z</time>
      </trkpt>
      <trkpt lat="41.86399" lon="9.15814">
        <ele>1427.21</ele>
        <time>2015-09-14T11:00:11Z</time>
      </trkpt>
      <trkpt lat="41.86397" lon="9.15816">
        <ele>1427.21</ele>
        <time>2015-09-14T11:00:13Z</time>
      </trkpt>
      <trkpt lat="41.86381" lon="9.15818">
        <ele>1427.7</ele>
        <time>2015-09-14T11:00:28Z</time>
      </trkpt>
      <trkpt lat="41.86365" lon="9.15822">
        <ele>1428.66</ele>
        <time>2015-09-14T11:00:43Z</time>
      </trkpt>
      <trkpt lat="41.86363" lon="9.15822">
        <ele>1428.66</ele>
        <time>2015-09-14T11:00:45Z</time>
      </trkpt>
      <trkpt lat="41.86359" lon="9.1582">
        <ele>1429.14</ele>
        <time>2015-09-14T11:00:48Z</time>
      </trkpt>
      <trkpt lat="41.86351" lon="9.15815">
        <ele>1429.14</ele>
        <time>2015-09-14T11:00:57Z</time>
      </trkpt>
      <trkpt lat="41.86339" lon="9.15812">
        <ele>1429.14</ele>
        <time>2015-09-14T11:01:11Z</time>
      </trkpt>
      <trkpt lat="41.86333" lon="9.15811">
        <ele>1428.18</ele>
        <time>2015-09-14T11:01:15Z</time>
      </trkpt>
      <trkpt lat="41.8631" lon="9.15811">
        <ele>1428.18</ele>
        <time>2015-09-14T11:01:33Z</time>
      </trkpt>
      <trkpt lat="41.86306" lon="9.15814">
        <ele>1429.62</ele>
        <time>2015-09-14T11:01:38Z</time>
      </trkpt>
      <trkpt lat="41.86302" lon="9.15815">
        <ele>1429.62</ele>
        <time>2015-09-14T11:01:42Z</time>
      </trkpt>
      <trkpt lat="41.86301" lon="9.15817">
        <ele>1429.62</ele>
        <time>2015-09-14T11:01:44Z</time>
      </trkpt>
      <trkpt lat="41.86296" lon="9.15819">
        <ele>1429.62</ele>
        <time>2015-09-14T11:01:49Z</time>
      </trkpt>
      <trkpt lat="41.8629" lon="9.15821">
        <ele>1429.62</ele>
        <time>2015-09-14T11:01:55Z</time>
      </trkpt>
      <trkpt lat="41.86286" lon="9.15821">
        <ele>1429.62</ele>
        <time>2015-09-14T11:02:00Z</time>
      </trkpt>
      <trkpt lat="41.86271" lon="9.15822">
        <ele>1430.1</ele>
        <time>2015-09-14T11:02:14Z</time>
      </trkpt>
      <trkpt lat="41.86261" lon="9.15825">
        <ele>1431.06</ele>
        <time>2015-09-14T11:02:25Z</time>
      </trkpt>
      <trkpt lat="41.86247" lon="9.1583">
        <ele>1431.54</ele>
        <time>2015-09-14T11:02:39Z</time>
      </trkpt>
      <trkpt lat="41.86236" lon="9.15835">
        <ele>1432.02</ele>
        <time>2015-09-14T11:02:50Z</time>
      </trkpt>
      <trkpt lat="41.86236" lon="9.15838">
        <ele>1432.02</ele>
        <time>2015-09-14T11:02:52Z</time>
      </trkpt>
      <trkpt lat="41.86233" lon="9.15839">
        <ele>1432.5</ele>
        <time>2015-09-14T11:02:55Z</time>
      </trkpt>
      <trkpt lat="41.86223" lon="9.15848">
        <ele>1432.5</ele>
        <time>2015-09-14T11:03:07Z</time>
      </trkpt>
      <trkpt lat="41.86218" lon="9.15851">
        <ele>1432.5</ele>
        <time>2015-09-14T11:03:12Z</time>
      </trkpt>
      <trkpt lat="41.86207" lon="9.15867">
        <ele>1433.46</ele>
        <time>2015-09-14T11:03:26Z</time>
      </trkpt>
      <trkpt lat="41.86205" lon="9.15871">
        <ele>1433.94</ele>
        <time>2015-09-14T11:03:30Z</time>
      </trkpt>
      <trkpt lat="41.86199" lon="9.15882">
        <ele>1433.94</ele>
        <time>2015-09-14T11:03:40Z</time>
      </trkpt>
      <trkpt lat="41.86197" lon="9.15887">
        <ele>1433.94</ele>
        <time>2015-09-14T11:03:44Z</time>
      </trkpt>
      <trkpt lat="41.86195" lon="9.15909">
        <ele>1434.42</ele>
        <time>2015-09-14T11:04:00Z</time>
      </trkpt>
      <trkpt lat="41.86195" lon="9.1591">
        <ele>1434.42</ele>
        <time>2015-09-14T11:04:01Z</time>
      </trkpt>
      <trkpt lat="41.86197" lon="9.15918">
        <ele>1434.91</ele>
        <time>2015-09-14T11:04:08Z</time>
      </trkpt>
      <trkpt lat="41.86198" lon="9.15922">
        <ele>1434.91</ele>
        <time>2015-09-14T11:04:11Z</time>
      </trkpt>
      <trkpt lat="41.86199" lon="9.15925">
        <ele>1434.91</ele>
        <time>2015-09-14T11:04:14Z</time>
      </trkpt>
      <trkpt lat="41.862" lon="9.15931">
        <ele>1435.87</ele>
        <time>2015-09-14T11:04:19Z</time>
      </trkpt>
      <trkpt lat="41.86202" lon="9.15949">
        <ele>1436.35</ele>
        <time>2015-09-14T11:04:33Z</time>
      </trkpt>
      <trkpt lat="41.86203" lon="9.15966">
        <ele>1436.35</ele>
        <time>2015-09-14T11:04:45Z</time>
      </trkpt>
      <trkpt lat="41.86205" lon="9.15981">
        <ele>1436.83</ele>
        <time>2015-09-14T11:04:55Z</time>
      </trkpt>
      <trkpt lat="41.86205" lon="9.15986">
        <ele>1436.83</ele>
        <time>2015-09-14T11:04:58Z</time>
      </trkpt>
      <trkpt lat="41.86211" lon="9.16001">
        <ele>1437.31</ele>
        <time>2015-09-14T11:05:10Z</time>
      </trkpt>
      <trkpt lat="41.86217" lon="9.16011">
        <ele>1438.27</ele>
        <time>2015-09-14T11:05:21Z</time>
      </trkpt>
      <trkpt lat="41.86219" lon="9.16012">
        <ele>1439.23</ele>
        <time>2015-09-14T11:05:24Z</time>
      </trkpt>
      <trkpt lat="41.86228" lon="9.16025">
        <ele>1440.67</ele>
        <time>2015-09-14T11:05:39Z</time>
      </trkpt>
      <trkpt lat="41.86234" lon="9.16038">
        <ele>1442.6</ele>
        <time>2015-09-14T11:05:53Z</time>
      </trkpt>
      <trkpt lat="41.86237" lon="9.16043">
        <ele>1443.08</ele>
        <time>2015-09-14T11:05:58Z</time>
      </trkpt>
      <trkpt lat="41.86239" lon="9.1605">
        <ele>1444.04</ele>
        <time>2015-09-14T11:06:04Z</time>
      </trkpt>
      <trkpt lat="41.8624" lon="9.16053">
        <ele>1444.52</ele>
        <time>2015-09-14T11:06:07Z</time>
      </trkpt>
      <trkpt lat="41.86243" lon="9.16072">
        <ele>1445</ele>
        <time>2015-09-14T11:06:22Z</time>
      </trkpt>
      <trkpt lat="41.86243" lon="9.16073">
        <ele>1445</ele>
        <time>2015-09-14T11:06:23Z</time>
      </trkpt>
      <trkpt lat="41.86245" lon="9.16078">
        <ele>1443.56</ele>
        <time>2015-09-14T11:06:27Z</time>
      </trkpt>
      <trkpt lat="41.86251" lon="9.16096">
        <ele>1442.6</ele>
        <time>2015-09-14T11:06:43Z</time>
      </trkpt>
      <trkpt lat="41.86251" lon="9.16097">
        <ele>1442.6</ele>
        <time>2015-09-14T11:06:44Z</time>
      </trkpt>
      <trkpt lat="41.86258" lon="9.1611">
        <ele>1444.04</ele>
        <time>2015-09-14T11:06:56Z</time>
      </trkpt>
      <trkpt lat="41.86261" lon="9.16128">
        <ele>1445.48</ele>
        <time>2015-09-14T11:07:12Z</time>
      </trkpt>
      <trkpt lat="41.86263" lon="9.16135">
        <ele>1444.04</ele>
        <time>2015-09-14T11:07:17Z</time>
      </trkpt>
      <trkpt lat="41.86265" lon="9.16142">
        <ele>1443.56</ele>
        <time>2015-09-14T11:07:24Z</time>
      </trkpt>
      <trkpt lat="41.86261" lon="9.16152">
        <ele>1443.08</ele>
        <time>2015-09-14T11:07:35Z</time>
      </trkpt>
      <trkpt lat="41.86259" lon="9.16157">
        <ele>1444.52</ele>
        <time>2015-09-14T11:07:41Z</time>
      </trkpt>
      <trkpt lat="41.86255" lon="9.16163">
        <ele>1444.52</ele>
        <time>2015-09-14T11:07:49Z</time>
      </trkpt>
      <trkpt lat="41.86253" lon="9.16166">
        <ele>1445.48</ele>
        <time>2015-09-14T11:07:53Z</time>
      </trkpt>
      <trkpt lat="41.86243" lon="9.16175">
        <ele>1446.44</ele>
        <time>2015-09-14T11:08:10Z</time>
      </trkpt>
      <trkpt lat="41.86243" lon="9.16176">
        <ele>1446.44</ele>
        <time>2015-09-14T11:08:11Z</time>
      </trkpt>
      <trkpt lat="41.86232" lon="9.16197">
        <ele>1446.92</ele>
        <time>2015-09-14T11:08:27Z</time>
      </trkpt>
      <trkpt lat="41.86226" lon="9.16198">
        <ele>1446.92</ele>
        <time>2015-09-14T11:08:36Z</time>
      </trkpt>
      <trkpt lat="41.86212" lon="9.16202">
        <ele>1448.36</ele>
        <time>2015-09-14T11:08:49Z</time>
      </trkpt>
      <trkpt lat="41.86203" lon="9.16214">
        <ele>1448.36</ele>
        <time>2015-09-14T11:09:03Z</time>
      </trkpt>
      <trkpt lat="41.86197" lon="9.1622">
        <ele>1448.84</ele>
        <time>2015-09-14T11:09:10Z</time>
      </trkpt>
      <trkpt lat="41.86195" lon="9.16224">
        <ele>1448.84</ele>
        <time>2015-09-14T11:09:13Z</time>
      </trkpt>
      <trkpt lat="41.86179" lon="9.16236">
        <ele>1449.32</ele>
        <time>2015-09-14T11:09:29Z</time>
      </trkpt>
      <trkpt lat="41.86176" lon="9.16242">
        <ele>1447.88</ele>
        <time>2015-09-14T11:09:35Z</time>
      </trkpt>
      <trkpt lat="41.86171" lon="9.16245">
        <ele>1447.88</ele>
        <time>2015-09-14T11:09:40Z</time>
      </trkpt>
      <trkpt lat="41.8617" lon="9.16258">
        <ele>1447.88</ele>
        <time>2015-09-14T11:09:53Z</time>
      </trkpt>
      <trkpt lat="41.86172" lon="9.16277">
        <ele>1445.48</ele>
        <time>2015-09-14T11:10:09Z</time>
      </trkpt>
      <trkpt lat="41.86173" lon="9.16278">
        <ele>1445.48</ele>
        <time>2015-09-14T11:10:10Z</time>
      </trkpt>
      <trkpt lat="41.86172" lon="9.16282">
        <ele>1445.48</ele>
        <time>2015-09-14T11:10:12Z</time>
      </trkpt>
      <trkpt lat="41.86169" lon="9.16301">
        <ele>1442.11</ele>
        <time>2015-09-14T11:10:28Z</time>
      </trkpt>
      <trkpt lat="41.86158" lon="9.16307">
        <ele>1441.15</ele>
        <time>2015-09-14T11:10:43Z</time>
      </trkpt>
      <trkpt lat="41.86151" lon="9.16312">
        <ele>1443.56</ele>
        <time>2015-09-14T11:10:57Z</time>
      </trkpt>
      <trkpt lat="41.86139" lon="9.16317">
        <ele>1445.96</ele>
        <time>2015-09-14T11:11:11Z</time>
      </trkpt>
      <trkpt lat="41.86135" lon="9.16333">
        <ele>1447.88</ele>
        <time>2015-09-14T11:11:26Z</time>
      </trkpt>
      <trkpt lat="41.86127" lon="9.1634">
        <ele>1449.81</ele>
        <time>2015-09-14T11:11:38Z</time>
      </trkpt>
      <trkpt lat="41.86118" lon="9.16346">
        <ele>1451.73</ele>
        <time>2015-09-14T11:11:54Z</time>
      </trkpt>
      <trkpt lat="41.8611" lon="9.16354">
        <ele>1454.13</ele>
        <time>2015-09-14T11:12:12Z</time>
      </trkpt>
      <trkpt lat="41.86115" lon="9.16377">
        <ele>1457.02</ele>
        <time>2015-09-14T11:12:35Z</time>
      </trkpt>
      <trkpt lat="41.86108" lon="9.16385">
        <ele>1459.42</ele>
        <time>2015-09-14T11:12:53Z</time>
      </trkpt>
      <trkpt lat="41.86111" lon="9.164">
        <ele>1462.78</ele>
        <time>2015-09-14T11:13:12Z</time>
      </trkpt>
      <trkpt lat="41.86112" lon="9.16406">
        <ele>1463.74</ele>
        <time>2015-09-14T11:13:16Z</time>
      </trkpt>
      <trkpt lat="41.86107" lon="9.16427">
        <ele>1463.74</ele>
        <time>2015-09-14T11:13:32Z</time>
      </trkpt>
      <trkpt lat="41.86099" lon="9.16433">
        <ele>1464.71</ele>
        <time>2015-09-14T11:13:52Z</time>
      </trkpt>
      <trkpt lat="41.86082" lon="9.16432">
        <ele>1462.3</ele>
        <time>2015-09-14T11:14:09Z</time>
      </trkpt>
      <trkpt lat="41.86072" lon="9.16425">
        <ele>1462.3</ele>
        <time>2015-09-14T11:14:21Z</time>
      </trkpt>
      <trkpt lat="41.86056" lon="9.1642">
        <ele>1464.71</ele>
        <time>2015-09-14T11:14:40Z</time>
      </trkpt>
      <trkpt lat="41.86046" lon="9.16423">
        <ele>1465.19</ele>
        <time>2015-09-14T11:14:51Z</time>
      </trkpt>
      <trkpt lat="41.86024" lon="9.16417">
        <ele>1465.19</ele>
        <time>2015-09-14T11:15:08Z</time>
      </trkpt>
      <trkpt lat="41.86019" lon="9.16419">
        <ele>1465.19</ele>
        <time>2015-09-14T11:15:15Z</time>
      </trkpt>
      <trkpt lat="41.86016" lon="9.16421">
        <ele>1465.19</ele>
        <time>2015-09-14T11:15:18Z</time>
      </trkpt>
      <trkpt lat="41.86012" lon="9.16423">
        <ele>1465.19</ele>
        <time>2015-09-14T11:15:22Z</time>
      </trkpt>
      <trkpt lat="41.86004" lon="9.16424">
        <ele>1465.19</ele>
        <time>2015-09-14T11:15:31Z</time>
      </trkpt>
      <trkpt lat="41.86001" lon="9.16424">
        <ele>1465.19</ele>
        <time>2015-09-14T11:15:34Z</time>
      </trkpt>
      <trkpt lat="41.85998" lon="9.16425">
        <ele>1465.19</ele>
        <time>2015-09-14T11:15:37Z</time>
      </trkpt>
      <trkpt lat="41.85987" lon="9.16425">
        <ele>1464.23</ele>
        <time>2015-09-14T11:15:53Z</time>
      </trkpt>
      <trkpt lat="41.85985" lon="9.16425">
        <ele>1464.23</ele>
        <time>2015-09-14T11:15:54Z</time>
      </trkpt>
      <trkpt lat="41.85972" lon="9.16434">
        <ele>1463.74</ele>
        <time>2015-09-14T11:16:09Z</time>
      </trkpt>
      <trkpt lat="41.85959" lon="9.16438">
        <ele>1463.74</ele>
        <time>2015-09-14T11:16:23Z</time>
      </trkpt>
      <trkpt lat="41.85956" lon="9.16439">
        <ele>1463.74</ele>
        <time>2015-09-14T11:16:26Z</time>
      </trkpt>
      <trkpt lat="41.85953" lon="9.16442">
        <ele>1465.19</ele>
        <time>2015-09-14T11:16:29Z</time>
      </trkpt>
      <trkpt lat="41.85944" lon="9.16449">
        <ele>1466.15</ele>
        <time>2015-09-14T11:16:45Z</time>
      </trkpt>
      <trkpt lat="41.8593" lon="9.16437">
        <ele>1465.19</ele>
        <time>2015-09-14T11:17:02Z</time>
      </trkpt>
      <trkpt lat="41.85929" lon="9.16437">
        <ele>1465.19</ele>
        <time>2015-09-14T11:17:03Z</time>
      </trkpt>
      <trkpt lat="41.85913" lon="9.16435">
        <ele>1465.19</ele>
        <time>2015-09-14T11:17:22Z</time>
      </trkpt>
      <trkpt lat="41.85897" lon="9.16436">
        <ele>1467.59</ele>
        <time>2015-09-14T11:17:39Z</time>
      </trkpt>
      <trkpt lat="41.85888" lon="9.16448">
        <ele>1470.47</ele>
        <time>2015-09-14T11:18:02Z</time>
      </trkpt>
      <trkpt lat="41.85878" lon="9.16455">
        <ele>1472.88</ele>
        <time>2015-09-14T11:18:20Z</time>
      </trkpt>
      <trkpt lat="41.8587" lon="9.1647">
        <ele>1474.32</ele>
        <time>2015-09-14T11:18:38Z</time>
      </trkpt>
      <trkpt lat="41.85864" lon="9.16483">
        <ele>1476.24</ele>
        <time>2015-09-14T11:18:58Z</time>
      </trkpt>
      <trkpt lat="41.8586" lon="9.16494">
        <ele>1478.65</ele>
        <time>2015-09-14T11:19:15Z</time>
      </trkpt>
      <trkpt lat="41.85851" lon="9.16503">
        <ele>1480.57</ele>
        <time>2015-09-14T11:19:35Z</time>
      </trkpt>
      <trkpt lat="41.85841" lon="9.16508">
        <ele>1482.01</ele>
        <time>2015-09-14T11:19:57Z</time>
      </trkpt>
      <trkpt lat="41.85834" lon="9.16515">
        <ele>1483.93</ele>
        <time>2015-09-14T11:20:16Z</time>
      </trkpt>
      <trkpt lat="41.85822" lon="9.16505">
        <ele>1482.49</ele>
        <time>2015-09-14T11:20:32Z</time>
      </trkpt>
      <trkpt lat="41.85804" lon="9.16499">
        <ele>1479.61</ele>
        <time>2015-09-14T11:20:51Z</time>
      </trkpt>
      <trkpt lat="41.85801" lon="9.16497">
        <ele>1479.13</ele>
        <time>2015-09-14T11:21:07Z</time>
      </trkpt>
      <trkpt lat="41.85795" lon="9.16494">
        <ele>1482.49</ele>
        <time>2015-09-14T11:21:24Z</time>
      </trkpt>
      <trkpt lat="41.85787" lon="9.16494">
        <ele>1483.45</ele>
        <time>2015-09-14T11:21:39Z</time>
      </trkpt>
      <trkpt lat="41.8578" lon="9.16488">
        <ele>1485.85</ele>
        <time>2015-09-14T11:21:55Z</time>
      </trkpt>
      <trkpt lat="41.85771" lon="9.16485">
        <ele>1487.78</ele>
        <time>2015-09-14T11:22:11Z</time>
      </trkpt>
      <trkpt lat="41.85758" lon="9.16477">
        <ele>1488.74</ele>
        <time>2015-09-14T11:22:29Z</time>
      </trkpt>
      <trkpt lat="41.85751" lon="9.16476">
        <ele>1492.1</ele>
        <time>2015-09-14T11:22:47Z</time>
      </trkpt>
      <trkpt lat="41.85744" lon="9.16478">
        <ele>1494.99</ele>
        <time>2015-09-14T11:23:09Z</time>
      </trkpt>
      <trkpt lat="41.85733" lon="9.16474">
        <ele>1496.91</ele>
        <time>2015-09-14T11:23:29Z</time>
      </trkpt>
      <trkpt lat="41.85725" lon="9.16471">
        <ele>1498.83</ele>
        <time>2015-09-14T11:23:46Z</time>
      </trkpt>
      <trkpt lat="41.85711" lon="9.16467">
        <ele>1500.76</ele>
        <time>2015-09-14T11:24:06Z</time>
      </trkpt>
      <trkpt lat="41.85701" lon="9.16472">
        <ele>1503.64</ele>
        <time>2015-09-14T11:24:25Z</time>
      </trkpt>
      <trkpt lat="41.85694" lon="9.16481">
        <ele>1505.08</ele>
        <time>2015-09-14T11:24:45Z</time>
      </trkpt>
      <trkpt lat="41.85685" lon="9.1649">
        <ele>1507</ele>
        <time>2015-09-14T11:25:02Z</time>
      </trkpt>
      <trkpt lat="41.85675" lon="9.16495">
        <ele>1508.93</ele>
        <time>2015-09-14T11:25:19Z</time>
      </trkpt>
      <trkpt lat="41.85666" lon="9.16504">
        <ele>1510.37</ele>
        <time>2015-09-14T11:25:36Z</time>
      </trkpt>
      <trkpt lat="41.85659" lon="9.16516">
        <ele>1512.29</ele>
        <time>2015-09-14T11:25:51Z</time>
      </trkpt>
      <trkpt lat="41.85653" lon="9.16528">
        <ele>1514.21</ele>
        <time>2015-09-14T11:26:09Z</time>
      </trkpt>
      <trkpt lat="41.85642" lon="9.16538">
        <ele>1515.66</ele>
        <time>2015-09-14T11:26:26Z</time>
      </trkpt>
      <trkpt lat="41.85636" lon="9.16548">
        <ele>1518.06</ele>
        <time>2015-09-14T11:26:42Z</time>
      </trkpt>
      <trkpt lat="41.85635" lon="9.16563">
        <ele>1520.46</ele>
        <time>2015-09-14T11:26:59Z</time>
      </trkpt>
      <trkpt lat="41.85629" lon="9.16577">
        <ele>1521.42</ele>
        <time>2015-09-14T11:27:16Z</time>
      </trkpt>
      <trkpt lat="41.85629" lon="9.16581">
        <ele>1521.42</ele>
        <time>2015-09-14T11:27:20Z</time>
      </trkpt>
      <trkpt lat="41.85621" lon="9.16592">
        <ele>1522.39</ele>
        <time>2015-09-14T11:27:37Z</time>
      </trkpt>
      <trkpt lat="41.8561" lon="9.1659">
        <ele>1523.83</ele>
        <time>2015-09-14T11:27:57Z</time>
      </trkpt>
      <trkpt lat="41.856" lon="9.16588">
        <ele>1525.75</ele>
        <time>2015-09-14T11:28:15Z</time>
      </trkpt>
      <trkpt lat="41.85589" lon="9.16588">
        <ele>1528.63</ele>
        <time>2015-09-14T11:28:31Z</time>
      </trkpt>
      <trkpt lat="41.85578" lon="9.16591">
        <ele>1530.08</ele>
        <time>2015-09-14T11:28:50Z</time>
      </trkpt>
      <trkpt lat="41.8557" lon="9.1659">
        <ele>1532.48</ele>
        <time>2015-09-14T11:29:07Z</time>
      </trkpt>
      <trkpt lat="41.85558" lon="9.16591">
        <ele>1534.88</ele>
        <time>2015-09-14T11:29:27Z</time>
      </trkpt>
      <trkpt lat="41.85547" lon="9.16596">
        <ele>1535.36</ele>
        <time>2015-09-14T11:29:43Z</time>
      </trkpt>
      <trkpt lat="41.85543" lon="9.16598">
        <ele>1535.36</ele>
        <time>2015-09-14T11:29:48Z</time>
      </trkpt>
      <trkpt lat="41.85537" lon="9.16599">
        <ele>1536.32</ele>
        <time>2015-09-14T11:30:10Z</time>
      </trkpt>
      <trkpt lat="41.85537" lon="9.16602">
        <ele>1535.36</ele>
        <time>2015-09-14T11:30:29Z</time>
      </trkpt>
      <trkpt lat="41.85542" lon="9.16604">
        <ele>1535.36</ele>
        <time>2015-09-14T11:30:59Z</time>
      </trkpt>
      <trkpt lat="41.85541" lon="9.16602">
        <ele>1535.36</ele>
        <time>2015-09-14T11:31:16Z</time>
      </trkpt>
      <trkpt lat="41.85538" lon="9.16587">
        <ele>1536.8</ele>
        <time>2015-09-14T11:31:33Z</time>
      </trkpt>
      <trkpt lat="41.85523" lon="9.16583">
        <ele>1536.8</ele>
        <time>2015-09-14T11:31:49Z</time>
      </trkpt>
      <trkpt lat="41.85521" lon="9.16582">
        <ele>1535.84</ele>
        <time>2015-09-14T11:31:51Z</time>
      </trkpt>
      <trkpt lat="41.8552" lon="9.16581">
        <ele>1535.84</ele>
        <time>2015-09-14T11:31:52Z</time>
      </trkpt>
      <trkpt lat="41.85512" lon="9.16577">
        <ele>1535.84</ele>
        <time>2015-09-14T11:32:09Z</time>
      </trkpt>
      <trkpt lat="41.85518" lon="9.16578">
        <ele>1535.84</ele>
        <time>2015-09-14T11:32:18Z</time>
      </trkpt>
      <trkpt lat="41.85533" lon="9.16586">
        <ele>1537.77</ele>
        <time>2015-09-14T11:32:37Z</time>
      </trkpt>
      <trkpt lat="41.85536" lon="9.16598">
        <ele>1537.77</ele>
        <time>2015-09-14T11:32:51Z</time>
      </trkpt>
      <trkpt lat="41.85538" lon="9.16601">
        <ele>1536.32</ele>
        <time>2015-09-14T11:33:08Z</time>
      </trkpt>
      <trkpt lat="41.85538" lon="9.16597">
        <ele>1536.32</ele>
        <time>2015-09-14T11:33:36Z</time>
      </trkpt>
      <trkpt lat="41.8554" lon="9.16597">
        <ele>1536.8</ele>
        <time>2015-09-14T11:34:01Z</time>
      </trkpt>
      <trkpt lat="41.85541" lon="9.16596">
        <ele>1537.77</ele>
        <time>2015-09-14T11:34:21Z</time>
      </trkpt>
      <trkpt lat="41.85536" lon="9.16597">
        <ele>1537.77</ele>
        <time>2015-09-14T11:34:56Z</time>
      </trkpt>
      <trkpt lat="41.85534" lon="9.16591">
        <ele>1537.29</ele>
        <time>2015-09-14T11:35:08Z</time>
      </trkpt>
      <trkpt lat="41.85542" lon="9.16597">
        <ele>1537.29</ele>
        <time>2015-09-14T11:35:42Z</time>
      </trkpt>
      <trkpt lat="41.85538" lon="9.16595">
        <ele>1537.29</ele>
        <time>2015-09-14T11:36:07Z</time>
      </trkpt>
      <trkpt lat="41.85536" lon="9.16596">
        <ele>1536.8</ele>
        <time>2015-09-14T11:36:40Z</time>
      </trkpt>
      <trkpt lat="41.85537" lon="9.16599">
        <ele>1537.29</ele>
        <time>2015-09-14T11:37:02Z</time>
      </trkpt>
      <trkpt lat="41.85537" lon="9.16596">
        <ele>1537.29</ele>
        <time>2015-09-14T11:37:21Z</time>
      </trkpt>
      <trkpt lat="41.85537" lon="9.16593">
        <ele>1537.77</ele>
        <time>2015-09-14T11:37:45Z</time>
      </trkpt>
      <trkpt lat="41.85536" lon="9.16594">
        <ele>1536.8</ele>
        <time>2015-09-14T11:38:27Z</time>
      </trkpt>
      <trkpt lat="41.85537" lon="9.16593">
        <ele>1536.8</ele>
        <time>2015-09-14T11:39:03Z</time>
      </trkpt>
      <trkpt lat="41.85537" lon="9.16592">
        <ele>1538.25</ele>
        <time>2015-09-14T11:39:43Z</time>
      </trkpt>
      <trkpt lat="41.85538" lon="9.16594">
        <ele>1537.77</ele>
        <time>2015-09-14T11:40:18Z</time>
      </trkpt>
      <trkpt lat="41.85536" lon="9.16593">
        <ele>1538.25</ele>
        <time>2015-09-14T11:40:50Z</time>
      </trkpt>
      <trkpt lat="41.85535" lon="9.16594">
        <ele>1537.29</ele>
        <time>2015-09-14T11:41:37Z</time>
      </trkpt>
      <trkpt lat="41.85535" lon="9.16594">
        <ele>1538.73</ele>
        <time>2015-09-14T11:41:40Z</time>
      </trkpt>
      <trkpt lat="41.85536" lon="9.16592">
        <ele>1538.73</ele>
        <time>2015-09-14T11:42:03Z</time>
      </trkpt>
      <trkpt lat="41.85536" lon="9.16595">
        <ele>1537.29</ele>
        <time>2015-09-14T11:42:45Z</time>
      </trkpt>
      <trkpt lat="41.85534" lon="9.16593">
        <ele>1537.29</ele>
        <time>2015-09-14T11:43:08Z</time>
      </trkpt>
      <trkpt lat="41.85535" lon="9.16599">
        <ele>1537.29</ele>
        <time>2015-09-14T11:43:30Z</time>
      </trkpt>
      <trkpt lat="41.85538" lon="9.16601">
        <ele>1538.73</ele>
        <time>2015-09-14T11:43:40Z</time>
      </trkpt>
      <trkpt lat="41.8554" lon="9.16598">
        <ele>1537.77</ele>
        <time>2015-09-14T11:44:10Z</time>
      </trkpt>
      <trkpt lat="41.85539" lon="9.16596">
        <ele>1539.21</ele>
        <time>2015-09-14T11:44:24Z</time>
      </trkpt>
      <trkpt lat="41.85536" lon="9.16597">
        <ele>1538.73</ele>
        <time>2015-09-14T11:44:55Z</time>
      </trkpt>
      <trkpt lat="41.85536" lon="9.16595">
        <ele>1538.25</ele>
        <time>2015-09-14T11:45:20Z</time>
      </trkpt>
      <trkpt lat="41.85537" lon="9.16595">
        <ele>1539.69</ele>
        <time>2015-09-14T11:45:29Z</time>
      </trkpt>
      <trkpt lat="41.85539" lon="9.16596">
        <ele>1538.25</ele>
        <time>2015-09-14T11:45:37Z</time>
      </trkpt>
      <trkpt lat="41.85533" lon="9.16601">
        <ele>1537.77</ele>
        <time>2015-09-14T11:46:02Z</time>
      </trkpt>
      <trkpt lat="41.85532" lon="9.16602">
        <ele>1537.77</ele>
        <time>2015-09-14T11:46:04Z</time>
      </trkpt>
      <trkpt lat="41.85519" lon="9.16606">
        <ele>1538.73</ele>
        <time>2015-09-14T11:46:18Z</time>
      </trkpt>
      <trkpt lat="41.85506" lon="9.1661">
        <ele>1539.69</ele>
        <time>2015-09-14T11:46:36Z</time>
      </trkpt>
      <trkpt lat="41.85497" lon="9.16618">
        <ele>1542.09</ele>
        <time>2015-09-14T11:46:53Z</time>
      </trkpt>
      <trkpt lat="41.85487" lon="9.16628">
        <ele>1544.5</ele>
        <time>2015-09-14T11:47:11Z</time>
      </trkpt>
      <trkpt lat="41.8548" lon="9.16634">
        <ele>1545.94</ele>
        <time>2015-09-14T11:47:27Z</time>
      </trkpt>
      <trkpt lat="41.85471" lon="9.16639">
        <ele>1547.86</ele>
        <time>2015-09-14T11:47:46Z</time>
      </trkpt>
      <trkpt lat="41.85463" lon="9.16641">
        <ele>1549.78</ele>
        <time>2015-09-14T11:48:03Z</time>
      </trkpt>
      <trkpt lat="41.85456" lon="9.16649">
        <ele>1551.22</ele>
        <time>2015-09-14T11:48:23Z</time>
      </trkpt>
      <trkpt lat="41.85455" lon="9.16648">
        <ele>1551.71</ele>
        <time>2015-09-14T11:48:25Z</time>
      </trkpt>
      <trkpt lat="41.8545" lon="9.16645">
        <ele>1551.71</ele>
        <time>2015-09-14T11:48:31Z</time>
      </trkpt>
      <trkpt lat="41.85444" lon="9.16643">
        <ele>1552.19</ele>
        <time>2015-09-14T11:48:37Z</time>
      </trkpt>
      <trkpt lat="41.8544" lon="9.16641">
        <ele>1553.63</ele>
        <time>2015-09-14T11:48:42Z</time>
      </trkpt>
      <trkpt lat="41.85426" lon="9.16636">
        <ele>1554.11</ele>
        <time>2015-09-14T11:48:59Z</time>
      </trkpt>
      <trkpt lat="41.85422" lon="9.16636">
        <ele>1554.59</ele>
        <time>2015-09-14T11:49:04Z</time>
      </trkpt>
      <trkpt lat="41.85414" lon="9.16637">
        <ele>1555.07</ele>
        <time>2015-09-14T11:49:14Z</time>
      </trkpt>
      <trkpt lat="41.85399" lon="9.16638">
        <ele>1557.47</ele>
        <time>2015-09-14T11:49:33Z</time>
      </trkpt>
      <trkpt lat="41.85391" lon="9.16637">
        <ele>1558.92</ele>
        <time>2015-09-14T11:49:42Z</time>
      </trkpt>
      <trkpt lat="41.85376" lon="9.16635">
        <ele>1560.36</ele>
        <time>2015-09-14T11:50:00Z</time>
      </trkpt>
      <trkpt lat="41.85362" lon="9.16636">
        <ele>1562.28</ele>
        <time>2015-09-14T11:50:18Z</time>
      </trkpt>
      <trkpt lat="41.85347" lon="9.16638">
        <ele>1563.24</ele>
        <time>2015-09-14T11:50:35Z</time>
      </trkpt>
      <trkpt lat="41.85332" lon="9.16637">
        <ele>1564.2</ele>
        <time>2015-09-14T11:50:51Z</time>
      </trkpt>
      <trkpt lat="41.85318" lon="9.16636">
        <ele>1565.64</ele>
        <time>2015-09-14T11:51:08Z</time>
      </trkpt>
      <trkpt lat="41.85306" lon="9.16633">
        <ele>1567.09</ele>
        <time>2015-09-14T11:51:22Z</time>
      </trkpt>
      <trkpt lat="41.85294" lon="9.16632">
        <ele>1567.57</ele>
        <time>2015-09-14T11:51:37Z</time>
      </trkpt>
      <trkpt lat="41.8528" lon="9.16633">
        <ele>1568.53</ele>
        <time>2015-09-14T11:51:54Z</time>
      </trkpt>
      <trkpt lat="41.85267" lon="9.16638">
        <ele>1569.97</ele>
        <time>2015-09-14T11:52:10Z</time>
      </trkpt>
      <trkpt lat="41.85264" lon="9.1664">
        <ele>1569.97</ele>
        <time>2015-09-14T11:52:13Z</time>
      </trkpt>
      <trkpt lat="41.85254" lon="9.16646">
        <ele>1570.45</ele>
        <time>2015-09-14T11:52:26Z</time>
      </trkpt>
      <trkpt lat="41.85245" lon="9.16653">
        <ele>1571.89</ele>
        <time>2015-09-14T11:52:38Z</time>
      </trkpt>
      <trkpt lat="41.85243" lon="9.16652">
        <ele>1571.89</ele>
        <time>2015-09-14T11:52:40Z</time>
      </trkpt>
      <trkpt lat="41.85237" lon="9.16653">
        <ele>1572.85</ele>
        <time>2015-09-14T11:52:46Z</time>
      </trkpt>
      <trkpt lat="41.85225" lon="9.16656">
        <ele>1574.78</ele>
        <time>2015-09-14T11:53:02Z</time>
      </trkpt>
      <trkpt lat="41.85214" lon="9.16657">
        <ele>1575.74</ele>
        <time>2015-09-14T11:53:16Z</time>
      </trkpt>
      <trkpt lat="41.85197" lon="9.1666">
        <ele>1576.7</ele>
        <time>2015-09-14T11:53:34Z</time>
      </trkpt>
      <trkpt lat="41.8518" lon="9.16668">
        <ele>1578.14</ele>
        <time>2015-09-14T11:53:54Z</time>
      </trkpt>
      <trkpt lat="41.85166" lon="9.1667">
        <ele>1579.58</ele>
        <time>2015-09-14T11:54:12Z</time>
      </trkpt>
      <trkpt lat="41.85155" lon="9.16671">
        <ele>1580.54</ele>
        <time>2015-09-14T11:54:26Z</time>
      </trkpt>
      <trkpt lat="41.85145" lon="9.16674">
        <ele>1581.51</ele>
        <time>2015-09-14T11:54:39Z</time>
      </trkpt>
      <trkpt lat="41.85141" lon="9.16674">
        <ele>1581.51</ele>
        <time>2015-09-14T11:54:43Z</time>
      </trkpt>
      <trkpt lat="41.85129" lon="9.16682">
        <ele>1582.95</ele>
        <time>2015-09-14T11:55:00Z</time>
      </trkpt>
      <trkpt lat="41.85121" lon="9.16692">
        <ele>1584.87</ele>
        <time>2015-09-14T11:55:16Z</time>
      </trkpt>
      <trkpt lat="41.85113" lon="9.16706">
        <ele>1586.31</ele>
        <time>2015-09-14T11:55:33Z</time>
      </trkpt>
      <trkpt lat="41.85105" lon="9.16721">
        <ele>1588.72</ele>
        <time>2015-09-14T11:55:51Z</time>
      </trkpt>
      <trkpt lat="41.85094" lon="9.16732">
        <ele>1589.68</ele>
        <time>2015-09-14T11:56:08Z</time>
      </trkpt>
      <trkpt lat="41.85091" lon="9.16738">
        <ele>1592.08</ele>
        <time>2015-09-14T11:56:15Z</time>
      </trkpt>
      <trkpt lat="41.85089" lon="9.16743">
        <ele>1593.52</ele>
        <time>2015-09-14T11:56:20Z</time>
      </trkpt>
      <trkpt lat="41.85093" lon="9.16762">
        <ele>1593.52</ele>
        <time>2015-09-14T11:56:36Z</time>
      </trkpt>
      <trkpt lat="41.85102" lon="9.16775">
        <ele>1593.52</ele>
        <time>2015-09-14T11:56:53Z</time>
      </trkpt>
      <trkpt lat="41.85108" lon="9.16793">
        <ele>1594.96</ele>
        <time>2015-09-14T11:57:11Z</time>
      </trkpt>
      <trkpt lat="41.85116" lon="9.16809">
        <ele>1595.45</ele>
        <time>2015-09-14T11:57:26Z</time>
      </trkpt>
      <trkpt lat="41.85119" lon="9.16826">
        <ele>1597.37</ele>
        <time>2015-09-14T11:57:43Z</time>
      </trkpt>
      <trkpt lat="41.8512" lon="9.16827">
        <ele>1597.85</ele>
        <time>2015-09-14T11:57:44Z</time>
      </trkpt>
      <trkpt lat="41.85122" lon="9.16846">
        <ele>1599.29</ele>
        <time>2015-09-14T11:58:01Z</time>
      </trkpt>
      <trkpt lat="41.85125" lon="9.16863">
        <ele>1601.21</ele>
        <time>2015-09-14T11:58:19Z</time>
      </trkpt>
      <trkpt lat="41.85127" lon="9.16875">
        <ele>1604.1</ele>
        <time>2015-09-14T11:58:33Z</time>
      </trkpt>
      <trkpt lat="41.85135" lon="9.16888">
        <ele>1604.1</ele>
        <time>2015-09-14T11:58:50Z</time>
      </trkpt>
      <trkpt lat="41.85138" lon="9.16891">
        <ele>1605.06</ele>
        <time>2015-09-14T11:58:54Z</time>
      </trkpt>
      <trkpt lat="41.85147" lon="9.16904">
        <ele>1606.5</ele>
        <time>2015-09-14T11:59:12Z</time>
      </trkpt>
      <trkpt lat="41.85158" lon="9.16917">
        <ele>1607.94</ele>
        <time>2015-09-14T11:59:28Z</time>
      </trkpt>
      <trkpt lat="41.85169" lon="9.16933">
        <ele>1609.38</ele>
        <time>2015-09-14T11:59:46Z</time>
      </trkpt>
      <trkpt lat="41.85177" lon="9.16947">
        <ele>1609.86</ele>
        <time>2015-09-14T12:00:02Z</time>
      </trkpt>
      <trkpt lat="41.85184" lon="9.16969">
        <ele>1609.38</ele>
        <time>2015-09-14T12:00:20Z</time>
      </trkpt>
      <trkpt lat="41.85173" lon="9.16981">
        <ele>1610.83</ele>
        <time>2015-09-14T12:00:38Z</time>
      </trkpt>
      <trkpt lat="41.85166" lon="9.16985">
        <ele>1610.83</ele>
        <time>2015-09-14T12:00:45Z</time>
      </trkpt>
      <trkpt lat="41.85163" lon="9.16986">
        <ele>1611.31</ele>
        <time>2015-09-14T12:00:49Z</time>
      </trkpt>
      <trkpt lat="41.85155" lon="9.16991">
        <ele>1612.27</ele>
        <time>2015-09-14T12:00:58Z</time>
      </trkpt>
      <trkpt lat="41.85147" lon="9.17004">
        <ele>1613.23</ele>
        <time>2015-09-14T12:01:10Z</time>
      </trkpt>
      <trkpt lat="41.85147" lon="9.17024">
        <ele>1614.19</ele>
        <time>2015-09-14T12:01:26Z</time>
      </trkpt>
      <trkpt lat="41.85146" lon="9.17028">
        <ele>1614.19</ele>
        <time>2015-09-14T12:01:29Z</time>
      </trkpt>
      <trkpt lat="41.85145" lon="9.17032">
        <ele>1614.19</ele>
        <time>2015-09-14T12:01:32Z</time>
      </trkpt>
      <trkpt lat="41.85145" lon="9.17039">
        <ele>1614.67</ele>
        <time>2015-09-14T12:01:37Z</time>
      </trkpt>
      <trkpt lat="41.85146" lon="9.17063">
        <ele>1615.63</ele>
        <time>2015-09-14T12:01:54Z</time>
      </trkpt>
      <trkpt lat="41.85146" lon="9.17064">
        <ele>1615.63</ele>
        <time>2015-09-14T12:01:55Z</time>
      </trkpt>
      <trkpt lat="41.85154" lon="9.17087">
        <ele>1615.63</ele>
        <time>2015-09-14T12:02:13Z</time>
      </trkpt>
      <trkpt lat="41.8516" lon="9.17096">
        <ele>1615.63</ele>
        <time>2015-09-14T12:02:22Z</time>
      </trkpt>
      <trkpt lat="41.85173" lon="9.17101">
        <ele>1617.07</ele>
        <time>2015-09-14T12:02:42Z</time>
      </trkpt>
      <trkpt lat="41.85188" lon="9.17103">
        <ele>1618.04</ele>
        <time>2015-09-14T12:02:59Z</time>
      </trkpt>
      <trkpt lat="41.85193" lon="9.17103">
        <ele>1619</ele>
        <time>2015-09-14T12:03:14Z</time>
      </trkpt>
      <trkpt lat="41.85196" lon="9.17094">
        <ele>1621.4</ele>
        <time>2015-09-14T12:03:30Z</time>
      </trkpt>
      <trkpt lat="41.85201" lon="9.17091">
        <ele>1623.8</ele>
        <time>2015-09-14T12:03:46Z</time>
      </trkpt>
      <trkpt lat="41.85207" lon="9.17087">
        <ele>1626.21</ele>
        <time>2015-09-14T12:04:02Z</time>
      </trkpt>
      <trkpt lat="41.85215" lon="9.17093">
        <ele>1627.65</ele>
        <time>2015-09-14T12:04:18Z</time>
      </trkpt>
      <trkpt lat="41.85222" lon="9.17103">
        <ele>1629.57</ele>
        <time>2015-09-14T12:04:35Z</time>
      </trkpt>
      <trkpt lat="41.85232" lon="9.17112">
        <ele>1631.01</ele>
        <time>2015-09-14T12:04:55Z</time>
      </trkpt>
      <trkpt lat="41.8524" lon="9.17121">
        <ele>1632.94</ele>
        <time>2015-09-14T12:05:14Z</time>
      </trkpt>
      <trkpt lat="41.85244" lon="9.17134">
        <ele>1635.34</ele>
        <time>2015-09-14T12:05:32Z</time>
      </trkpt>
      <trkpt lat="41.85255" lon="9.17139">
        <ele>1637.26</ele>
        <time>2015-09-14T12:05:50Z</time>
      </trkpt>
      <trkpt lat="41.85259" lon="9.17152">
        <ele>1639.19</ele>
        <time>2015-09-14T12:06:10Z</time>
      </trkpt>
      <trkpt lat="41.85259" lon="9.17164">
        <ele>1639.67</ele>
        <time>2015-09-14T12:06:26Z</time>
      </trkpt>
      <trkpt lat="41.85255" lon="9.17179">
        <ele>1640.15</ele>
        <time>2015-09-14T12:06:44Z</time>
      </trkpt>
      <trkpt lat="41.85249" lon="9.17188">
        <ele>1643.51</ele>
        <time>2015-09-14T12:07:00Z</time>
      </trkpt>
      <trkpt lat="41.85252" lon="9.172">
        <ele>1645.43</ele>
        <time>2015-09-14T12:07:18Z</time>
      </trkpt>
      <trkpt lat="41.85256" lon="9.17208">
        <ele>1647.84</ele>
        <time>2015-09-14T12:07:35Z</time>
      </trkpt>
      <trkpt lat="41.85258" lon="9.17218">
        <ele>1649.76</ele>
        <time>2015-09-14T12:07:54Z</time>
      </trkpt>
      <trkpt lat="41.85249" lon="9.17229">
        <ele>1652.16</ele>
        <time>2015-09-14T12:08:13Z</time>
      </trkpt>
      <trkpt lat="41.85241" lon="9.17241">
        <ele>1652.64</ele>
        <time>2015-09-14T12:08:30Z</time>
      </trkpt>
      <trkpt lat="41.85241" lon="9.17255">
        <ele>1655.05</ele>
        <time>2015-09-14T12:08:48Z</time>
      </trkpt>
      <trkpt lat="41.8524" lon="9.17265">
        <ele>1657.93</ele>
        <time>2015-09-14T12:09:04Z</time>
      </trkpt>
      <trkpt lat="41.85238" lon="9.17267">
        <ele>1658.89</ele>
        <time>2015-09-14T12:09:11Z</time>
      </trkpt>
      <trkpt lat="41.85224" lon="9.17264">
        <ele>1657.93</ele>
        <time>2015-09-14T12:09:24Z</time>
      </trkpt>
      <trkpt lat="41.8522" lon="9.17263">
        <ele>1656.97</ele>
        <time>2015-09-14T12:09:28Z</time>
      </trkpt>
      <trkpt lat="41.8521" lon="9.1726">
        <ele>1657.45</ele>
        <time>2015-09-14T12:09:38Z</time>
      </trkpt>
      <trkpt lat="41.85207" lon="9.1726">
        <ele>1657.45</ele>
        <time>2015-09-14T12:09:42Z</time>
      </trkpt>
      <trkpt lat="41.85193" lon="9.17267">
        <ele>1658.41</ele>
        <time>2015-09-14T12:09:59Z</time>
      </trkpt>
      <trkpt lat="41.85187" lon="9.17275">
        <ele>1661.3</ele>
        <time>2015-09-14T12:10:13Z</time>
      </trkpt>
      <trkpt lat="41.85187" lon="9.17275">
        <ele>1661.3</ele>
        <time>2015-09-14T12:10:14Z</time>
      </trkpt>
      <trkpt lat="41.85184" lon="9.17292">
        <ele>1662.74</ele>
        <time>2015-09-14T12:10:30Z</time>
      </trkpt>
      <trkpt lat="41.85183" lon="9.173">
        <ele>1661.78</ele>
        <time>2015-09-14T12:10:39Z</time>
      </trkpt>
      <trkpt lat="41.85177" lon="9.17317">
        <ele>1661.3</ele>
        <time>2015-09-14T12:10:57Z</time>
      </trkpt>
      <trkpt lat="41.85166" lon="9.17329">
        <ele>1659.37</ele>
        <time>2015-09-14T12:11:14Z</time>
      </trkpt>
      <trkpt lat="41.85164" lon="9.1733">
        <ele>1659.37</ele>
        <time>2015-09-14T12:11:16Z</time>
      </trkpt>
      <trkpt lat="41.85157" lon="9.17342">
        <ele>1662.26</ele>
        <time>2015-09-14T12:11:33Z</time>
      </trkpt>
      <trkpt lat="41.85153" lon="9.17354">
        <ele>1664.66</ele>
        <time>2015-09-14T12:11:48Z</time>
      </trkpt>
      <trkpt lat="41.85152" lon="9.17355">
        <ele>1663.22</ele>
        <time>2015-09-14T12:11:50Z</time>
      </trkpt>
      <trkpt lat="41.85149" lon="9.17367">
        <ele>1664.18</ele>
        <time>2015-09-14T12:12:05Z</time>
      </trkpt>
      <trkpt lat="41.85148" lon="9.17376">
        <ele>1665.14</ele>
        <time>2015-09-14T12:12:21Z</time>
      </trkpt>
      <trkpt lat="41.85144" lon="9.17388">
        <ele>1664.66</ele>
        <time>2015-09-14T12:12:39Z</time>
      </trkpt>
      <trkpt lat="41.85143" lon="9.17403">
        <ele>1666.58</ele>
        <time>2015-09-14T12:12:53Z</time>
      </trkpt>
      <trkpt lat="41.85137" lon="9.1742">
        <ele>1667.06</ele>
        <time>2015-09-14T12:13:11Z</time>
      </trkpt>
      <trkpt lat="41.85133" lon="9.17434">
        <ele>1667.54</ele>
        <time>2015-09-14T12:13:28Z</time>
      </trkpt>
      <trkpt lat="41.85132" lon="9.17435">
        <ele>1668.02</ele>
        <time>2015-09-14T12:14:01Z</time>
      </trkpt>
      <trkpt lat="41.8513" lon="9.17438">
        <ele>1668.02</ele>
        <time>2015-09-14T12:14:14Z</time>
      </trkpt>
      <trkpt lat="41.8513" lon="9.17463">
        <ele>1668.51</ele>
        <time>2015-09-14T12:14:33Z</time>
      </trkpt>
      <trkpt lat="41.85126" lon="9.17478">
        <ele>1670.43</ele>
        <time>2015-09-14T12:14:49Z</time>
      </trkpt>
      <trkpt lat="41.8512" lon="9.17494">
        <ele>1670.43</ele>
        <time>2015-09-14T12:15:06Z</time>
      </trkpt>
      <trkpt lat="41.85115" lon="9.17505">
        <ele>1671.39</ele>
        <time>2015-09-14T12:15:16Z</time>
      </trkpt>
      <trkpt lat="41.8511" lon="9.17514">
        <ele>1672.35</ele>
        <time>2015-09-14T12:15:25Z</time>
      </trkpt>
      <trkpt lat="41.851" lon="9.17532">
        <ele>1673.31</ele>
        <time>2015-09-14T12:15:42Z</time>
      </trkpt>
      <trkpt lat="41.85092" lon="9.1755">
        <ele>1673.79</ele>
        <time>2015-09-14T12:15:59Z</time>
      </trkpt>
      <trkpt lat="41.85088" lon="9.17561">
        <ele>1675.72</ele>
        <time>2015-09-14T12:16:14Z</time>
      </trkpt>
      <trkpt lat="41.85085" lon="9.17563">
        <ele>1677.16</ele>
        <time>2015-09-14T12:16:18Z</time>
      </trkpt>
      <trkpt lat="41.85082" lon="9.17573">
        <ele>1678.6</ele>
        <time>2015-09-14T12:16:33Z</time>
      </trkpt>
      <trkpt lat="41.85084" lon="9.17586">
        <ele>1680.52</ele>
        <time>2015-09-14T12:16:51Z</time>
      </trkpt>
      <trkpt lat="41.85078" lon="9.17599">
        <ele>1681.96</ele>
        <time>2015-09-14T12:17:08Z</time>
      </trkpt>
      <trkpt lat="41.85078" lon="9.17605">
        <ele>1683.89</ele>
        <time>2015-09-14T12:17:14Z</time>
      </trkpt>
      <trkpt lat="41.85075" lon="9.1762">
        <ele>1684.37</ele>
        <time>2015-09-14T12:17:31Z</time>
      </trkpt>
      <trkpt lat="41.85073" lon="9.17632">
        <ele>1685.33</ele>
        <time>2015-09-14T12:17:47Z</time>
      </trkpt>
      <trkpt lat="41.85071" lon="9.17647">
        <ele>1687.25</ele>
        <time>2015-09-14T12:18:04Z</time>
      </trkpt>
      <trkpt lat="41.85066" lon="9.17657">
        <ele>1689.17</ele>
        <time>2015-09-14T12:18:20Z</time>
      </trkpt>
      <trkpt lat="41.85057" lon="9.1767">
        <ele>1691.58</ele>
        <time>2015-09-14T12:18:38Z</time>
      </trkpt>
      <trkpt lat="41.85051" lon="9.17683">
        <ele>1693.02</ele>
        <time>2015-09-14T12:18:57Z</time>
      </trkpt>
      <trkpt lat="41.85043" lon="9.17695">
        <ele>1694.94</ele>
        <time>2015-09-14T12:19:12Z</time>
      </trkpt>
      <trkpt lat="41.85037" lon="9.17703">
        <ele>1695.9</ele>
        <time>2015-09-14T12:19:28Z</time>
      </trkpt>
      <trkpt lat="41.85031" lon="9.17715">
        <ele>1697.34</ele>
        <time>2015-09-14T12:19:42Z</time>
      </trkpt>
      <trkpt lat="41.85025" lon="9.17726">
        <ele>1699.27</ele>
        <time>2015-09-14T12:19:57Z</time>
      </trkpt>
      <trkpt lat="41.85025" lon="9.17735">
        <ele>1699.75</ele>
        <time>2015-09-14T12:20:07Z</time>
      </trkpt>
      <trkpt lat="41.85017" lon="9.17749">
        <ele>1700.71</ele>
        <time>2015-09-14T12:20:25Z</time>
      </trkpt>
      <trkpt lat="41.85015" lon="9.17752">
        <ele>1701.67</ele>
        <time>2015-09-14T12:20:30Z</time>
      </trkpt>
      <trkpt lat="41.85012" lon="9.17758">
        <ele>1705.04</ele>
        <time>2015-09-14T12:20:40Z</time>
      </trkpt>
      <trkpt lat="41.85012" lon="9.17759">
        <ele>1704.55</ele>
        <time>2015-09-14T12:20:41Z</time>
      </trkpt>
      <trkpt lat="41.85006" lon="9.17767">
        <ele>1707.44</ele>
        <time>2015-09-14T12:20:56Z</time>
      </trkpt>
      <trkpt lat="41.85002" lon="9.17772">
        <ele>1706</ele>
        <time>2015-09-14T12:21:04Z</time>
      </trkpt>
      <trkpt lat="41.85" lon="9.17775">
        <ele>1707.44</ele>
        <time>2015-09-14T12:21:08Z</time>
      </trkpt>
      <trkpt lat="41.84998" lon="9.17783">
        <ele>1708.4</ele>
        <time>2015-09-14T12:21:16Z</time>
      </trkpt>
      <trkpt lat="41.84993" lon="9.17789">
        <ele>1707.44</ele>
        <time>2015-09-14T12:21:25Z</time>
      </trkpt>
      <trkpt lat="41.84986" lon="9.17792">
        <ele>1708.4</ele>
        <time>2015-09-14T12:21:33Z</time>
      </trkpt>
      <trkpt lat="41.84982" lon="9.17792">
        <ele>1708.4</ele>
        <time>2015-09-14T12:21:37Z</time>
      </trkpt>
      <trkpt lat="41.84975" lon="9.17794">
        <ele>1707.44</ele>
        <time>2015-09-14T12:21:44Z</time>
      </trkpt>
      <trkpt lat="41.84966" lon="9.17796">
        <ele>1708.4</ele>
        <time>2015-09-14T12:21:55Z</time>
      </trkpt>
      <trkpt lat="41.8496" lon="9.17796">
        <ele>1706.48</ele>
        <time>2015-09-14T12:22:01Z</time>
      </trkpt>
      <trkpt lat="41.84954" lon="9.17796">
        <ele>1706.96</ele>
        <time>2015-09-14T12:22:06Z</time>
      </trkpt>
      <trkpt lat="41.84945" lon="9.17796">
        <ele>1706.48</ele>
        <time>2015-09-14T12:22:17Z</time>
      </trkpt>
      <trkpt lat="41.8493" lon="9.17798">
        <ele>1707.44</ele>
        <time>2015-09-14T12:22:35Z</time>
      </trkpt>
      <trkpt lat="41.84926" lon="9.17799">
        <ele>1708.4</ele>
        <time>2015-09-14T12:22:40Z</time>
      </trkpt>
      <trkpt lat="41.84916" lon="9.17803">
        <ele>1707.92</ele>
        <time>2015-09-14T12:22:51Z</time>
      </trkpt>
      <trkpt lat="41.84912" lon="9.17804">
        <ele>1707.44</ele>
        <time>2015-09-14T12:22:56Z</time>
      </trkpt>
      <trkpt lat="41.84896" lon="9.17802">
        <ele>1708.4</ele>
        <time>2015-09-14T12:23:14Z</time>
      </trkpt>
      <trkpt lat="41.84891" lon="9.178">
        <ele>1708.4</ele>
        <time>2015-09-14T12:23:22Z</time>
      </trkpt>
      <trkpt lat="41.84886" lon="9.17799">
        <ele>1710.32</ele>
        <time>2015-09-14T12:23:29Z</time>
      </trkpt>
      <trkpt lat="41.84873" lon="9.17799">
        <ele>1710.8</ele>
        <time>2015-09-14T12:23:46Z</time>
      </trkpt>
      <trkpt lat="41.84863" lon="9.17797">
        <ele>1712.73</ele>
        <time>2015-09-14T12:23:58Z</time>
      </trkpt>
      <trkpt lat="41.84857" lon="9.17797">
        <ele>1713.21</ele>
        <time>2015-09-14T12:24:05Z</time>
      </trkpt>
      <trkpt lat="41.84845" lon="9.17799">
        <ele>1712.73</ele>
        <time>2015-09-14T12:24:21Z</time>
      </trkpt>
      <trkpt lat="41.84836" lon="9.17799">
        <ele>1711.76</ele>
        <time>2015-09-14T12:24:32Z</time>
      </trkpt>
      <trkpt lat="41.84833" lon="9.17798">
        <ele>1713.69</ele>
        <time>2015-09-14T12:24:36Z</time>
      </trkpt>
      <trkpt lat="41.84827" lon="9.17794">
        <ele>1713.69</ele>
        <time>2015-09-14T12:24:44Z</time>
      </trkpt>
      <trkpt lat="41.84815" lon="9.1779">
        <ele>1716.09</ele>
        <time>2015-09-14T12:25:01Z</time>
      </trkpt>
      <trkpt lat="41.84803" lon="9.17784">
        <ele>1714.65</ele>
        <time>2015-09-14T12:25:18Z</time>
      </trkpt>
      <trkpt lat="41.84802" lon="9.17784">
        <ele>1715.61</ele>
        <time>2015-09-14T12:25:19Z</time>
      </trkpt>
      <trkpt lat="41.84796" lon="9.1778">
        <ele>1718.49</ele>
        <time>2015-09-14T12:25:25Z</time>
      </trkpt>
      <trkpt lat="41.84781" lon="9.17777">
        <ele>1718.49</ele>
        <time>2015-09-14T12:25:42Z</time>
      </trkpt>
      <trkpt lat="41.84774" lon="9.17775">
        <ele>1718.97</ele>
        <time>2015-09-14T12:25:51Z</time>
      </trkpt>
      <trkpt lat="41.84769" lon="9.17775">
        <ele>1717.53</ele>
        <time>2015-09-14T12:25:56Z</time>
      </trkpt>
      <trkpt lat="41.8476" lon="9.17773">
        <ele>1718.97</ele>
        <time>2015-09-14T12:26:08Z</time>
      </trkpt>
      <trkpt lat="41.84755" lon="9.17771">
        <ele>1719.94</ele>
        <time>2015-09-14T12:26:15Z</time>
      </trkpt>
      <trkpt lat="41.84743" lon="9.17767">
        <ele>1721.38</ele>
        <time>2015-09-14T12:26:30Z</time>
      </trkpt>
      <trkpt lat="41.84741" lon="9.17766">
        <ele>1719.46</ele>
        <time>2015-09-14T12:26:33Z</time>
      </trkpt>
      <trkpt lat="41.8474" lon="9.17765">
        <ele>1719.46</ele>
        <time>2015-09-14T12:26:34Z</time>
      </trkpt>
      <trkpt lat="41.84731" lon="9.1776">
        <ele>1721.38</ele>
        <time>2015-09-14T12:26:46Z</time>
      </trkpt>
      <trkpt lat="41.84723" lon="9.17755">
        <ele>1717.05</ele>
        <time>2015-09-14T12:26:56Z</time>
      </trkpt>
      <trkpt lat="41.84722" lon="9.17754">
        <ele>1717.53</ele>
        <time>2015-09-14T12:26:57Z</time>
      </trkpt>
      <trkpt lat="41.8472" lon="9.17753">
        <ele>1722.82</ele>
        <time>2015-09-14T12:27:00Z</time>
      </trkpt>
      <trkpt lat="41.84719" lon="9.17753">
        <ele>1722.82</ele>
        <time>2015-09-14T12:27:01Z</time>
      </trkpt>
      <trkpt lat="41.84718" lon="9.17752">
        <ele>1719.46</ele>
        <time>2015-09-14T12:27:02Z</time>
      </trkpt>
      <trkpt lat="41.8471" lon="9.17745">
        <ele>1720.9</ele>
        <time>2015-09-14T12:27:13Z</time>
      </trkpt>
      <trkpt lat="41.84706" lon="9.17744">
        <ele>1723.3</ele>
        <time>2015-09-14T12:27:17Z</time>
      </trkpt>
      <trkpt lat="41.84692" lon="9.17742">
        <ele>1722.34</ele>
        <time>2015-09-14T12:27:32Z</time>
      </trkpt>
      <trkpt lat="41.84692" lon="9.17742">
        <ele>1722.34</ele>
        <time>2015-09-14T12:27:33Z</time>
      </trkpt>
      <trkpt lat="41.84685" lon="9.17743">
        <ele>1723.78</ele>
        <time>2015-09-14T12:27:41Z</time>
      </trkpt>
      <trkpt lat="41.84683" lon="9.17743">
        <ele>1721.86</ele>
        <time>2015-09-14T12:27:43Z</time>
      </trkpt>
      <trkpt lat="41.84677" lon="9.17741">
        <ele>1720.9</ele>
        <time>2015-09-14T12:27:51Z</time>
      </trkpt>
      <trkpt lat="41.84675" lon="9.1774">
        <ele>1720.9</ele>
        <time>2015-09-14T12:27:53Z</time>
      </trkpt>
      <trkpt lat="41.84672" lon="9.17738">
        <ele>1719.46</ele>
        <time>2015-09-14T12:27:57Z</time>
      </trkpt>
      <trkpt lat="41.8467" lon="9.17737">
        <ele>1721.38</ele>
        <time>2015-09-14T12:27:59Z</time>
      </trkpt>
      <trkpt lat="41.84655" lon="9.17731">
        <ele>1722.82</ele>
        <time>2015-09-14T12:28:18Z</time>
      </trkpt>
      <trkpt lat="41.84649" lon="9.17727">
        <ele>1720.42</ele>
        <time>2015-09-14T12:28:25Z</time>
      </trkpt>
      <trkpt lat="41.84646" lon="9.17726">
        <ele>1721.86</ele>
        <time>2015-09-14T12:28:28Z</time>
      </trkpt>
      <trkpt lat="41.84634" lon="9.17722">
        <ele>1722.82</ele>
        <time>2015-09-14T12:28:41Z</time>
      </trkpt>
      <trkpt lat="41.8462" lon="9.17725">
        <ele>1719.94</ele>
        <time>2015-09-14T12:28:54Z</time>
      </trkpt>
      <trkpt lat="41.84604" lon="9.17718">
        <ele>1719.94</ele>
        <time>2015-09-14T12:29:11Z</time>
      </trkpt>
      <trkpt lat="41.84598" lon="9.17715">
        <ele>1721.38</ele>
        <time>2015-09-14T12:29:18Z</time>
      </trkpt>
      <trkpt lat="41.84589" lon="9.17711">
        <ele>1719.94</ele>
        <time>2015-09-14T12:29:29Z</time>
      </trkpt>
      <trkpt lat="41.84585" lon="9.17709">
        <ele>1720.9</ele>
        <time>2015-09-14T12:29:34Z</time>
      </trkpt>
      <trkpt lat="41.84578" lon="9.17706">
        <ele>1721.38</ele>
        <time>2015-09-14T12:29:41Z</time>
      </trkpt>
      <trkpt lat="41.84564" lon="9.17704">
        <ele>1720.9</ele>
        <time>2015-09-14T12:29:57Z</time>
      </trkpt>
      <trkpt lat="41.84561" lon="9.17704">
        <ele>1719.46</ele>
        <time>2015-09-14T12:30:00Z</time>
      </trkpt>
      <trkpt lat="41.84559" lon="9.17704">
        <ele>1718.97</ele>
        <time>2015-09-14T12:30:03Z</time>
      </trkpt>
      <trkpt lat="41.84556" lon="9.17703">
        <ele>1718.97</ele>
        <time>2015-09-14T12:30:06Z</time>
      </trkpt>
      <trkpt lat="41.84551" lon="9.17702">
        <ele>1718.97</ele>
        <time>2015-09-14T12:30:11Z</time>
      </trkpt>
      <trkpt lat="41.84547" lon="9.17702">
        <ele>1719.94</ele>
        <time>2015-09-14T12:30:16Z</time>
      </trkpt>
      <trkpt lat="41.84542" lon="9.17703">
        <ele>1718.97</ele>
        <time>2015-09-14T12:30:21Z</time>
      </trkpt>
      <trkpt lat="41.84523" lon="9.17705">
        <ele>1720.42</ele>
        <time>2015-09-14T12:30:40Z</time>
      </trkpt>
      <trkpt lat="41.84515" lon="9.17704">
        <ele>1721.38</ele>
        <time>2015-09-14T12:30:49Z</time>
      </trkpt>
      <trkpt lat="41.84512" lon="9.17704">
        <ele>1719.94</ele>
        <time>2015-09-14T12:30:52Z</time>
      </trkpt>
      <trkpt lat="41.84509" lon="9.17703">
        <ele>1719.94</ele>
        <time>2015-09-14T12:30:56Z</time>
      </trkpt>
      <trkpt lat="41.84504" lon="9.17702">
        <ele>1721.38</ele>
        <time>2015-09-14T12:31:02Z</time>
      </trkpt>
      <trkpt lat="41.84503" lon="9.17701">
        <ele>1719.46</ele>
        <time>2015-09-14T12:31:04Z</time>
      </trkpt>
      <trkpt lat="41.845" lon="9.177">
        <ele>1721.38</ele>
        <time>2015-09-14T12:31:07Z</time>
      </trkpt>
      <trkpt lat="41.84489" lon="9.17698">
        <ele>1724.26</ele>
        <time>2015-09-14T12:31:22Z</time>
      </trkpt>
      <trkpt lat="41.84487" lon="9.17699">
        <ele>1724.26</ele>
        <time>2015-09-14T12:31:25Z</time>
      </trkpt>
      <trkpt lat="41.84483" lon="9.17698">
        <ele>1722.34</ele>
        <time>2015-09-14T12:31:29Z</time>
      </trkpt>
      <trkpt lat="41.8448" lon="9.17699">
        <ele>1724.26</ele>
        <time>2015-09-14T12:31:32Z</time>
      </trkpt>
      <trkpt lat="41.84476" lon="9.177">
        <ele>1722.34</ele>
        <time>2015-09-14T12:31:37Z</time>
      </trkpt>
      <trkpt lat="41.84475" lon="9.177">
        <ele>1721.38</ele>
        <time>2015-09-14T12:31:38Z</time>
      </trkpt>
      <trkpt lat="41.84463" lon="9.17696">
        <ele>1723.3</ele>
        <time>2015-09-14T12:31:51Z</time>
      </trkpt>
      <trkpt lat="41.84452" lon="9.177">
        <ele>1722.82</ele>
        <time>2015-09-14T12:32:04Z</time>
      </trkpt>
      <trkpt lat="41.84448" lon="9.17701">
        <ele>1724.74</ele>
        <time>2015-09-14T12:32:08Z</time>
      </trkpt>
      <trkpt lat="41.8444" lon="9.17706">
        <ele>1723.78</ele>
        <time>2015-09-14T12:32:18Z</time>
      </trkpt>
      <trkpt lat="41.84431" lon="9.17705">
        <ele>1724.74</ele>
        <time>2015-09-14T12:32:30Z</time>
      </trkpt>
      <trkpt lat="41.84425" lon="9.17707">
        <ele>1727.63</ele>
        <time>2015-09-14T12:32:38Z</time>
      </trkpt>
      <trkpt lat="41.84423" lon="9.17708">
        <ele>1728.59</ele>
        <time>2015-09-14T12:32:40Z</time>
      </trkpt>
      <trkpt lat="41.84421" lon="9.17709">
        <ele>1726.67</ele>
        <time>2015-09-14T12:32:42Z</time>
      </trkpt>
      <trkpt lat="41.84405" lon="9.1771">
        <ele>1729.07</ele>
        <time>2015-09-14T12:33:03Z</time>
      </trkpt>
      <trkpt lat="41.84401" lon="9.1771">
        <ele>1727.15</ele>
        <time>2015-09-14T12:33:07Z</time>
      </trkpt>
      <trkpt lat="41.84392" lon="9.17707">
        <ele>1727.63</ele>
        <time>2015-09-14T12:33:20Z</time>
      </trkpt>
      <trkpt lat="41.84387" lon="9.17706">
        <ele>1730.99</ele>
        <time>2015-09-14T12:33:27Z</time>
      </trkpt>
      <trkpt lat="41.84386" lon="9.17707">
        <ele>1730.99</ele>
        <time>2015-09-14T12:33:28Z</time>
      </trkpt>
      <trkpt lat="41.84378" lon="9.17709">
        <ele>1732.43</ele>
        <time>2015-09-14T12:33:40Z</time>
      </trkpt>
      <trkpt lat="41.84375" lon="9.17711">
        <ele>1732.43</ele>
        <time>2015-09-14T12:33:45Z</time>
      </trkpt>
      <trkpt lat="41.84373" lon="9.17712">
        <ele>1733.88</ele>
        <time>2015-09-14T12:33:48Z</time>
      </trkpt>
      <trkpt lat="41.84371" lon="9.17713">
        <ele>1732.91</ele>
        <time>2015-09-14T12:33:50Z</time>
      </trkpt>
      <trkpt lat="41.84369" lon="9.17714">
        <ele>1730.99</ele>
        <time>2015-09-14T12:33:53Z</time>
      </trkpt>
      <trkpt lat="41.84367" lon="9.17713">
        <ele>1733.88</ele>
        <time>2015-09-14T12:33:57Z</time>
      </trkpt>
      <trkpt lat="41.8436" lon="9.17713">
        <ele>1733.39</ele>
        <time>2015-09-14T12:34:06Z</time>
      </trkpt>
      <trkpt lat="41.84356" lon="9.17713">
        <ele>1732.43</ele>
        <time>2015-09-14T12:34:13Z</time>
      </trkpt>
      <trkpt lat="41.84351" lon="9.17712">
        <ele>1734.36</ele>
        <time>2015-09-14T12:34:20Z</time>
      </trkpt>
      <trkpt lat="41.84343" lon="9.1771">
        <ele>1738.2</ele>
        <time>2015-09-14T12:34:33Z</time>
      </trkpt>
      <trkpt lat="41.84341" lon="9.17709">
        <ele>1734.84</ele>
        <time>2015-09-14T12:34:36Z</time>
      </trkpt>
      <trkpt lat="41.8434" lon="9.17709">
        <ele>1734.84</ele>
        <time>2015-09-14T12:34:37Z</time>
      </trkpt>
      <trkpt lat="41.84338" lon="9.17709">
        <ele>1736.76</ele>
        <time>2015-09-14T12:34:39Z</time>
      </trkpt>
      <trkpt lat="41.84334" lon="9.17707">
        <ele>1736.28</ele>
        <time>2015-09-14T12:34:46Z</time>
      </trkpt>
      <trkpt lat="41.84332" lon="9.17707">
        <ele>1738.68</ele>
        <time>2015-09-14T12:34:49Z</time>
      </trkpt>
      <trkpt lat="41.84327" lon="9.17709">
        <ele>1739.16</ele>
        <time>2015-09-14T12:34:56Z</time>
      </trkpt>
      <trkpt lat="41.84323" lon="9.1771">
        <ele>1740.6</ele>
        <time>2015-09-14T12:35:02Z</time>
      </trkpt>
      <trkpt lat="41.84321" lon="9.1771">
        <ele>1738.68</ele>
        <time>2015-09-14T12:35:04Z</time>
      </trkpt>
      <trkpt lat="41.84313" lon="9.17716">
        <ele>1738.68</ele>
        <time>2015-09-14T12:35:15Z</time>
      </trkpt>
      <trkpt lat="41.843" lon="9.17723">
        <ele>1737.72</ele>
        <time>2015-09-14T12:35:32Z</time>
      </trkpt>
      <trkpt lat="41.84289" lon="9.17735">
        <ele>1738.2</ele>
        <time>2015-09-14T12:35:51Z</time>
      </trkpt>
      <trkpt lat="41.84276" lon="9.17749">
        <ele>1739.16</ele>
        <time>2015-09-14T12:36:10Z</time>
      </trkpt>
      <trkpt lat="41.84264" lon="9.17755">
        <ele>1739.64</ele>
        <time>2015-09-14T12:36:27Z</time>
      </trkpt>
      <trkpt lat="41.84253" lon="9.17759">
        <ele>1740.6</ele>
        <time>2015-09-14T12:36:44Z</time>
      </trkpt>
      <trkpt lat="41.84249" lon="9.17762">
        <ele>1739.16</ele>
        <time>2015-09-14T12:36:53Z</time>
      </trkpt>
      <trkpt lat="41.84235" lon="9.17772">
        <ele>1738.68</ele>
        <time>2015-09-14T12:37:12Z</time>
      </trkpt>
      <trkpt lat="41.84219" lon="9.17783">
        <ele>1738.2</ele>
        <time>2015-09-14T12:37:33Z</time>
      </trkpt>
      <trkpt lat="41.84206" lon="9.17792">
        <ele>1738.68</ele>
        <time>2015-09-14T12:37:48Z</time>
      </trkpt>
      <trkpt lat="41.84195" lon="9.17795">
        <ele>1737.72</ele>
        <time>2015-09-14T12:38:01Z</time>
      </trkpt>
      <trkpt lat="41.84192" lon="9.17796">
        <ele>1740.6</ele>
        <time>2015-09-14T12:38:04Z</time>
      </trkpt>
      <trkpt lat="41.84189" lon="9.17796">
        <ele>1740.6</ele>
        <time>2015-09-14T12:38:07Z</time>
      </trkpt>
      <trkpt lat="41.84183" lon="9.17797">
        <ele>1738.2</ele>
        <time>2015-09-14T12:38:13Z</time>
      </trkpt>
      <trkpt lat="41.84182" lon="9.17797">
        <ele>1742.05</ele>
        <time>2015-09-14T12:38:14Z</time>
      </trkpt>
      <trkpt lat="41.84175" lon="9.17792">
        <ele>1742.53</ele>
        <time>2015-09-14T12:38:22Z</time>
      </trkpt>
      <trkpt lat="41.84164" lon="9.17786">
        <ele>1743.49</ele>
        <time>2015-09-14T12:38:37Z</time>
      </trkpt>
      <trkpt lat="41.84154" lon="9.17783">
        <ele>1741.08</ele>
        <time>2015-09-14T12:38:50Z</time>
      </trkpt>
      <trkpt lat="41.8415" lon="9.17783">
        <ele>1742.53</ele>
        <time>2015-09-14T12:38:56Z</time>
      </trkpt>
      <trkpt lat="41.84146" lon="9.1779">
        <ele>1745.89</ele>
        <time>2015-09-14T12:39:06Z</time>
      </trkpt>
      <trkpt lat="41.84138" lon="9.17802">
        <ele>1746.37</ele>
        <time>2015-09-14T12:39:24Z</time>
      </trkpt>
      <trkpt lat="41.84136" lon="9.17816">
        <ele>1747.81</ele>
        <time>2015-09-14T12:39:41Z</time>
      </trkpt>
      <trkpt lat="41.84134" lon="9.17829">
        <ele>1748.29</ele>
        <time>2015-09-14T12:39:57Z</time>
      </trkpt>
      <trkpt lat="41.84134" lon="9.17847">
        <ele>1749.74</ele>
        <time>2015-09-14T12:40:14Z</time>
      </trkpt>
      <trkpt lat="41.84136" lon="9.17862">
        <ele>1752.14</ele>
        <time>2015-09-14T12:40:32Z</time>
      </trkpt>
      <trkpt lat="41.84137" lon="9.17877">
        <ele>1753.1</ele>
        <time>2015-09-14T12:40:46Z</time>
      </trkpt>
      <trkpt lat="41.84136" lon="9.17893">
        <ele>1755.5</ele>
        <time>2015-09-14T12:41:04Z</time>
      </trkpt>
      <trkpt lat="41.84137" lon="9.17895">
        <ele>1755.99</ele>
        <time>2015-09-14T12:41:06Z</time>
      </trkpt>
      <trkpt lat="41.84138" lon="9.17899">
        <ele>1754.54</ele>
        <time>2015-09-14T12:41:09Z</time>
      </trkpt>
      <trkpt lat="41.84139" lon="9.17901">
        <ele>1754.54</ele>
        <time>2015-09-14T12:41:11Z</time>
      </trkpt>
      <trkpt lat="41.8414" lon="9.17914">
        <ele>1755.99</ele>
        <time>2015-09-14T12:41:22Z</time>
      </trkpt>
      <trkpt lat="41.8414" lon="9.1794">
        <ele>1754.54</ele>
        <time>2015-09-14T12:41:43Z</time>
      </trkpt>
      <trkpt lat="41.84135" lon="9.17957">
        <ele>1753.58</ele>
        <time>2015-09-14T12:42:00Z</time>
      </trkpt>
      <trkpt lat="41.8413" lon="9.17977">
        <ele>1751.66</ele>
        <time>2015-09-14T12:42:22Z</time>
      </trkpt>
      <trkpt lat="41.84129" lon="9.17982">
        <ele>1750.7</ele>
        <time>2015-09-14T12:42:26Z</time>
      </trkpt>
      <trkpt lat="41.84118" lon="9.18007">
        <ele>1751.18</ele>
        <time>2015-09-14T12:42:46Z</time>
      </trkpt>
      <trkpt lat="41.84118" lon="9.18009">
        <ele>1752.62</ele>
        <time>2015-09-14T12:42:48Z</time>
      </trkpt>
      <trkpt lat="41.8412" lon="9.18028">
        <ele>1753.58</ele>
        <time>2015-09-14T12:43:06Z</time>
      </trkpt>
      <trkpt lat="41.84123" lon="9.18046">
        <ele>1755.99</ele>
        <time>2015-09-14T12:43:25Z</time>
      </trkpt>
      <trkpt lat="41.84126" lon="9.18055">
        <ele>1758.87</ele>
        <time>2015-09-14T12:43:35Z</time>
      </trkpt>
      <trkpt lat="41.84128" lon="9.1807">
        <ele>1761.27</ele>
        <time>2015-09-14T12:43:51Z</time>
      </trkpt>
      <trkpt lat="41.84128" lon="9.18072">
        <ele>1762.71</ele>
        <time>2015-09-14T12:43:53Z</time>
      </trkpt>
      <trkpt lat="41.84128" lon="9.18077">
        <ele>1764.16</ele>
        <time>2015-09-14T12:44:00Z</time>
      </trkpt>
      <trkpt lat="41.84129" lon="9.18097">
        <ele>1760.79</ele>
        <time>2015-09-14T12:44:18Z</time>
      </trkpt>
      <trkpt lat="41.84124" lon="9.18106">
        <ele>1757.43</ele>
        <time>2015-09-14T12:44:31Z</time>
      </trkpt>
      <trkpt lat="41.84115" lon="9.18117">
        <ele>1755.02</ele>
        <time>2015-09-14T12:44:50Z</time>
      </trkpt>
      <trkpt lat="41.84105" lon="9.18129">
        <ele>1752.62</ele>
        <time>2015-09-14T12:45:09Z</time>
      </trkpt>
      <trkpt lat="41.84094" lon="9.18139">
        <ele>1751.66</ele>
        <time>2015-09-14T12:45:26Z</time>
      </trkpt>
      <trkpt lat="41.84087" lon="9.18148">
        <ele>1749.74</ele>
        <time>2015-09-14T12:45:45Z</time>
      </trkpt>
      <trkpt lat="41.84083" lon="9.18162">
        <ele>1747.81</ele>
        <time>2015-09-14T12:46:01Z</time>
      </trkpt>
      <trkpt lat="41.84077" lon="9.1818">
        <ele>1745.89</ele>
        <time>2015-09-14T12:46:19Z</time>
      </trkpt>
      <trkpt lat="41.84068" lon="9.18194">
        <ele>1745.41</ele>
        <time>2015-09-14T12:46:37Z</time>
      </trkpt>
      <trkpt lat="41.84061" lon="9.18209">
        <ele>1744.93</ele>
        <time>2015-09-14T12:46:54Z</time>
      </trkpt>
      <trkpt lat="41.84061" lon="9.18219">
        <ele>1743.49</ele>
        <time>2015-09-14T12:47:06Z</time>
      </trkpt>
      <trkpt lat="41.84059" lon="9.18238">
        <ele>1740.12</ele>
        <time>2015-09-14T12:47:24Z</time>
      </trkpt>
      <trkpt lat="41.84052" lon="9.18251">
        <ele>1739.16</ele>
        <time>2015-09-14T12:47:39Z</time>
      </trkpt>
      <trkpt lat="41.84038" lon="9.18265">
        <ele>1739.16</ele>
        <time>2015-09-14T12:48:00Z</time>
      </trkpt>
      <trkpt lat="41.84027" lon="9.18285">
        <ele>1738.68</ele>
        <time>2015-09-14T12:48:19Z</time>
      </trkpt>
      <trkpt lat="41.84026" lon="9.1829">
        <ele>1738.68</ele>
        <time>2015-09-14T12:48:23Z</time>
      </trkpt>
      <trkpt lat="41.8402" lon="9.18314">
        <ele>1740.6</ele>
        <time>2015-09-14T12:48:42Z</time>
      </trkpt>
      <trkpt lat="41.84017" lon="9.18326">
        <ele>1741.57</ele>
        <time>2015-09-14T12:48:56Z</time>
      </trkpt>
      <trkpt lat="41.84016" lon="9.18338">
        <ele>1743.01</ele>
        <time>2015-09-14T12:49:12Z</time>
      </trkpt>
      <trkpt lat="41.84016" lon="9.18358">
        <ele>1743.49</ele>
        <time>2015-09-14T12:49:32Z</time>
      </trkpt>
      <trkpt lat="41.84018" lon="9.18375">
        <ele>1745.89</ele>
        <time>2015-09-14T12:49:46Z</time>
      </trkpt>
      <trkpt lat="41.84029" lon="9.18399">
        <ele>1746.37</ele>
        <time>2015-09-14T12:50:07Z</time>
      </trkpt>
      <trkpt lat="41.84038" lon="9.18419">
        <ele>1746.37</ele>
        <time>2015-09-14T12:50:26Z</time>
      </trkpt>
      <trkpt lat="41.84039" lon="9.18423">
        <ele>1746.37</ele>
        <time>2015-09-14T12:50:30Z</time>
      </trkpt>
      <trkpt lat="41.84048" lon="9.18439">
        <ele>1746.37</ele>
        <time>2015-09-14T12:50:47Z</time>
      </trkpt>
      <trkpt lat="41.84049" lon="9.18456">
        <ele>1748.78</ele>
        <time>2015-09-14T12:51:04Z</time>
      </trkpt>
      <trkpt lat="41.8405" lon="9.18471">
        <ele>1749.74</ele>
        <time>2015-09-14T12:51:20Z</time>
      </trkpt>
      <trkpt lat="41.84051" lon="9.18475">
        <ele>1750.7</ele>
        <time>2015-09-14T12:51:24Z</time>
      </trkpt>
      <trkpt lat="41.84052" lon="9.1848">
        <ele>1750.7</ele>
        <time>2015-09-14T12:51:28Z</time>
      </trkpt>
      <trkpt lat="41.84057" lon="9.18495">
        <ele>1749.74</ele>
        <time>2015-09-14T12:51:41Z</time>
      </trkpt>
      <trkpt lat="41.84059" lon="9.18516">
        <ele>1748.29</ele>
        <time>2015-09-14T12:52:01Z</time>
      </trkpt>
      <trkpt lat="41.84065" lon="9.18537">
        <ele>1746.85</ele>
        <time>2015-09-14T12:52:23Z</time>
      </trkpt>
      <trkpt lat="41.84067" lon="9.18555">
        <ele>1744.93</ele>
        <time>2015-09-14T12:52:42Z</time>
      </trkpt>
      <trkpt lat="41.84071" lon="9.18572">
        <ele>1743.97</ele>
        <time>2015-09-14T12:52:59Z</time>
      </trkpt>
      <trkpt lat="41.8407" lon="9.18588">
        <ele>1744.45</ele>
        <time>2015-09-14T12:53:17Z</time>
      </trkpt>
      <trkpt lat="41.84065" lon="9.18594">
        <ele>1745.89</ele>
        <time>2015-09-14T12:53:32Z</time>
      </trkpt>
      <trkpt lat="41.84068" lon="9.18606">
        <ele>1745.41</ele>
        <time>2015-09-14T12:53:48Z</time>
      </trkpt>
      <trkpt lat="41.84074" lon="9.18629">
        <ele>1745.89</ele>
        <time>2015-09-14T12:54:10Z</time>
      </trkpt>
      <trkpt lat="41.84077" lon="9.18649">
        <ele>1743.97</ele>
        <time>2015-09-14T12:54:29Z</time>
      </trkpt>
      <trkpt lat="41.84079" lon="9.18666">
        <ele>1743.49</ele>
        <time>2015-09-14T12:54:44Z</time>
      </trkpt>
      <trkpt lat="41.84082" lon="9.18686">
        <ele>1743.49</ele>
        <time>2015-09-14T12:55:02Z</time>
      </trkpt>
      <trkpt lat="41.84086" lon="9.18701">
        <ele>1743.97</ele>
        <time>2015-09-14T12:55:22Z</time>
      </trkpt>
      <trkpt lat="41.8409" lon="9.18713">
        <ele>1743.97</ele>
        <time>2015-09-14T12:55:39Z</time>
      </trkpt>
      <trkpt lat="41.84096" lon="9.18722">
        <ele>1745.89</ele>
        <time>2015-09-14T12:55:54Z</time>
      </trkpt>
      <trkpt lat="41.84105" lon="9.18736">
        <ele>1746.85</ele>
        <time>2015-09-14T12:56:15Z</time>
      </trkpt>
      <trkpt lat="41.84114" lon="9.18747">
        <ele>1748.29</ele>
        <time>2015-09-14T12:56:34Z</time>
      </trkpt>
      <trkpt lat="41.84123" lon="9.18762">
        <ele>1749.26</ele>
        <time>2015-09-14T12:56:56Z</time>
      </trkpt>
      <trkpt lat="41.8413" lon="9.18773">
        <ele>1750.7</ele>
        <time>2015-09-14T12:57:14Z</time>
      </trkpt>
      <trkpt lat="41.84137" lon="9.18784">
        <ele>1753.1</ele>
        <time>2015-09-14T12:57:32Z</time>
      </trkpt>
      <trkpt lat="41.84144" lon="9.18794">
        <ele>1753.1</ele>
        <time>2015-09-14T12:57:48Z</time>
      </trkpt>
      <trkpt lat="41.84146" lon="9.18797">
        <ele>1754.54</ele>
        <time>2015-09-14T12:57:52Z</time>
      </trkpt>
      <trkpt lat="41.84155" lon="9.18808">
        <ele>1754.54</ele>
        <time>2015-09-14T12:58:11Z</time>
      </trkpt>
      <trkpt lat="41.84161" lon="9.18818">
        <ele>1754.54</ele>
        <time>2015-09-14T12:58:28Z</time>
      </trkpt>
      <trkpt lat="41.84166" lon="9.18834">
        <ele>1755.99</ele>
        <time>2015-09-14T12:58:47Z</time>
      </trkpt>
      <trkpt lat="41.8417" lon="9.18848">
        <ele>1758.39</ele>
        <time>2015-09-14T12:59:05Z</time>
      </trkpt>
      <trkpt lat="41.84169" lon="9.18857">
        <ele>1760.31</ele>
        <time>2015-09-14T12:59:21Z</time>
      </trkpt>
      <trkpt lat="41.84164" lon="9.18865">
        <ele>1761.75</ele>
        <time>2015-09-14T12:59:37Z</time>
      </trkpt>
      <trkpt lat="41.84161" lon="9.18876">
        <ele>1764.16</ele>
        <time>2015-09-14T12:59:55Z</time>
      </trkpt>
      <trkpt lat="41.8416" lon="9.18888">
        <ele>1765.6</ele>
        <time>2015-09-14T13:00:13Z</time>
      </trkpt>
      <trkpt lat="41.84156" lon="9.18897">
        <ele>1767.52</ele>
        <time>2015-09-14T13:00:32Z</time>
      </trkpt>
      <trkpt lat="41.84154" lon="9.18906">
        <ele>1770.41</ele>
        <time>2015-09-14T13:00:52Z</time>
      </trkpt>
      <trkpt lat="41.8415" lon="9.18911">
        <ele>1771.85</ele>
        <time>2015-09-14T13:01:11Z</time>
      </trkpt>
      <trkpt lat="41.8415" lon="9.18918">
        <ele>1774.73</ele>
        <time>2015-09-14T13:01:26Z</time>
      </trkpt>
      <trkpt lat="41.84148" lon="9.18929">
        <ele>1775.69</ele>
        <time>2015-09-14T13:01:43Z</time>
      </trkpt>
      <trkpt lat="41.84147" lon="9.18939">
        <ele>1776.65</ele>
        <time>2015-09-14T13:02:01Z</time>
      </trkpt>
      <trkpt lat="41.84144" lon="9.18948">
        <ele>1778.58</ele>
        <time>2015-09-14T13:02:18Z</time>
      </trkpt>
      <trkpt lat="41.84139" lon="9.18953">
        <ele>1780.98</ele>
        <time>2015-09-14T13:02:36Z</time>
      </trkpt>
      <trkpt lat="41.84135" lon="9.18958">
        <ele>1783.38</ele>
        <time>2015-09-14T13:02:54Z</time>
      </trkpt>
      <trkpt lat="41.84127" lon="9.1896">
        <ele>1784.82</ele>
        <time>2015-09-14T13:03:15Z</time>
      </trkpt>
      <trkpt lat="41.8412" lon="9.18961">
        <ele>1787.71</ele>
        <time>2015-09-14T13:03:32Z</time>
      </trkpt>
      <trkpt lat="41.84118" lon="9.18967">
        <ele>1790.11</ele>
        <time>2015-09-14T13:03:50Z</time>
      </trkpt>
      <trkpt lat="41.84119" lon="9.18977">
        <ele>1792.03</ele>
        <time>2015-09-14T13:04:08Z</time>
      </trkpt>
      <trkpt lat="41.84118" lon="9.18981">
        <ele>1794.92</ele>
        <time>2015-09-14T13:04:25Z</time>
      </trkpt>
      <trkpt lat="41.84111" lon="9.18982">
        <ele>1796.84</ele>
        <time>2015-09-14T13:04:44Z</time>
      </trkpt>
      <trkpt lat="41.84111" lon="9.18988">
        <ele>1799.73</ele>
        <time>2015-09-14T13:04:56Z</time>
      </trkpt>
      <trkpt lat="41.84109" lon="9.18998">
        <ele>1800.69</ele>
        <time>2015-09-14T13:05:15Z</time>
      </trkpt>
      <trkpt lat="41.84107" lon="9.19005">
        <ele>1803.09</ele>
        <time>2015-09-14T13:05:33Z</time>
      </trkpt>
      <trkpt lat="41.8411" lon="9.19015">
        <ele>1803.57</ele>
        <time>2015-09-14T13:05:50Z</time>
      </trkpt>
      <trkpt lat="41.84114" lon="9.19026">
        <ele>1803.57</ele>
        <time>2015-09-14T13:06:10Z</time>
      </trkpt>
      <trkpt lat="41.84114" lon="9.19026">
        <ele>1803.57</ele>
        <time>2015-09-14T13:06:11Z</time>
      </trkpt>
      <trkpt lat="41.84114" lon="9.19033">
        <ele>1805.97</ele>
        <time>2015-09-14T13:06:32Z</time>
      </trkpt>
      <trkpt lat="41.84115" lon="9.1904">
        <ele>1807.42</ele>
        <time>2015-09-14T13:06:50Z</time>
      </trkpt>
      <trkpt lat="41.84113" lon="9.19046">
        <ele>1809.34</ele>
        <time>2015-09-14T13:07:06Z</time>
      </trkpt>
      <trkpt lat="41.84112" lon="9.19045">
        <ele>1810.3</ele>
        <time>2015-09-14T13:07:10Z</time>
      </trkpt>
      <trkpt lat="41.84111" lon="9.19049">
        <ele>1811.74</ele>
        <time>2015-09-14T13:07:29Z</time>
      </trkpt>
      <trkpt lat="41.8411" lon="9.19054">
        <ele>1813.66</ele>
        <time>2015-09-14T13:07:45Z</time>
      </trkpt>
      <trkpt lat="41.8411" lon="9.19058">
        <ele>1816.55</ele>
        <time>2015-09-14T13:08:00Z</time>
      </trkpt>
      <trkpt lat="41.84106" lon="9.19065">
        <ele>1817.51</ele>
        <time>2015-09-14T13:08:20Z</time>
      </trkpt>
      <trkpt lat="41.84107" lon="9.1907">
        <ele>1819.43</ele>
        <time>2015-09-14T13:08:35Z</time>
      </trkpt>
      <trkpt lat="41.84106" lon="9.19072">
        <ele>1821.84</ele>
        <time>2015-09-14T13:08:42Z</time>
      </trkpt>
      <trkpt lat="41.84104" lon="9.19077">
        <ele>1823.28</ele>
        <time>2015-09-14T13:09:00Z</time>
      </trkpt>
      <trkpt lat="41.841" lon="9.19082">
        <ele>1825.68</ele>
        <time>2015-09-14T13:09:19Z</time>
      </trkpt>
      <trkpt lat="41.84105" lon="9.19089">
        <ele>1826.64</ele>
        <time>2015-09-14T13:09:38Z</time>
      </trkpt>
      <trkpt lat="41.84111" lon="9.19099">
        <ele>1826.16</ele>
        <time>2015-09-14T13:09:56Z</time>
      </trkpt>
      <trkpt lat="41.84117" lon="9.19107">
        <ele>1824.24</ele>
        <time>2015-09-14T13:10:14Z</time>
      </trkpt>
      <trkpt lat="41.84119" lon="9.19121">
        <ele>1824.24</ele>
        <time>2015-09-14T13:10:32Z</time>
      </trkpt>
      <trkpt lat="41.8412" lon="9.19129">
        <ele>1824.72</ele>
        <time>2015-09-14T13:10:48Z</time>
      </trkpt>
      <trkpt lat="41.84127" lon="9.19131">
        <ele>1827.12</ele>
        <time>2015-09-14T13:11:06Z</time>
      </trkpt>
      <trkpt lat="41.84126" lon="9.19144">
        <ele>1829.05</ele>
        <time>2015-09-14T13:11:25Z</time>
      </trkpt>
      <trkpt lat="41.84131" lon="9.19151">
        <ele>1830.97</ele>
        <time>2015-09-14T13:11:40Z</time>
      </trkpt>
      <trkpt lat="41.8413" lon="9.19161">
        <ele>1833.85</ele>
        <time>2015-09-14T13:11:57Z</time>
      </trkpt>
      <trkpt lat="41.84137" lon="9.19169">
        <ele>1835.77</ele>
        <time>2015-09-14T13:12:17Z</time>
      </trkpt>
      <trkpt lat="41.84145" lon="9.19177">
        <ele>1839.14</ele>
        <time>2015-09-14T13:12:38Z</time>
      </trkpt>
      <trkpt lat="41.84151" lon="9.19185">
        <ele>1842.02</ele>
        <time>2015-09-14T13:12:58Z</time>
      </trkpt>
      <trkpt lat="41.84153" lon="9.19192">
        <ele>1844.43</ele>
        <time>2015-09-14T13:13:12Z</time>
      </trkpt>
      <trkpt lat="41.84159" lon="9.192">
        <ele>1845.39</ele>
        <time>2015-09-14T13:13:30Z</time>
      </trkpt>
      <trkpt lat="41.84165" lon="9.19211">
        <ele>1847.79</ele>
        <time>2015-09-14T13:13:47Z</time>
      </trkpt>
      <trkpt lat="41.84168" lon="9.19226">
        <ele>1848.27</ele>
        <time>2015-09-14T13:14:05Z</time>
      </trkpt>
      <trkpt lat="41.84173" lon="9.19238">
        <ele>1849.23</ele>
        <time>2015-09-14T13:14:20Z</time>
      </trkpt>
      <trkpt lat="41.84174" lon="9.19246">
        <ele>1849.71</ele>
        <time>2015-09-14T13:14:40Z</time>
      </trkpt>
      <trkpt lat="41.84176" lon="9.19247">
        <ele>1849.71</ele>
        <time>2015-09-14T13:15:03Z</time>
      </trkpt>
      <trkpt lat="41.84175" lon="9.19249">
        <ele>1851.16</ele>
        <time>2015-09-14T13:15:37Z</time>
      </trkpt>
      <trkpt lat="41.84175" lon="9.19248">
        <ele>1851.16</ele>
        <time>2015-09-14T13:16:08Z</time>
      </trkpt>
      <trkpt lat="41.84176" lon="9.19248">
        <ele>1851.16</ele>
        <time>2015-09-14T13:16:26Z</time>
      </trkpt>
      <trkpt lat="41.84174" lon="9.19251">
        <ele>1851.16</ele>
        <time>2015-09-14T13:17:06Z</time>
      </trkpt>
      <trkpt lat="41.84177" lon="9.19257">
        <ele>1853.08</ele>
        <time>2015-09-14T13:17:25Z</time>
      </trkpt>
      <trkpt lat="41.8418" lon="9.19269">
        <ele>1855.96</ele>
        <time>2015-09-14T13:17:42Z</time>
      </trkpt>
      <trkpt lat="41.84182" lon="9.19276">
        <ele>1855.96</ele>
        <time>2015-09-14T13:17:51Z</time>
      </trkpt>
      <trkpt lat="41.8419" lon="9.19292">
        <ele>1858.37</ele>
        <time>2015-09-14T13:18:10Z</time>
      </trkpt>
      <trkpt lat="41.84195" lon="9.19298">
        <ele>1858.37</ele>
        <time>2015-09-14T13:18:19Z</time>
      </trkpt>
      <trkpt lat="41.84204" lon="9.19315">
        <ele>1857.89</ele>
        <time>2015-09-14T13:18:40Z</time>
      </trkpt>
      <trkpt lat="41.84207" lon="9.19322">
        <ele>1858.85</ele>
        <time>2015-09-14T13:18:52Z</time>
      </trkpt>
      <trkpt lat="41.84215" lon="9.19326">
        <ele>1858.37</ele>
        <time>2015-09-14T13:19:04Z</time>
      </trkpt>
      <trkpt lat="41.84224" lon="9.19337">
        <ele>1858.37</ele>
        <time>2015-09-14T13:19:20Z</time>
      </trkpt>
      <trkpt lat="41.84228" lon="9.19344">
        <ele>1859.81</ele>
        <time>2015-09-14T13:19:34Z</time>
      </trkpt>
      <trkpt lat="41.84238" lon="9.19353">
        <ele>1862.69</ele>
        <time>2015-09-14T13:19:50Z</time>
      </trkpt>
      <trkpt lat="41.84248" lon="9.19363">
        <ele>1863.65</ele>
        <time>2015-09-14T13:20:08Z</time>
      </trkpt>
      <trkpt lat="41.84259" lon="9.19368">
        <ele>1864.13</ele>
        <time>2015-09-14T13:20:24Z</time>
      </trkpt>
      <trkpt lat="41.84273" lon="9.19381">
        <ele>1865.58</ele>
        <time>2015-09-14T13:20:50Z</time>
      </trkpt>
      <trkpt lat="41.84287" lon="9.19388">
        <ele>1866.54</ele>
        <time>2015-09-14T13:21:09Z</time>
      </trkpt>
      <trkpt lat="41.84303" lon="9.19393">
        <ele>1866.54</ele>
        <time>2015-09-14T13:21:28Z</time>
      </trkpt>
      <trkpt lat="41.84316" lon="9.194">
        <ele>1867.5</ele>
        <time>2015-09-14T13:21:44Z</time>
      </trkpt>
      <trkpt lat="41.8433" lon="9.19406">
        <ele>1869.42</ele>
        <time>2015-09-14T13:22:03Z</time>
      </trkpt>
      <trkpt lat="41.84341" lon="9.1942">
        <ele>1869.9</ele>
        <time>2015-09-14T13:22:22Z</time>
      </trkpt>
      <trkpt lat="41.84346" lon="9.1943">
        <ele>1871.82</ele>
        <time>2015-09-14T13:22:39Z</time>
      </trkpt>
      <trkpt lat="41.84354" lon="9.19442">
        <ele>1874.23</ele>
        <time>2015-09-14T13:23:00Z</time>
      </trkpt>
      <trkpt lat="41.84364" lon="9.19449">
        <ele>1876.63</ele>
        <time>2015-09-14T13:23:20Z</time>
      </trkpt>
      <trkpt lat="41.84366" lon="9.19454">
        <ele>1879.03</ele>
        <time>2015-09-14T13:23:28Z</time>
      </trkpt>
      <trkpt lat="41.84366" lon="9.19457">
        <ele>1877.11</ele>
        <time>2015-09-14T13:23:32Z</time>
      </trkpt>
      <trkpt lat="41.84365" lon="9.1946">
        <ele>1879.03</ele>
        <time>2015-09-14T13:23:36Z</time>
      </trkpt>
      <trkpt lat="41.84364" lon="9.19467">
        <ele>1880</ele>
        <time>2015-09-14T13:23:46Z</time>
      </trkpt>
      <trkpt lat="41.84363" lon="9.19478">
        <ele>1881.44</ele>
        <time>2015-09-14T13:24:03Z</time>
      </trkpt>
      <trkpt lat="41.84366" lon="9.19489">
        <ele>1883.36</ele>
        <time>2015-09-14T13:24:20Z</time>
      </trkpt>
      <trkpt lat="41.84374" lon="9.19502">
        <ele>1884.8</ele>
        <time>2015-09-14T13:24:41Z</time>
      </trkpt>
      <trkpt lat="41.84386" lon="9.19512">
        <ele>1886.72</ele>
        <time>2015-09-14T13:24:58Z</time>
      </trkpt>
      <trkpt lat="41.84394" lon="9.19526">
        <ele>1887.69</ele>
        <time>2015-09-14T13:25:15Z</time>
      </trkpt>
      <trkpt lat="41.84402" lon="9.19541">
        <ele>1888.17</ele>
        <time>2015-09-14T13:25:32Z</time>
      </trkpt>
      <trkpt lat="41.8441" lon="9.19556">
        <ele>1890.09</ele>
        <time>2015-09-14T13:25:51Z</time>
      </trkpt>
      <trkpt lat="41.84418" lon="9.19574">
        <ele>1891.53</ele>
        <time>2015-09-14T13:26:11Z</time>
      </trkpt>
      <trkpt lat="41.84431" lon="9.19595">
        <ele>1890.09</ele>
        <time>2015-09-14T13:26:34Z</time>
      </trkpt>
      <trkpt lat="41.84433" lon="9.19599">
        <ele>1891.53</ele>
        <time>2015-09-14T13:26:39Z</time>
      </trkpt>
      <trkpt lat="41.84437" lon="9.19613">
        <ele>1892.49</ele>
        <time>2015-09-14T13:26:54Z</time>
      </trkpt>
      <trkpt lat="41.8444" lon="9.19633">
        <ele>1894.42</ele>
        <time>2015-09-14T13:27:12Z</time>
      </trkpt>
      <trkpt lat="41.8444" lon="9.1965">
        <ele>1896.34</ele>
        <time>2015-09-14T13:27:30Z</time>
      </trkpt>
      <trkpt lat="41.84438" lon="9.19666">
        <ele>1897.78</ele>
        <time>2015-09-14T13:27:48Z</time>
      </trkpt>
      <trkpt lat="41.84434" lon="9.19676">
        <ele>1899.7</ele>
        <time>2015-09-14T13:28:05Z</time>
      </trkpt>
      <trkpt lat="41.8443" lon="9.19689">
        <ele>1900.18</ele>
        <time>2015-09-14T13:28:22Z</time>
      </trkpt>
      <trkpt lat="41.8443" lon="9.19698">
        <ele>1901.14</ele>
        <time>2015-09-14T13:28:38Z</time>
      </trkpt>
      <trkpt lat="41.84428" lon="9.19708">
        <ele>1903.55</ele>
        <time>2015-09-14T13:28:56Z</time>
      </trkpt>
      <trkpt lat="41.84432" lon="9.19721">
        <ele>1905.95</ele>
        <time>2015-09-14T13:29:15Z</time>
      </trkpt>
      <trkpt lat="41.84432" lon="9.19732">
        <ele>1908.83</ele>
        <time>2015-09-14T13:29:35Z</time>
      </trkpt>
      <trkpt lat="41.84428" lon="9.1974">
        <ele>1911.24</ele>
        <time>2015-09-14T13:29:55Z</time>
      </trkpt>
      <trkpt lat="41.84423" lon="9.19741">
        <ele>1912.2</ele>
        <time>2015-09-14T13:30:11Z</time>
      </trkpt>
      <trkpt lat="41.84423" lon="9.19748">
        <ele>1914.6</ele>
        <time>2015-09-14T13:30:29Z</time>
      </trkpt>
      <trkpt lat="41.84414" lon="9.19755">
        <ele>1916.53</ele>
        <time>2015-09-14T13:30:48Z</time>
      </trkpt>
      <trkpt lat="41.84408" lon="9.1976">
        <ele>1918.93</ele>
        <time>2015-09-14T13:31:07Z</time>
      </trkpt>
      <trkpt lat="41.84407" lon="9.19766">
        <ele>1920.85</ele>
        <time>2015-09-14T13:31:23Z</time>
      </trkpt>
      <trkpt lat="41.84407" lon="9.19775">
        <ele>1922.77</ele>
        <time>2015-09-14T13:31:41Z</time>
      </trkpt>
      <trkpt lat="41.84404" lon="9.19782">
        <ele>1925.18</ele>
        <time>2015-09-14T13:31:59Z</time>
      </trkpt>
      <trkpt lat="41.84402" lon="9.19794">
        <ele>1927.1</ele>
        <time>2015-09-14T13:32:18Z</time>
      </trkpt>
      <trkpt lat="41.84405" lon="9.19799">
        <ele>1927.1</ele>
        <time>2015-09-14T13:32:26Z</time>
      </trkpt>
      <trkpt lat="41.84411" lon="9.19814">
        <ele>1929.02</ele>
        <time>2015-09-14T13:32:47Z</time>
      </trkpt>
      <trkpt lat="41.84418" lon="9.19827">
        <ele>1930.95</ele>
        <time>2015-09-14T13:33:08Z</time>
      </trkpt>
      <trkpt lat="41.84428" lon="9.19841">
        <ele>1931.91</ele>
        <time>2015-09-14T13:33:29Z</time>
      </trkpt>
      <trkpt lat="41.8443" lon="9.19845">
        <ele>1931.91</ele>
        <time>2015-09-14T13:33:34Z</time>
      </trkpt>
      <trkpt lat="41.84432" lon="9.19855">
        <ele>1932.87</ele>
        <time>2015-09-14T13:33:48Z</time>
      </trkpt>
      <trkpt lat="41.8444" lon="9.19868">
        <ele>1935.75</ele>
        <time>2015-09-14T13:34:12Z</time>
      </trkpt>
      <trkpt lat="41.84446" lon="9.19882">
        <ele>1937.67</ele>
        <time>2015-09-14T13:34:31Z</time>
      </trkpt>
      <trkpt lat="41.84447" lon="9.19894">
        <ele>1940.08</ele>
        <time>2015-09-14T13:34:50Z</time>
      </trkpt>
      <trkpt lat="41.84447" lon="9.19903">
        <ele>1942.96</ele>
        <time>2015-09-14T13:35:08Z</time>
      </trkpt>
      <trkpt lat="41.84447" lon="9.19909">
        <ele>1943.92</ele>
        <time>2015-09-14T13:35:25Z</time>
      </trkpt>
      <trkpt lat="41.84444" lon="9.19913">
        <ele>1945.36</ele>
        <time>2015-09-14T13:35:42Z</time>
      </trkpt>
      <trkpt lat="41.84445" lon="9.19921">
        <ele>1948.25</ele>
        <time>2015-09-14T13:36:01Z</time>
      </trkpt>
      <trkpt lat="41.84447" lon="9.19929">
        <ele>1949.69</ele>
        <time>2015-09-14T13:36:19Z</time>
      </trkpt>
      <trkpt lat="41.84445" lon="9.19934">
        <ele>1952.09</ele>
        <time>2015-09-14T13:36:36Z</time>
      </trkpt>
      <trkpt lat="41.84446" lon="9.19944">
        <ele>1954.02</ele>
        <time>2015-09-14T13:36:54Z</time>
      </trkpt>
      <trkpt lat="41.84443" lon="9.19949">
        <ele>1956.42</ele>
        <time>2015-09-14T13:37:11Z</time>
      </trkpt>
      <trkpt lat="41.84448" lon="9.19958">
        <ele>1957.38</ele>
        <time>2015-09-14T13:37:30Z</time>
      </trkpt>
      <trkpt lat="41.84453" lon="9.19966">
        <ele>1957.86</ele>
        <time>2015-09-14T13:37:49Z</time>
      </trkpt>
      <trkpt lat="41.84458" lon="9.19975">
        <ele>1960.27</ele>
        <time>2015-09-14T13:38:07Z</time>
      </trkpt>
      <trkpt lat="41.8446" lon="9.19986">
        <ele>1962.67</ele>
        <time>2015-09-14T13:38:27Z</time>
      </trkpt>
      <trkpt lat="41.84464" lon="9.19994">
        <ele>1962.67</ele>
        <time>2015-09-14T13:38:43Z</time>
      </trkpt>
      <trkpt lat="41.84465" lon="9.20001">
        <ele>1964.59</ele>
        <time>2015-09-14T13:39:02Z</time>
      </trkpt>
      <trkpt lat="41.84462" lon="9.20004">
        <ele>1966.51</ele>
        <time>2015-09-14T13:39:17Z</time>
      </trkpt>
      <trkpt lat="41.84463" lon="9.20014">
        <ele>1969.4</ele>
        <time>2015-09-14T13:39:37Z</time>
      </trkpt>
      <trkpt lat="41.84462" lon="9.20021">
        <ele>1971.32</ele>
        <time>2015-09-14T13:39:56Z</time>
      </trkpt>
      <trkpt lat="41.84461" lon="9.20028">
        <ele>1972.28</ele>
        <time>2015-09-14T13:40:14Z</time>
      </trkpt>
      <trkpt lat="41.84458" lon="9.20032">
        <ele>1974.2</ele>
        <time>2015-09-14T13:40:33Z</time>
      </trkpt>
      <trkpt lat="41.84461" lon="9.2004">
        <ele>1977.09</ele>
        <time>2015-09-14T13:40:54Z</time>
      </trkpt>
      <trkpt lat="41.84465" lon="9.20049">
        <ele>1978.53</ele>
        <time>2015-09-14T13:41:12Z</time>
      </trkpt>
      <trkpt lat="41.84464" lon="9.20052">
        <ele>1980.45</ele>
        <time>2015-09-14T13:41:22Z</time>
      </trkpt>
      <trkpt lat="41.84465" lon="9.2006">
        <ele>1982.38</ele>
        <time>2015-09-14T13:41:42Z</time>
      </trkpt>
      <trkpt lat="41.84464" lon="9.20068">
        <ele>1984.78</ele>
        <time>2015-09-14T13:41:59Z</time>
      </trkpt>
      <trkpt lat="41.84467" lon="9.20078">
        <ele>1985.74</ele>
        <time>2015-09-14T13:42:19Z</time>
      </trkpt>
      <trkpt lat="41.84467" lon="9.20088">
        <ele>1988.62</ele>
        <time>2015-09-14T13:42:38Z</time>
      </trkpt>
      <trkpt lat="41.84466" lon="9.20095">
        <ele>1990.55</ele>
        <time>2015-09-14T13:42:57Z</time>
      </trkpt>
      <trkpt lat="41.84466" lon="9.20101">
        <ele>1992.47</ele>
        <time>2015-09-14T13:43:22Z</time>
      </trkpt>
      <trkpt lat="41.84468" lon="9.20111">
        <ele>1995.35</ele>
        <time>2015-09-14T13:43:38Z</time>
      </trkpt>
      <trkpt lat="41.84471" lon="9.20125">
        <ele>1997.76</ele>
        <time>2015-09-14T13:43:59Z</time>
      </trkpt>
      <trkpt lat="41.84477" lon="9.20136">
        <ele>1999.2</ele>
        <time>2015-09-14T13:44:20Z</time>
      </trkpt>
      <trkpt lat="41.84479" lon="9.20146">
        <ele>2000.16</ele>
        <time>2015-09-14T13:44:37Z</time>
      </trkpt>
      <trkpt lat="41.84479" lon="9.20147">
        <ele>2001.12</ele>
        <time>2015-09-14T13:44:39Z</time>
      </trkpt>
      <trkpt lat="41.84485" lon="9.20157">
        <ele>2001.12</ele>
        <time>2015-09-14T13:44:56Z</time>
      </trkpt>
      <trkpt lat="41.8449" lon="9.20169">
        <ele>2002.08</ele>
        <time>2015-09-14T13:45:13Z</time>
      </trkpt>
      <trkpt lat="41.845" lon="9.20182">
        <ele>2003.04</ele>
        <time>2015-09-14T13:45:33Z</time>
      </trkpt>
      <trkpt lat="41.845" lon="9.20198">
        <ele>2003.04</ele>
        <time>2015-09-14T13:45:51Z</time>
      </trkpt>
      <trkpt lat="41.84502" lon="9.20212">
        <ele>2004.49</ele>
        <time>2015-09-14T13:46:08Z</time>
      </trkpt>
      <trkpt lat="41.84506" lon="9.20224">
        <ele>2005.93</ele>
        <time>2015-09-14T13:46:23Z</time>
      </trkpt>
      <trkpt lat="41.84508" lon="9.20228">
        <ele>2004.49</ele>
        <time>2015-09-14T13:46:28Z</time>
      </trkpt>
      <trkpt lat="41.84515" lon="9.20243">
        <ele>2005.45</ele>
        <time>2015-09-14T13:46:45Z</time>
      </trkpt>
      <trkpt lat="41.8452" lon="9.20251">
        <ele>2004.49</ele>
        <time>2015-09-14T13:46:56Z</time>
      </trkpt>
      <trkpt lat="41.84529" lon="9.20261">
        <ele>2003.04</ele>
        <time>2015-09-14T13:47:16Z</time>
      </trkpt>
      <trkpt lat="41.8453" lon="9.20263">
        <ele>2002.56</ele>
        <time>2015-09-14T13:47:19Z</time>
      </trkpt>
      <trkpt lat="41.84539" lon="9.20268">
        <ele>2003.52</ele>
        <time>2015-09-14T13:47:34Z</time>
      </trkpt>
      <trkpt lat="41.84549" lon="9.20279">
        <ele>2004.01</ele>
        <time>2015-09-14T13:47:52Z</time>
      </trkpt>
      <trkpt lat="41.84561" lon="9.2029">
        <ele>2004.97</ele>
        <time>2015-09-14T13:48:12Z</time>
      </trkpt>
      <trkpt lat="41.84572" lon="9.20301">
        <ele>2007.37</ele>
        <time>2015-09-14T13:48:30Z</time>
      </trkpt>
      <trkpt lat="41.84574" lon="9.20302">
        <ele>2008.33</ele>
        <time>2015-09-14T13:48:33Z</time>
      </trkpt>
      <trkpt lat="41.84577" lon="9.20304">
        <ele>2006.89</ele>
        <time>2015-09-14T13:48:37Z</time>
      </trkpt>
      <trkpt lat="41.84581" lon="9.20308">
        <ele>2006.41</ele>
        <time>2015-09-14T13:48:45Z</time>
      </trkpt>
      <trkpt lat="41.8459" lon="9.2032">
        <ele>2006.41</ele>
        <time>2015-09-14T13:49:04Z</time>
      </trkpt>
      <trkpt lat="41.84591" lon="9.20321">
        <ele>2007.85</ele>
        <time>2015-09-14T13:49:06Z</time>
      </trkpt>
      <trkpt lat="41.846" lon="9.20331">
        <ele>2009.77</ele>
        <time>2015-09-14T13:49:25Z</time>
      </trkpt>
      <trkpt lat="41.84603" lon="9.20341">
        <ele>2013.14</ele>
        <time>2015-09-14T13:49:39Z</time>
      </trkpt>
      <trkpt lat="41.84605" lon="9.20348">
        <ele>2016.98</ele>
        <time>2015-09-14T13:49:53Z</time>
      </trkpt>
      <trkpt lat="41.84602" lon="9.20352">
        <ele>2020.83</ele>
        <time>2015-09-14T13:50:04Z</time>
      </trkpt>
      <trkpt lat="41.84602" lon="9.20353">
        <ele>2020.83</ele>
        <time>2015-09-14T13:50:05Z</time>
      </trkpt>
      <trkpt lat="41.84602" lon="9.20355">
        <ele>2024.19</ele>
        <time>2015-09-14T13:50:10Z</time>
      </trkpt>
      <trkpt lat="41.84601" lon="9.20359">
        <ele>2021.79</ele>
        <time>2015-09-14T13:50:16Z</time>
      </trkpt>
      <trkpt lat="41.84601" lon="9.2036">
        <ele>2023.71</ele>
        <time>2015-09-14T13:50:24Z</time>
      </trkpt>
      <trkpt lat="41.84601" lon="9.20363">
        <ele>2023.71</ele>
        <time>2015-09-14T13:50:28Z</time>
      </trkpt>
      <trkpt lat="41.84601" lon="9.20374">
        <ele>2021.79</ele>
        <time>2015-09-14T13:50:43Z</time>
      </trkpt>
      <trkpt lat="41.84601" lon="9.20376">
        <ele>2022.75</ele>
        <time>2015-09-14T13:50:49Z</time>
      </trkpt>
      <trkpt lat="41.84601" lon="9.20379">
        <ele>2019.39</ele>
        <time>2015-09-14T13:50:58Z</time>
      </trkpt>
      <trkpt lat="41.84598" lon="9.20377">
        <ele>2017.94</ele>
        <time>2015-09-14T13:51:07Z</time>
      </trkpt>
      <trkpt lat="41.84596" lon="9.20377">
        <ele>2016.5</ele>
        <time>2015-09-14T13:51:13Z</time>
      </trkpt>
      <trkpt lat="41.84591" lon="9.20376">
        <ele>2015.06</ele>
        <time>2015-09-14T13:51:31Z</time>
      </trkpt>
      <trkpt lat="41.84591" lon="9.20376">
        <ele>2016.5</ele>
        <time>2015-09-14T13:51:38Z</time>
      </trkpt>
      <trkpt lat="41.84593" lon="9.20374">
        <ele>2017.46</ele>
        <time>2015-09-14T13:52:08Z</time>
      </trkpt>
      <trkpt lat="41.84593" lon="9.20374">
        <ele>2016.02</ele>
        <time>2015-09-14T13:52:11Z</time>
      </trkpt>
      <trkpt lat="41.84593" lon="9.20375">
        <ele>2016.5</ele>
        <time>2015-09-14T13:52:35Z</time>
      </trkpt>
      <trkpt lat="41.84593" lon="9.20375">
        <ele>2016.5</ele>
        <time>2015-09-14T13:53:07Z</time>
      </trkpt>
      <trkpt lat="41.84594" lon="9.20375">
        <ele>2016.5</ele>
        <time>2015-09-14T13:53:32Z</time>
      </trkpt>
      <trkpt lat="41.84592" lon="9.20375">
        <ele>2017.46</ele>
        <time>2015-09-14T13:53:41Z</time>
      </trkpt>
      <trkpt lat="41.84592" lon="9.20376">
        <ele>2016.5</ele>
        <time>2015-09-14T13:54:06Z</time>
      </trkpt>
      <trkpt lat="41.84592" lon="9.20376">
        <ele>2017.46</ele>
        <time>2015-09-14T13:54:11Z</time>
      </trkpt>
      <trkpt lat="41.8459" lon="9.20376">
        <ele>2015.54</ele>
        <time>2015-09-14T13:54:38Z</time>
      </trkpt>
      <trkpt lat="41.84594" lon="9.20376">
        <ele>2015.06</ele>
        <time>2015-09-14T13:55:04Z</time>
      </trkpt>
      <trkpt lat="41.84591" lon="9.20378">
        <ele>2016.02</ele>
        <time>2015-09-14T13:55:21Z</time>
      </trkpt>
      <trkpt lat="41.84595" lon="9.2038">
        <ele>2015.06</ele>
        <time>2015-09-14T13:55:43Z</time>
      </trkpt>
      <trkpt lat="41.84602" lon="9.20388">
        <ele>2013.62</ele>
        <time>2015-09-14T13:56:03Z</time>
      </trkpt>
      <trkpt lat="41.84607" lon="9.20396">
        <ele>2013.14</ele>
        <time>2015-09-14T13:56:20Z</time>
      </trkpt>
      <trkpt lat="41.84613" lon="9.20403">
        <ele>2014.1</ele>
        <time>2015-09-14T13:56:33Z</time>
      </trkpt>
      <trkpt lat="41.84623" lon="9.20411">
        <ele>2015.06</ele>
        <time>2015-09-14T13:56:51Z</time>
      </trkpt>
      <trkpt lat="41.84624" lon="9.20416">
        <ele>2014.1</ele>
        <time>2015-09-14T13:57:07Z</time>
      </trkpt>
      <trkpt lat="41.84624" lon="9.20422">
        <ele>2011.7</ele>
        <time>2015-09-14T13:57:23Z</time>
      </trkpt>
      <trkpt lat="41.84624" lon="9.20427">
        <ele>2008.81</ele>
        <time>2015-09-14T13:57:43Z</time>
      </trkpt>
      <trkpt lat="41.84623" lon="9.20431">
        <ele>2005.93</ele>
        <time>2015-09-14T13:58:01Z</time>
      </trkpt>
      <trkpt lat="41.84625" lon="9.20434">
        <ele>2004.49</ele>
        <time>2015-09-14T13:58:20Z</time>
      </trkpt>
      <trkpt lat="41.84624" lon="9.20439">
        <ele>2003.52</ele>
        <time>2015-09-14T13:58:41Z</time>
      </trkpt>
      <trkpt lat="41.84624" lon="9.20445">
        <ele>2000.64</ele>
        <time>2015-09-14T13:59:01Z</time>
      </trkpt>
      <trkpt lat="41.84623" lon="9.20446">
        <ele>1998.72</ele>
        <time>2015-09-14T13:59:06Z</time>
      </trkpt>
      <trkpt lat="41.84622" lon="9.2045">
        <ele>1999.2</ele>
        <time>2015-09-14T13:59:23Z</time>
      </trkpt>
      <trkpt lat="41.84621" lon="9.20451">
        <ele>1997.76</ele>
        <time>2015-09-14T13:59:26Z</time>
      </trkpt>
      <trkpt lat="41.84625" lon="9.20456">
        <ele>1994.87</ele>
        <time>2015-09-14T13:59:38Z</time>
      </trkpt>
      <trkpt lat="41.84625" lon="9.2046">
        <ele>1992.47</ele>
        <time>2015-09-14T13:59:55Z</time>
      </trkpt>
      <trkpt lat="41.84623" lon="9.20465">
        <ele>1990.07</ele>
        <time>2015-09-14T14:00:13Z</time>
      </trkpt>
      <trkpt lat="41.84621" lon="9.20471">
        <ele>1988.62</ele>
        <time>2015-09-14T14:00:32Z</time>
      </trkpt>
      <trkpt lat="41.84625" lon="9.20476">
        <ele>1987.66</ele>
        <time>2015-09-14T14:00:50Z</time>
      </trkpt>
      <trkpt lat="41.84629" lon="9.20483">
        <ele>1985.26</ele>
        <time>2015-09-14T14:01:07Z</time>
      </trkpt>
      <trkpt lat="41.84631" lon="9.20491">
        <ele>1984.78</ele>
        <time>2015-09-14T14:01:27Z</time>
      </trkpt>
      <trkpt lat="41.84637" lon="9.20494">
        <ele>1984.78</ele>
        <time>2015-09-14T14:01:43Z</time>
      </trkpt>
      <trkpt lat="41.84641" lon="9.205">
        <ele>1984.78</ele>
        <time>2015-09-14T14:02:01Z</time>
      </trkpt>
      <trkpt lat="41.84647" lon="9.20504">
        <ele>1988.14</ele>
        <time>2015-09-14T14:02:18Z</time>
      </trkpt>
      <trkpt lat="41.84647" lon="9.20505">
        <ele>1992.95</ele>
        <time>2015-09-14T14:02:19Z</time>
      </trkpt>
      <trkpt lat="41.84647" lon="9.20506">
        <ele>1999.2</ele>
        <time>2015-09-14T14:02:21Z</time>
      </trkpt>
      <trkpt lat="41.84647" lon="9.20506">
        <ele>1991.51</ele>
        <time>2015-09-14T14:02:22Z</time>
      </trkpt>
      <trkpt lat="41.84648" lon="9.20509">
        <ele>1988.62</ele>
        <time>2015-09-14T14:02:26Z</time>
      </trkpt>
      <trkpt lat="41.84651" lon="9.20511">
        <ele>1985.26</ele>
        <time>2015-09-14T14:02:33Z</time>
      </trkpt>
      <trkpt lat="41.84655" lon="9.20509">
        <ele>1986.7</ele>
        <time>2015-09-14T14:02:48Z</time>
      </trkpt>
      <trkpt lat="41.84657" lon="9.20512">
        <ele>1989.1</ele>
        <time>2015-09-14T14:03:00Z</time>
      </trkpt>
      <trkpt lat="41.84668" lon="9.20521">
        <ele>1988.14</ele>
        <time>2015-09-14T14:03:21Z</time>
      </trkpt>
      <trkpt lat="41.8467" lon="9.20527">
        <ele>1987.18</ele>
        <time>2015-09-14T14:03:37Z</time>
      </trkpt>
      <trkpt lat="41.84671" lon="9.2053">
        <ele>1988.14</ele>
        <time>2015-09-14T14:03:48Z</time>
      </trkpt>
      <trkpt lat="41.84672" lon="9.20536">
        <ele>1988.62</ele>
        <time>2015-09-14T14:03:57Z</time>
      </trkpt>
      <trkpt lat="41.84675" lon="9.20547">
        <ele>1990.07</ele>
        <time>2015-09-14T14:04:18Z</time>
      </trkpt>
      <trkpt lat="41.84676" lon="9.20549">
        <ele>1989.1</ele>
        <time>2015-09-14T14:04:22Z</time>
      </trkpt>
      <trkpt lat="41.84678" lon="9.20557">
        <ele>1988.14</ele>
        <time>2015-09-14T14:04:39Z</time>
      </trkpt>
      <trkpt lat="41.84682" lon="9.20565">
        <ele>1986.7</ele>
        <time>2015-09-14T14:04:56Z</time>
      </trkpt>
      <trkpt lat="41.84684" lon="9.20573">
        <ele>1986.7</ele>
        <time>2015-09-14T14:05:11Z</time>
      </trkpt>
      <trkpt lat="41.84686" lon="9.20582">
        <ele>1987.66</ele>
        <time>2015-09-14T14:05:26Z</time>
      </trkpt>
      <trkpt lat="41.84687" lon="9.2059">
        <ele>1987.18</ele>
        <time>2015-09-14T14:05:41Z</time>
      </trkpt>
      <trkpt lat="41.84687" lon="9.20597">
        <ele>1985.74</ele>
        <time>2015-09-14T14:05:51Z</time>
      </trkpt>
      <trkpt lat="41.84692" lon="9.206">
        <ele>1983.82</ele>
        <time>2015-09-14T14:06:06Z</time>
      </trkpt>
      <trkpt lat="41.84689" lon="9.20602">
        <ele>1981.9</ele>
        <time>2015-09-14T14:06:24Z</time>
      </trkpt>
      <trkpt lat="41.84692" lon="9.2061">
        <ele>1978.53</ele>
        <time>2015-09-14T14:06:44Z</time>
      </trkpt>
      <trkpt lat="41.84697" lon="9.20616">
        <ele>1977.57</ele>
        <time>2015-09-14T14:07:00Z</time>
      </trkpt>
      <trkpt lat="41.84703" lon="9.20618">
        <ele>1976.61</ele>
        <time>2015-09-14T14:07:17Z</time>
      </trkpt>
      <trkpt lat="41.84702" lon="9.20624">
        <ele>1975.17</ele>
        <time>2015-09-14T14:07:34Z</time>
      </trkpt>
      <trkpt lat="41.84703" lon="9.20626">
        <ele>1975.17</ele>
        <time>2015-09-14T14:07:39Z</time>
      </trkpt>
      <trkpt lat="41.84704" lon="9.20625">
        <ele>1979.01</ele>
        <time>2015-09-14T14:07:41Z</time>
      </trkpt>
      <trkpt lat="41.84704" lon="9.20627">
        <ele>1975.17</ele>
        <time>2015-09-14T14:07:46Z</time>
      </trkpt>
      <trkpt lat="41.84705" lon="9.20629">
        <ele>1974.2</ele>
        <time>2015-09-14T14:07:53Z</time>
      </trkpt>
      <trkpt lat="41.84705" lon="9.20631">
        <ele>1973.24</ele>
        <time>2015-09-14T14:07:59Z</time>
      </trkpt>
      <trkpt lat="41.84706" lon="9.20638">
        <ele>1972.76</ele>
        <time>2015-09-14T14:08:14Z</time>
      </trkpt>
      <trkpt lat="41.84707" lon="9.20642">
        <ele>1971.32</ele>
        <time>2015-09-14T14:08:27Z</time>
      </trkpt>
      <trkpt lat="41.84711" lon="9.20645">
        <ele>1967.96</ele>
        <time>2015-09-14T14:08:42Z</time>
      </trkpt>
      <trkpt lat="41.84712" lon="9.2065">
        <ele>1965.55</ele>
        <time>2015-09-14T14:09:00Z</time>
      </trkpt>
      <trkpt lat="41.8471" lon="9.20655">
        <ele>1963.63</ele>
        <time>2015-09-14T14:09:20Z</time>
      </trkpt>
      <trkpt lat="41.84713" lon="9.20664">
        <ele>1961.23</ele>
        <time>2015-09-14T14:09:39Z</time>
      </trkpt>
      <trkpt lat="41.84721" lon="9.20675">
        <ele>1960.27</ele>
        <time>2015-09-14T14:09:58Z</time>
      </trkpt>
      <trkpt lat="41.84721" lon="9.20683">
        <ele>1959.3</ele>
        <time>2015-09-14T14:10:14Z</time>
      </trkpt>
      <trkpt lat="41.84724" lon="9.2069">
        <ele>1955.94</ele>
        <time>2015-09-14T14:10:28Z</time>
      </trkpt>
      <trkpt lat="41.84726" lon="9.20698">
        <ele>1954.98</ele>
        <time>2015-09-14T14:10:47Z</time>
      </trkpt>
      <trkpt lat="41.84726" lon="9.207">
        <ele>1956.42</ele>
        <time>2015-09-14T14:10:52Z</time>
      </trkpt>
      <trkpt lat="41.84728" lon="9.20705">
        <ele>1955.46</ele>
        <time>2015-09-14T14:11:00Z</time>
      </trkpt>
      <trkpt lat="41.84729" lon="9.20708">
        <ele>1952.57</ele>
        <time>2015-09-14T14:11:07Z</time>
      </trkpt>
      <trkpt lat="41.84729" lon="9.20718">
        <ele>1950.65</ele>
        <time>2015-09-14T14:11:24Z</time>
      </trkpt>
      <trkpt lat="41.84732" lon="9.20733">
        <ele>1949.21</ele>
        <time>2015-09-14T14:11:43Z</time>
      </trkpt>
      <trkpt lat="41.84732" lon="9.20737">
        <ele>1945.85</ele>
        <time>2015-09-14T14:11:50Z</time>
      </trkpt>
      <trkpt lat="41.84732" lon="9.20738">
        <ele>1945.85</ele>
        <time>2015-09-14T14:11:51Z</time>
      </trkpt>
      <trkpt lat="41.84729" lon="9.2074">
        <ele>1944.4</ele>
        <time>2015-09-14T14:12:03Z</time>
      </trkpt>
      <trkpt lat="41.84729" lon="9.20742">
        <ele>1942.48</ele>
        <time>2015-09-14T14:12:07Z</time>
      </trkpt>
      <trkpt lat="41.84728" lon="9.20744">
        <ele>1940.08</ele>
        <time>2015-09-14T14:12:27Z</time>
      </trkpt>
      <trkpt lat="41.84726" lon="9.20744">
        <ele>1939.12</ele>
        <time>2015-09-14T14:12:45Z</time>
      </trkpt>
      <trkpt lat="41.84722" lon="9.20743">
        <ele>1937.67</ele>
        <time>2015-09-14T14:13:01Z</time>
      </trkpt>
      <trkpt lat="41.84718" lon="9.20743">
        <ele>1939.12</ele>
        <time>2015-09-14T14:13:08Z</time>
      </trkpt>
      <trkpt lat="41.84717" lon="9.20742">
        <ele>1937.67</ele>
        <time>2015-09-14T14:13:12Z</time>
      </trkpt>
      <trkpt lat="41.84712" lon="9.2074">
        <ele>1934.31</ele>
        <time>2015-09-14T14:13:28Z</time>
      </trkpt>
      <trkpt lat="41.8471" lon="9.20741">
        <ele>1933.35</ele>
        <time>2015-09-14T14:13:44Z</time>
      </trkpt>
      <trkpt lat="41.84709" lon="9.20741">
        <ele>1931.91</ele>
        <time>2015-09-14T14:13:47Z</time>
      </trkpt>
      <trkpt lat="41.84706" lon="9.20739">
        <ele>1929.98</ele>
        <time>2015-09-14T14:14:07Z</time>
      </trkpt>
      <trkpt lat="41.84702" lon="9.20738">
        <ele>1927.58</ele>
        <time>2015-09-14T14:14:26Z</time>
      </trkpt>
      <trkpt lat="41.847" lon="9.20739">
        <ele>1927.58</ele>
        <time>2015-09-14T14:14:35Z</time>
      </trkpt>
      <trkpt lat="41.84699" lon="9.20741">
        <ele>1927.1</ele>
        <time>2015-09-14T14:14:50Z</time>
      </trkpt>
      <trkpt lat="41.84698" lon="9.20741">
        <ele>1924.22</ele>
        <time>2015-09-14T14:14:58Z</time>
      </trkpt>
      <trkpt lat="41.84695" lon="9.20745">
        <ele>1921.33</ele>
        <time>2015-09-14T14:15:14Z</time>
      </trkpt>
      <trkpt lat="41.84696" lon="9.20747">
        <ele>1915.56</ele>
        <time>2015-09-14T14:15:21Z</time>
      </trkpt>
      <trkpt lat="41.84696" lon="9.20747">
        <ele>1917.97</ele>
        <time>2015-09-14T14:15:22Z</time>
      </trkpt>
      <trkpt lat="41.84695" lon="9.20747">
        <ele>1920.85</ele>
        <time>2015-09-14T14:15:25Z</time>
      </trkpt>
      <trkpt lat="41.84696" lon="9.20747">
        <ele>1919.89</ele>
        <time>2015-09-14T14:15:27Z</time>
      </trkpt>
      <trkpt lat="41.84696" lon="9.20748">
        <ele>1918.45</ele>
        <time>2015-09-14T14:15:44Z</time>
      </trkpt>
      <trkpt lat="41.84695" lon="9.20745">
        <ele>1917.49</ele>
        <time>2015-09-14T14:16:03Z</time>
      </trkpt>
      <trkpt lat="41.84694" lon="9.20747">
        <ele>1917.49</ele>
        <time>2015-09-14T14:16:18Z</time>
      </trkpt>
      <trkpt lat="41.84692" lon="9.20748">
        <ele>1917.49</ele>
        <time>2015-09-14T14:16:37Z</time>
      </trkpt>
      <trkpt lat="41.8469" lon="9.20747">
        <ele>1917.97</ele>
        <time>2015-09-14T14:16:52Z</time>
      </trkpt>
      <trkpt lat="41.84688" lon="9.20749">
        <ele>1914.6</ele>
        <time>2015-09-14T14:17:05Z</time>
      </trkpt>
      <trkpt lat="41.84684" lon="9.20753">
        <ele>1912.2</ele>
        <time>2015-09-14T14:17:24Z</time>
      </trkpt>
      <trkpt lat="41.84682" lon="9.20757">
        <ele>1908.83</ele>
        <time>2015-09-14T14:17:38Z</time>
      </trkpt>
      <trkpt lat="41.84678" lon="9.20759">
        <ele>1906.91</ele>
        <time>2015-09-14T14:17:57Z</time>
      </trkpt>
      <trkpt lat="41.84676" lon="9.20764">
        <ele>1906.43</ele>
        <time>2015-09-14T14:18:15Z</time>
      </trkpt>
      <trkpt lat="41.84676" lon="9.20774">
        <ele>1902.11</ele>
        <time>2015-09-14T14:18:32Z</time>
      </trkpt>
      <trkpt lat="41.84676" lon="9.20774">
        <ele>1902.11</ele>
        <time>2015-09-14T14:18:33Z</time>
      </trkpt>
      <trkpt lat="41.8467" lon="9.20781">
        <ele>1900.18</ele>
        <time>2015-09-14T14:18:50Z</time>
      </trkpt>
      <trkpt lat="41.84668" lon="9.20787">
        <ele>1898.74</ele>
        <time>2015-09-14T14:19:07Z</time>
      </trkpt>
      <trkpt lat="41.84664" lon="9.20781">
        <ele>1897.3</ele>
        <time>2015-09-14T14:19:25Z</time>
      </trkpt>
      <trkpt lat="41.84662" lon="9.20774">
        <ele>1896.82</ele>
        <time>2015-09-14T14:19:41Z</time>
      </trkpt>
      <trkpt lat="41.84657" lon="9.20778">
        <ele>1892.97</ele>
        <time>2015-09-14T14:20:02Z</time>
      </trkpt>
      <trkpt lat="41.84655" lon="9.2078">
        <ele>1893.45</ele>
        <time>2015-09-14T14:20:11Z</time>
      </trkpt>
      <trkpt lat="41.84654" lon="9.2078">
        <ele>1895.38</ele>
        <time>2015-09-14T14:20:15Z</time>
      </trkpt>
      <trkpt lat="41.84653" lon="9.20778">
        <ele>1892.01</ele>
        <time>2015-09-14T14:20:33Z</time>
      </trkpt>
      <trkpt lat="41.84653" lon="9.20779">
        <ele>1889.13</ele>
        <time>2015-09-14T14:20:37Z</time>
      </trkpt>
      <trkpt lat="41.84653" lon="9.20779">
        <ele>1889.13</ele>
        <time>2015-09-14T14:20:38Z</time>
      </trkpt>
      <trkpt lat="41.84652" lon="9.2078">
        <ele>1886.72</ele>
        <time>2015-09-14T14:20:43Z</time>
      </trkpt>
      <trkpt lat="41.84653" lon="9.20782">
        <ele>1884.32</ele>
        <time>2015-09-14T14:20:47Z</time>
      </trkpt>
      <trkpt lat="41.84653" lon="9.20783">
        <ele>1885.76</ele>
        <time>2015-09-14T14:20:50Z</time>
      </trkpt>
      <trkpt lat="41.84652" lon="9.20787">
        <ele>1888.65</ele>
        <time>2015-09-14T14:20:56Z</time>
      </trkpt>
      <trkpt lat="41.84651" lon="9.20789">
        <ele>1885.28</ele>
        <time>2015-09-14T14:21:03Z</time>
      </trkpt>
      <trkpt lat="41.84652" lon="9.2079">
        <ele>1883.36</ele>
        <time>2015-09-14T14:21:09Z</time>
      </trkpt>
      <trkpt lat="41.84652" lon="9.2079">
        <ele>1884.8</ele>
        <time>2015-09-14T14:21:11Z</time>
      </trkpt>
      <trkpt lat="41.84651" lon="9.20792">
        <ele>1885.76</ele>
        <time>2015-09-14T14:21:35Z</time>
      </trkpt>
      <trkpt lat="41.84651" lon="9.20791">
        <ele>1884.32</ele>
        <time>2015-09-14T14:21:42Z</time>
      </trkpt>
      <trkpt lat="41.84652" lon="9.20793">
        <ele>1882.88</ele>
        <time>2015-09-14T14:22:11Z</time>
      </trkpt>
      <trkpt lat="41.84652" lon="9.20798">
        <ele>1881.44</ele>
        <time>2015-09-14T14:22:28Z</time>
      </trkpt>
      <trkpt lat="41.8465" lon="9.208">
        <ele>1878.07</ele>
        <time>2015-09-14T14:22:37Z</time>
      </trkpt>
      <trkpt lat="41.84649" lon="9.20803">
        <ele>1877.59</ele>
        <time>2015-09-14T14:22:53Z</time>
      </trkpt>
      <trkpt lat="41.84644" lon="9.20807">
        <ele>1875.19</ele>
        <time>2015-09-14T14:23:12Z</time>
      </trkpt>
      <trkpt lat="41.84642" lon="9.20803">
        <ele>1872.79</ele>
        <time>2015-09-14T14:23:31Z</time>
      </trkpt>
      <trkpt lat="41.84642" lon="9.20804">
        <ele>1872.79</ele>
        <time>2015-09-14T14:23:32Z</time>
      </trkpt>
      <trkpt lat="41.84636" lon="9.20803">
        <ele>1872.3</ele>
        <time>2015-09-14T14:23:52Z</time>
      </trkpt>
      <trkpt lat="41.84633" lon="9.20802">
        <ele>1869.42</ele>
        <time>2015-09-14T14:24:08Z</time>
      </trkpt>
      <trkpt lat="41.84629" lon="9.20801">
        <ele>1866.54</ele>
        <time>2015-09-14T14:24:26Z</time>
      </trkpt>
      <trkpt lat="41.84624" lon="9.20798">
        <ele>1865.58</ele>
        <time>2015-09-14T14:24:43Z</time>
      </trkpt>
      <trkpt lat="41.84618" lon="9.20797">
        <ele>1863.17</ele>
        <time>2015-09-14T14:25:05Z</time>
      </trkpt>
      <trkpt lat="41.84613" lon="9.20799">
        <ele>1862.21</ele>
        <time>2015-09-14T14:25:24Z</time>
      </trkpt>
      <trkpt lat="41.84608" lon="9.20799">
        <ele>1859.81</ele>
        <time>2015-09-14T14:25:44Z</time>
      </trkpt>
      <trkpt lat="41.84605" lon="9.20803">
        <ele>1856.92</ele>
        <time>2015-09-14T14:26:02Z</time>
      </trkpt>
      <trkpt lat="41.84594" lon="9.20804">
        <ele>1855.48</ele>
        <time>2015-09-14T14:26:23Z</time>
      </trkpt>
      <trkpt lat="41.84591" lon="9.20804">
        <ele>1856.44</ele>
        <time>2015-09-14T14:26:35Z</time>
      </trkpt>
      <trkpt lat="41.8459" lon="9.20804">
        <ele>1855</ele>
        <time>2015-09-14T14:26:38Z</time>
      </trkpt>
      <trkpt lat="41.8459" lon="9.20806">
        <ele>1851.64</ele>
        <time>2015-09-14T14:26:52Z</time>
      </trkpt>
      <trkpt lat="41.8459" lon="9.20807">
        <ele>1850.68</ele>
        <time>2015-09-14T14:26:54Z</time>
      </trkpt>
      <trkpt lat="41.84589" lon="9.20808">
        <ele>1853.08</ele>
        <time>2015-09-14T14:26:58Z</time>
      </trkpt>
      <trkpt lat="41.84588" lon="9.20808">
        <ele>1851.16</ele>
        <time>2015-09-14T14:27:00Z</time>
      </trkpt>
      <trkpt lat="41.84583" lon="9.2081">
        <ele>1847.79</ele>
        <time>2015-09-14T14:27:12Z</time>
      </trkpt>
      <trkpt lat="41.84582" lon="9.20812">
        <ele>1849.23</ele>
        <time>2015-09-14T14:27:19Z</time>
      </trkpt>
      <trkpt lat="41.84583" lon="9.20814">
        <ele>1847.79</ele>
        <time>2015-09-14T14:27:24Z</time>
      </trkpt>
      <trkpt lat="41.84583" lon="9.20818">
        <ele>1844.43</ele>
        <time>2015-09-14T14:27:37Z</time>
      </trkpt>
      <trkpt lat="41.84583" lon="9.20819">
        <ele>1844.43</ele>
        <time>2015-09-14T14:27:38Z</time>
      </trkpt>
      <trkpt lat="41.84581" lon="9.20822">
        <ele>1841.06</ele>
        <time>2015-09-14T14:27:48Z</time>
      </trkpt>
      <trkpt lat="41.84581" lon="9.20822">
        <ele>1841.06</ele>
        <time>2015-09-14T14:27:49Z</time>
      </trkpt>
      <trkpt lat="41.8458" lon="9.20821">
        <ele>1841.06</ele>
        <time>2015-09-14T14:27:54Z</time>
      </trkpt>
      <trkpt lat="41.84578" lon="9.20824">
        <ele>1838.66</ele>
        <time>2015-09-14T14:28:14Z</time>
      </trkpt>
      <trkpt lat="41.84573" lon="9.20828">
        <ele>1837.22</ele>
        <time>2015-09-14T14:28:32Z</time>
      </trkpt>
      <trkpt lat="41.84572" lon="9.20832">
        <ele>1833.85</ele>
        <time>2015-09-14T14:28:52Z</time>
      </trkpt>
      <trkpt lat="41.84568" lon="9.20831">
        <ele>1832.41</ele>
        <time>2015-09-14T14:29:13Z</time>
      </trkpt>
      <trkpt lat="41.84563" lon="9.20826">
        <ele>1830.49</ele>
        <time>2015-09-14T14:29:32Z</time>
      </trkpt>
      <trkpt lat="41.84559" lon="9.20825">
        <ele>1828.56</ele>
        <time>2015-09-14T14:29:50Z</time>
      </trkpt>
      <trkpt lat="41.84553" lon="9.20821">
        <ele>1826.64</ele>
        <time>2015-09-14T14:30:09Z</time>
      </trkpt>
      <trkpt lat="41.84547" lon="9.20819">
        <ele>1825.2</ele>
        <time>2015-09-14T14:30:32Z</time>
      </trkpt>
      <trkpt lat="41.84545" lon="9.20822">
        <ele>1822.8</ele>
        <time>2015-09-14T14:30:48Z</time>
      </trkpt>
      <trkpt lat="41.84543" lon="9.20826">
        <ele>1820.39</ele>
        <time>2015-09-14T14:31:07Z</time>
      </trkpt>
      <trkpt lat="41.84538" lon="9.20826">
        <ele>1818.95</ele>
        <time>2015-09-14T14:31:25Z</time>
      </trkpt>
      <trkpt lat="41.84535" lon="9.20826">
        <ele>1818.47</ele>
        <time>2015-09-14T14:31:44Z</time>
      </trkpt>
      <trkpt lat="41.84531" lon="9.20827">
        <ele>1814.63</ele>
        <time>2015-09-14T14:32:01Z</time>
      </trkpt>
      <trkpt lat="41.84528" lon="9.20831">
        <ele>1813.18</ele>
        <time>2015-09-14T14:32:23Z</time>
      </trkpt>
      <trkpt lat="41.84525" lon="9.20835">
        <ele>1813.18</ele>
        <time>2015-09-14T14:32:41Z</time>
      </trkpt>
      <trkpt lat="41.84525" lon="9.20836">
        <ele>1811.74</ele>
        <time>2015-09-14T14:32:46Z</time>
      </trkpt>
      <trkpt lat="41.84522" lon="9.20839">
        <ele>1811.74</ele>
        <time>2015-09-14T14:33:04Z</time>
      </trkpt>
      <trkpt lat="41.84522" lon="9.2084">
        <ele>1808.38</ele>
        <time>2015-09-14T14:33:12Z</time>
      </trkpt>
      <trkpt lat="41.84519" lon="9.20841">
        <ele>1806.45</ele>
        <time>2015-09-14T14:33:24Z</time>
      </trkpt>
      <trkpt lat="41.84518" lon="9.20843">
        <ele>1806.45</ele>
        <time>2015-09-14T14:33:39Z</time>
      </trkpt>
      <trkpt lat="41.84517" lon="9.20843">
        <ele>1802.61</ele>
        <time>2015-09-14T14:33:42Z</time>
      </trkpt>
      <trkpt lat="41.84517" lon="9.20843">
        <ele>1801.17</ele>
        <time>2015-09-14T14:33:43Z</time>
      </trkpt>
      <trkpt lat="41.84517" lon="9.20844">
        <ele>1802.61</ele>
        <time>2015-09-14T14:33:47Z</time>
      </trkpt>
      <trkpt lat="41.84514" lon="9.2085">
        <ele>1802.61</ele>
        <time>2015-09-14T14:34:04Z</time>
      </trkpt>
      <trkpt lat="41.84509" lon="9.2085">
        <ele>1798.76</ele>
        <time>2015-09-14T14:34:23Z</time>
      </trkpt>
      <trkpt lat="41.84509" lon="9.20852">
        <ele>1796.84</ele>
        <time>2015-09-14T14:34:29Z</time>
      </trkpt>
      <trkpt lat="41.84508" lon="9.20853">
        <ele>1798.28</ele>
        <time>2015-09-14T14:34:37Z</time>
      </trkpt>
      <trkpt lat="41.84503" lon="9.20857">
        <ele>1793.96</ele>
        <time>2015-09-14T14:34:52Z</time>
      </trkpt>
      <trkpt lat="41.84503" lon="9.20858">
        <ele>1793.96</ele>
        <time>2015-09-14T14:34:53Z</time>
      </trkpt>
      <trkpt lat="41.84504" lon="9.20867">
        <ele>1792.03</ele>
        <time>2015-09-14T14:35:07Z</time>
      </trkpt>
      <trkpt lat="41.84504" lon="9.2087">
        <ele>1792.52</ele>
        <time>2015-09-14T14:35:15Z</time>
      </trkpt>
      <trkpt lat="41.84502" lon="9.20871">
        <ele>1790.59</ele>
        <time>2015-09-14T14:35:19Z</time>
      </trkpt>
      <trkpt lat="41.84502" lon="9.20877">
        <ele>1788.67</ele>
        <time>2015-09-14T14:35:38Z</time>
      </trkpt>
      <trkpt lat="41.84495" lon="9.20873">
        <ele>1785.31</ele>
        <time>2015-09-14T14:35:52Z</time>
      </trkpt>
      <trkpt lat="41.84495" lon="9.20873">
        <ele>1785.31</ele>
        <time>2015-09-14T14:35:53Z</time>
      </trkpt>
      <trkpt lat="41.84493" lon="9.20878">
        <ele>1786.75</ele>
        <time>2015-09-14T14:36:02Z</time>
      </trkpt>
      <trkpt lat="41.84493" lon="9.20879">
        <ele>1784.82</ele>
        <time>2015-09-14T14:36:04Z</time>
      </trkpt>
      <trkpt lat="41.84492" lon="9.20881">
        <ele>1783.38</ele>
        <time>2015-09-14T14:36:08Z</time>
      </trkpt>
      <trkpt lat="41.84493" lon="9.20881">
        <ele>1784.34</ele>
        <time>2015-09-14T14:36:10Z</time>
      </trkpt>
      <trkpt lat="41.84493" lon="9.20882">
        <ele>1782.9</ele>
        <time>2015-09-14T14:36:19Z</time>
      </trkpt>
      <trkpt lat="41.84493" lon="9.20882">
        <ele>1784.34</ele>
        <time>2015-09-14T14:36:26Z</time>
      </trkpt>
      <trkpt lat="41.84493" lon="9.20882">
        <ele>1783.38</ele>
        <time>2015-09-14T14:36:28Z</time>
      </trkpt>
      <trkpt lat="41.84491" lon="9.20879">
        <ele>1781.46</ele>
        <time>2015-09-14T14:36:48Z</time>
      </trkpt>
      <trkpt lat="41.84491" lon="9.20882">
        <ele>1781.94</ele>
        <time>2015-09-14T14:37:02Z</time>
      </trkpt>
      <trkpt lat="41.8449" lon="9.20881">
        <ele>1783.86</ele>
        <time>2015-09-14T14:37:05Z</time>
      </trkpt>
      <trkpt lat="41.8449" lon="9.20881">
        <ele>1782.42</ele>
        <time>2015-09-14T14:37:07Z</time>
      </trkpt>
      <trkpt lat="41.84489" lon="9.20882">
        <ele>1779.06</ele>
        <time>2015-09-14T14:37:18Z</time>
      </trkpt>
      <trkpt lat="41.84488" lon="9.20882">
        <ele>1779.06</ele>
        <time>2015-09-14T14:37:19Z</time>
      </trkpt>
      <trkpt lat="41.84488" lon="9.20887">
        <ele>1776.17</ele>
        <time>2015-09-14T14:37:34Z</time>
      </trkpt>
      <trkpt lat="41.84488" lon="9.2089">
        <ele>1776.17</ele>
        <time>2015-09-14T14:37:41Z</time>
      </trkpt>
      <trkpt lat="41.84488" lon="9.20889">
        <ele>1778.1</ele>
        <time>2015-09-14T14:37:43Z</time>
      </trkpt>
      <trkpt lat="41.84487" lon="9.20888">
        <ele>1775.69</ele>
        <time>2015-09-14T14:37:48Z</time>
      </trkpt>
      <trkpt lat="41.84483" lon="9.20887">
        <ele>1773.77</ele>
        <time>2015-09-14T14:38:03Z</time>
      </trkpt>
      <trkpt lat="41.84478" lon="9.20888">
        <ele>1771.85</ele>
        <time>2015-09-14T14:38:21Z</time>
      </trkpt>
      <trkpt lat="41.84475" lon="9.20885">
        <ele>1771.37</ele>
        <time>2015-09-14T14:38:38Z</time>
      </trkpt>
      <trkpt lat="41.84473" lon="9.20885">
        <ele>1769.92</ele>
        <time>2015-09-14T14:38:45Z</time>
      </trkpt>
      <trkpt lat="41.84472" lon="9.20887">
        <ele>1768</ele>
        <time>2015-09-14T14:38:52Z</time>
      </trkpt>
      <trkpt lat="41.84468" lon="9.20888">
        <ele>1768</ele>
        <time>2015-09-14T14:39:03Z</time>
      </trkpt>
      <trkpt lat="41.84466" lon="9.20891">
        <ele>1764.64</ele>
        <time>2015-09-14T14:39:16Z</time>
      </trkpt>
      <trkpt lat="41.84464" lon="9.20893">
        <ele>1765.12</ele>
        <time>2015-09-14T14:39:31Z</time>
      </trkpt>
      <trkpt lat="41.84464" lon="9.20895">
        <ele>1763.68</ele>
        <time>2015-09-14T14:39:33Z</time>
      </trkpt>
      <trkpt lat="41.84462" lon="9.20898">
        <ele>1761.75</ele>
        <time>2015-09-14T14:39:47Z</time>
      </trkpt>
      <trkpt lat="41.84458" lon="9.20898">
        <ele>1758.87</ele>
        <time>2015-09-14T14:40:07Z</time>
      </trkpt>
      <trkpt lat="41.84451" lon="9.20895">
        <ele>1756.47</ele>
        <time>2015-09-14T14:40:24Z</time>
      </trkpt>
      <trkpt lat="41.84446" lon="9.20895">
        <ele>1754.06</ele>
        <time>2015-09-14T14:40:35Z</time>
      </trkpt>
      <trkpt lat="41.8444" lon="9.20902">
        <ele>1751.18</ele>
        <time>2015-09-14T14:40:56Z</time>
      </trkpt>
      <trkpt lat="41.84439" lon="9.20905">
        <ele>1750.7</ele>
        <time>2015-09-14T14:41:21Z</time>
      </trkpt>
      <trkpt lat="41.84438" lon="9.20906">
        <ele>1752.62</ele>
        <time>2015-09-14T14:41:28Z</time>
      </trkpt>
      <trkpt lat="41.84438" lon="9.20909">
        <ele>1751.18</ele>
        <time>2015-09-14T14:41:34Z</time>
      </trkpt>
      <trkpt lat="41.84437" lon="9.20911">
        <ele>1748.78</ele>
        <time>2015-09-14T14:41:40Z</time>
      </trkpt>
      <trkpt lat="41.84434" lon="9.20919">
        <ele>1746.85</ele>
        <time>2015-09-14T14:41:57Z</time>
      </trkpt>
      <trkpt lat="41.84434" lon="9.2093">
        <ele>1744.93</ele>
        <time>2015-09-14T14:42:19Z</time>
      </trkpt>
      <trkpt lat="41.84435" lon="9.20933">
        <ele>1744.45</ele>
        <time>2015-09-14T14:42:38Z</time>
      </trkpt>
      <trkpt lat="41.8443" lon="9.20945">
        <ele>1745.41</ele>
        <time>2015-09-14T14:42:53Z</time>
      </trkpt>
      <trkpt lat="41.84425" lon="9.20949">
        <ele>1742.05</ele>
        <time>2015-09-14T14:43:02Z</time>
      </trkpt>
      <trkpt lat="41.84424" lon="9.2095">
        <ele>1742.05</ele>
        <time>2015-09-14T14:43:03Z</time>
      </trkpt>
      <trkpt lat="41.84425" lon="9.20954">
        <ele>1741.57</ele>
        <time>2015-09-14T14:43:07Z</time>
      </trkpt>
      <trkpt lat="41.84423" lon="9.20956">
        <ele>1744.45</ele>
        <time>2015-09-14T14:43:13Z</time>
      </trkpt>
      <trkpt lat="41.84422" lon="9.20958">
        <ele>1741.08</ele>
        <time>2015-09-14T14:43:16Z</time>
      </trkpt>
      <trkpt lat="41.84418" lon="9.20969">
        <ele>1741.08</ele>
        <time>2015-09-14T14:43:29Z</time>
      </trkpt>
      <trkpt lat="41.84416" lon="9.20974">
        <ele>1736.28</ele>
        <time>2015-09-14T14:43:38Z</time>
      </trkpt>
      <trkpt lat="41.84415" lon="9.20975">
        <ele>1736.28</ele>
        <time>2015-09-14T14:43:39Z</time>
      </trkpt>
      <trkpt lat="41.84415" lon="9.20977">
        <ele>1738.2</ele>
        <time>2015-09-14T14:43:42Z</time>
      </trkpt>
      <trkpt lat="41.84415" lon="9.20981">
        <ele>1737.24</ele>
        <time>2015-09-14T14:43:49Z</time>
      </trkpt>
      <trkpt lat="41.84409" lon="9.20987">
        <ele>1735.8</ele>
        <time>2015-09-14T14:44:04Z</time>
      </trkpt>
      <trkpt lat="41.84407" lon="9.2099">
        <ele>1734.36</ele>
        <time>2015-09-14T14:44:08Z</time>
      </trkpt>
      <trkpt lat="41.84404" lon="9.21">
        <ele>1732.43</ele>
        <time>2015-09-14T14:44:28Z</time>
      </trkpt>
      <trkpt lat="41.84398" lon="9.21001">
        <ele>1729.07</ele>
        <time>2015-09-14T14:44:44Z</time>
      </trkpt>
      <trkpt lat="41.84392" lon="9.2101">
        <ele>1725.7</ele>
        <time>2015-09-14T14:44:57Z</time>
      </trkpt>
      <trkpt lat="41.84384" lon="9.21019">
        <ele>1722.34</ele>
        <time>2015-09-14T14:45:14Z</time>
      </trkpt>
      <trkpt lat="41.84384" lon="9.2102">
        <ele>1722.34</ele>
        <time>2015-09-14T14:45:15Z</time>
      </trkpt>
      <trkpt lat="41.8438" lon="9.21026">
        <ele>1722.82</ele>
        <time>2015-09-14T14:45:33Z</time>
      </trkpt>
      <trkpt lat="41.84379" lon="9.21032">
        <ele>1721.38</ele>
        <time>2015-09-14T14:45:41Z</time>
      </trkpt>
      <trkpt lat="41.84374" lon="9.21041">
        <ele>1719.46</ele>
        <time>2015-09-14T14:45:58Z</time>
      </trkpt>
      <trkpt lat="41.84372" lon="9.21044">
        <ele>1718.49</ele>
        <time>2015-09-14T14:46:04Z</time>
      </trkpt>
      <trkpt lat="41.84372" lon="9.2105">
        <ele>1719.46</ele>
        <time>2015-09-14T14:46:08Z</time>
      </trkpt>
      <trkpt lat="41.84371" lon="9.21052">
        <ele>1718.01</ele>
        <time>2015-09-14T14:46:11Z</time>
      </trkpt>
      <trkpt lat="41.8437" lon="9.21054">
        <ele>1719.46</ele>
        <time>2015-09-14T14:46:13Z</time>
      </trkpt>
      <trkpt lat="41.84369" lon="9.21055">
        <ele>1717.53</ele>
        <time>2015-09-14T14:46:15Z</time>
      </trkpt>
      <trkpt lat="41.84367" lon="9.21059">
        <ele>1717.05</ele>
        <time>2015-09-14T14:46:22Z</time>
      </trkpt>
      <trkpt lat="41.84362" lon="9.21064">
        <ele>1716.09</ele>
        <time>2015-09-14T14:46:38Z</time>
      </trkpt>
      <trkpt lat="41.8436" lon="9.21069">
        <ele>1714.17</ele>
        <time>2015-09-14T14:46:42Z</time>
      </trkpt>
      <trkpt lat="41.84355" lon="9.21073">
        <ele>1713.21</ele>
        <time>2015-09-14T14:47:00Z</time>
      </trkpt>
      <trkpt lat="41.84354" lon="9.21073">
        <ele>1711.76</ele>
        <time>2015-09-14T14:47:02Z</time>
      </trkpt>
      <trkpt lat="41.8435" lon="9.21078">
        <ele>1711.28</ele>
        <time>2015-09-14T14:47:18Z</time>
      </trkpt>
      <trkpt lat="41.84344" lon="9.2108">
        <ele>1709.36</ele>
        <time>2015-09-14T14:47:36Z</time>
      </trkpt>
      <trkpt lat="41.84341" lon="9.21084">
        <ele>1706.48</ele>
        <time>2015-09-14T14:47:46Z</time>
      </trkpt>
      <trkpt lat="41.84342" lon="9.21085">
        <ele>1707.92</ele>
        <time>2015-09-14T14:47:48Z</time>
      </trkpt>
      <trkpt lat="41.84341" lon="9.21088">
        <ele>1708.4</ele>
        <time>2015-09-14T14:47:56Z</time>
      </trkpt>
      <trkpt lat="41.84341" lon="9.21089">
        <ele>1705.04</ele>
        <time>2015-09-14T14:47:58Z</time>
      </trkpt>
      <trkpt lat="41.8434" lon="9.21094">
        <ele>1704.55</ele>
        <time>2015-09-14T14:48:08Z</time>
      </trkpt>
      <trkpt lat="41.84339" lon="9.21092">
        <ele>1707.44</ele>
        <time>2015-09-14T14:48:11Z</time>
      </trkpt>
      <trkpt lat="41.84339" lon="9.21091">
        <ele>1705.04</ele>
        <time>2015-09-14T14:48:13Z</time>
      </trkpt>
      <trkpt lat="41.84338" lon="9.2109">
        <ele>1703.11</ele>
        <time>2015-09-14T14:48:15Z</time>
      </trkpt>
      <trkpt lat="41.84338" lon="9.21091">
        <ele>1705.52</ele>
        <time>2015-09-14T14:48:17Z</time>
      </trkpt>
      <trkpt lat="41.84338" lon="9.21092">
        <ele>1702.63</ele>
        <time>2015-09-14T14:48:20Z</time>
      </trkpt>
      <trkpt lat="41.84337" lon="9.21093">
        <ele>1700.23</ele>
        <time>2015-09-14T14:48:22Z</time>
      </trkpt>
      <trkpt lat="41.84337" lon="9.21093">
        <ele>1705.04</ele>
        <time>2015-09-14T14:48:23Z</time>
      </trkpt>
      <trkpt lat="41.84337" lon="9.21091">
        <ele>1703.59</ele>
        <time>2015-09-14T14:48:26Z</time>
      </trkpt>
      <trkpt lat="41.84336" lon="9.21092">
        <ele>1700.23</ele>
        <time>2015-09-14T14:48:31Z</time>
      </trkpt>
      <trkpt lat="41.84334" lon="9.21094">
        <ele>1698.31</ele>
        <time>2015-09-14T14:48:34Z</time>
      </trkpt>
      <trkpt lat="41.84333" lon="9.21096">
        <ele>1699.27</ele>
        <time>2015-09-14T14:48:37Z</time>
      </trkpt>
      <trkpt lat="41.84332" lon="9.21099">
        <ele>1695.42</ele>
        <time>2015-09-14T14:48:44Z</time>
      </trkpt>
      <trkpt lat="41.84331" lon="9.21099">
        <ele>1695.42</ele>
        <time>2015-09-14T14:48:45Z</time>
      </trkpt>
      <trkpt lat="41.8433" lon="9.21099">
        <ele>1697.83</ele>
        <time>2015-09-14T14:48:47Z</time>
      </trkpt>
      <trkpt lat="41.84329" lon="9.21099">
        <ele>1701.19</ele>
        <time>2015-09-14T14:48:48Z</time>
      </trkpt>
      <trkpt lat="41.84329" lon="9.21098">
        <ele>1701.19</ele>
        <time>2015-09-14T14:48:49Z</time>
      </trkpt>
      <trkpt lat="41.84327" lon="9.21097">
        <ele>1697.34</ele>
        <time>2015-09-14T14:48:51Z</time>
      </trkpt>
      <trkpt lat="41.84326" lon="9.21097">
        <ele>1702.63</ele>
        <time>2015-09-14T14:48:53Z</time>
      </trkpt>
      <trkpt lat="41.84326" lon="9.21096">
        <ele>1699.27</ele>
        <time>2015-09-14T14:48:54Z</time>
      </trkpt>
      <trkpt lat="41.84326" lon="9.21094">
        <ele>1695.9</ele>
        <time>2015-09-14T14:48:58Z</time>
      </trkpt>
      <trkpt lat="41.84326" lon="9.21094">
        <ele>1693.5</ele>
        <time>2015-09-14T14:49:00Z</time>
      </trkpt>
      <trkpt lat="41.84323" lon="9.21095">
        <ele>1696.86</ele>
        <time>2015-09-14T14:49:08Z</time>
      </trkpt>
      <trkpt lat="41.84323" lon="9.21095">
        <ele>1696.86</ele>
        <time>2015-09-14T14:49:09Z</time>
      </trkpt>
      <trkpt lat="41.84323" lon="9.21093">
        <ele>1692.54</ele>
        <time>2015-09-14T14:49:13Z</time>
      </trkpt>
      <trkpt lat="41.84321" lon="9.21093">
        <ele>1694.46</ele>
        <time>2015-09-14T14:49:20Z</time>
      </trkpt>
      <trkpt lat="41.8432" lon="9.21093">
        <ele>1690.62</ele>
        <time>2015-09-14T14:49:25Z</time>
      </trkpt>
      <trkpt lat="41.84319" lon="9.21093">
        <ele>1693.5</ele>
        <time>2015-09-14T14:49:28Z</time>
      </trkpt>
      <trkpt lat="41.84319" lon="9.21093">
        <ele>1693.5</ele>
        <time>2015-09-14T14:49:29Z</time>
      </trkpt>
      <trkpt lat="41.84319" lon="9.21095">
        <ele>1692.06</ele>
        <time>2015-09-14T14:49:31Z</time>
      </trkpt>
      <trkpt lat="41.84316" lon="9.21098">
        <ele>1689.17</ele>
        <time>2015-09-14T14:49:36Z</time>
      </trkpt>
      <trkpt lat="41.84316" lon="9.21098">
        <ele>1692.54</ele>
        <time>2015-09-14T14:49:38Z</time>
      </trkpt>
      <trkpt lat="41.84316" lon="9.21098">
        <ele>1689.17</ele>
        <time>2015-09-14T14:49:41Z</time>
      </trkpt>
      <trkpt lat="41.84316" lon="9.21097">
        <ele>1694.46</ele>
        <time>2015-09-14T14:49:42Z</time>
      </trkpt>
      <trkpt lat="41.84314" lon="9.21093">
        <ele>1691.1</ele>
        <time>2015-09-14T14:49:49Z</time>
      </trkpt>
      <trkpt lat="41.84313" lon="9.21088">
        <ele>1689.65</ele>
        <time>2015-09-14T14:49:58Z</time>
      </trkpt>
      <trkpt lat="41.84311" lon="9.21086">
        <ele>1687.73</ele>
        <time>2015-09-14T14:50:03Z</time>
      </trkpt>
      <trkpt lat="41.84307" lon="9.21085">
        <ele>1684.85</ele>
        <time>2015-09-14T14:50:11Z</time>
      </trkpt>
      <trkpt lat="41.84306" lon="9.21089">
        <ele>1684.85</ele>
        <time>2015-09-14T14:50:17Z</time>
      </trkpt>
      <trkpt lat="41.84305" lon="9.21094">
        <ele>1684.85</ele>
        <time>2015-09-14T14:50:32Z</time>
      </trkpt>
      <trkpt lat="41.843" lon="9.21091">
        <ele>1682.44</ele>
        <time>2015-09-14T14:50:50Z</time>
      </trkpt>
      <trkpt lat="41.843" lon="9.21093">
        <ele>1681</ele>
        <time>2015-09-14T14:50:52Z</time>
      </trkpt>
      <trkpt lat="41.84299" lon="9.21096">
        <ele>1679.08</ele>
        <time>2015-09-14T14:51:06Z</time>
      </trkpt>
      <trkpt lat="41.84299" lon="9.21095">
        <ele>1682.44</ele>
        <time>2015-09-14T14:51:08Z</time>
      </trkpt>
      <trkpt lat="41.84299" lon="9.21095">
        <ele>1682.44</ele>
        <time>2015-09-14T14:51:09Z</time>
      </trkpt>
      <trkpt lat="41.84298" lon="9.21094">
        <ele>1679.08</ele>
        <time>2015-09-14T14:51:11Z</time>
      </trkpt>
      <trkpt lat="41.84297" lon="9.21093">
        <ele>1675.72</ele>
        <time>2015-09-14T14:51:14Z</time>
      </trkpt>
      <trkpt lat="41.84297" lon="9.21098">
        <ele>1674.27</ele>
        <time>2015-09-14T14:51:32Z</time>
      </trkpt>
      <trkpt lat="41.84296" lon="9.21099">
        <ele>1675.72</ele>
        <time>2015-09-14T14:51:37Z</time>
      </trkpt>
      <trkpt lat="41.84294" lon="9.21099">
        <ele>1673.31</ele>
        <time>2015-09-14T14:51:44Z</time>
      </trkpt>
      <trkpt lat="41.84294" lon="9.21099">
        <ele>1674.75</ele>
        <time>2015-09-14T14:51:46Z</time>
      </trkpt>
      <trkpt lat="41.84293" lon="9.21101">
        <ele>1672.35</ele>
        <time>2015-09-14T14:51:48Z</time>
      </trkpt>
      <trkpt lat="41.84291" lon="9.21102">
        <ele>1669.95</ele>
        <time>2015-09-14T14:52:06Z</time>
      </trkpt>
      <trkpt lat="41.84289" lon="9.21102">
        <ele>1667.06</ele>
        <time>2015-09-14T14:52:13Z</time>
      </trkpt>
      <trkpt lat="41.84283" lon="9.21103">
        <ele>1667.06</ele>
        <time>2015-09-14T14:52:24Z</time>
      </trkpt>
      <trkpt lat="41.84282" lon="9.21106">
        <ele>1663.7</ele>
        <time>2015-09-14T14:52:33Z</time>
      </trkpt>
      <trkpt lat="41.84282" lon="9.21107">
        <ele>1666.1</ele>
        <time>2015-09-14T14:52:35Z</time>
      </trkpt>
      <trkpt lat="41.84281" lon="9.21107">
        <ele>1663.7</ele>
        <time>2015-09-14T14:52:37Z</time>
      </trkpt>
      <trkpt lat="41.84282" lon="9.21108">
        <ele>1666.1</ele>
        <time>2015-09-14T14:52:39Z</time>
      </trkpt>
      <trkpt lat="41.84282" lon="9.21112">
        <ele>1666.1</ele>
        <time>2015-09-14T14:52:47Z</time>
      </trkpt>
      <trkpt lat="41.84279" lon="9.21112">
        <ele>1663.22</ele>
        <time>2015-09-14T14:53:04Z</time>
      </trkpt>
      <trkpt lat="41.84277" lon="9.21111">
        <ele>1661.3</ele>
        <time>2015-09-14T14:53:11Z</time>
      </trkpt>
      <trkpt lat="41.84274" lon="9.21114">
        <ele>1657.93</ele>
        <time>2015-09-14T14:53:27Z</time>
      </trkpt>
      <trkpt lat="41.84274" lon="9.21115">
        <ele>1657.93</ele>
        <time>2015-09-14T14:53:28Z</time>
      </trkpt>
      <trkpt lat="41.84272" lon="9.21118">
        <ele>1656.97</ele>
        <time>2015-09-14T14:53:34Z</time>
      </trkpt>
      <trkpt lat="41.84269" lon="9.21122">
        <ele>1656.97</ele>
        <time>2015-09-14T14:53:45Z</time>
      </trkpt>
      <trkpt lat="41.84268" lon="9.21122">
        <ele>1653.12</ele>
        <time>2015-09-14T14:53:47Z</time>
      </trkpt>
      <trkpt lat="41.84268" lon="9.21122">
        <ele>1653.12</ele>
        <time>2015-09-14T14:53:48Z</time>
      </trkpt>
      <trkpt lat="41.84267" lon="9.2112">
        <ele>1652.64</ele>
        <time>2015-09-14T14:53:54Z</time>
      </trkpt>
      <trkpt lat="41.84263" lon="9.21117">
        <ele>1648.8</ele>
        <time>2015-09-14T14:54:03Z</time>
      </trkpt>
      <trkpt lat="41.84262" lon="9.21118">
        <ele>1650.24</ele>
        <time>2015-09-14T14:54:06Z</time>
      </trkpt>
      <trkpt lat="41.84261" lon="9.2112">
        <ele>1651.2</ele>
        <time>2015-09-14T14:54:13Z</time>
      </trkpt>
      <trkpt lat="41.8426" lon="9.2112">
        <ele>1649.76</ele>
        <time>2015-09-14T14:54:17Z</time>
      </trkpt>
      <trkpt lat="41.84259" lon="9.2112">
        <ele>1646.88</ele>
        <time>2015-09-14T14:54:25Z</time>
      </trkpt>
      <trkpt lat="41.84258" lon="9.21123">
        <ele>1644.95</ele>
        <time>2015-09-14T14:54:33Z</time>
      </trkpt>
      <trkpt lat="41.84254" lon="9.2113">
        <ele>1641.11</ele>
        <time>2015-09-14T14:54:49Z</time>
      </trkpt>
      <trkpt lat="41.84254" lon="9.2113">
        <ele>1644.95</ele>
        <time>2015-09-14T14:54:54Z</time>
      </trkpt>
      <trkpt lat="41.84253" lon="9.2113">
        <ele>1644.95</ele>
        <time>2015-09-14T14:54:55Z</time>
      </trkpt>
      <trkpt lat="41.84253" lon="9.21129">
        <ele>1640.63</ele>
        <time>2015-09-14T14:54:57Z</time>
      </trkpt>
      <trkpt lat="41.84253" lon="9.21129">
        <ele>1640.63</ele>
        <time>2015-09-14T14:54:58Z</time>
      </trkpt>
      <trkpt lat="41.84252" lon="9.21131">
        <ele>1641.59</ele>
        <time>2015-09-14T14:55:06Z</time>
      </trkpt>
      <trkpt lat="41.84249" lon="9.21131">
        <ele>1641.59</ele>
        <time>2015-09-14T14:55:16Z</time>
      </trkpt>
      <trkpt lat="41.84247" lon="9.21128">
        <ele>1638.22</ele>
        <time>2015-09-14T14:55:28Z</time>
      </trkpt>
      <trkpt lat="41.84246" lon="9.21129">
        <ele>1636.78</ele>
        <time>2015-09-14T14:55:30Z</time>
      </trkpt>
      <trkpt lat="41.84241" lon="9.21133">
        <ele>1633.42</ele>
        <time>2015-09-14T14:55:48Z</time>
      </trkpt>
      <trkpt lat="41.84234" lon="9.2113">
        <ele>1631.01</ele>
        <time>2015-09-14T14:56:02Z</time>
      </trkpt>
      <trkpt lat="41.84229" lon="9.21127">
        <ele>1627.65</ele>
        <time>2015-09-14T14:56:19Z</time>
      </trkpt>
      <trkpt lat="41.84222" lon="9.21132">
        <ele>1625.73</ele>
        <time>2015-09-14T14:56:37Z</time>
      </trkpt>
      <trkpt lat="41.84219" lon="9.21124">
        <ele>1623.32</ele>
        <time>2015-09-14T14:56:57Z</time>
      </trkpt>
      <trkpt lat="41.84215" lon="9.21116">
        <ele>1621.88</ele>
        <time>2015-09-14T14:57:13Z</time>
      </trkpt>
      <trkpt lat="41.84214" lon="9.21119">
        <ele>1619</ele>
        <time>2015-09-14T14:57:17Z</time>
      </trkpt>
      <trkpt lat="41.84213" lon="9.21119">
        <ele>1617.56</ele>
        <time>2015-09-14T14:57:19Z</time>
      </trkpt>
      <trkpt lat="41.84212" lon="9.21123">
        <ele>1619</ele>
        <time>2015-09-14T14:57:23Z</time>
      </trkpt>
      <trkpt lat="41.84212" lon="9.21125">
        <ele>1616.59</ele>
        <time>2015-09-14T14:57:27Z</time>
      </trkpt>
      <trkpt lat="41.84206" lon="9.21124">
        <ele>1614.19</ele>
        <time>2015-09-14T14:57:44Z</time>
      </trkpt>
      <trkpt lat="41.84205" lon="9.21124">
        <ele>1616.11</ele>
        <time>2015-09-14T14:57:47Z</time>
      </trkpt>
      <trkpt lat="41.84202" lon="9.21127">
        <ele>1613.23</ele>
        <time>2015-09-14T14:57:55Z</time>
      </trkpt>
      <trkpt lat="41.84202" lon="9.21132">
        <ele>1613.71</ele>
        <time>2015-09-14T14:58:09Z</time>
      </trkpt>
      <trkpt lat="41.842" lon="9.21135">
        <ele>1611.79</ele>
        <time>2015-09-14T14:58:24Z</time>
      </trkpt>
      <trkpt lat="41.84197" lon="9.21137">
        <ele>1608.42</ele>
        <time>2015-09-14T14:58:34Z</time>
      </trkpt>
      <trkpt lat="41.84192" lon="9.21143">
        <ele>1605.54</ele>
        <time>2015-09-14T14:58:49Z</time>
      </trkpt>
      <trkpt lat="41.84191" lon="9.21144">
        <ele>1604.58</ele>
        <time>2015-09-14T14:58:51Z</time>
      </trkpt>
      <trkpt lat="41.84188" lon="9.21155">
        <ele>1604.1</ele>
        <time>2015-09-14T14:59:10Z</time>
      </trkpt>
      <trkpt lat="41.84185" lon="9.21163">
        <ele>1601.21</ele>
        <time>2015-09-14T14:59:28Z</time>
      </trkpt>
      <trkpt lat="41.8418" lon="9.21172">
        <ele>1598.81</ele>
        <time>2015-09-14T14:59:45Z</time>
      </trkpt>
      <trkpt lat="41.84177" lon="9.21173">
        <ele>1595.93</ele>
        <time>2015-09-14T14:59:54Z</time>
      </trkpt>
      <trkpt lat="41.84175" lon="9.21178">
        <ele>1595.45</ele>
        <time>2015-09-14T15:00:08Z</time>
      </trkpt>
      <trkpt lat="41.84174" lon="9.21178">
        <ele>1593.52</ele>
        <time>2015-09-14T15:00:13Z</time>
      </trkpt>
      <trkpt lat="41.8417" lon="9.21183">
        <ele>1590.64</ele>
        <time>2015-09-14T15:00:28Z</time>
      </trkpt>
      <trkpt lat="41.84169" lon="9.21183">
        <ele>1591.6</ele>
        <time>2015-09-14T15:00:33Z</time>
      </trkpt>
      <trkpt lat="41.84167" lon="9.21183">
        <ele>1590.16</ele>
        <time>2015-09-14T15:00:42Z</time>
      </trkpt>
      <trkpt lat="41.84171" lon="9.21193">
        <ele>1586.79</ele>
        <time>2015-09-14T15:00:57Z</time>
      </trkpt>
      <trkpt lat="41.8417" lon="9.21208">
        <ele>1585.83</ele>
        <time>2015-09-14T15:01:14Z</time>
      </trkpt>
      <trkpt lat="41.8417" lon="9.21212">
        <ele>1587.27</ele>
        <time>2015-09-14T15:01:18Z</time>
      </trkpt>
      <trkpt lat="41.8417" lon="9.21212">
        <ele>1583.91</ele>
        <time>2015-09-14T15:01:19Z</time>
      </trkpt>
      <trkpt lat="41.8417" lon="9.21213">
        <ele>1583.91</ele>
        <time>2015-09-14T15:01:20Z</time>
      </trkpt>
      <trkpt lat="41.84176" lon="9.21226">
        <ele>1581.03</ele>
        <time>2015-09-14T15:01:37Z</time>
      </trkpt>
      <trkpt lat="41.84184" lon="9.21238">
        <ele>1580.54</ele>
        <time>2015-09-14T15:01:54Z</time>
      </trkpt>
      <trkpt lat="41.84187" lon="9.21248">
        <ele>1579.58</ele>
        <time>2015-09-14T15:02:11Z</time>
      </trkpt>
      <trkpt lat="41.84189" lon="9.21255">
        <ele>1578.62</ele>
        <time>2015-09-14T15:02:26Z</time>
      </trkpt>
      <trkpt lat="41.8419" lon="9.21268">
        <ele>1576.22</ele>
        <time>2015-09-14T15:02:48Z</time>
      </trkpt>
      <trkpt lat="41.8419" lon="9.21277">
        <ele>1573.33</ele>
        <time>2015-09-14T15:03:07Z</time>
      </trkpt>
      <trkpt lat="41.84187" lon="9.21295">
        <ele>1571.41</ele>
        <time>2015-09-14T15:03:27Z</time>
      </trkpt>
      <trkpt lat="41.84187" lon="9.21312">
        <ele>1569.01</ele>
        <time>2015-09-14T15:03:46Z</time>
      </trkpt>
      <trkpt lat="41.84187" lon="9.21324">
        <ele>1568.05</ele>
        <time>2015-09-14T15:04:04Z</time>
      </trkpt>
      <trkpt lat="41.84189" lon="9.21332">
        <ele>1569.49</ele>
        <time>2015-09-14T15:04:15Z</time>
      </trkpt>
      <trkpt lat="41.84188" lon="9.21348">
        <ele>1567.57</ele>
        <time>2015-09-14T15:04:34Z</time>
      </trkpt>
      <trkpt lat="41.84186" lon="9.21362">
        <ele>1567.57</ele>
        <time>2015-09-14T15:04:54Z</time>
      </trkpt>
      <trkpt lat="41.84183" lon="9.2137">
        <ele>1564.68</ele>
        <time>2015-09-14T15:05:11Z</time>
      </trkpt>
      <trkpt lat="41.84178" lon="9.21377">
        <ele>1561.8</ele>
        <time>2015-09-14T15:05:24Z</time>
      </trkpt>
      <trkpt lat="41.84176" lon="9.21386">
        <ele>1559.88</ele>
        <time>2015-09-14T15:05:41Z</time>
      </trkpt>
      <trkpt lat="41.84171" lon="9.21398">
        <ele>1556.51</ele>
        <time>2015-09-14T15:05:59Z</time>
      </trkpt>
      <trkpt lat="41.8417" lon="9.21399">
        <ele>1556.51</ele>
        <time>2015-09-14T15:06:00Z</time>
      </trkpt>
      <trkpt lat="41.84166" lon="9.2141">
        <ele>1555.07</ele>
        <time>2015-09-14T15:06:18Z</time>
      </trkpt>
      <trkpt lat="41.84163" lon="9.21419">
        <ele>1553.15</ele>
        <time>2015-09-14T15:06:38Z</time>
      </trkpt>
      <trkpt lat="41.84163" lon="9.21421">
        <ele>1555.07</ele>
        <time>2015-09-14T15:06:58Z</time>
      </trkpt>
      <trkpt lat="41.84166" lon="9.21421">
        <ele>1553.63</ele>
        <time>2015-09-14T15:07:27Z</time>
      </trkpt>
      <trkpt lat="41.84167" lon="9.21422">
        <ele>1552.67</ele>
        <time>2015-09-14T15:07:54Z</time>
      </trkpt>
      <trkpt lat="41.8417" lon="9.21418">
        <ele>1554.11</ele>
        <time>2015-09-14T15:08:17Z</time>
      </trkpt>
      <trkpt lat="41.84169" lon="9.21417">
        <ele>1552.67</ele>
        <time>2015-09-14T15:08:23Z</time>
      </trkpt>
      <trkpt lat="41.84168" lon="9.21417">
        <ele>1552.67</ele>
        <time>2015-09-14T15:08:44Z</time>
      </trkpt>
      <trkpt lat="41.84168" lon="9.21415">
        <ele>1552.19</ele>
        <time>2015-09-14T15:09:07Z</time>
      </trkpt>
      <trkpt lat="41.84163" lon="9.21421">
        <ele>1552.67</ele>
        <time>2015-09-14T15:09:26Z</time>
      </trkpt>
      <trkpt lat="41.84164" lon="9.21439">
        <ele>1552.67</ele>
        <time>2015-09-14T15:09:42Z</time>
      </trkpt>
      <trkpt lat="41.84163" lon="9.21441">
        <ele>1551.22</ele>
        <time>2015-09-14T15:09:45Z</time>
      </trkpt>
      <trkpt lat="41.84166" lon="9.21454">
        <ele>1551.71</ele>
        <time>2015-09-14T15:10:00Z</time>
      </trkpt>
      <trkpt lat="41.84171" lon="9.21467">
        <ele>1553.63</ele>
        <time>2015-09-14T15:10:16Z</time>
      </trkpt>
      <trkpt lat="41.84172" lon="9.21469">
        <ele>1554.11</ele>
        <time>2015-09-14T15:10:27Z</time>
      </trkpt>
      <trkpt lat="41.84172" lon="9.21469">
        <ele>1552.67</ele>
        <time>2015-09-14T15:10:31Z</time>
      </trkpt>
      <trkpt lat="41.8417" lon="9.21471">
        <ele>1551.22</ele>
        <time>2015-09-14T15:10:35Z</time>
      </trkpt>
      <trkpt lat="41.8417" lon="9.21473">
        <ele>1552.67</ele>
        <time>2015-09-14T15:10:37Z</time>
      </trkpt>
      <trkpt lat="41.84166" lon="9.21466">
        <ele>1551.22</ele>
        <time>2015-09-14T15:10:49Z</time>
      </trkpt>
      <trkpt lat="41.84164" lon="9.21466">
        <ele>1550.26</ele>
        <time>2015-09-14T15:10:54Z</time>
      </trkpt>
      <trkpt lat="41.84162" lon="9.21472">
        <ele>1548.34</ele>
        <time>2015-09-14T15:11:02Z</time>
      </trkpt>
      <trkpt lat="41.84151" lon="9.21464">
        <ele>1546.9</ele>
        <time>2015-09-14T15:11:17Z</time>
      </trkpt>
      <trkpt lat="41.84143" lon="9.21447">
        <ele>1544.98</ele>
        <time>2015-09-14T15:11:40Z</time>
      </trkpt>
      <trkpt lat="41.84144" lon="9.21441">
        <ele>1546.9</ele>
        <time>2015-09-14T15:12:00Z</time>
      </trkpt>
      <trkpt lat="41.84145" lon="9.2144">
        <ele>1546.9</ele>
        <time>2015-09-14T15:12:19Z</time>
      </trkpt>
      <trkpt lat="41.84144" lon="9.21442">
        <ele>1545.46</ele>
        <time>2015-09-14T15:12:55Z</time>
      </trkpt>
      <trkpt lat="41.84141" lon="9.21438">
        <ele>1545.94</ele>
        <time>2015-09-14T15:13:18Z</time>
      </trkpt>
      <trkpt lat="41.8414" lon="9.21438">
        <ele>1546.42</ele>
        <time>2015-09-14T15:13:53Z</time>
      </trkpt>
      <trkpt lat="41.84143" lon="9.2144">
        <ele>1546.42</ele>
        <time>2015-09-14T15:14:15Z</time>
      </trkpt>
      <trkpt lat="41.8414" lon="9.21438">
        <ele>1546.9</ele>
        <time>2015-09-14T15:14:29Z</time>
      </trkpt>
      <trkpt lat="41.84138" lon="9.21437">
        <ele>1545.94</ele>
        <time>2015-09-14T15:19:31Z</time>
      </trkpt>
      <trkpt lat="41.84138" lon="9.21437">
        <ele>1544.5</ele>
        <time>2015-09-14T15:19:34Z</time>
      </trkpt>
      <trkpt lat="41.84138" lon="9.21437">
        <ele>1547.38</ele>
        <time>2015-09-14T15:19:35Z</time>
      </trkpt>
      <trkpt lat="41.84139" lon="9.21437">
        <ele>1545.94</ele>
        <time>2015-09-14T15:19:36Z</time>
      </trkpt>
      <trkpt lat="41.84141" lon="9.21439">
        <ele>1545.46</ele>
        <time>2015-09-14T15:20:04Z</time>
      </trkpt>
      <trkpt lat="41.84139" lon="9.21437">
        <ele>1546.42</ele>
        <time>2015-09-14T15:20:16Z</time>
      </trkpt>
      <trkpt lat="41.84139" lon="9.21437">
        <ele>1544.98</ele>
        <time>2015-09-14T15:20:37Z</time>
      </trkpt>
      <trkpt lat="41.84138" lon="9.21437">
        <ele>1547.86</ele>
        <time>2015-09-14T15:21:04Z</time>
      </trkpt>
      <trkpt lat="41.84142" lon="9.21443">
        <ele>1546.42</ele>
        <time>2015-09-14T15:21:25Z</time>
      </trkpt>
      <trkpt lat="41.84142" lon="9.21445">
        <ele>1545.94</ele>
        <time>2015-09-14T15:21:45Z</time>
      </trkpt>
      <trkpt lat="41.8414" lon="9.21442">
        <ele>1545.46</ele>
        <time>2015-09-14T15:21:54Z</time>
      </trkpt>
      <trkpt lat="41.84138" lon="9.21441">
        <ele>1544.98</ele>
        <time>2015-09-14T15:21:56Z</time>
      </trkpt>
      <trkpt lat="41.84138" lon="9.21431">
        <ele>1544.98</ele>
        <time>2015-09-14T15:22:04Z</time>
      </trkpt>
      <trkpt lat="41.84145" lon="9.21415">
        <ele>1544.98</ele>
        <time>2015-09-14T15:22:20Z</time>
      </trkpt>
      <trkpt lat="41.84152" lon="9.21408">
        <ele>1547.86</ele>
        <time>2015-09-14T15:22:35Z</time>
      </trkpt>
      <trkpt lat="41.84156" lon="9.21412">
        <ele>1549.3</ele>
        <time>2015-09-14T15:22:48Z</time>
      </trkpt>
      <trkpt lat="41.84159" lon="9.2141">
        <ele>1551.22</ele>
        <time>2015-09-14T15:23:04Z</time>
      </trkpt>
      <trkpt lat="41.84161" lon="9.21411">
        <ele>1552.67</ele>
        <time>2015-09-14T15:23:20Z</time>
      </trkpt>
      <trkpt lat="41.84163" lon="9.21416">
        <ele>1554.59</ele>
        <time>2015-09-14T15:23:35Z</time>
      </trkpt>
      <trkpt lat="41.84164" lon="9.21421">
        <ele>1554.11</ele>
        <time>2015-09-14T15:23:52Z</time>
      </trkpt>
      <trkpt lat="41.84164" lon="9.21423">
        <ele>1553.15</ele>
        <time>2015-09-14T15:24:11Z</time>
      </trkpt>
      <trkpt lat="41.84164" lon="9.21421">
        <ele>1553.15</ele>
        <time>2015-09-14T15:24:35Z</time>
      </trkpt>
      <trkpt lat="41.84163" lon="9.21421">
        <ele>1552.67</ele>
        <time>2015-09-14T15:24:52Z</time>
      </trkpt>
      <trkpt lat="41.84163" lon="9.21421">
        <ele>1552.67</ele>
        <time>2015-09-14T15:24:53Z</time>
      </trkpt>
      <trkpt lat="41.84165" lon="9.2142">
        <ele>1552.19</ele>
        <time>2015-09-14T15:25:13Z</time>
      </trkpt>
      <trkpt lat="41.84164" lon="9.21416">
        <ele>1551.71</ele>
        <time>2015-09-14T15:25:35Z</time>
      </trkpt>
      <trkpt lat="41.84165" lon="9.21422">
        <ele>1553.15</ele>
        <time>2015-09-14T15:25:59Z</time>
      </trkpt>
      <trkpt lat="41.84165" lon="9.21422">
        <ele>1551.71</ele>
        <time>2015-09-14T15:26:04Z</time>
      </trkpt>
      <trkpt lat="41.84164" lon="9.21417">
        <ele>1551.22</ele>
        <time>2015-09-14T15:26:32Z</time>
      </trkpt>
      <trkpt lat="41.84165" lon="9.21417">
        <ele>1551.22</ele>
        <time>2015-09-14T15:26:50Z</time>
      </trkpt>
      <trkpt lat="41.84163" lon="9.21417">
        <ele>1552.19</ele>
        <time>2015-09-14T15:27:13Z</time>
      </trkpt>
      <trkpt lat="41.84163" lon="9.21419">
        <ele>1552.19</ele>
        <time>2015-09-14T15:27:27Z</time>
      </trkpt>
      <trkpt lat="41.84163" lon="9.21417">
        <ele>1550.74</ele>
        <time>2015-09-14T15:27:42Z</time>
      </trkpt>
      <trkpt lat="41.84164" lon="9.21419">
        <ele>1550.26</ele>
        <time>2015-09-14T15:27:57Z</time>
      </trkpt>
      <trkpt lat="41.84164" lon="9.21419">
        <ele>1551.22</ele>
        <time>2015-09-14T15:28:09Z</time>
      </trkpt>
      <trkpt lat="41.84164" lon="9.21419">
        <ele>1552.67</ele>
        <time>2015-09-14T15:28:11Z</time>
      </trkpt>
      <trkpt lat="41.84165" lon="9.21422">
        <ele>1551.71</ele>
        <time>2015-09-14T15:28:23Z</time>
      </trkpt>
      <trkpt lat="41.84164" lon="9.21419">
        <ele>1550.26</ele>
        <time>2015-09-14T15:28:41Z</time>
      </trkpt>
      <trkpt lat="41.84163" lon="9.21418">
        <ele>1549.3</ele>
        <time>2015-09-14T15:28:59Z</time>
      </trkpt>
      <trkpt lat="41.84163" lon="9.21418">
        <ele>1549.78</ele>
        <time>2015-09-14T15:29:20Z</time>
      </trkpt>
      <trkpt lat="41.84164" lon="9.21417">
        <ele>1549.78</ele>
        <time>2015-09-14T15:29:42Z</time>
      </trkpt>
      <trkpt lat="41.84164" lon="9.21417">
        <ele>1549.3</ele>
        <time>2015-09-14T15:29:58Z</time>
      </trkpt>
      <trkpt lat="41.84164" lon="9.21417">
        <ele>1549.3</ele>
        <time>2015-09-14T15:30:14Z</time>
      </trkpt>
      <trkpt lat="41.84164" lon="9.21419">
        <ele>1550.74</ele>
        <time>2015-09-14T15:30:22Z</time>
      </trkpt>
      <trkpt lat="41.84165" lon="9.21419">
        <ele>1551.22</ele>
        <time>2015-09-14T15:30:47Z</time>
      </trkpt>
      <trkpt lat="41.84165" lon="9.2142">
        <ele>1549.78</ele>
        <time>2015-09-14T15:31:14Z</time>
      </trkpt>
      <trkpt lat="41.84165" lon="9.21417">
        <ele>1544.01</ele>
        <time>2015-09-14T15:31:31Z</time>
      </trkpt>
      <trkpt lat="41.84165" lon="9.21417">
        <ele>1555.07</ele>
        <time>2015-09-14T15:31:32Z</time>
      </trkpt>
      <trkpt lat="41.84165" lon="9.21418">
        <ele>1550.26</ele>
        <time>2015-09-14T15:31:33Z</time>
      </trkpt>
      <trkpt lat="41.84167" lon="9.21416">
        <ele>1550.26</ele>
        <time>2015-09-14T15:31:56Z</time>
      </trkpt>
      <trkpt lat="41.84166" lon="9.21418">
        <ele>1550.26</ele>
        <time>2015-09-14T15:32:13Z</time>
      </trkpt>
      <trkpt lat="41.84165" lon="9.21415">
        <ele>1551.22</ele>
        <time>2015-09-14T15:32:35Z</time>
      </trkpt>
      <trkpt lat="41.84167" lon="9.2142">
        <ele>1551.71</ele>
        <time>2015-09-14T15:32:55Z</time>
      </trkpt>
      <trkpt lat="41.84164" lon="9.2142">
        <ele>1551.71</ele>
        <time>2015-09-14T15:33:13Z</time>
      </trkpt>
      <trkpt lat="41.84166" lon="9.21418">
        <ele>1552.19</ele>
        <time>2015-09-14T15:33:34Z</time>
      </trkpt>
      <trkpt lat="41.84166" lon="9.21418">
        <ele>1551.71</ele>
        <time>2015-09-14T15:33:54Z</time>
      </trkpt>
      <trkpt lat="41.84163" lon="9.21418">
        <ele>1549.78</ele>
        <time>2015-09-14T15:34:10Z</time>
      </trkpt>
      <trkpt lat="41.84164" lon="9.21415">
        <ele>1550.26</ele>
        <time>2015-09-14T15:34:24Z</time>
      </trkpt>
      <trkpt lat="41.84164" lon="9.2142">
        <ele>1550.26</ele>
        <time>2015-09-14T15:34:58Z</time>
      </trkpt>
      <trkpt lat="41.84164" lon="9.21421">
        <ele>1548.34</ele>
        <time>2015-09-14T15:35:02Z</time>
      </trkpt>
      <trkpt lat="41.84164" lon="9.21421">
        <ele>1550.26</ele>
        <time>2015-09-14T15:35:04Z</time>
      </trkpt>
      <trkpt lat="41.84164" lon="9.21417">
        <ele>1549.78</ele>
        <time>2015-09-14T15:35:47Z</time>
      </trkpt>
      <trkpt lat="41.84163" lon="9.2142">
        <ele>1551.22</ele>
        <time>2015-09-14T15:36:17Z</time>
      </trkpt>
      <trkpt lat="41.84163" lon="9.21421">
        <ele>1549.78</ele>
        <time>2015-09-14T15:36:38Z</time>
      </trkpt>
      <trkpt lat="41.84163" lon="9.21422">
        <ele>1551.22</ele>
        <time>2015-09-14T15:36:45Z</time>
      </trkpt>
      <trkpt lat="41.84161" lon="9.21419">
        <ele>1557.95</ele>
        <time>2015-09-14T15:37:08Z</time>
      </trkpt>
      <trkpt lat="41.84161" lon="9.21419">
        <ele>1552.19</ele>
        <time>2015-09-14T15:37:09Z</time>
      </trkpt>
      <trkpt lat="41.84161" lon="9.21418">
        <ele>1551.22</ele>
        <time>2015-09-14T15:37:11Z</time>
      </trkpt>
      <trkpt lat="41.84161" lon="9.21419">
        <ele>1545.46</ele>
        <time>2015-09-14T15:37:17Z</time>
      </trkpt>
      <trkpt lat="41.84161" lon="9.21419">
        <ele>1549.78</ele>
        <time>2015-09-14T15:37:18Z</time>
      </trkpt>
      <trkpt lat="41.84162" lon="9.21417">
        <ele>1554.59</ele>
        <time>2015-09-14T15:37:19Z</time>
      </trkpt>
      <trkpt lat="41.84162" lon="9.21417">
        <ele>1551.22</ele>
        <time>2015-09-14T15:37:20Z</time>
      </trkpt>
      <trkpt lat="41.84163" lon="9.21419">
        <ele>1551.71</ele>
        <time>2015-09-14T15:37:47Z</time>
      </trkpt>
      <trkpt lat="41.84156" lon="9.21423">
        <ele>1551.22</ele>
        <time>2015-09-14T15:38:09Z</time>
      </trkpt>
      <trkpt lat="41.84162" lon="9.21419">
        <ele>1548.82</ele>
        <time>2015-09-14T15:38:13Z</time>
      </trkpt>
      <trkpt lat="41.84163" lon="9.21418">
        <ele>1550.26</ele>
        <time>2015-09-14T15:38:15Z</time>
      </trkpt>
      <trkpt lat="41.84165" lon="9.21423">
        <ele>1551.22</ele>
        <time>2015-09-14T15:38:39Z</time>
      </trkpt>
      <trkpt lat="41.84163" lon="9.21421">
        <ele>1550.74</ele>
        <time>2015-09-14T15:39:01Z</time>
      </trkpt>
      <trkpt lat="41.84164" lon="9.2142">
        <ele>1550.26</ele>
        <time>2015-09-14T15:39:33Z</time>
      </trkpt>
      <trkpt lat="41.84164" lon="9.21422">
        <ele>1549.78</ele>
        <time>2015-09-14T15:39:47Z</time>
      </trkpt>
      <trkpt lat="41.84163" lon="9.21421">
        <ele>1551.22</ele>
        <time>2015-09-14T15:39:50Z</time>
      </trkpt>
      <trkpt lat="41.84165" lon="9.21418">
        <ele>1551.22</ele>
        <time>2015-09-14T15:40:17Z</time>
      </trkpt>
      <trkpt lat="41.84163" lon="9.21422">
        <ele>1551.71</ele>
        <time>2015-09-14T15:40:51Z</time>
      </trkpt>
      <trkpt lat="41.84162" lon="9.2142">
        <ele>1551.71</ele>
        <time>2015-09-14T15:41:05Z</time>
      </trkpt>
      <trkpt lat="41.84161" lon="9.21416">
        <ele>1550.74</ele>
        <time>2015-09-14T15:41:11Z</time>
      </trkpt>
      <trkpt lat="41.84165" lon="9.21418">
        <ele>1549.3</ele>
        <time>2015-09-14T15:41:43Z</time>
      </trkpt>
      <trkpt lat="41.84163" lon="9.21421">
        <ele>1548.82</ele>
        <time>2015-09-14T15:42:08Z</time>
      </trkpt>
      <trkpt lat="41.84163" lon="9.21423">
        <ele>1550.26</ele>
        <time>2015-09-14T15:42:35Z</time>
      </trkpt>
      <trkpt lat="41.84166" lon="9.21421">
        <ele>1550.26</ele>
        <time>2015-09-14T15:42:55Z</time>
      </trkpt>
      <trkpt lat="41.84165" lon="9.2142">
        <ele>1551.22</ele>
        <time>2015-09-14T15:43:22Z</time>
      </trkpt>
      <trkpt lat="41.84165" lon="9.2142">
        <ele>1549.78</ele>
        <time>2015-09-14T15:43:24Z</time>
      </trkpt>
      <trkpt lat="41.84166" lon="9.21423">
        <ele>1549.3</ele>
        <time>2015-09-14T15:43:32Z</time>
      </trkpt>
      <trkpt lat="41.84162" lon="9.2142">
        <ele>1548.34</ele>
        <time>2015-09-14T15:44:03Z</time>
      </trkpt>
      <trkpt lat="41.84162" lon="9.21417">
        <ele>1549.78</ele>
        <time>2015-09-14T15:44:23Z</time>
      </trkpt>
      <trkpt lat="41.84162" lon="9.21418">
        <ele>1550.26</ele>
        <time>2015-09-14T15:44:44Z</time>
      </trkpt>
      <trkpt lat="41.84164" lon="9.21421">
        <ele>1548.82</ele>
        <time>2015-09-14T15:44:54Z</time>
      </trkpt>
      <trkpt lat="41.84163" lon="9.21419">
        <ele>1550.74</ele>
        <time>2015-09-14T15:45:12Z</time>
      </trkpt>
      <trkpt lat="41.84162" lon="9.21411">
        <ele>1549.78</ele>
        <time>2015-09-14T15:45:25Z</time>
      </trkpt>
      <trkpt lat="41.84165" lon="9.2142">
        <ele>1549.3</ele>
        <time>2015-09-14T15:45:47Z</time>
      </trkpt>
      <trkpt lat="41.84162" lon="9.21418">
        <ele>1549.3</ele>
        <time>2015-09-14T15:46:22Z</time>
      </trkpt>
      <trkpt lat="41.84164" lon="9.21418">
        <ele>1549.78</ele>
        <time>2015-09-14T15:46:56Z</time>
      </trkpt>
      <trkpt lat="41.84167" lon="9.21422">
        <ele>1550.26</ele>
        <time>2015-09-14T15:47:21Z</time>
      </trkpt>
      <trkpt lat="41.84166" lon="9.21422">
        <ele>1549.78</ele>
        <time>2015-09-14T15:47:41Z</time>
      </trkpt>
      <trkpt lat="41.84164" lon="9.21417">
        <ele>1551.22</ele>
        <time>2015-09-14T15:47:55Z</time>
      </trkpt>
      <trkpt lat="41.84164" lon="9.21419">
        <ele>1550.26</ele>
        <time>2015-09-14T15:48:19Z</time>
      </trkpt>
      <trkpt lat="41.84165" lon="9.21419">
        <ele>1549.3</ele>
        <time>2015-09-14T15:48:38Z</time>
      </trkpt>
      <trkpt lat="41.84165" lon="9.21419">
        <ele>1550.26</ele>
        <time>2015-09-14T15:48:41Z</time>
      </trkpt>
      <trkpt lat="41.84165" lon="9.21418">
        <ele>1548.82</ele>
        <time>2015-09-14T15:48:58Z</time>
      </trkpt>
      <trkpt lat="41.84164" lon="9.21423">
        <ele>1548.82</ele>
        <time>2015-09-14T15:49:27Z</time>
      </trkpt>
      <trkpt lat="41.84165" lon="9.21421">
        <ele>1547.86</ele>
        <time>2015-09-14T15:49:49Z</time>
      </trkpt>
      <trkpt lat="41.84164" lon="9.2142">
        <ele>1550.26</ele>
        <time>2015-09-14T15:49:52Z</time>
      </trkpt>
      <trkpt lat="41.84165" lon="9.21421">
        <ele>1541.13</ele>
        <time>2015-09-14T15:49:55Z</time>
      </trkpt>
      <trkpt lat="41.84165" lon="9.21421">
        <ele>1552.19</ele>
        <time>2015-09-14T15:49:56Z</time>
      </trkpt>
      <trkpt lat="41.84165" lon="9.21421">
        <ele>1555.07</ele>
        <time>2015-09-14T15:49:57Z</time>
      </trkpt>
      <trkpt lat="41.84165" lon="9.21421">
        <ele>1549.78</ele>
        <time>2015-09-14T15:49:58Z</time>
      </trkpt>
      <trkpt lat="41.84165" lon="9.21421">
        <ele>1549.78</ele>
        <time>2015-09-14T15:49:59Z</time>
      </trkpt>
      <trkpt lat="41.84165" lon="9.21422">
        <ele>1551.22</ele>
        <time>2015-09-14T15:50:16Z</time>
      </trkpt>
      <trkpt lat="41.84164" lon="9.21422">
        <ele>1549.3</ele>
        <time>2015-09-14T15:50:18Z</time>
      </trkpt>
      <trkpt lat="41.84164" lon="9.21423">
        <ele>1550.26</ele>
        <time>2015-09-14T15:50:20Z</time>
      </trkpt>
      <trkpt lat="41.84163" lon="9.21419">
        <ele>1550.26</ele>
        <time>2015-09-14T15:50:42Z</time>
      </trkpt>
      <trkpt lat="41.84163" lon="9.21418">
        <ele>1548.82</ele>
        <time>2015-09-14T15:50:44Z</time>
      </trkpt>
      <trkpt lat="41.84164" lon="9.21417">
        <ele>1550.26</ele>
        <time>2015-09-14T15:50:48Z</time>
      </trkpt>
      <trkpt lat="41.84163" lon="9.21419">
        <ele>1547.86</ele>
        <time>2015-09-14T15:51:10Z</time>
      </trkpt>
      <trkpt lat="41.8416" lon="9.21416">
        <ele>1549.3</ele>
        <time>2015-09-14T15:51:36Z</time>
      </trkpt>
      <trkpt lat="41.84161" lon="9.21416">
        <ele>1549.3</ele>
        <time>2015-09-14T15:52:01Z</time>
      </trkpt>
      <trkpt lat="41.84161" lon="9.21416">
        <ele>1549.3</ele>
        <time>2015-09-14T15:52:24Z</time>
      </trkpt>
      <trkpt lat="41.84161" lon="9.21418">
        <ele>1547.86</ele>
        <time>2015-09-14T15:52:47Z</time>
      </trkpt>
      <trkpt lat="41.84162" lon="9.21419">
        <ele>1547.86</ele>
        <time>2015-09-14T15:52:57Z</time>
      </trkpt>
      <trkpt lat="41.84161" lon="9.21421">
        <ele>1549.78</ele>
        <time>2015-09-14T15:53:11Z</time>
      </trkpt>
      <trkpt lat="41.84161" lon="9.2142">
        <ele>1550.26</ele>
        <time>2015-09-14T15:53:21Z</time>
      </trkpt>
    </trkseg>
  </trk>
</gpx>